<?xml version="1.0" encoding="UTF-8" standalone="no" ?>
<gpx xmlns="http://www.topografix.com/GPX/1/1" xmlns:xsi="http://www.w3.org/2001/XMLSchema-instance" xsi:schemaLocation="http://www.topografix.com/GPX/1/1 http://www.topografix.com/GPX/1/1/gpx.xsd" version="1.1" creator="VisuGPX - https://www.visugpx.com">
  <metadata>
    <name>GR®70 Chemin de Stevenson (2021)</name>
    <desc><![CDATA[Randonnée sur le GR®70 Sentier de Stevenson du Puy-en-Velay à Alès via la Haute Loire, la Lozère, l'Ardèche et le Gard. Gîtes d'étapes, Chambres d'hôtes, Maison d'hôtes, Hôtels, Camping, Refuges, Auberges.

Randonnée sur le GR®70 Sentier de Stevenson du Puy-en-Velay à Alès via la Haute Loire, la Lozère, l'Ardèche et le Gard. Gîtes d'étapes, Chambres d'hôtes, Maison d'hôtes, Hôtels, Camping, Refuges, Auberges.]]></desc>
  </metadata>
  <trk>
    <name><![CDATA[GR®70 Chemin de Stevenson (2021)]]></name>
    <cmt><![CDATA[Randonnée sur le GR®70 Sentier de Stevenson du Puy-en-Velay à Alès via la Haute Loire, la Lozère, l'Ardèche et le Gard. Gîtes d'étapes, Chambres d'hôtes, Maison d'hôtes, Hôtels, Camping, Refuges, Auberges.]]></cmt>
    <desc><![CDATA[Randonnée sur le GR®70 Sentier de Stevenson du Puy-en-Velay à Alès via la Haute Loire, la Lozère, l'Ardèche et le Gard. Gîtes d'étapes, Chambres d'hôtes, Maison d'hôtes, Hôtels, Camping, Refuges, Auberges.]]></desc>
    <trkseg>
      <trkpt lat="44.88562" lon="3.87723">
        <ele>1035.212</ele>
        <time>2021-09-29T07:57:41Z</time>
      </trkpt>
      <trkpt lat="44.88562" lon="3.87706">
        <ele>1036.727</ele>
        <time>2021-09-29T07:58:21Z</time>
      </trkpt>
      <trkpt lat="44.88562" lon="3.87696">
        <ele>1037.619</ele>
        <time>2021-09-29T07:59:01Z</time>
      </trkpt>
      <trkpt lat="44.88564" lon="3.8769">
        <ele>1038.057</ele>
        <time>2021-09-29T07:59:41Z</time>
      </trkpt>
      <trkpt lat="44.88567" lon="3.87687">
        <ele>1038.05</ele>
        <time>2021-09-29T08:00:21Z</time>
      </trkpt>
      <trkpt lat="44.88568" lon="3.87674">
        <ele>1038.722</ele>
        <time>2021-09-29T08:01:01Z</time>
      </trkpt>
      <trkpt lat="44.88562" lon="3.87663">
        <ele>1039.862</ele>
        <time>2021-09-29T08:01:41Z</time>
      </trkpt>
      <trkpt lat="44.8855" lon="3.87638">
        <ele>1041.659</ele>
        <time>2021-09-29T08:02:21Z</time>
      </trkpt>
      <trkpt lat="44.88535" lon="3.87619">
        <ele>1041.103</ele>
        <time>2021-09-29T08:03:01Z</time>
      </trkpt>
      <trkpt lat="44.88529" lon="3.87611">
        <ele>1041.023</ele>
        <time>2021-09-29T08:03:41Z</time>
      </trkpt>
      <trkpt lat="44.88522" lon="3.87596">
        <ele>1041.008</ele>
        <time>2021-09-29T08:04:21Z</time>
      </trkpt>
      <trkpt lat="44.88517" lon="3.87584">
        <ele>1041.463</ele>
        <time>2021-09-29T08:05:01Z</time>
      </trkpt>
      <trkpt lat="44.88514" lon="3.87578">
        <ele>1041.779</ele>
        <time>2021-09-29T08:05:41Z</time>
      </trkpt>
      <trkpt lat="44.8851" lon="3.87573">
        <ele>1042.054</ele>
        <time>2021-09-29T08:06:21Z</time>
      </trkpt>
      <trkpt lat="44.88504" lon="3.87563">
        <ele>1042.676</ele>
        <time>2021-09-29T08:07:01Z</time>
      </trkpt>
      <trkpt lat="44.88502" lon="3.87565">
        <ele>1042.684</ele>
        <time>2021-09-29T08:07:41Z</time>
      </trkpt>
      <trkpt lat="44.88498" lon="3.87567">
        <ele>1042.577</ele>
        <time>2021-09-29T08:08:21Z</time>
      </trkpt>
      <trkpt lat="44.88494" lon="3.87568">
        <ele>1042.359</ele>
        <time>2021-09-29T08:09:01Z</time>
      </trkpt>
      <trkpt lat="44.88479" lon="3.87571">
        <ele>1041.759</ele>
        <time>2021-09-29T08:09:41Z</time>
      </trkpt>
      <trkpt lat="44.88465" lon="3.87574">
        <ele>1041.573</ele>
        <time>2021-09-29T08:10:21Z</time>
      </trkpt>
      <trkpt lat="44.88459" lon="3.87575">
        <ele>1041.685</ele>
        <time>2021-09-29T08:11:01Z</time>
      </trkpt>
      <trkpt lat="44.88455" lon="3.87575">
        <ele>1041.713</ele>
        <time>2021-09-29T08:11:41Z</time>
      </trkpt>
      <trkpt lat="44.88453" lon="3.87575">
        <ele>1041.808</ele>
        <time>2021-09-29T08:12:21Z</time>
      </trkpt>
      <trkpt lat="44.88452" lon="3.87575">
        <ele>1041.825</ele>
        <time>2021-09-29T08:13:01Z</time>
      </trkpt>
      <trkpt lat="44.88446" lon="3.87575">
        <ele>1042.011</ele>
        <time>2021-09-29T08:13:41Z</time>
      </trkpt>
      <trkpt lat="44.88445" lon="3.87564">
        <ele>1042.026</ele>
        <time>2021-09-29T08:14:21Z</time>
      </trkpt>
      <trkpt lat="44.88443" lon="3.87546">
        <ele>1042.458</ele>
        <time>2021-09-29T08:15:01Z</time>
      </trkpt>
      <trkpt lat="44.88442" lon="3.87525">
        <ele>1043.286</ele>
        <time>2021-09-29T08:15:41Z</time>
      </trkpt>
      <trkpt lat="44.88441" lon="3.87504">
        <ele>1044.019</ele>
        <time>2021-09-29T08:16:21Z</time>
      </trkpt>
      <trkpt lat="44.8844" lon="3.87485">
        <ele>1044.731</ele>
        <time>2021-09-29T08:17:01Z</time>
      </trkpt>
      <trkpt lat="44.88438" lon="3.87472">
        <ele>1045.231</ele>
        <time>2021-09-29T08:17:41Z</time>
      </trkpt>
      <trkpt lat="44.88433" lon="3.87459">
        <ele>1045.496</ele>
        <time>2021-09-29T08:18:21Z</time>
      </trkpt>
      <trkpt lat="44.8843" lon="3.87451">
        <ele>1045.531</ele>
        <time>2021-09-29T08:19:01Z</time>
      </trkpt>
      <trkpt lat="44.88423" lon="3.87436">
        <ele>1045.524</ele>
        <time>2021-09-29T08:19:41Z</time>
      </trkpt>
      <trkpt lat="44.88419" lon="3.87425">
        <ele>1045.208</ele>
        <time>2021-09-29T08:20:21Z</time>
      </trkpt>
      <trkpt lat="44.88414" lon="3.87414">
        <ele>1045.157</ele>
        <time>2021-09-29T08:21:01Z</time>
      </trkpt>
      <trkpt lat="44.88413" lon="3.87404">
        <ele>1045.233</ele>
        <time>2021-09-29T08:21:41Z</time>
      </trkpt>
      <trkpt lat="44.88415" lon="3.87384">
        <ele>1045.048</ele>
        <time>2021-09-29T08:22:21Z</time>
      </trkpt>
      <trkpt lat="44.88416" lon="3.87375">
        <ele>1044.66</ele>
        <time>2021-09-29T08:23:01Z</time>
      </trkpt>
      <trkpt lat="44.88419" lon="3.87352">
        <ele>1043.848</ele>
        <time>2021-09-29T08:23:41Z</time>
      </trkpt>
      <trkpt lat="44.88421" lon="3.87339">
        <ele>1043.731</ele>
        <time>2021-09-29T08:24:21Z</time>
      </trkpt>
      <trkpt lat="44.88421" lon="3.87333">
        <ele>1043.793</ele>
        <time>2021-09-29T08:25:01Z</time>
      </trkpt>
      <trkpt lat="44.88422" lon="3.87328">
        <ele>1043.893</ele>
        <time>2021-09-29T08:25:41Z</time>
      </trkpt>
      <trkpt lat="44.88427" lon="3.87288">
        <ele>1044.881</ele>
        <time>2021-09-29T08:26:21Z</time>
      </trkpt>
      <trkpt lat="44.88428" lon="3.87271">
        <ele>1045.561</ele>
        <time>2021-09-29T08:27:01Z</time>
      </trkpt>
      <trkpt lat="44.8843" lon="3.87243">
        <ele>1046.817</ele>
        <time>2021-09-29T08:27:41Z</time>
      </trkpt>
      <trkpt lat="44.88432" lon="3.87227">
        <ele>1047.308</ele>
        <time>2021-09-29T08:28:21Z</time>
      </trkpt>
      <trkpt lat="44.88434" lon="3.87219">
        <ele>1047.426</ele>
        <time>2021-09-29T08:29:01Z</time>
      </trkpt>
      <trkpt lat="44.88435" lon="3.87211">
        <ele>1047.352</ele>
        <time>2021-09-29T08:29:41Z</time>
      </trkpt>
      <trkpt lat="44.88438" lon="3.87192">
        <ele>1047.217</ele>
        <time>2021-09-29T08:30:21Z</time>
      </trkpt>
      <trkpt lat="44.88439" lon="3.87186">
        <ele>1047.239</ele>
        <time>2021-09-29T08:31:01Z</time>
      </trkpt>
      <trkpt lat="44.8844" lon="3.87179">
        <ele>1047.217</ele>
        <time>2021-09-29T08:31:41Z</time>
      </trkpt>
      <trkpt lat="44.88443" lon="3.87167">
        <ele>1047.14</ele>
        <time>2021-09-29T08:32:21Z</time>
      </trkpt>
      <trkpt lat="44.8845" lon="3.87141">
        <ele>1045.722</ele>
        <time>2021-09-29T08:33:01Z</time>
      </trkpt>
      <trkpt lat="44.88453" lon="3.87132">
        <ele>1045.282</ele>
        <time>2021-09-29T08:33:41Z</time>
      </trkpt>
      <trkpt lat="44.88455" lon="3.87123">
        <ele>1044.939</ele>
        <time>2021-09-29T08:34:21Z</time>
      </trkpt>
      <trkpt lat="44.88456" lon="3.87114">
        <ele>1044.701</ele>
        <time>2021-09-29T08:35:01Z</time>
      </trkpt>
      <trkpt lat="44.88454" lon="3.87094">
        <ele>1043.921</ele>
        <time>2021-09-29T08:35:41Z</time>
      </trkpt>
      <trkpt lat="44.88448" lon="3.87061">
        <ele>1043.808</ele>
        <time>2021-09-29T08:36:21Z</time>
      </trkpt>
      <trkpt lat="44.88441" lon="3.87026">
        <ele>1046.311</ele>
        <time>2021-09-29T08:37:01Z</time>
      </trkpt>
      <trkpt lat="44.88436" lon="3.86994">
        <ele>1047.697</ele>
        <time>2021-09-29T08:37:41Z</time>
      </trkpt>
      <trkpt lat="44.88434" lon="3.86967">
        <ele>1047.672</ele>
        <time>2021-09-29T08:38:21Z</time>
      </trkpt>
      <trkpt lat="44.88433" lon="3.86956">
        <ele>1047.214</ele>
        <time>2021-09-29T08:39:01Z</time>
      </trkpt>
      <trkpt lat="44.88433" lon="3.86945">
        <ele>1046.982</ele>
        <time>2021-09-29T08:39:41Z</time>
      </trkpt>
      <trkpt lat="44.88432" lon="3.86935">
        <ele>1046.745</ele>
        <time>2021-09-29T08:40:21Z</time>
      </trkpt>
      <trkpt lat="44.88431" lon="3.86922">
        <ele>1046.627</ele>
        <time>2021-09-29T08:41:01Z</time>
      </trkpt>
      <trkpt lat="44.88429" lon="3.8691">
        <ele>1046.677</ele>
        <time>2021-09-29T08:41:41Z</time>
      </trkpt>
      <trkpt lat="44.88429" lon="3.86901">
        <ele>1046.773</ele>
        <time>2021-09-29T08:42:21Z</time>
      </trkpt>
      <trkpt lat="44.88427" lon="3.86876">
        <ele>1047.485</ele>
        <time>2021-09-29T08:43:01Z</time>
      </trkpt>
      <trkpt lat="44.88426" lon="3.86866">
        <ele>1047.913</ele>
        <time>2021-09-29T08:43:41Z</time>
      </trkpt>
      <trkpt lat="44.88423" lon="3.86846">
        <ele>1049.508</ele>
        <time>2021-09-29T08:44:21Z</time>
      </trkpt>
      <trkpt lat="44.88421" lon="3.86835">
        <ele>1050.565</ele>
        <time>2021-09-29T08:45:01Z</time>
      </trkpt>
      <trkpt lat="44.88417" lon="3.86807">
        <ele>1051.011</ele>
        <time>2021-09-29T08:45:41Z</time>
      </trkpt>
      <trkpt lat="44.88412" lon="3.86782">
        <ele>1051.256</ele>
        <time>2021-09-29T08:46:21Z</time>
      </trkpt>
      <trkpt lat="44.88411" lon="3.86757">
        <ele>1051.848</ele>
        <time>2021-09-29T08:47:01Z</time>
      </trkpt>
      <trkpt lat="44.88411" lon="3.86731">
        <ele>1052.536</ele>
        <time>2021-09-29T08:47:41Z</time>
      </trkpt>
      <trkpt lat="44.8841" lon="3.86708">
        <ele>1052.919</ele>
        <time>2021-09-29T08:48:21Z</time>
      </trkpt>
      <trkpt lat="44.88408" lon="3.86695">
        <ele>1053.071</ele>
        <time>2021-09-29T08:49:01Z</time>
      </trkpt>
      <trkpt lat="44.88408" lon="3.86692">
        <ele>1053.071</ele>
        <time>2021-09-29T08:49:41Z</time>
      </trkpt>
      <trkpt lat="44.88408" lon="3.8669">
        <ele>1053.072</ele>
        <time>2021-09-29T08:50:21Z</time>
      </trkpt>
      <trkpt lat="44.88407" lon="3.86684">
        <ele>1053.013</ele>
        <time>2021-09-29T08:51:01Z</time>
      </trkpt>
      <trkpt lat="44.88403" lon="3.86666">
        <ele>1053.014</ele>
        <time>2021-09-29T08:51:41Z</time>
      </trkpt>
      <trkpt lat="44.88401" lon="3.8665">
        <ele>1053.108</ele>
        <time>2021-09-29T08:52:21Z</time>
      </trkpt>
      <trkpt lat="44.88399" lon="3.8663">
        <ele>1053.385</ele>
        <time>2021-09-29T08:53:01Z</time>
      </trkpt>
      <trkpt lat="44.88395" lon="3.86613">
        <ele>1053.611</ele>
        <time>2021-09-29T08:53:41Z</time>
      </trkpt>
      <trkpt lat="44.88394" lon="3.86606">
        <ele>1053.816</ele>
        <time>2021-09-29T08:54:21Z</time>
      </trkpt>
      <trkpt lat="44.88394" lon="3.86603">
        <ele>1053.948</ele>
        <time>2021-09-29T08:55:01Z</time>
      </trkpt>
      <trkpt lat="44.88394" lon="3.86599">
        <ele>1054.066</ele>
        <time>2021-09-29T08:55:41Z</time>
      </trkpt>
      <trkpt lat="44.88392" lon="3.86579">
        <ele>1054.839</ele>
        <time>2021-09-29T08:56:21Z</time>
      </trkpt>
      <trkpt lat="44.8839" lon="3.86557">
        <ele>1055.971</ele>
        <time>2021-09-29T08:57:01Z</time>
      </trkpt>
      <trkpt lat="44.88387" lon="3.86542">
        <ele>1056.861</ele>
        <time>2021-09-29T08:57:41Z</time>
      </trkpt>
      <trkpt lat="44.88382" lon="3.86529">
        <ele>1057.787</ele>
        <time>2021-09-29T08:58:21Z</time>
      </trkpt>
      <trkpt lat="44.88381" lon="3.86525">
        <ele>1057.942</ele>
        <time>2021-09-29T08:59:01Z</time>
      </trkpt>
      <trkpt lat="44.8838" lon="3.86522">
        <ele>1058.026</ele>
        <time>2021-09-29T08:59:41Z</time>
      </trkpt>
      <trkpt lat="44.88379" lon="3.86517">
        <ele>1058.208</ele>
        <time>2021-09-29T09:00:21Z</time>
      </trkpt>
      <trkpt lat="44.88377" lon="3.86488">
        <ele>1058.726</ele>
        <time>2021-09-29T09:01:01Z</time>
      </trkpt>
      <trkpt lat="44.88376" lon="3.8647">
        <ele>1059.032</ele>
        <time>2021-09-29T09:01:41Z</time>
      </trkpt>
      <trkpt lat="44.88375" lon="3.86455">
        <ele>1059.017</ele>
        <time>2021-09-29T09:02:21Z</time>
      </trkpt>
      <trkpt lat="44.88375" lon="3.86448">
        <ele>1059.069</ele>
        <time>2021-09-29T09:03:01Z</time>
      </trkpt>
      <trkpt lat="44.88374" lon="3.86442">
        <ele>1059.087</ele>
        <time>2021-09-29T09:03:41Z</time>
      </trkpt>
      <trkpt lat="44.88373" lon="3.86428">
        <ele>1059.11</ele>
        <time>2021-09-29T09:04:21Z</time>
      </trkpt>
      <trkpt lat="44.8837" lon="3.86411">
        <ele>1059.782</ele>
        <time>2021-09-29T09:05:01Z</time>
      </trkpt>
      <trkpt lat="44.88364" lon="3.86388">
        <ele>1061.712</ele>
        <time>2021-09-29T09:05:41Z</time>
      </trkpt>
      <trkpt lat="44.8836" lon="3.86372">
        <ele>1062.722</ele>
        <time>2021-09-29T09:06:21Z</time>
      </trkpt>
      <trkpt lat="44.88356" lon="3.86357">
        <ele>1063.362</ele>
        <time>2021-09-29T09:07:01Z</time>
      </trkpt>
      <trkpt lat="44.88353" lon="3.86343">
        <ele>1063.408</ele>
        <time>2021-09-29T09:07:41Z</time>
      </trkpt>
      <trkpt lat="44.88351" lon="3.86339">
        <ele>1063.408</ele>
        <time>2021-09-29T09:08:21Z</time>
      </trkpt>
      <trkpt lat="44.88351" lon="3.86336">
        <ele>1063.46</ele>
        <time>2021-09-29T09:09:01Z</time>
      </trkpt>
      <trkpt lat="44.88348" lon="3.8633">
        <ele>1063.376</ele>
        <time>2021-09-29T09:09:41Z</time>
      </trkpt>
      <trkpt lat="44.88344" lon="3.86317">
        <ele>1063.191</ele>
        <time>2021-09-29T09:10:21Z</time>
      </trkpt>
      <trkpt lat="44.88342" lon="3.86309">
        <ele>1063.233</ele>
        <time>2021-09-29T09:11:01Z</time>
      </trkpt>
      <trkpt lat="44.8834" lon="3.86304">
        <ele>1063.381</ele>
        <time>2021-09-29T09:11:41Z</time>
      </trkpt>
      <trkpt lat="44.88332" lon="3.86284">
        <ele>1064.194</ele>
        <time>2021-09-29T09:12:21Z</time>
      </trkpt>
      <trkpt lat="44.88327" lon="3.86274">
        <ele>1064.746</ele>
        <time>2021-09-29T09:13:01Z</time>
      </trkpt>
      <trkpt lat="44.88324" lon="3.86269">
        <ele>1065.026</ele>
        <time>2021-09-29T09:13:41Z</time>
      </trkpt>
      <trkpt lat="44.88323" lon="3.86266">
        <ele>1065.279</ele>
        <time>2021-09-29T09:14:21Z</time>
      </trkpt>
      <trkpt lat="44.88322" lon="3.86265">
        <ele>1065.305</ele>
        <time>2021-09-29T09:15:01Z</time>
      </trkpt>
      <trkpt lat="44.88314" lon="3.86254">
        <ele>1066.125</ele>
        <time>2021-09-29T09:15:41Z</time>
      </trkpt>
      <trkpt lat="44.8831" lon="3.86248">
        <ele>1066.508</ele>
        <time>2021-09-29T09:16:21Z</time>
      </trkpt>
      <trkpt lat="44.88306" lon="3.86243">
        <ele>1066.745</ele>
        <time>2021-09-29T09:17:01Z</time>
      </trkpt>
      <trkpt lat="44.883" lon="3.86235">
        <ele>1067.121</ele>
        <time>2021-09-29T09:17:41Z</time>
      </trkpt>
      <trkpt lat="44.88298" lon="3.86231">
        <ele>1067.316</ele>
        <time>2021-09-29T09:18:21Z</time>
      </trkpt>
      <trkpt lat="44.88295" lon="3.86225">
        <ele>1067.688</ele>
        <time>2021-09-29T09:19:01Z</time>
      </trkpt>
      <trkpt lat="44.88287" lon="3.8621">
        <ele>1068.936</ele>
        <time>2021-09-29T09:19:41Z</time>
      </trkpt>
      <trkpt lat="44.88281" lon="3.86199">
        <ele>1069.649</ele>
        <time>2021-09-29T09:20:21Z</time>
      </trkpt>
      <trkpt lat="44.88276" lon="3.86187">
        <ele>1069.991</ele>
        <time>2021-09-29T09:21:01Z</time>
      </trkpt>
      <trkpt lat="44.88273" lon="3.86183">
        <ele>1070.021</ele>
        <time>2021-09-29T09:21:41Z</time>
      </trkpt>
      <trkpt lat="44.88271" lon="3.86178">
        <ele>1070.169</ele>
        <time>2021-09-29T09:22:21Z</time>
      </trkpt>
      <trkpt lat="44.88262" lon="3.86159">
        <ele>1070.804</ele>
        <time>2021-09-29T09:23:01Z</time>
      </trkpt>
      <trkpt lat="44.88255" lon="3.86146">
        <ele>1071.424</ele>
        <time>2021-09-29T09:23:41Z</time>
      </trkpt>
      <trkpt lat="44.88254" lon="3.86143">
        <ele>1071.508</ele>
        <time>2021-09-29T09:24:21Z</time>
      </trkpt>
      <trkpt lat="44.8825" lon="3.86126">
        <ele>1072.084</ele>
        <time>2021-09-29T09:25:01Z</time>
      </trkpt>
      <trkpt lat="44.88248" lon="3.86118">
        <ele>1072.29</ele>
        <time>2021-09-29T09:25:41Z</time>
      </trkpt>
      <trkpt lat="44.88246" lon="3.86108">
        <ele>1072.545</ele>
        <time>2021-09-29T09:26:21Z</time>
      </trkpt>
      <trkpt lat="44.88242" lon="3.8609">
        <ele>1072.927</ele>
        <time>2021-09-29T09:27:01Z</time>
      </trkpt>
      <trkpt lat="44.88234" lon="3.86071">
        <ele>1073.795</ele>
        <time>2021-09-29T09:27:41Z</time>
      </trkpt>
      <trkpt lat="44.88223" lon="3.86044">
        <ele>1074.048</ele>
        <time>2021-09-29T09:28:21Z</time>
      </trkpt>
      <trkpt lat="44.88215" lon="3.86018">
        <ele>1074.97</ele>
        <time>2021-09-29T09:29:01Z</time>
      </trkpt>
      <trkpt lat="44.88213" lon="3.86009">
        <ele>1075.41</ele>
        <time>2021-09-29T09:29:41Z</time>
      </trkpt>
      <trkpt lat="44.88209" lon="3.85992">
        <ele>1076.185</ele>
        <time>2021-09-29T09:30:21Z</time>
      </trkpt>
      <trkpt lat="44.88207" lon="3.85982">
        <ele>1076.489</ele>
        <time>2021-09-29T09:31:01Z</time>
      </trkpt>
      <trkpt lat="44.88206" lon="3.85978">
        <ele>1076.517</ele>
        <time>2021-09-29T09:31:41Z</time>
      </trkpt>
      <trkpt lat="44.88205" lon="3.85975">
        <ele>1076.608</ele>
        <time>2021-09-29T09:32:21Z</time>
      </trkpt>
      <trkpt lat="44.88197" lon="3.85945">
        <ele>1076.966</ele>
        <time>2021-09-29T09:33:01Z</time>
      </trkpt>
      <trkpt lat="44.88192" lon="3.85919">
        <ele>1077.912</ele>
        <time>2021-09-29T09:33:41Z</time>
      </trkpt>
      <trkpt lat="44.8819" lon="3.85904">
        <ele>1078.047</ele>
        <time>2021-09-29T09:34:21Z</time>
      </trkpt>
      <trkpt lat="44.88188" lon="3.85895">
        <ele>1078.099</ele>
        <time>2021-09-29T09:35:01Z</time>
      </trkpt>
      <trkpt lat="44.88184" lon="3.85863">
        <ele>1079.357</ele>
        <time>2021-09-29T09:35:41Z</time>
      </trkpt>
      <trkpt lat="44.88175" lon="3.85815">
        <ele>1081.25</ele>
        <time>2021-09-29T09:36:21Z</time>
      </trkpt>
      <trkpt lat="44.8817" lon="3.85778">
        <ele>1081.972</ele>
        <time>2021-09-29T09:37:01Z</time>
      </trkpt>
      <trkpt lat="44.88164" lon="3.85738">
        <ele>1082.672</ele>
        <time>2021-09-29T09:37:41Z</time>
      </trkpt>
      <trkpt lat="44.88159" lon="3.85702">
        <ele>1084.475</ele>
        <time>2021-09-29T09:38:21Z</time>
      </trkpt>
      <trkpt lat="44.88154" lon="3.85682">
        <ele>1086.328</ele>
        <time>2021-09-29T09:39:01Z</time>
      </trkpt>
      <trkpt lat="44.88151" lon="3.85671">
        <ele>1087.42</ele>
        <time>2021-09-29T09:39:41Z</time>
      </trkpt>
      <trkpt lat="44.8815" lon="3.85667">
        <ele>1087.808</ele>
        <time>2021-09-29T09:40:21Z</time>
      </trkpt>
      <trkpt lat="44.88149" lon="3.85662">
        <ele>1088.065</ele>
        <time>2021-09-29T09:41:01Z</time>
      </trkpt>
      <trkpt lat="44.88141" lon="3.8562">
        <ele>1088.911</ele>
        <time>2021-09-29T09:41:41Z</time>
      </trkpt>
      <trkpt lat="44.8814" lon="3.85616">
        <ele>1088.936</ele>
        <time>2021-09-29T09:42:21Z</time>
      </trkpt>
      <trkpt lat="44.88139" lon="3.85613">
        <ele>1089.028</ele>
        <time>2021-09-29T09:43:01Z</time>
      </trkpt>
      <trkpt lat="44.88137" lon="3.85605">
        <ele>1089.196</ele>
        <time>2021-09-29T09:43:41Z</time>
      </trkpt>
      <trkpt lat="44.88133" lon="3.85589">
        <ele>1089.379</ele>
        <time>2021-09-29T09:44:21Z</time>
      </trkpt>
      <trkpt lat="44.88129" lon="3.85575">
        <ele>1089.231</ele>
        <time>2021-09-29T09:45:01Z</time>
      </trkpt>
      <trkpt lat="44.88124" lon="3.85557">
        <ele>1089.021</ele>
        <time>2021-09-29T09:45:41Z</time>
      </trkpt>
      <trkpt lat="44.88121" lon="3.85549">
        <ele>1089.086</ele>
        <time>2021-09-29T09:46:21Z</time>
      </trkpt>
      <trkpt lat="44.88119" lon="3.8554">
        <ele>1089.06</ele>
        <time>2021-09-29T09:47:01Z</time>
      </trkpt>
      <trkpt lat="44.88114" lon="3.85522">
        <ele>1088.826</ele>
        <time>2021-09-29T09:47:41Z</time>
      </trkpt>
      <trkpt lat="44.88108" lon="3.85504">
        <ele>1088.208</ele>
        <time>2021-09-29T09:48:21Z</time>
      </trkpt>
      <trkpt lat="44.88103" lon="3.85488">
        <ele>1087.736</ele>
        <time>2021-09-29T09:49:01Z</time>
      </trkpt>
      <trkpt lat="44.88098" lon="3.85471">
        <ele>1087.052</ele>
        <time>2021-09-29T09:49:41Z</time>
      </trkpt>
      <trkpt lat="44.88088" lon="3.85441">
        <ele>1086.677</ele>
        <time>2021-09-29T09:50:21Z</time>
      </trkpt>
      <trkpt lat="44.88087" lon="3.85438">
        <ele>1086.559</ele>
        <time>2021-09-29T09:51:01Z</time>
      </trkpt>
      <trkpt lat="44.88086" lon="3.85435">
        <ele>1086.467</ele>
        <time>2021-09-29T09:51:41Z</time>
      </trkpt>
      <trkpt lat="44.88085" lon="3.85428">
        <ele>1086.33</ele>
        <time>2021-09-29T09:52:21Z</time>
      </trkpt>
      <trkpt lat="44.88082" lon="3.85414">
        <ele>1085.872</ele>
        <time>2021-09-29T09:53:01Z</time>
      </trkpt>
      <trkpt lat="44.88081" lon="3.854">
        <ele>1084.892</ele>
        <time>2021-09-29T09:53:41Z</time>
      </trkpt>
      <trkpt lat="44.88078" lon="3.85363">
        <ele>1083.381</ele>
        <time>2021-09-29T09:54:21Z</time>
      </trkpt>
      <trkpt lat="44.88076" lon="3.85341">
        <ele>1082.561</ele>
        <time>2021-09-29T09:55:01Z</time>
      </trkpt>
      <trkpt lat="44.88076" lon="3.85324">
        <ele>1081.917</ele>
        <time>2021-09-29T09:55:41Z</time>
      </trkpt>
      <trkpt lat="44.88075" lon="3.85316">
        <ele>1081.708</ele>
        <time>2021-09-29T09:56:21Z</time>
      </trkpt>
      <trkpt lat="44.88075" lon="3.85308">
        <ele>1081.486</ele>
        <time>2021-09-29T09:57:01Z</time>
      </trkpt>
      <trkpt lat="44.88075" lon="3.85281">
        <ele>1081.392</ele>
        <time>2021-09-29T09:57:41Z</time>
      </trkpt>
      <trkpt lat="44.88074" lon="3.85276">
        <ele>1081.457</ele>
        <time>2021-09-29T09:58:21Z</time>
      </trkpt>
      <trkpt lat="44.88074" lon="3.85269">
        <ele>1081.589</ele>
        <time>2021-09-29T09:59:01Z</time>
      </trkpt>
      <trkpt lat="44.88074" lon="3.85256">
        <ele>1081.917</ele>
        <time>2021-09-29T09:59:41Z</time>
      </trkpt>
      <trkpt lat="44.88072" lon="3.85242">
        <ele>1081.85</ele>
        <time>2021-09-29T10:00:21Z</time>
      </trkpt>
      <trkpt lat="44.88072" lon="3.85235">
        <ele>1081.742</ele>
        <time>2021-09-29T10:01:01Z</time>
      </trkpt>
      <trkpt lat="44.88071" lon="3.8523">
        <ele>1081.692</ele>
        <time>2021-09-29T10:01:41Z</time>
      </trkpt>
      <trkpt lat="44.88068" lon="3.85209">
        <ele>1081.374</ele>
        <time>2021-09-29T10:02:21Z</time>
      </trkpt>
      <trkpt lat="44.88062" lon="3.85185">
        <ele>1081.656</ele>
        <time>2021-09-29T10:03:01Z</time>
      </trkpt>
      <trkpt lat="44.88059" lon="3.85169">
        <ele>1082.721</ele>
        <time>2021-09-29T10:03:41Z</time>
      </trkpt>
      <trkpt lat="44.88058" lon="3.85161">
        <ele>1083.308</ele>
        <time>2021-09-29T10:04:21Z</time>
      </trkpt>
      <trkpt lat="44.88057" lon="3.85153">
        <ele>1083.935</ele>
        <time>2021-09-29T10:05:01Z</time>
      </trkpt>
      <trkpt lat="44.88055" lon="3.85139">
        <ele>1085.081</ele>
        <time>2021-09-29T10:05:41Z</time>
      </trkpt>
      <trkpt lat="44.88055" lon="3.85134">
        <ele>1085.466</ele>
        <time>2021-09-29T10:06:21Z</time>
      </trkpt>
      <trkpt lat="44.88053" lon="3.85111">
        <ele>1087.098</ele>
        <time>2021-09-29T10:07:01Z</time>
      </trkpt>
      <trkpt lat="44.8805" lon="3.85087">
        <ele>1089.056</ele>
        <time>2021-09-29T10:07:41Z</time>
      </trkpt>
      <trkpt lat="44.88049" lon="3.8508">
        <ele>1089.529</ele>
        <time>2021-09-29T10:08:21Z</time>
      </trkpt>
      <trkpt lat="44.88048" lon="3.85076">
        <ele>1089.871</ele>
        <time>2021-09-29T10:09:01Z</time>
      </trkpt>
      <trkpt lat="44.88045" lon="3.85062">
        <ele>1091.091</ele>
        <time>2021-09-29T10:09:41Z</time>
      </trkpt>
      <trkpt lat="44.88038" lon="3.85038">
        <ele>1093.625</ele>
        <time>2021-09-29T10:10:21Z</time>
      </trkpt>
      <trkpt lat="44.88034" lon="3.85023">
        <ele>1094.926</ele>
        <time>2021-09-29T10:11:01Z</time>
      </trkpt>
      <trkpt lat="44.88031" lon="3.85009">
        <ele>1095.708</ele>
        <time>2021-09-29T10:11:41Z</time>
      </trkpt>
      <trkpt lat="44.88027" lon="3.85">
        <ele>1096.008</ele>
        <time>2021-09-29T10:12:21Z</time>
      </trkpt>
      <trkpt lat="44.88022" lon="3.8499">
        <ele>1095.92</ele>
        <time>2021-09-29T10:13:01Z</time>
      </trkpt>
      <trkpt lat="44.88013" lon="3.8498">
        <ele>1095.816</ele>
        <time>2021-09-29T10:13:41Z</time>
      </trkpt>
      <trkpt lat="44.88016" lon="3.84977">
        <ele>1095.691</ele>
        <time>2021-09-29T10:14:21Z</time>
      </trkpt>
      <trkpt lat="44.88018" lon="3.84972">
        <ele>1095.363</ele>
        <time>2021-09-29T10:15:01Z</time>
      </trkpt>
      <trkpt lat="44.88022" lon="3.84962">
        <ele>1094.861</ele>
        <time>2021-09-29T10:15:41Z</time>
      </trkpt>
      <trkpt lat="44.88024" lon="3.84931">
        <ele>1093.784</ele>
        <time>2021-09-29T10:16:21Z</time>
      </trkpt>
      <trkpt lat="44.88026" lon="3.84921">
        <ele>1093.356</ele>
        <time>2021-09-29T10:17:01Z</time>
      </trkpt>
      <trkpt lat="44.88025" lon="3.84913">
        <ele>1093.056</ele>
        <time>2021-09-29T10:17:41Z</time>
      </trkpt>
      <trkpt lat="44.8802" lon="3.84896">
        <ele>1092.876</ele>
        <time>2021-09-29T10:18:21Z</time>
      </trkpt>
      <trkpt lat="44.88015" lon="3.84882">
        <ele>1092.59</ele>
        <time>2021-09-29T10:19:01Z</time>
      </trkpt>
      <trkpt lat="44.88008" lon="3.84867">
        <ele>1092.419</ele>
        <time>2021-09-29T10:19:41Z</time>
      </trkpt>
      <trkpt lat="44.88003" lon="3.84859">
        <ele>1092.708</ele>
        <time>2021-09-29T10:20:21Z</time>
      </trkpt>
      <trkpt lat="44.88001" lon="3.84857">
        <ele>1092.795</ele>
        <time>2021-09-29T10:21:01Z</time>
      </trkpt>
      <trkpt lat="44.87998" lon="3.84853">
        <ele>1092.871</ele>
        <time>2021-09-29T10:21:41Z</time>
      </trkpt>
      <trkpt lat="44.87995" lon="3.84849">
        <ele>1092.886</ele>
        <time>2021-09-29T10:22:21Z</time>
      </trkpt>
      <trkpt lat="44.87994" lon="3.84846">
        <ele>1092.898</ele>
        <time>2021-09-29T10:23:01Z</time>
      </trkpt>
      <trkpt lat="44.87993" lon="3.84843">
        <ele>1092.766</ele>
        <time>2021-09-29T10:23:41Z</time>
      </trkpt>
      <trkpt lat="44.87992" lon="3.84838">
        <ele>1092.569</ele>
        <time>2021-09-29T10:24:21Z</time>
      </trkpt>
      <trkpt lat="44.87991" lon="3.84834">
        <ele>1092.461</ele>
        <time>2021-09-29T10:25:01Z</time>
      </trkpt>
      <trkpt lat="44.8799" lon="3.8483">
        <ele>1092.231</ele>
        <time>2021-09-29T10:25:41Z</time>
      </trkpt>
      <trkpt lat="44.87989" lon="3.84825">
        <ele>1091.982</ele>
        <time>2021-09-29T10:26:21Z</time>
      </trkpt>
      <trkpt lat="44.87989" lon="3.84821">
        <ele>1091.743</ele>
        <time>2021-09-29T10:27:01Z</time>
      </trkpt>
      <trkpt lat="44.87988" lon="3.84816">
        <ele>1091.517</ele>
        <time>2021-09-29T10:27:41Z</time>
      </trkpt>
      <trkpt lat="44.87988" lon="3.84812">
        <ele>1091.208</ele>
        <time>2021-09-29T10:28:21Z</time>
      </trkpt>
      <trkpt lat="44.87987" lon="3.84807">
        <ele>1091.026</ele>
        <time>2021-09-29T10:29:01Z</time>
      </trkpt>
      <trkpt lat="44.87987" lon="3.84803">
        <ele>1090.962</ele>
        <time>2021-09-29T10:29:41Z</time>
      </trkpt>
      <trkpt lat="44.87986" lon="3.84798">
        <ele>1090.937</ele>
        <time>2021-09-29T10:30:21Z</time>
      </trkpt>
      <trkpt lat="44.87985" lon="3.84794">
        <ele>1090.879</ele>
        <time>2021-09-29T10:31:01Z</time>
      </trkpt>
      <trkpt lat="44.87985" lon="3.8479">
        <ele>1090.827</ele>
        <time>2021-09-29T10:31:41Z</time>
      </trkpt>
      <trkpt lat="44.87984" lon="3.84785">
        <ele>1090.75</ele>
        <time>2021-09-29T10:32:21Z</time>
      </trkpt>
      <trkpt lat="44.87983" lon="3.84781">
        <ele>1090.752</ele>
        <time>2021-09-29T10:33:01Z</time>
      </trkpt>
      <trkpt lat="44.87983" lon="3.84777">
        <ele>1090.622</ele>
        <time>2021-09-29T10:33:41Z</time>
      </trkpt>
      <trkpt lat="44.87982" lon="3.84773">
        <ele>1090.628</ele>
        <time>2021-09-29T10:34:21Z</time>
      </trkpt>
      <trkpt lat="44.87981" lon="3.84768">
        <ele>1090.689</ele>
        <time>2021-09-29T10:35:01Z</time>
      </trkpt>
      <trkpt lat="44.8798" lon="3.84763">
        <ele>1090.617</ele>
        <time>2021-09-29T10:35:41Z</time>
      </trkpt>
      <trkpt lat="44.8798" lon="3.84758">
        <ele>1090.508</ele>
        <time>2021-09-29T10:36:21Z</time>
      </trkpt>
      <trkpt lat="44.87983" lon="3.84757">
        <ele>1090.33</ele>
        <time>2021-09-29T10:37:01Z</time>
      </trkpt>
      <trkpt lat="44.87987" lon="3.84756">
        <ele>1090.076</ele>
        <time>2021-09-29T10:37:41Z</time>
      </trkpt>
      <trkpt lat="44.87991" lon="3.84756">
        <ele>1089.831</ele>
        <time>2021-09-29T10:38:21Z</time>
      </trkpt>
      <trkpt lat="44.87994" lon="3.84755">
        <ele>1089.593</ele>
        <time>2021-09-29T10:39:01Z</time>
      </trkpt>
      <trkpt lat="44.87998" lon="3.84754">
        <ele>1089.391</ele>
        <time>2021-09-29T10:39:41Z</time>
      </trkpt>
      <trkpt lat="44.88001" lon="3.84753">
        <ele>1089.174</ele>
        <time>2021-09-29T10:40:21Z</time>
      </trkpt>
      <trkpt lat="44.88004" lon="3.84752">
        <ele>1088.836</ele>
        <time>2021-09-29T10:41:01Z</time>
      </trkpt>
      <trkpt lat="44.88008" lon="3.84752">
        <ele>1088.596</ele>
        <time>2021-09-29T10:41:41Z</time>
      </trkpt>
      <trkpt lat="44.88012" lon="3.84751">
        <ele>1088.231</ele>
        <time>2021-09-29T10:42:21Z</time>
      </trkpt>
      <trkpt lat="44.88016" lon="3.8475">
        <ele>1087.961</ele>
        <time>2021-09-29T10:43:01Z</time>
      </trkpt>
      <trkpt lat="44.8802" lon="3.84749">
        <ele>1087.607</ele>
        <time>2021-09-29T10:43:41Z</time>
      </trkpt>
      <trkpt lat="44.88024" lon="3.84748">
        <ele>1087.308</ele>
        <time>2021-09-29T10:44:21Z</time>
      </trkpt>
      <trkpt lat="44.88028" lon="3.84747">
        <ele>1087.091</ele>
        <time>2021-09-29T10:45:01Z</time>
      </trkpt>
      <trkpt lat="44.88031" lon="3.84746">
        <ele>1086.877</ele>
        <time>2021-09-29T10:45:41Z</time>
      </trkpt>
      <trkpt lat="44.88034" lon="3.84744">
        <ele>1086.612</ele>
        <time>2021-09-29T10:46:21Z</time>
      </trkpt>
      <trkpt lat="44.88036" lon="3.84742">
        <ele>1086.534</ele>
        <time>2021-09-29T10:47:01Z</time>
      </trkpt>
      <trkpt lat="44.88038" lon="3.8474">
        <ele>1086.482</ele>
        <time>2021-09-29T10:47:41Z</time>
      </trkpt>
      <trkpt lat="44.88039" lon="3.84735">
        <ele>1086.465</ele>
        <time>2021-09-29T10:48:21Z</time>
      </trkpt>
      <trkpt lat="44.8804" lon="3.84731">
        <ele>1086.427</ele>
        <time>2021-09-29T10:49:01Z</time>
      </trkpt>
      <trkpt lat="44.88041" lon="3.84725">
        <ele>1086.567</ele>
        <time>2021-09-29T10:49:41Z</time>
      </trkpt>
      <trkpt lat="44.88041" lon="3.84719">
        <ele>1086.625</ele>
        <time>2021-09-29T10:50:21Z</time>
      </trkpt>
      <trkpt lat="44.88041" lon="3.84714">
        <ele>1086.726</ele>
        <time>2021-09-29T10:51:01Z</time>
      </trkpt>
      <trkpt lat="44.88041" lon="3.84709">
        <ele>1086.808</ele>
        <time>2021-09-29T10:51:41Z</time>
      </trkpt>
      <trkpt lat="44.88041" lon="3.84705">
        <ele>1086.908</ele>
        <time>2021-09-29T10:52:21Z</time>
      </trkpt>
      <trkpt lat="44.88041" lon="3.847">
        <ele>1087.02</ele>
        <time>2021-09-29T10:53:01Z</time>
      </trkpt>
      <trkpt lat="44.88041" lon="3.84695">
        <ele>1087.126</ele>
        <time>2021-09-29T10:53:41Z</time>
      </trkpt>
      <trkpt lat="44.8804" lon="3.8469">
        <ele>1087.281</ele>
        <time>2021-09-29T10:54:21Z</time>
      </trkpt>
      <trkpt lat="44.8804" lon="3.84685">
        <ele>1087.383</ele>
        <time>2021-09-29T10:55:01Z</time>
      </trkpt>
      <trkpt lat="44.8804" lon="3.8468">
        <ele>1087.371</ele>
        <time>2021-09-29T10:55:41Z</time>
      </trkpt>
      <trkpt lat="44.8804" lon="3.84674">
        <ele>1087.454</ele>
        <time>2021-09-29T10:56:21Z</time>
      </trkpt>
      <trkpt lat="44.8804" lon="3.84669">
        <ele>1087.586</ele>
        <time>2021-09-29T10:57:01Z</time>
      </trkpt>
      <trkpt lat="44.8804" lon="3.84664">
        <ele>1087.786</ele>
        <time>2021-09-29T10:57:41Z</time>
      </trkpt>
      <trkpt lat="44.8804" lon="3.84658">
        <ele>1087.992</ele>
        <time>2021-09-29T10:58:21Z</time>
      </trkpt>
      <trkpt lat="44.8804" lon="3.84653">
        <ele>1088.173</ele>
        <time>2021-09-29T10:59:01Z</time>
      </trkpt>
      <trkpt lat="44.8804" lon="3.84647">
        <ele>1088.32</ele>
        <time>2021-09-29T10:59:41Z</time>
      </trkpt>
      <trkpt lat="44.88039" lon="3.84641">
        <ele>1088.508</ele>
        <time>2021-09-29T11:00:21Z</time>
      </trkpt>
      <trkpt lat="44.88039" lon="3.84636">
        <ele>1088.647</ele>
        <time>2021-09-29T11:01:01Z</time>
      </trkpt>
      <trkpt lat="44.88038" lon="3.84632">
        <ele>1088.713</ele>
        <time>2021-09-29T11:01:41Z</time>
      </trkpt>
      <trkpt lat="44.88041" lon="3.8463">
        <ele>1088.768</ele>
        <time>2021-09-29T11:02:21Z</time>
      </trkpt>
      <trkpt lat="44.88044" lon="3.84628">
        <ele>1088.62</ele>
        <time>2021-09-29T11:03:01Z</time>
      </trkpt>
      <trkpt lat="44.88047" lon="3.84627">
        <ele>1088.648</ele>
        <time>2021-09-29T11:03:41Z</time>
      </trkpt>
      <trkpt lat="44.8805" lon="3.84626">
        <ele>1088.671</ele>
        <time>2021-09-29T11:04:21Z</time>
      </trkpt>
      <trkpt lat="44.88051" lon="3.84622">
        <ele>1088.773</ele>
        <time>2021-09-29T11:05:01Z</time>
      </trkpt>
      <trkpt lat="44.88052" lon="3.84618">
        <ele>1088.833</ele>
        <time>2021-09-29T11:05:41Z</time>
      </trkpt>
      <trkpt lat="44.88055" lon="3.84617">
        <ele>1088.883</ele>
        <time>2021-09-29T11:06:21Z</time>
      </trkpt>
      <trkpt lat="44.88059" lon="3.84615">
        <ele>1088.925</ele>
        <time>2021-09-29T11:07:01Z</time>
      </trkpt>
      <trkpt lat="44.88061" lon="3.84615">
        <ele>1088.917</ele>
        <time>2021-09-29T11:07:41Z</time>
      </trkpt>
      <trkpt lat="44.88063" lon="3.84615">
        <ele>1088.908</ele>
        <time>2021-09-29T11:08:21Z</time>
      </trkpt>
      <trkpt lat="44.88066" lon="3.84615">
        <ele>1088.956</ele>
        <time>2021-09-29T11:09:01Z</time>
      </trkpt>
      <trkpt lat="44.88069" lon="3.84615">
        <ele>1088.962</ele>
        <time>2021-09-29T11:09:41Z</time>
      </trkpt>
      <trkpt lat="44.88072" lon="3.84614">
        <ele>1089.047</ele>
        <time>2021-09-29T11:10:21Z</time>
      </trkpt>
      <trkpt lat="44.88076" lon="3.84614">
        <ele>1089.059</ele>
        <time>2021-09-29T11:11:01Z</time>
      </trkpt>
      <trkpt lat="44.88079" lon="3.84613">
        <ele>1089.017</ele>
        <time>2021-09-29T11:11:41Z</time>
      </trkpt>
      <trkpt lat="44.88083" lon="3.84612">
        <ele>1089.07</ele>
        <time>2021-09-29T11:12:21Z</time>
      </trkpt>
      <trkpt lat="44.88086" lon="3.84611">
        <ele>1089.062</ele>
        <time>2021-09-29T11:13:01Z</time>
      </trkpt>
      <trkpt lat="44.88089" lon="3.84611">
        <ele>1089.092</ele>
        <time>2021-09-29T11:13:41Z</time>
      </trkpt>
      <trkpt lat="44.88093" lon="3.8461">
        <ele>1089.145</ele>
        <time>2021-09-29T11:14:21Z</time>
      </trkpt>
      <trkpt lat="44.88097" lon="3.84608">
        <ele>1089.147</ele>
        <time>2021-09-29T11:15:01Z</time>
      </trkpt>
      <trkpt lat="44.88101" lon="3.84607">
        <ele>1089.211</ele>
        <time>2021-09-29T11:15:41Z</time>
      </trkpt>
      <trkpt lat="44.88104" lon="3.84604">
        <ele>1089.308</ele>
        <time>2021-09-29T11:16:21Z</time>
      </trkpt>
      <trkpt lat="44.88106" lon="3.84601">
        <ele>1089.472</ele>
        <time>2021-09-29T11:17:01Z</time>
      </trkpt>
      <trkpt lat="44.88109" lon="3.84598">
        <ele>1089.558</ele>
        <time>2021-09-29T11:17:41Z</time>
      </trkpt>
      <trkpt lat="44.88112" lon="3.84595">
        <ele>1089.663</ele>
        <time>2021-09-29T11:18:21Z</time>
      </trkpt>
      <trkpt lat="44.88116" lon="3.84593">
        <ele>1089.835</ele>
        <time>2021-09-29T11:19:01Z</time>
      </trkpt>
      <trkpt lat="44.88119" lon="3.8459">
        <ele>1090.093</ele>
        <time>2021-09-29T11:19:41Z</time>
      </trkpt>
      <trkpt lat="44.88122" lon="3.84588">
        <ele>1090.266</ele>
        <time>2021-09-29T11:20:21Z</time>
      </trkpt>
      <trkpt lat="44.88125" lon="3.84585">
        <ele>1090.488</ele>
        <time>2021-09-29T11:21:01Z</time>
      </trkpt>
      <trkpt lat="44.88128" lon="3.84583">
        <ele>1090.618</ele>
        <time>2021-09-29T11:21:41Z</time>
      </trkpt>
      <trkpt lat="44.88131" lon="3.8458">
        <ele>1091.174</ele>
        <time>2021-09-29T11:22:21Z</time>
      </trkpt>
      <trkpt lat="44.88135" lon="3.84576">
        <ele>1091.456</ele>
        <time>2021-09-29T11:23:01Z</time>
      </trkpt>
      <trkpt lat="44.88138" lon="3.84573">
        <ele>1091.721</ele>
        <time>2021-09-29T11:23:41Z</time>
      </trkpt>
      <trkpt lat="44.8814" lon="3.8457">
        <ele>1092.008</ele>
        <time>2021-09-29T11:24:21Z</time>
      </trkpt>
      <trkpt lat="44.88143" lon="3.84568">
        <ele>1092.255</ele>
        <time>2021-09-29T11:25:01Z</time>
      </trkpt>
      <trkpt lat="44.88145" lon="3.84565">
        <ele>1092.471</ele>
        <time>2021-09-29T11:25:41Z</time>
      </trkpt>
      <trkpt lat="44.88148" lon="3.84561">
        <ele>1092.746</ele>
        <time>2021-09-29T11:26:21Z</time>
      </trkpt>
      <trkpt lat="44.8815" lon="3.84557">
        <ele>1092.968</ele>
        <time>2021-09-29T11:27:01Z</time>
      </trkpt>
      <trkpt lat="44.88152" lon="3.84554">
        <ele>1093.136</ele>
        <time>2021-09-29T11:27:41Z</time>
      </trkpt>
      <trkpt lat="44.88154" lon="3.84551">
        <ele>1093.279</ele>
        <time>2021-09-29T11:28:21Z</time>
      </trkpt>
      <trkpt lat="44.88156" lon="3.84546">
        <ele>1093.581</ele>
        <time>2021-09-29T11:29:01Z</time>
      </trkpt>
      <trkpt lat="44.88158" lon="3.84543">
        <ele>1093.681</ele>
        <time>2021-09-29T11:29:41Z</time>
      </trkpt>
      <trkpt lat="44.88159" lon="3.8454">
        <ele>1093.731</ele>
        <time>2021-09-29T11:30:21Z</time>
      </trkpt>
      <trkpt lat="44.8816" lon="3.84535">
        <ele>1093.961</ele>
        <time>2021-09-29T11:31:01Z</time>
      </trkpt>
      <trkpt lat="44.88161" lon="3.8453">
        <ele>1094.107</ele>
        <time>2021-09-29T11:31:41Z</time>
      </trkpt>
      <trkpt lat="44.88162" lon="3.84526">
        <ele>1094.308</ele>
        <time>2021-09-29T11:32:21Z</time>
      </trkpt>
      <trkpt lat="44.88163" lon="3.84521">
        <ele>1094.611</ele>
        <time>2021-09-29T11:33:01Z</time>
      </trkpt>
      <trkpt lat="44.88164" lon="3.84517">
        <ele>1094.967</ele>
        <time>2021-09-29T11:33:41Z</time>
      </trkpt>
      <trkpt lat="44.88166" lon="3.84513">
        <ele>1095.282</ele>
        <time>2021-09-29T11:34:21Z</time>
      </trkpt>
      <trkpt lat="44.88167" lon="3.84508">
        <ele>1095.474</ele>
        <time>2021-09-29T11:35:01Z</time>
      </trkpt>
      <trkpt lat="44.88168" lon="3.84503">
        <ele>1095.972</ele>
        <time>2021-09-29T11:35:41Z</time>
      </trkpt>
      <trkpt lat="44.8817" lon="3.84498">
        <ele>1096.535</ele>
        <time>2021-09-29T11:36:21Z</time>
      </trkpt>
      <trkpt lat="44.88171" lon="3.84493">
        <ele>1097.427</ele>
        <time>2021-09-29T11:37:01Z</time>
      </trkpt>
      <trkpt lat="44.88173" lon="3.84489">
        <ele>1098.157</ele>
        <time>2021-09-29T11:37:41Z</time>
      </trkpt>
      <trkpt lat="44.88175" lon="3.84484">
        <ele>1098.941</ele>
        <time>2021-09-29T11:38:21Z</time>
      </trkpt>
      <trkpt lat="44.88177" lon="3.84479">
        <ele>1099.581</ele>
        <time>2021-09-29T11:39:01Z</time>
      </trkpt>
      <trkpt lat="44.8818" lon="3.84474">
        <ele>1100.209</ele>
        <time>2021-09-29T11:39:41Z</time>
      </trkpt>
      <trkpt lat="44.88182" lon="3.84469">
        <ele>1100.708</ele>
        <time>2021-09-29T11:40:21Z</time>
      </trkpt>
      <trkpt lat="44.88184" lon="3.84464">
        <ele>1101.062</ele>
        <time>2021-09-29T11:41:01Z</time>
      </trkpt>
      <trkpt lat="44.88186" lon="3.84459">
        <ele>1101.318</ele>
        <time>2021-09-29T11:41:41Z</time>
      </trkpt>
      <trkpt lat="44.88189" lon="3.84455">
        <ele>1101.583</ele>
        <time>2021-09-29T11:42:21Z</time>
      </trkpt>
      <trkpt lat="44.88191" lon="3.8445">
        <ele>1101.855</ele>
        <time>2021-09-29T11:43:01Z</time>
      </trkpt>
      <trkpt lat="44.88193" lon="3.84446">
        <ele>1101.973</ele>
        <time>2021-09-29T11:43:41Z</time>
      </trkpt>
      <trkpt lat="44.88195" lon="3.84441">
        <ele>1102.286</ele>
        <time>2021-09-29T11:44:21Z</time>
      </trkpt>
      <trkpt lat="44.88197" lon="3.84437">
        <ele>1102.688</ele>
        <time>2021-09-29T11:45:01Z</time>
      </trkpt>
      <trkpt lat="44.882" lon="3.84432">
        <ele>1103.018</ele>
        <time>2021-09-29T11:45:41Z</time>
      </trkpt>
      <trkpt lat="44.88202" lon="3.84428">
        <ele>1103.311</ele>
        <time>2021-09-29T11:46:21Z</time>
      </trkpt>
      <trkpt lat="44.88204" lon="3.84424">
        <ele>1103.621</ele>
        <time>2021-09-29T11:47:01Z</time>
      </trkpt>
      <trkpt lat="44.88207" lon="3.8442">
        <ele>1103.803</ele>
        <time>2021-09-29T11:47:41Z</time>
      </trkpt>
      <trkpt lat="44.88209" lon="3.84416">
        <ele>1104.008</ele>
        <time>2021-09-29T11:48:21Z</time>
      </trkpt>
      <trkpt lat="44.88212" lon="3.84413">
        <ele>1104.459</ele>
        <time>2021-09-29T11:49:01Z</time>
      </trkpt>
      <trkpt lat="44.88214" lon="3.84409">
        <ele>1104.765</ele>
        <time>2021-09-29T11:49:41Z</time>
      </trkpt>
      <trkpt lat="44.88218" lon="3.84405">
        <ele>1105.06</ele>
        <time>2021-09-29T11:50:21Z</time>
      </trkpt>
      <trkpt lat="44.88221" lon="3.84401">
        <ele>1105.232</ele>
        <time>2021-09-29T11:51:01Z</time>
      </trkpt>
      <trkpt lat="44.88224" lon="3.84397">
        <ele>1105.36</ele>
        <time>2021-09-29T11:51:41Z</time>
      </trkpt>
      <trkpt lat="44.88227" lon="3.84393">
        <ele>1105.313</ele>
        <time>2021-09-29T11:52:21Z</time>
      </trkpt>
      <trkpt lat="44.88229" lon="3.8439">
        <ele>1105.455</ele>
        <time>2021-09-29T11:53:01Z</time>
      </trkpt>
      <trkpt lat="44.88232" lon="3.84386">
        <ele>1105.835</ele>
        <time>2021-09-29T11:53:41Z</time>
      </trkpt>
      <trkpt lat="44.88235" lon="3.84382">
        <ele>1106.375</ele>
        <time>2021-09-29T11:54:21Z</time>
      </trkpt>
      <trkpt lat="44.88237" lon="3.84378">
        <ele>1106.828</ele>
        <time>2021-09-29T11:55:01Z</time>
      </trkpt>
      <trkpt lat="44.8824" lon="3.84374">
        <ele>1107.32</ele>
        <time>2021-09-29T11:55:41Z</time>
      </trkpt>
      <trkpt lat="44.88243" lon="3.8437">
        <ele>1107.808</ele>
        <time>2021-09-29T11:56:21Z</time>
      </trkpt>
      <trkpt lat="44.88246" lon="3.84366">
        <ele>1108.465</ele>
        <time>2021-09-29T11:57:01Z</time>
      </trkpt>
      <trkpt lat="44.88249" lon="3.84362">
        <ele>1108.951</ele>
        <time>2021-09-29T11:57:41Z</time>
      </trkpt>
      <trkpt lat="44.88251" lon="3.84359">
        <ele>1109.166</ele>
        <time>2021-09-29T11:58:21Z</time>
      </trkpt>
      <trkpt lat="44.88254" lon="3.84356">
        <ele>1109.388</ele>
        <time>2021-09-29T11:59:01Z</time>
      </trkpt>
      <trkpt lat="44.88256" lon="3.84353">
        <ele>1109.586</ele>
        <time>2021-09-29T11:59:41Z</time>
      </trkpt>
      <trkpt lat="44.88257" lon="3.84351">
        <ele>1109.789</ele>
        <time>2021-09-29T12:00:21Z</time>
      </trkpt>
      <trkpt lat="44.88259" lon="3.84348">
        <ele>1109.971</ele>
        <time>2021-09-29T12:01:01Z</time>
      </trkpt>
      <trkpt lat="44.88261" lon="3.84344">
        <ele>1110.261</ele>
        <time>2021-09-29T12:01:41Z</time>
      </trkpt>
      <trkpt lat="44.88263" lon="3.8434">
        <ele>1110.558</ele>
        <time>2021-09-29T12:02:21Z</time>
      </trkpt>
      <trkpt lat="44.88266" lon="3.84336">
        <ele>1110.952</ele>
        <time>2021-09-29T12:03:01Z</time>
      </trkpt>
      <trkpt lat="44.88268" lon="3.84331">
        <ele>1111.117</ele>
        <time>2021-09-29T12:03:41Z</time>
      </trkpt>
      <trkpt lat="44.8827" lon="3.84326">
        <ele>1111.108</ele>
        <time>2021-09-29T12:04:21Z</time>
      </trkpt>
      <trkpt lat="44.88273" lon="3.84321">
        <ele>1111.083</ele>
        <time>2021-09-29T12:05:01Z</time>
      </trkpt>
      <trkpt lat="44.88275" lon="3.84317">
        <ele>1111.099</ele>
        <time>2021-09-29T12:05:41Z</time>
      </trkpt>
      <trkpt lat="44.88277" lon="3.84312">
        <ele>1110.944</ele>
        <time>2021-09-29T12:06:21Z</time>
      </trkpt>
      <trkpt lat="44.88279" lon="3.84308">
        <ele>1110.896</ele>
        <time>2021-09-29T12:07:01Z</time>
      </trkpt>
      <trkpt lat="44.88281" lon="3.84303">
        <ele>1110.864</ele>
        <time>2021-09-29T12:07:41Z</time>
      </trkpt>
      <trkpt lat="44.88283" lon="3.84298">
        <ele>1110.787</ele>
        <time>2021-09-29T12:08:21Z</time>
      </trkpt>
      <trkpt lat="44.88285" lon="3.84293">
        <ele>1110.679</ele>
        <time>2021-09-29T12:09:01Z</time>
      </trkpt>
      <trkpt lat="44.88288" lon="3.84289">
        <ele>1110.569</ele>
        <time>2021-09-29T12:09:41Z</time>
      </trkpt>
      <trkpt lat="44.88291" lon="3.84285">
        <ele>1110.447</ele>
        <time>2021-09-29T12:10:21Z</time>
      </trkpt>
      <trkpt lat="44.88293" lon="3.84281">
        <ele>1110.229</ele>
        <time>2021-09-29T12:11:01Z</time>
      </trkpt>
      <trkpt lat="44.88296" lon="3.84277">
        <ele>1110.221</ele>
        <time>2021-09-29T12:11:41Z</time>
      </trkpt>
      <trkpt lat="44.88298" lon="3.84273">
        <ele>1110.408</ele>
        <time>2021-09-29T12:12:21Z</time>
      </trkpt>
      <trkpt lat="44.88301" lon="3.84269">
        <ele>1110.782</ele>
        <time>2021-09-29T12:13:01Z</time>
      </trkpt>
      <trkpt lat="44.88303" lon="3.84266">
        <ele>1110.928</ele>
        <time>2021-09-29T12:13:41Z</time>
      </trkpt>
      <trkpt lat="44.88306" lon="3.84263">
        <ele>1111.173</ele>
        <time>2021-09-29T12:14:21Z</time>
      </trkpt>
      <trkpt lat="44.88308" lon="3.8426">
        <ele>1111.335</ele>
        <time>2021-09-29T12:15:01Z</time>
      </trkpt>
      <trkpt lat="44.88311" lon="3.84256">
        <ele>1111.493</ele>
        <time>2021-09-29T12:15:41Z</time>
      </trkpt>
      <trkpt lat="44.88314" lon="3.84253">
        <ele>1111.526</ele>
        <time>2021-09-29T12:16:21Z</time>
      </trkpt>
      <trkpt lat="44.88317" lon="3.84249">
        <ele>1111.568</ele>
        <time>2021-09-29T12:17:01Z</time>
      </trkpt>
      <trkpt lat="44.8832" lon="3.84245">
        <ele>1111.578</ele>
        <time>2021-09-29T12:17:41Z</time>
      </trkpt>
      <trkpt lat="44.88323" lon="3.84242">
        <ele>1111.554</ele>
        <time>2021-09-29T12:18:21Z</time>
      </trkpt>
      <trkpt lat="44.88326" lon="3.84239">
        <ele>1111.556</ele>
        <time>2021-09-29T12:19:01Z</time>
      </trkpt>
      <trkpt lat="44.88329" lon="3.84236">
        <ele>1111.611</ele>
        <time>2021-09-29T12:19:41Z</time>
      </trkpt>
      <trkpt lat="44.88332" lon="3.84233">
        <ele>1111.608</ele>
        <time>2021-09-29T12:20:21Z</time>
      </trkpt>
      <trkpt lat="44.88335" lon="3.8423">
        <ele>1111.993</ele>
        <time>2021-09-29T12:21:01Z</time>
      </trkpt>
      <trkpt lat="44.88338" lon="3.84227">
        <ele>1112.459</ele>
        <time>2021-09-29T12:21:41Z</time>
      </trkpt>
      <trkpt lat="44.88341" lon="3.84223">
        <ele>1112.824</ele>
        <time>2021-09-29T12:22:21Z</time>
      </trkpt>
      <trkpt lat="44.88344" lon="3.8422">
        <ele>1113.266</ele>
        <time>2021-09-29T12:23:01Z</time>
      </trkpt>
      <trkpt lat="44.88348" lon="3.84217">
        <ele>1113.614</ele>
        <time>2021-09-29T12:23:41Z</time>
      </trkpt>
      <trkpt lat="44.88351" lon="3.84213">
        <ele>1114.047</ele>
        <time>2021-09-29T12:24:21Z</time>
      </trkpt>
      <trkpt lat="44.88354" lon="3.8421">
        <ele>1114.359</ele>
        <time>2021-09-29T12:25:01Z</time>
      </trkpt>
      <trkpt lat="44.88357" lon="3.84206">
        <ele>1114.779</ele>
        <time>2021-09-29T12:25:41Z</time>
      </trkpt>
      <trkpt lat="44.8836" lon="3.84203">
        <ele>1115.144</ele>
        <time>2021-09-29T12:26:21Z</time>
      </trkpt>
      <trkpt lat="44.88363" lon="3.84199">
        <ele>1115.605</ele>
        <time>2021-09-29T12:27:01Z</time>
      </trkpt>
      <trkpt lat="44.88366" lon="3.84195">
        <ele>1116.215</ele>
        <time>2021-09-29T12:27:41Z</time>
      </trkpt>
      <trkpt lat="44.88368" lon="3.84191">
        <ele>1117.008</ele>
        <time>2021-09-29T12:28:21Z</time>
      </trkpt>
      <trkpt lat="44.88371" lon="3.84187">
        <ele>1117.782</ele>
        <time>2021-09-29T12:29:01Z</time>
      </trkpt>
      <trkpt lat="44.88374" lon="3.84183">
        <ele>1118.498</ele>
        <time>2021-09-29T12:29:41Z</time>
      </trkpt>
      <trkpt lat="44.88377" lon="3.84179">
        <ele>1119.193</ele>
        <time>2021-09-29T12:30:21Z</time>
      </trkpt>
      <trkpt lat="44.88379" lon="3.84176">
        <ele>1119.675</ele>
        <time>2021-09-29T12:31:01Z</time>
      </trkpt>
      <trkpt lat="44.88381" lon="3.84172">
        <ele>1120.063</ele>
        <time>2021-09-29T12:31:41Z</time>
      </trkpt>
      <trkpt lat="44.88383" lon="3.8417">
        <ele>1120.446</ele>
        <time>2021-09-29T12:32:21Z</time>
      </trkpt>
      <trkpt lat="44.88385" lon="3.84167">
        <ele>1120.838</ele>
        <time>2021-09-29T12:33:01Z</time>
      </trkpt>
      <trkpt lat="44.88387" lon="3.84164">
        <ele>1121.398</ele>
        <time>2021-09-29T12:33:41Z</time>
      </trkpt>
      <trkpt lat="44.8839" lon="3.8416">
        <ele>1121.762</ele>
        <time>2021-09-29T12:34:21Z</time>
      </trkpt>
      <trkpt lat="44.88392" lon="3.84157">
        <ele>1122.283</ele>
        <time>2021-09-29T12:35:01Z</time>
      </trkpt>
      <trkpt lat="44.88395" lon="3.84153">
        <ele>1122.811</ele>
        <time>2021-09-29T12:35:41Z</time>
      </trkpt>
      <trkpt lat="44.88399" lon="3.84148">
        <ele>1123.308</ele>
        <time>2021-09-29T12:36:21Z</time>
      </trkpt>
      <trkpt lat="44.88402" lon="3.84144">
        <ele>1123.954</ele>
        <time>2021-09-29T12:37:01Z</time>
      </trkpt>
      <trkpt lat="44.88405" lon="3.8414">
        <ele>1124.59</ele>
        <time>2021-09-29T12:37:41Z</time>
      </trkpt>
      <trkpt lat="44.88408" lon="3.84136">
        <ele>1125.035</ele>
        <time>2021-09-29T12:38:21Z</time>
      </trkpt>
      <trkpt lat="44.88411" lon="3.84132">
        <ele>1125.647</ele>
        <time>2021-09-29T12:39:01Z</time>
      </trkpt>
      <trkpt lat="44.88414" lon="3.84127">
        <ele>1126.115</ele>
        <time>2021-09-29T12:39:41Z</time>
      </trkpt>
      <trkpt lat="44.88417" lon="3.84123">
        <ele>1126.758</ele>
        <time>2021-09-29T12:40:21Z</time>
      </trkpt>
      <trkpt lat="44.88419" lon="3.84119">
        <ele>1127.01</ele>
        <time>2021-09-29T12:41:01Z</time>
      </trkpt>
      <trkpt lat="44.88422" lon="3.84115">
        <ele>1127.43</ele>
        <time>2021-09-29T12:41:41Z</time>
      </trkpt>
      <trkpt lat="44.88425" lon="3.84112">
        <ele>1127.796</ele>
        <time>2021-09-29T12:42:21Z</time>
      </trkpt>
      <trkpt lat="44.88427" lon="3.84108">
        <ele>1127.731</ele>
        <time>2021-09-29T12:43:01Z</time>
      </trkpt>
      <trkpt lat="44.8843" lon="3.84104">
        <ele>1127.724</ele>
        <time>2021-09-29T12:43:41Z</time>
      </trkpt>
      <trkpt lat="44.88432" lon="3.841">
        <ele>1127.708</ele>
        <time>2021-09-29T12:44:21Z</time>
      </trkpt>
      <trkpt lat="44.88434" lon="3.84096">
        <ele>1127.727</ele>
        <time>2021-09-29T12:45:01Z</time>
      </trkpt>
      <trkpt lat="44.88436" lon="3.84092">
        <ele>1127.833</ele>
        <time>2021-09-29T12:45:41Z</time>
      </trkpt>
      <trkpt lat="44.88437" lon="3.84089">
        <ele>1127.838</ele>
        <time>2021-09-29T12:46:21Z</time>
      </trkpt>
      <trkpt lat="44.88439" lon="3.84086">
        <ele>1127.95</ele>
        <time>2021-09-29T12:47:01Z</time>
      </trkpt>
      <trkpt lat="44.88441" lon="3.84082">
        <ele>1128.048</ele>
        <time>2021-09-29T12:47:41Z</time>
      </trkpt>
      <trkpt lat="44.88442" lon="3.84079">
        <ele>1128.091</ele>
        <time>2021-09-29T12:48:21Z</time>
      </trkpt>
      <trkpt lat="44.88444" lon="3.84075">
        <ele>1128.023</ele>
        <time>2021-09-29T12:49:01Z</time>
      </trkpt>
      <trkpt lat="44.88446" lon="3.84072">
        <ele>1128.183</ele>
        <time>2021-09-29T12:49:41Z</time>
      </trkpt>
      <trkpt lat="44.88448" lon="3.84068">
        <ele>1128.234</ele>
        <time>2021-09-29T12:50:21Z</time>
      </trkpt>
      <trkpt lat="44.8845" lon="3.84063">
        <ele>1128.355</ele>
        <time>2021-09-29T12:51:01Z</time>
      </trkpt>
      <trkpt lat="44.88451" lon="3.84059">
        <ele>1128.31</ele>
        <time>2021-09-29T12:51:41Z</time>
      </trkpt>
      <trkpt lat="44.88451" lon="3.84056">
        <ele>1128.208</ele>
        <time>2021-09-29T12:52:21Z</time>
      </trkpt>
      <trkpt lat="44.88451" lon="3.8405">
        <ele>1128.291</ele>
        <time>2021-09-29T12:53:01Z</time>
      </trkpt>
      <trkpt lat="44.88452" lon="3.84044">
        <ele>1128.257</ele>
        <time>2021-09-29T12:53:41Z</time>
      </trkpt>
      <trkpt lat="44.88452" lon="3.84039">
        <ele>1128.162</ele>
        <time>2021-09-29T12:54:21Z</time>
      </trkpt>
      <trkpt lat="44.88452" lon="3.84033">
        <ele>1128.054</ele>
        <time>2021-09-29T12:55:01Z</time>
      </trkpt>
      <trkpt lat="44.88452" lon="3.84027">
        <ele>1128.082</ele>
        <time>2021-09-29T12:55:41Z</time>
      </trkpt>
      <trkpt lat="44.88453" lon="3.84021">
        <ele>1127.835</ele>
        <time>2021-09-29T12:56:21Z</time>
      </trkpt>
      <trkpt lat="44.88453" lon="3.84016">
        <ele>1127.867</ele>
        <time>2021-09-29T12:57:01Z</time>
      </trkpt>
      <trkpt lat="44.88453" lon="3.84012">
        <ele>1127.717</ele>
        <time>2021-09-29T12:57:41Z</time>
      </trkpt>
      <trkpt lat="44.88453" lon="3.84007">
        <ele>1127.695</ele>
        <time>2021-09-29T12:58:21Z</time>
      </trkpt>
      <trkpt lat="44.88453" lon="3.84003">
        <ele>1127.549</ele>
        <time>2021-09-29T12:59:01Z</time>
      </trkpt>
      <trkpt lat="44.88453" lon="3.83998">
        <ele>1127.423</ele>
        <time>2021-09-29T12:59:41Z</time>
      </trkpt>
      <trkpt lat="44.88453" lon="3.83993">
        <ele>1127.308</ele>
        <time>2021-09-29T13:00:21Z</time>
      </trkpt>
      <trkpt lat="44.88453" lon="3.83987">
        <ele>1127.337</ele>
        <time>2021-09-29T13:01:01Z</time>
      </trkpt>
      <trkpt lat="44.88453" lon="3.83983">
        <ele>1127.223</ele>
        <time>2021-09-29T13:01:41Z</time>
      </trkpt>
      <trkpt lat="44.88453" lon="3.83978">
        <ele>1127.138</ele>
        <time>2021-09-29T13:02:21Z</time>
      </trkpt>
      <trkpt lat="44.88454" lon="3.83968">
        <ele>1126.82</ele>
        <time>2021-09-29T13:03:01Z</time>
      </trkpt>
      <trkpt lat="44.88456" lon="3.83954">
        <ele>1125.968</ele>
        <time>2021-09-29T13:03:41Z</time>
      </trkpt>
      <trkpt lat="44.88458" lon="3.83938">
        <ele>1124.871</ele>
        <time>2021-09-29T13:04:21Z</time>
      </trkpt>
      <trkpt lat="44.88459" lon="3.83922">
        <ele>1123.573</ele>
        <time>2021-09-29T13:05:01Z</time>
      </trkpt>
      <trkpt lat="44.88462" lon="3.83905">
        <ele>1122.383</ele>
        <time>2021-09-29T13:05:41Z</time>
      </trkpt>
      <trkpt lat="44.88464" lon="3.83892">
        <ele>1121.482</ele>
        <time>2021-09-29T13:06:21Z</time>
      </trkpt>
      <trkpt lat="44.88466" lon="3.83879">
        <ele>1121.243</ele>
        <time>2021-09-29T13:07:01Z</time>
      </trkpt>
      <trkpt lat="44.88469" lon="3.83864">
        <ele>1120.917</ele>
        <time>2021-09-29T13:07:41Z</time>
      </trkpt>
      <trkpt lat="44.88473" lon="3.8385">
        <ele>1120.808</ele>
        <time>2021-09-29T13:08:21Z</time>
      </trkpt>
      <trkpt lat="44.88476" lon="3.83835">
        <ele>1121.026</ele>
        <time>2021-09-29T13:09:01Z</time>
      </trkpt>
      <trkpt lat="44.88479" lon="3.83821">
        <ele>1120.642</ele>
        <time>2021-09-29T13:09:41Z</time>
      </trkpt>
      <trkpt lat="44.88481" lon="3.83809">
        <ele>1120.087</ele>
        <time>2021-09-29T13:10:21Z</time>
      </trkpt>
      <trkpt lat="44.88484" lon="3.83797">
        <ele>1119.229</ele>
        <time>2021-09-29T13:11:01Z</time>
      </trkpt>
      <trkpt lat="44.88487" lon="3.83785">
        <ele>1118.357</ele>
        <time>2021-09-29T13:11:41Z</time>
      </trkpt>
      <trkpt lat="44.88489" lon="3.83776">
        <ele>1117.73</ele>
        <time>2021-09-29T13:12:21Z</time>
      </trkpt>
      <trkpt lat="44.88491" lon="3.83764">
        <ele>1117.322</ele>
        <time>2021-09-29T13:13:01Z</time>
      </trkpt>
      <trkpt lat="44.88494" lon="3.83752">
        <ele>1116.952</ele>
        <time>2021-09-29T13:13:41Z</time>
      </trkpt>
      <trkpt lat="44.88497" lon="3.8374">
        <ele>1116.847</ele>
        <time>2021-09-29T13:14:21Z</time>
      </trkpt>
      <trkpt lat="44.88499" lon="3.83728">
        <ele>1117.029</ele>
        <time>2021-09-29T13:15:01Z</time>
      </trkpt>
      <trkpt lat="44.88501" lon="3.83716">
        <ele>1117.521</ele>
        <time>2021-09-29T13:15:41Z</time>
      </trkpt>
      <trkpt lat="44.88504" lon="3.83701">
        <ele>1118.508</ele>
        <time>2021-09-29T13:16:21Z</time>
      </trkpt>
      <trkpt lat="44.88506" lon="3.83686">
        <ele>1119.592</ele>
        <time>2021-09-29T13:17:01Z</time>
      </trkpt>
      <trkpt lat="44.88508" lon="3.83675">
        <ele>1120.298</ele>
        <time>2021-09-29T13:17:41Z</time>
      </trkpt>
      <trkpt lat="44.8851" lon="3.83663">
        <ele>1120.993</ele>
        <time>2021-09-29T13:18:21Z</time>
      </trkpt>
      <trkpt lat="44.88511" lon="3.83652">
        <ele>1121.425</ele>
        <time>2021-09-29T13:19:01Z</time>
      </trkpt>
      <trkpt lat="44.88512" lon="3.8364">
        <ele>1122.053</ele>
        <time>2021-09-29T13:19:41Z</time>
      </trkpt>
      <trkpt lat="44.88513" lon="3.83628">
        <ele>1122.356</ele>
        <time>2021-09-29T13:20:21Z</time>
      </trkpt>
      <trkpt lat="44.88514" lon="3.83616">
        <ele>1122.528</ele>
        <time>2021-09-29T13:21:01Z</time>
      </trkpt>
      <trkpt lat="44.88515" lon="3.83606">
        <ele>1122.438</ele>
        <time>2021-09-29T13:21:41Z</time>
      </trkpt>
      <trkpt lat="44.88516" lon="3.83595">
        <ele>1122.054</ele>
        <time>2021-09-29T13:22:21Z</time>
      </trkpt>
      <trkpt lat="44.88517" lon="3.83584">
        <ele>1121.556</ele>
        <time>2021-09-29T13:23:01Z</time>
      </trkpt>
      <trkpt lat="44.88518" lon="3.83573">
        <ele>1121.211</ele>
        <time>2021-09-29T13:23:41Z</time>
      </trkpt>
      <trkpt lat="44.8852" lon="3.83562">
        <ele>1121.008</ele>
        <time>2021-09-29T13:24:21Z</time>
      </trkpt>
      <trkpt lat="44.88522" lon="3.8355">
        <ele>1120.793</ele>
        <time>2021-09-29T13:25:01Z</time>
      </trkpt>
      <trkpt lat="44.88524" lon="3.83538">
        <ele>1120.779</ele>
        <time>2021-09-29T13:25:41Z</time>
      </trkpt>
      <trkpt lat="44.88528" lon="3.83525">
        <ele>1120.864</ele>
        <time>2021-09-29T13:26:21Z</time>
      </trkpt>
      <trkpt lat="44.88532" lon="3.83512">
        <ele>1119.766</ele>
        <time>2021-09-29T13:27:01Z</time>
      </trkpt>
      <trkpt lat="44.88537" lon="3.83498">
        <ele>1118.954</ele>
        <time>2021-09-29T13:27:41Z</time>
      </trkpt>
      <trkpt lat="44.88541" lon="3.83484">
        <ele>1118.697</ele>
        <time>2021-09-29T13:28:21Z</time>
      </trkpt>
      <trkpt lat="44.88543" lon="3.83476">
        <ele>1118.529</ele>
        <time>2021-09-29T13:29:01Z</time>
      </trkpt>
      <trkpt lat="44.88546" lon="3.83464">
        <ele>1119.059</ele>
        <time>2021-09-29T13:29:41Z</time>
      </trkpt>
      <trkpt lat="44.88549" lon="3.83453">
        <ele>1119.636</ele>
        <time>2021-09-29T13:30:21Z</time>
      </trkpt>
      <trkpt lat="44.88552" lon="3.83441">
        <ele>1120.317</ele>
        <time>2021-09-29T13:31:01Z</time>
      </trkpt>
      <trkpt lat="44.88557" lon="3.83426">
        <ele>1121.418</ele>
        <time>2021-09-29T13:31:41Z</time>
      </trkpt>
      <trkpt lat="44.88561" lon="3.83411">
        <ele>1122.308</ele>
        <time>2021-09-29T13:32:21Z</time>
      </trkpt>
      <trkpt lat="44.88565" lon="3.83403">
        <ele>1122.331</ele>
        <time>2021-09-29T13:33:01Z</time>
      </trkpt>
      <trkpt lat="44.88568" lon="3.83395">
        <ele>1122.537</ele>
        <time>2021-09-29T13:33:41Z</time>
      </trkpt>
      <trkpt lat="44.88569" lon="3.83388">
        <ele>1123.132</ele>
        <time>2021-09-29T13:34:21Z</time>
      </trkpt>
      <trkpt lat="44.8857" lon="3.8338">
        <ele>1123.824</ele>
        <time>2021-09-29T13:35:01Z</time>
      </trkpt>
      <trkpt lat="44.8857" lon="3.83373">
        <ele>1124.492</ele>
        <time>2021-09-29T13:35:41Z</time>
      </trkpt>
      <trkpt lat="44.8857" lon="3.83361">
        <ele>1125.475</ele>
        <time>2021-09-29T13:36:21Z</time>
      </trkpt>
      <trkpt lat="44.88569" lon="3.8335">
        <ele>1126.887</ele>
        <time>2021-09-29T13:37:01Z</time>
      </trkpt>
      <trkpt lat="44.8857" lon="3.83342">
        <ele>1127.577</ele>
        <time>2021-09-29T13:37:41Z</time>
      </trkpt>
      <trkpt lat="44.88573" lon="3.83331">
        <ele>1128.589</ele>
        <time>2021-09-29T13:38:21Z</time>
      </trkpt>
      <trkpt lat="44.88575" lon="3.83319">
        <ele>1128.806</ele>
        <time>2021-09-29T13:39:01Z</time>
      </trkpt>
      <trkpt lat="44.88577" lon="3.83306">
        <ele>1129.226</ele>
        <time>2021-09-29T13:39:41Z</time>
      </trkpt>
      <trkpt lat="44.88579" lon="3.83294">
        <ele>1130.308</ele>
        <time>2021-09-29T13:40:21Z</time>
      </trkpt>
      <trkpt lat="44.88582" lon="3.83282">
        <ele>1131.556</ele>
        <time>2021-09-29T13:41:01Z</time>
      </trkpt>
      <trkpt lat="44.88583" lon="3.83272">
        <ele>1132.282</ele>
        <time>2021-09-29T13:41:41Z</time>
      </trkpt>
      <trkpt lat="44.88584" lon="3.83263">
        <ele>1132.587</ele>
        <time>2021-09-29T13:42:21Z</time>
      </trkpt>
      <trkpt lat="44.88584" lon="3.83251">
        <ele>1133.049</ele>
        <time>2021-09-29T13:43:01Z</time>
      </trkpt>
      <trkpt lat="44.88585" lon="3.83238">
        <ele>1133.457</ele>
        <time>2021-09-29T13:43:41Z</time>
      </trkpt>
      <trkpt lat="44.88585" lon="3.83226">
        <ele>1133.89</ele>
        <time>2021-09-29T13:44:21Z</time>
      </trkpt>
      <trkpt lat="44.88586" lon="3.83215">
        <ele>1133.672</ele>
        <time>2021-09-29T13:45:01Z</time>
      </trkpt>
      <trkpt lat="44.88587" lon="3.83204">
        <ele>1133.232</ele>
        <time>2021-09-29T13:45:41Z</time>
      </trkpt>
      <trkpt lat="44.88589" lon="3.8319">
        <ele>1133.053</ele>
        <time>2021-09-29T13:46:21Z</time>
      </trkpt>
      <trkpt lat="44.8859" lon="3.83177">
        <ele>1132.804</ele>
        <time>2021-09-29T13:47:01Z</time>
      </trkpt>
      <trkpt lat="44.88591" lon="3.83162">
        <ele>1132.714</ele>
        <time>2021-09-29T13:47:41Z</time>
      </trkpt>
      <trkpt lat="44.88592" lon="3.83148">
        <ele>1132.708</ele>
        <time>2021-09-29T13:48:21Z</time>
      </trkpt>
      <trkpt lat="44.88596" lon="3.83142">
        <ele>1132.663</ele>
        <time>2021-09-29T13:49:01Z</time>
      </trkpt>
      <trkpt lat="44.88598" lon="3.83139">
        <ele>1132.589</ele>
        <time>2021-09-29T13:49:41Z</time>
      </trkpt>
      <trkpt lat="44.886" lon="3.83136">
        <ele>1132.494</ele>
        <time>2021-09-29T13:50:21Z</time>
      </trkpt>
      <trkpt lat="44.88602" lon="3.83115">
        <ele>1132.336</ele>
        <time>2021-09-29T13:51:01Z</time>
      </trkpt>
      <trkpt lat="44.88604" lon="3.83093">
        <ele>1133.494</ele>
        <time>2021-09-29T13:51:41Z</time>
      </trkpt>
      <trkpt lat="44.88606" lon="3.83079">
        <ele>1134.357</ele>
        <time>2021-09-29T13:52:21Z</time>
      </trkpt>
      <trkpt lat="44.88605" lon="3.83059">
        <ele>1135.539</ele>
        <time>2021-09-29T13:53:01Z</time>
      </trkpt>
      <trkpt lat="44.88605" lon="3.83047">
        <ele>1136.389</ele>
        <time>2021-09-29T13:53:41Z</time>
      </trkpt>
      <trkpt lat="44.88609" lon="3.83025">
        <ele>1137.781</ele>
        <time>2021-09-29T13:54:21Z</time>
      </trkpt>
      <trkpt lat="44.88614" lon="3.82986">
        <ele>1137.261</ele>
        <time>2021-09-29T13:55:01Z</time>
      </trkpt>
      <trkpt lat="44.88616" lon="3.82958">
        <ele>1137.717</ele>
        <time>2021-09-29T13:55:41Z</time>
      </trkpt>
      <trkpt lat="44.88618" lon="3.82929">
        <ele>1138.708</ele>
        <time>2021-09-29T13:56:21Z</time>
      </trkpt>
      <trkpt lat="44.88618" lon="3.82881">
        <ele>1140.516</ele>
        <time>2021-09-29T13:57:01Z</time>
      </trkpt>
      <trkpt lat="44.88617" lon="3.82863">
        <ele>1140.622</ele>
        <time>2021-09-29T13:57:41Z</time>
      </trkpt>
      <trkpt lat="44.88619" lon="3.82846">
        <ele>1140.557</ele>
        <time>2021-09-29T13:58:21Z</time>
      </trkpt>
      <trkpt lat="44.88619" lon="3.82814">
        <ele>1140.489</ele>
        <time>2021-09-29T13:59:01Z</time>
      </trkpt>
      <trkpt lat="44.88617" lon="3.82794">
        <ele>1141.057</ele>
        <time>2021-09-29T13:59:41Z</time>
      </trkpt>
      <trkpt lat="44.88614" lon="3.82768">
        <ele>1142.23</ele>
        <time>2021-09-29T14:00:21Z</time>
      </trkpt>
      <trkpt lat="44.88612" lon="3.82759">
        <ele>1142.762</ele>
        <time>2021-09-29T14:01:01Z</time>
      </trkpt>
      <trkpt lat="44.8861" lon="3.82753">
        <ele>1142.952</ele>
        <time>2021-09-29T14:01:41Z</time>
      </trkpt>
      <trkpt lat="44.88608" lon="3.82745">
        <ele>1143.583</ele>
        <time>2021-09-29T14:02:21Z</time>
      </trkpt>
      <trkpt lat="44.886" lon="3.8272">
        <ele>1146.025</ele>
        <time>2021-09-29T14:03:01Z</time>
      </trkpt>
      <trkpt lat="44.88597" lon="3.82701">
        <ele>1148.017</ele>
        <time>2021-09-29T14:03:41Z</time>
      </trkpt>
      <trkpt lat="44.88595" lon="3.82687">
        <ele>1149.008</ele>
        <time>2021-09-29T14:04:21Z</time>
      </trkpt>
      <trkpt lat="44.88595" lon="3.82684">
        <ele>1149.256</ele>
        <time>2021-09-29T14:05:01Z</time>
      </trkpt>
      <trkpt lat="44.88594" lon="3.8268">
        <ele>1149.382</ele>
        <time>2021-09-29T14:05:41Z</time>
      </trkpt>
      <trkpt lat="44.88594" lon="3.82674">
        <ele>1149.627</ele>
        <time>2021-09-29T14:06:21Z</time>
      </trkpt>
      <trkpt lat="44.88594" lon="3.82667">
        <ele>1149.949</ele>
        <time>2021-09-29T14:07:01Z</time>
      </trkpt>
      <trkpt lat="44.88594" lon="3.82661">
        <ele>1150.257</ele>
        <time>2021-09-29T14:07:41Z</time>
      </trkpt>
      <trkpt lat="44.88596" lon="3.82657">
        <ele>1150.26</ele>
        <time>2021-09-29T14:08:21Z</time>
      </trkpt>
      <trkpt lat="44.88605" lon="3.82639">
        <ele>1149.912</ele>
        <time>2021-09-29T14:09:01Z</time>
      </trkpt>
      <trkpt lat="44.88609" lon="3.82627">
        <ele>1150.192</ele>
        <time>2021-09-29T14:09:41Z</time>
      </trkpt>
      <trkpt lat="44.88615" lon="3.82607">
        <ele>1150.989</ele>
        <time>2021-09-29T14:10:21Z</time>
      </trkpt>
      <trkpt lat="44.88617" lon="3.82595">
        <ele>1151.106</ele>
        <time>2021-09-29T14:11:01Z</time>
      </trkpt>
      <trkpt lat="44.88622" lon="3.82575">
        <ele>1151.526</ele>
        <time>2021-09-29T14:11:41Z</time>
      </trkpt>
      <trkpt lat="44.88625" lon="3.8256">
        <ele>1151.808</ele>
        <time>2021-09-29T14:12:21Z</time>
      </trkpt>
      <trkpt lat="44.88631" lon="3.82548">
        <ele>1151.626</ele>
        <time>2021-09-29T14:13:01Z</time>
      </trkpt>
      <trkpt lat="44.88637" lon="3.82541">
        <ele>1151.122</ele>
        <time>2021-09-29T14:13:41Z</time>
      </trkpt>
      <trkpt lat="44.88644" lon="3.82519">
        <ele>1150.047</ele>
        <time>2021-09-29T14:14:21Z</time>
      </trkpt>
      <trkpt lat="44.88652" lon="3.82494">
        <ele>1148.529</ele>
        <time>2021-09-29T14:15:01Z</time>
      </trkpt>
      <trkpt lat="44.88656" lon="3.82473">
        <ele>1148.247</ele>
        <time>2021-09-29T14:15:41Z</time>
      </trkpt>
      <trkpt lat="44.88658" lon="3.82454">
        <ele>1149.57</ele>
        <time>2021-09-29T14:16:21Z</time>
      </trkpt>
      <trkpt lat="44.88658" lon="3.82443">
        <ele>1150.312</ele>
        <time>2021-09-29T14:17:01Z</time>
      </trkpt>
      <trkpt lat="44.88657" lon="3.8243">
        <ele>1150.432</ele>
        <time>2021-09-29T14:17:41Z</time>
      </trkpt>
      <trkpt lat="44.8866" lon="3.82404">
        <ele>1149.866</ele>
        <time>2021-09-29T14:18:21Z</time>
      </trkpt>
      <trkpt lat="44.88667" lon="3.82362">
        <ele>1147.929</ele>
        <time>2021-09-29T14:19:01Z</time>
      </trkpt>
      <trkpt lat="44.88673" lon="3.82326">
        <ele>1147.121</ele>
        <time>2021-09-29T14:19:41Z</time>
      </trkpt>
      <trkpt lat="44.88676" lon="3.8231">
        <ele>1146.508</ele>
        <time>2021-09-29T14:20:21Z</time>
      </trkpt>
      <trkpt lat="44.88681" lon="3.82303">
        <ele>1145.894</ele>
        <time>2021-09-29T14:21:01Z</time>
      </trkpt>
      <trkpt lat="44.88691" lon="3.82291">
        <ele>1144.61</ele>
        <time>2021-09-29T14:21:41Z</time>
      </trkpt>
      <trkpt lat="44.887" lon="3.82277">
        <ele>1143.475</ele>
        <time>2021-09-29T14:22:21Z</time>
      </trkpt>
      <trkpt lat="44.88705" lon="3.82265">
        <ele>1142.847</ele>
        <time>2021-09-29T14:23:01Z</time>
      </trkpt>
      <trkpt lat="44.8871" lon="3.82253">
        <ele>1142.455</ele>
        <time>2021-09-29T14:23:41Z</time>
      </trkpt>
      <trkpt lat="44.88714" lon="3.82243">
        <ele>1142.548</ele>
        <time>2021-09-29T14:24:21Z</time>
      </trkpt>
      <trkpt lat="44.88723" lon="3.82233">
        <ele>1142.66</ele>
        <time>2021-09-29T14:25:01Z</time>
      </trkpt>
      <trkpt lat="44.88735" lon="3.82225">
        <ele>1142.98</ele>
        <time>2021-09-29T14:25:41Z</time>
      </trkpt>
      <trkpt lat="44.88741" lon="3.82224">
        <ele>1142.972</ele>
        <time>2021-09-29T14:26:21Z</time>
      </trkpt>
      <trkpt lat="44.88744" lon="3.82224">
        <ele>1142.913</ele>
        <time>2021-09-29T14:27:01Z</time>
      </trkpt>
      <trkpt lat="44.88745" lon="3.82225">
        <ele>1142.814</ele>
        <time>2021-09-29T14:27:41Z</time>
      </trkpt>
      <trkpt lat="44.88748" lon="3.82217">
        <ele>1143.208</ele>
        <time>2021-09-29T14:28:21Z</time>
      </trkpt>
      <trkpt lat="44.88766" lon="3.82158">
        <ele>1144.275</ele>
        <time>2021-09-29T14:29:01Z</time>
      </trkpt>
      <trkpt lat="44.88793" lon="3.82068">
        <ele>1149.171</ele>
        <time>2021-09-29T14:29:41Z</time>
      </trkpt>
      <trkpt lat="44.88812" lon="3.82004">
        <ele>1151.316</ele>
        <time>2021-09-29T14:30:21Z</time>
      </trkpt>
      <trkpt lat="44.88814" lon="3.81992">
        <ele>1151.988</ele>
        <time>2021-09-29T14:31:01Z</time>
      </trkpt>
      <trkpt lat="44.88815" lon="3.81981">
        <ele>1152.346</ele>
        <time>2021-09-29T14:31:41Z</time>
      </trkpt>
      <trkpt lat="44.88814" lon="3.81969">
        <ele>1152.639</ele>
        <time>2021-09-29T14:32:21Z</time>
      </trkpt>
      <trkpt lat="44.88809" lon="3.81951">
        <ele>1152.251</ele>
        <time>2021-09-29T14:33:01Z</time>
      </trkpt>
      <trkpt lat="44.88803" lon="3.81933">
        <ele>1152.311</ele>
        <time>2021-09-29T14:33:41Z</time>
      </trkpt>
      <trkpt lat="44.88799" lon="3.81914">
        <ele>1152.829</ele>
        <time>2021-09-29T14:34:21Z</time>
      </trkpt>
      <trkpt lat="44.88796" lon="3.81899">
        <ele>1152.9</ele>
        <time>2021-09-29T14:35:01Z</time>
      </trkpt>
      <trkpt lat="44.88794" lon="3.81886">
        <ele>1153.12</ele>
        <time>2021-09-29T14:35:41Z</time>
      </trkpt>
      <trkpt lat="44.88796" lon="3.81876">
        <ele>1153.308</ele>
        <time>2021-09-29T14:36:21Z</time>
      </trkpt>
      <trkpt lat="44.88802" lon="3.81852">
        <ele>1153.91</ele>
        <time>2021-09-29T14:37:01Z</time>
      </trkpt>
      <trkpt lat="44.88804" lon="3.81843">
        <ele>1153.956</ele>
        <time>2021-09-29T14:37:41Z</time>
      </trkpt>
      <trkpt lat="44.88812" lon="3.81809">
        <ele>1155.151</ele>
        <time>2021-09-29T14:38:21Z</time>
      </trkpt>
      <trkpt lat="44.88817" lon="3.81795">
        <ele>1155.893</ele>
        <time>2021-09-29T14:39:01Z</time>
      </trkpt>
      <trkpt lat="44.88818" lon="3.81792">
        <ele>1155.911</ele>
        <time>2021-09-29T14:39:41Z</time>
      </trkpt>
      <trkpt lat="44.88828" lon="3.81774">
        <ele>1156.824</ele>
        <time>2021-09-29T14:40:21Z</time>
      </trkpt>
      <trkpt lat="44.88831" lon="3.81771">
        <ele>1156.976</ele>
        <time>2021-09-29T14:41:01Z</time>
      </trkpt>
      <trkpt lat="44.88832" lon="3.8177">
        <ele>1157.036</ele>
        <time>2021-09-29T14:41:41Z</time>
      </trkpt>
      <trkpt lat="44.88836" lon="3.81745">
        <ele>1157.289</ele>
        <time>2021-09-29T14:42:21Z</time>
      </trkpt>
      <trkpt lat="44.88837" lon="3.81727">
        <ele>1157.206</ele>
        <time>2021-09-29T14:43:01Z</time>
      </trkpt>
      <trkpt lat="44.88837" lon="3.81723">
        <ele>1157.126</ele>
        <time>2021-09-29T14:43:41Z</time>
      </trkpt>
      <trkpt lat="44.8884" lon="3.81669">
        <ele>1156.208</ele>
        <time>2021-09-29T14:44:21Z</time>
      </trkpt>
      <trkpt lat="44.88842" lon="3.81615">
        <ele>1157.396</ele>
        <time>2021-09-29T14:45:01Z</time>
      </trkpt>
      <trkpt lat="44.88845" lon="3.81571">
        <ele>1157.122</ele>
        <time>2021-09-29T14:45:41Z</time>
      </trkpt>
      <trkpt lat="44.88846" lon="3.81556">
        <ele>1156.977</ele>
        <time>2021-09-29T14:46:21Z</time>
      </trkpt>
      <trkpt lat="44.88846" lon="3.81554">
        <ele>1157.059</ele>
        <time>2021-09-29T14:47:01Z</time>
      </trkpt>
      <trkpt lat="44.88841" lon="3.81541">
        <ele>1156.977</ele>
        <time>2021-09-29T14:47:41Z</time>
      </trkpt>
      <trkpt lat="44.88841" lon="3.81525">
        <ele>1157.32</ele>
        <time>2021-09-29T14:48:21Z</time>
      </trkpt>
      <trkpt lat="44.88842" lon="3.81495">
        <ele>1157.412</ele>
        <time>2021-09-29T14:49:01Z</time>
      </trkpt>
      <trkpt lat="44.88841" lon="3.81457">
        <ele>1158.072</ele>
        <time>2021-09-29T14:49:41Z</time>
      </trkpt>
      <trkpt lat="44.88839" lon="3.81423">
        <ele>1158.695</ele>
        <time>2021-09-29T14:50:21Z</time>
      </trkpt>
      <trkpt lat="44.88839" lon="3.81413">
        <ele>1158.849</ele>
        <time>2021-09-29T14:51:01Z</time>
      </trkpt>
      <trkpt lat="44.88839" lon="3.81411">
        <ele>1158.823</ele>
        <time>2021-09-29T14:51:41Z</time>
      </trkpt>
      <trkpt lat="44.88842" lon="3.81404">
        <ele>1158.808</ele>
        <time>2021-09-29T14:52:21Z</time>
      </trkpt>
      <trkpt lat="44.88847" lon="3.81398">
        <ele>1158.897</ele>
        <time>2021-09-29T14:53:01Z</time>
      </trkpt>
      <trkpt lat="44.88858" lon="3.81377">
        <ele>1159.063</ele>
        <time>2021-09-29T14:53:41Z</time>
      </trkpt>
      <trkpt lat="44.88872" lon="3.81346">
        <ele>1159.068</ele>
        <time>2021-09-29T14:54:21Z</time>
      </trkpt>
      <trkpt lat="44.88896" lon="3.81296">
        <ele>1162.08</ele>
        <time>2021-09-29T14:55:01Z</time>
      </trkpt>
      <trkpt lat="44.88916" lon="3.81266">
        <ele>1164.878</ele>
        <time>2021-09-29T14:55:41Z</time>
      </trkpt>
      <trkpt lat="44.8893" lon="3.81242">
        <ele>1166.781</ele>
        <time>2021-09-29T14:56:21Z</time>
      </trkpt>
      <trkpt lat="44.88935" lon="3.81235">
        <ele>1167.323</ele>
        <time>2021-09-29T14:57:01Z</time>
      </trkpt>
      <trkpt lat="44.88936" lon="3.81224">
        <ele>1168.263</ele>
        <time>2021-09-29T14:57:41Z</time>
      </trkpt>
      <trkpt lat="44.8894" lon="3.81184">
        <ele>1172.667</ele>
        <time>2021-09-29T14:58:21Z</time>
      </trkpt>
      <trkpt lat="44.88943" lon="3.81145">
        <ele>1175.881</ele>
        <time>2021-09-29T14:59:01Z</time>
      </trkpt>
      <trkpt lat="44.88949" lon="3.81091">
        <ele>1179.019</ele>
        <time>2021-09-29T14:59:41Z</time>
      </trkpt>
      <trkpt lat="44.88954" lon="3.8104">
        <ele>1183.608</ele>
        <time>2021-09-29T15:00:21Z</time>
      </trkpt>
      <trkpt lat="44.88961" lon="3.80993">
        <ele>1188.184</ele>
        <time>2021-09-29T15:01:01Z</time>
      </trkpt>
      <trkpt lat="44.88965" lon="3.80963">
        <ele>1191.44</ele>
        <time>2021-09-29T15:01:41Z</time>
      </trkpt>
      <trkpt lat="44.8897" lon="3.80946">
        <ele>1192.955</ele>
        <time>2021-09-29T15:02:21Z</time>
      </trkpt>
      <trkpt lat="44.88976" lon="3.80926">
        <ele>1193.997</ele>
        <time>2021-09-29T15:03:01Z</time>
      </trkpt>
      <trkpt lat="44.8898" lon="3.80909">
        <ele>1195.355</ele>
        <time>2021-09-29T15:03:41Z</time>
      </trkpt>
      <trkpt lat="44.8898" lon="3.8088">
        <ele>1197.888</ele>
        <time>2021-09-29T15:04:21Z</time>
      </trkpt>
      <trkpt lat="44.88976" lon="3.80841">
        <ele>1200.93</ele>
        <time>2021-09-29T15:05:01Z</time>
      </trkpt>
      <trkpt lat="44.88974" lon="3.80804">
        <ele>1204.88</ele>
        <time>2021-09-29T15:05:41Z</time>
      </trkpt>
      <trkpt lat="44.88975" lon="3.80783">
        <ele>1205.699</ele>
        <time>2021-09-29T15:06:21Z</time>
      </trkpt>
      <trkpt lat="44.88976" lon="3.80758">
        <ele>1205.407</ele>
        <time>2021-09-29T15:07:01Z</time>
      </trkpt>
      <trkpt lat="44.88976" lon="3.80754">
        <ele>1205.327</ele>
        <time>2021-09-29T15:07:41Z</time>
      </trkpt>
      <trkpt lat="44.88976" lon="3.80721">
        <ele>1204.408</ele>
        <time>2021-09-29T15:08:21Z</time>
      </trkpt>
      <trkpt lat="44.88972" lon="3.80706">
        <ele>1204.617</ele>
        <time>2021-09-29T15:09:01Z</time>
      </trkpt>
      <trkpt lat="44.88964" lon="3.80688">
        <ele>1204.993</ele>
        <time>2021-09-29T15:09:41Z</time>
      </trkpt>
      <trkpt lat="44.88962" lon="3.80683">
        <ele>1204.928</ele>
        <time>2021-09-29T15:10:21Z</time>
      </trkpt>
      <trkpt lat="44.88954" lon="3.80665">
        <ele>1205.33</ele>
        <time>2021-09-29T15:11:01Z</time>
      </trkpt>
      <trkpt lat="44.88947" lon="3.80645">
        <ele>1205.788</ele>
        <time>2021-09-29T15:11:41Z</time>
      </trkpt>
      <trkpt lat="44.88942" lon="3.80622">
        <ele>1206.231</ele>
        <time>2021-09-29T15:12:21Z</time>
      </trkpt>
      <trkpt lat="44.88941" lon="3.8062">
        <ele>1206.233</ele>
        <time>2021-09-29T15:13:01Z</time>
      </trkpt>
      <trkpt lat="44.88933" lon="3.80577">
        <ele>1205.363</ele>
        <time>2021-09-29T15:13:41Z</time>
      </trkpt>
      <trkpt lat="44.88931" lon="3.80545">
        <ele>1205.028</ele>
        <time>2021-09-29T15:14:21Z</time>
      </trkpt>
      <trkpt lat="44.88932" lon="3.80527">
        <ele>1204.989</ele>
        <time>2021-09-29T15:15:01Z</time>
      </trkpt>
      <trkpt lat="44.88932" lon="3.80507">
        <ele>1204.917</ele>
        <time>2021-09-29T15:15:41Z</time>
      </trkpt>
      <trkpt lat="44.88932" lon="3.80491">
        <ele>1205.108</ele>
        <time>2021-09-29T15:16:21Z</time>
      </trkpt>
      <trkpt lat="44.88928" lon="3.80472">
        <ele>1205.65</ele>
        <time>2021-09-29T15:17:01Z</time>
      </trkpt>
      <trkpt lat="44.88925" lon="3.8046">
        <ele>1206.076</ele>
        <time>2021-09-29T15:17:41Z</time>
      </trkpt>
      <trkpt lat="44.88924" lon="3.80458">
        <ele>1206.061</ele>
        <time>2021-09-29T15:18:21Z</time>
      </trkpt>
      <trkpt lat="44.88927" lon="3.80452">
        <ele>1206.223</ele>
        <time>2021-09-29T15:19:01Z</time>
      </trkpt>
      <trkpt lat="44.88936" lon="3.80433">
        <ele>1206.891</ele>
        <time>2021-09-29T15:19:41Z</time>
      </trkpt>
      <trkpt lat="44.88946" lon="3.80406">
        <ele>1206.654</ele>
        <time>2021-09-29T15:20:21Z</time>
      </trkpt>
      <trkpt lat="44.88962" lon="3.80358">
        <ele>1204.336</ele>
        <time>2021-09-29T15:21:01Z</time>
      </trkpt>
      <trkpt lat="44.88981" lon="3.80293">
        <ele>1204.696</ele>
        <time>2021-09-29T15:21:41Z</time>
      </trkpt>
      <trkpt lat="44.8899" lon="3.80257">
        <ele>1205.325</ele>
        <time>2021-09-29T15:22:21Z</time>
      </trkpt>
      <trkpt lat="44.88996" lon="3.80228">
        <ele>1205.226</ele>
        <time>2021-09-29T15:23:01Z</time>
      </trkpt>
      <trkpt lat="44.88998" lon="3.80206">
        <ele>1205.108</ele>
        <time>2021-09-29T15:23:41Z</time>
      </trkpt>
      <trkpt lat="44.88999" lon="3.8017">
        <ele>1205.008</ele>
        <time>2021-09-29T15:24:21Z</time>
      </trkpt>
      <trkpt lat="44.88999" lon="3.80166">
        <ele>1205.16</ele>
        <time>2021-09-29T15:25:01Z</time>
      </trkpt>
      <trkpt lat="44.88968" lon="3.80148">
        <ele>1206.816</ele>
        <time>2021-09-29T15:25:41Z</time>
      </trkpt>
      <trkpt lat="44.88927" lon="3.80121">
        <ele>1209.371</ele>
        <time>2021-09-29T15:26:21Z</time>
      </trkpt>
      <trkpt lat="44.88918" lon="3.80114">
        <ele>1209.853</ele>
        <time>2021-09-29T15:27:01Z</time>
      </trkpt>
      <trkpt lat="44.8892" lon="3.80111">
        <ele>1209.921</ele>
        <time>2021-09-29T15:27:41Z</time>
      </trkpt>
      <trkpt lat="44.88926" lon="3.80087">
        <ele>1210.024</ele>
        <time>2021-09-29T15:28:21Z</time>
      </trkpt>
      <trkpt lat="44.88932" lon="3.80052">
        <ele>1210.146</ele>
        <time>2021-09-29T15:29:01Z</time>
      </trkpt>
      <trkpt lat="44.88937" lon="3.80024">
        <ele>1210.396</ele>
        <time>2021-09-29T15:29:41Z</time>
      </trkpt>
      <trkpt lat="44.88946" lon="3.79979">
        <ele>1209.234</ele>
        <time>2021-09-29T15:30:21Z</time>
      </trkpt>
      <trkpt lat="44.88948" lon="3.79966">
        <ele>1209.255</ele>
        <time>2021-09-29T15:31:01Z</time>
      </trkpt>
      <trkpt lat="44.88953" lon="3.79933">
        <ele>1210.81</ele>
        <time>2021-09-29T15:31:41Z</time>
      </trkpt>
      <trkpt lat="44.88955" lon="3.79916">
        <ele>1212.008</ele>
        <time>2021-09-29T15:32:21Z</time>
      </trkpt>
      <trkpt lat="44.88959" lon="3.79877">
        <ele>1212.051</ele>
        <time>2021-09-29T15:33:01Z</time>
      </trkpt>
      <trkpt lat="44.88962" lon="3.79849">
        <ele>1212.287</ele>
        <time>2021-09-29T15:33:41Z</time>
      </trkpt>
      <trkpt lat="44.88966" lon="3.7982">
        <ele>1211.922</ele>
        <time>2021-09-29T15:34:21Z</time>
      </trkpt>
      <trkpt lat="44.88972" lon="3.79772">
        <ele>1210.974</ele>
        <time>2021-09-29T15:35:01Z</time>
      </trkpt>
      <trkpt lat="44.88978" lon="3.79723">
        <ele>1210.472</ele>
        <time>2021-09-29T15:35:41Z</time>
      </trkpt>
      <trkpt lat="44.88984" lon="3.79676">
        <ele>1212.295</ele>
        <time>2021-09-29T15:36:21Z</time>
      </trkpt>
      <trkpt lat="44.88992" lon="3.79629">
        <ele>1212.767</ele>
        <time>2021-09-29T15:37:01Z</time>
      </trkpt>
      <trkpt lat="44.88996" lon="3.79616">
        <ele>1212.987</ele>
        <time>2021-09-29T15:37:41Z</time>
      </trkpt>
      <trkpt lat="44.89005" lon="3.79606">
        <ele>1212.854</ele>
        <time>2021-09-29T15:38:21Z</time>
      </trkpt>
      <trkpt lat="44.89019" lon="3.79597">
        <ele>1212.356</ele>
        <time>2021-09-29T15:39:01Z</time>
      </trkpt>
      <trkpt lat="44.89025" lon="3.79593">
        <ele>1212.111</ele>
        <time>2021-09-29T15:39:41Z</time>
      </trkpt>
      <trkpt lat="44.89035" lon="3.79583">
        <ele>1212.008</ele>
        <time>2021-09-29T15:40:21Z</time>
      </trkpt>
      <trkpt lat="44.89039" lon="3.79577">
        <ele>1212.263</ele>
        <time>2021-09-29T15:41:01Z</time>
      </trkpt>
      <trkpt lat="44.89041" lon="3.79571">
        <ele>1212.499</ele>
        <time>2021-09-29T15:41:41Z</time>
      </trkpt>
      <trkpt lat="44.89043" lon="3.79565">
        <ele>1212.774</ele>
        <time>2021-09-29T15:42:21Z</time>
      </trkpt>
      <trkpt lat="44.89044" lon="3.79542">
        <ele>1213.016</ele>
        <time>2021-09-29T15:43:01Z</time>
      </trkpt>
      <trkpt lat="44.89044" lon="3.79516">
        <ele>1213.574</ele>
        <time>2021-09-29T15:43:41Z</time>
      </trkpt>
      <trkpt lat="44.89045" lon="3.7949">
        <ele>1214.417</ele>
        <time>2021-09-29T15:44:21Z</time>
      </trkpt>
      <trkpt lat="44.89047" lon="3.79472">
        <ele>1214.799</ele>
        <time>2021-09-29T15:45:01Z</time>
      </trkpt>
      <trkpt lat="44.89048" lon="3.79463">
        <ele>1215.069</ele>
        <time>2021-09-29T15:45:41Z</time>
      </trkpt>
      <trkpt lat="44.89051" lon="3.7945">
        <ele>1215.749</ele>
        <time>2021-09-29T15:46:21Z</time>
      </trkpt>
      <trkpt lat="44.89055" lon="3.79436">
        <ele>1215.602</ele>
        <time>2021-09-29T15:47:01Z</time>
      </trkpt>
      <trkpt lat="44.89056" lon="3.7943">
        <ele>1215.522</ele>
        <time>2021-09-29T15:47:41Z</time>
      </trkpt>
      <trkpt lat="44.89053" lon="3.79417">
        <ele>1214.908</ele>
        <time>2021-09-29T15:48:21Z</time>
      </trkpt>
      <trkpt lat="44.89048" lon="3.79397">
        <ele>1214.782</ele>
        <time>2021-09-29T15:49:01Z</time>
      </trkpt>
      <trkpt lat="44.89039" lon="3.79358">
        <ele>1214.028</ele>
        <time>2021-09-29T15:49:41Z</time>
      </trkpt>
      <trkpt lat="44.89037" lon="3.79348">
        <ele>1214.023</ele>
        <time>2021-09-29T15:50:21Z</time>
      </trkpt>
      <trkpt lat="44.89035" lon="3.79338">
        <ele>1214.045</ele>
        <time>2021-09-29T15:51:01Z</time>
      </trkpt>
      <trkpt lat="44.89032" lon="3.79329">
        <ele>1214.053</ele>
        <time>2021-09-29T15:51:41Z</time>
      </trkpt>
      <trkpt lat="44.8903" lon="3.79319">
        <ele>1214.016</ele>
        <time>2021-09-29T15:52:21Z</time>
      </trkpt>
      <trkpt lat="44.89023" lon="3.79287">
        <ele>1214.768</ele>
        <time>2021-09-29T15:53:01Z</time>
      </trkpt>
      <trkpt lat="44.89019" lon="3.79269">
        <ele>1215.548</ele>
        <time>2021-09-29T15:53:41Z</time>
      </trkpt>
      <trkpt lat="44.89017" lon="3.7926">
        <ele>1216.022</ele>
        <time>2021-09-29T15:54:21Z</time>
      </trkpt>
      <trkpt lat="44.89016" lon="3.79255">
        <ele>1216.362</ele>
        <time>2021-09-29T15:55:01Z</time>
      </trkpt>
      <trkpt lat="44.89015" lon="3.79252">
        <ele>1216.508</ele>
        <time>2021-09-29T15:55:41Z</time>
      </trkpt>
      <trkpt lat="44.89006" lon="3.79217">
        <ele>1217.208</ele>
        <time>2021-09-29T15:56:21Z</time>
      </trkpt>
      <trkpt lat="44.89003" lon="3.79203">
        <ele>1217.66</ele>
        <time>2021-09-29T15:57:01Z</time>
      </trkpt>
      <trkpt lat="44.89001" lon="3.79195">
        <ele>1217.926</ele>
        <time>2021-09-29T15:57:41Z</time>
      </trkpt>
      <trkpt lat="44.88999" lon="3.79189">
        <ele>1218.271</ele>
        <time>2021-09-29T15:58:21Z</time>
      </trkpt>
      <trkpt lat="44.88995" lon="3.7917">
        <ele>1218.733</ele>
        <time>2021-09-29T15:59:01Z</time>
      </trkpt>
      <trkpt lat="44.88989" lon="3.79151">
        <ele>1218.931</ele>
        <time>2021-09-29T15:59:41Z</time>
      </trkpt>
      <trkpt lat="44.88987" lon="3.79144">
        <ele>1218.924</ele>
        <time>2021-09-29T16:00:21Z</time>
      </trkpt>
      <trkpt lat="44.88983" lon="3.79134">
        <ele>1218.886</ele>
        <time>2021-09-29T16:01:01Z</time>
      </trkpt>
      <trkpt lat="44.88979" lon="3.79124">
        <ele>1218.666</ele>
        <time>2021-09-29T16:01:41Z</time>
      </trkpt>
      <trkpt lat="44.88975" lon="3.79115">
        <ele>1218.374</ele>
        <time>2021-09-29T16:02:21Z</time>
      </trkpt>
      <trkpt lat="44.88971" lon="3.79104">
        <ele>1217.956</ele>
        <time>2021-09-29T16:03:01Z</time>
      </trkpt>
      <trkpt lat="44.88968" lon="3.79099">
        <ele>1217.821</ele>
        <time>2021-09-29T16:03:41Z</time>
      </trkpt>
      <trkpt lat="44.88968" lon="3.79098">
        <ele>1217.808</ele>
        <time>2021-09-29T16:04:21Z</time>
      </trkpt>
      <trkpt lat="44.88967" lon="3.79097">
        <ele>1217.845</ele>
        <time>2021-09-29T16:05:01Z</time>
      </trkpt>
      <trkpt lat="44.88966" lon="3.79097">
        <ele>1217.881</ele>
        <time>2021-09-29T16:05:41Z</time>
      </trkpt>
      <trkpt lat="44.88966" lon="3.79096">
        <ele>1217.846</ele>
        <time>2021-09-29T16:06:21Z</time>
      </trkpt>
      <trkpt lat="44.88965" lon="3.79095">
        <ele>1217.848</ele>
        <time>2021-09-29T16:07:01Z</time>
      </trkpt>
      <trkpt lat="44.88965" lon="3.79095">
        <ele>1217.756</ele>
        <time>2021-09-29T16:07:41Z</time>
      </trkpt>
      <trkpt lat="44.88964" lon="3.79094">
        <ele>1217.749</ele>
        <time>2021-09-29T16:08:21Z</time>
      </trkpt>
      <trkpt lat="44.88964" lon="3.79093">
        <ele>1217.761</ele>
        <time>2021-09-29T16:09:01Z</time>
      </trkpt>
      <trkpt lat="44.88963" lon="3.79093">
        <ele>1217.741</ele>
        <time>2021-09-29T16:09:41Z</time>
      </trkpt>
      <trkpt lat="44.88963" lon="3.79092">
        <ele>1217.773</ele>
        <time>2021-09-29T16:10:21Z</time>
      </trkpt>
      <trkpt lat="44.88962" lon="3.79091">
        <ele>1217.685</ele>
        <time>2021-09-29T16:11:01Z</time>
      </trkpt>
      <trkpt lat="44.88962" lon="3.79091">
        <ele>1217.613</ele>
        <time>2021-09-29T16:11:41Z</time>
      </trkpt>
      <trkpt lat="44.88961" lon="3.7909">
        <ele>1217.608</ele>
        <time>2021-09-29T16:12:21Z</time>
      </trkpt>
      <trkpt lat="44.8896" lon="3.7909">
        <ele>1217.675</ele>
        <time>2021-09-29T16:13:01Z</time>
      </trkpt>
      <trkpt lat="44.8896" lon="3.79089">
        <ele>1217.581</ele>
        <time>2021-09-29T16:13:41Z</time>
      </trkpt>
      <trkpt lat="44.88959" lon="3.79089">
        <ele>1217.536</ele>
        <time>2021-09-29T16:14:21Z</time>
      </trkpt>
      <trkpt lat="44.88958" lon="3.79088">
        <ele>1217.588</ele>
        <time>2021-09-29T16:15:01Z</time>
      </trkpt>
      <trkpt lat="44.88958" lon="3.79088">
        <ele>1217.576</ele>
        <time>2021-09-29T16:15:41Z</time>
      </trkpt>
      <trkpt lat="44.88957" lon="3.79087">
        <ele>1217.429</ele>
        <time>2021-09-29T16:16:21Z</time>
      </trkpt>
      <trkpt lat="44.88956" lon="3.79087">
        <ele>1217.471</ele>
        <time>2021-09-29T16:17:01Z</time>
      </trkpt>
      <trkpt lat="44.88956" lon="3.79086">
        <ele>1217.471</ele>
        <time>2021-09-29T16:17:41Z</time>
      </trkpt>
      <trkpt lat="44.88955" lon="3.79086">
        <ele>1217.415</ele>
        <time>2021-09-29T16:18:21Z</time>
      </trkpt>
      <trkpt lat="44.88954" lon="3.79085">
        <ele>1217.465</ele>
        <time>2021-09-29T16:19:01Z</time>
      </trkpt>
      <trkpt lat="44.88954" lon="3.79085">
        <ele>1217.311</ele>
        <time>2021-09-29T16:19:41Z</time>
      </trkpt>
      <trkpt lat="44.88953" lon="3.79084">
        <ele>1217.308</ele>
        <time>2021-09-29T16:20:21Z</time>
      </trkpt>
      <trkpt lat="44.88952" lon="3.79084">
        <ele>1217.319</ele>
        <time>2021-09-29T16:21:01Z</time>
      </trkpt>
      <trkpt lat="44.88951" lon="3.79084">
        <ele>1217.275</ele>
        <time>2021-09-29T16:21:41Z</time>
      </trkpt>
      <trkpt lat="44.88951" lon="3.79083">
        <ele>1217.27</ele>
        <time>2021-09-29T16:22:21Z</time>
      </trkpt>
      <trkpt lat="44.8895" lon="3.79083">
        <ele>1217.292</ele>
        <time>2021-09-29T16:23:01Z</time>
      </trkpt>
      <trkpt lat="44.88949" lon="3.79082">
        <ele>1217.27</ele>
        <time>2021-09-29T16:23:41Z</time>
      </trkpt>
      <trkpt lat="44.88949" lon="3.79082">
        <ele>1217.253</ele>
        <time>2021-09-29T16:24:21Z</time>
      </trkpt>
      <trkpt lat="44.88948" lon="3.79082">
        <ele>1217.285</ele>
        <time>2021-09-29T16:25:01Z</time>
      </trkpt>
      <trkpt lat="44.88947" lon="3.79081">
        <ele>1217.265</ele>
        <time>2021-09-29T16:25:41Z</time>
      </trkpt>
      <trkpt lat="44.88946" lon="3.79081">
        <ele>1217.253</ele>
        <time>2021-09-29T16:26:21Z</time>
      </trkpt>
      <trkpt lat="44.88946" lon="3.79081">
        <ele>1217.104</ele>
        <time>2021-09-29T16:27:01Z</time>
      </trkpt>
      <trkpt lat="44.88945" lon="3.7908">
        <ele>1217.114</ele>
        <time>2021-09-29T16:27:41Z</time>
      </trkpt>
      <trkpt lat="44.88944" lon="3.7908">
        <ele>1217.108</ele>
        <time>2021-09-29T16:28:21Z</time>
      </trkpt>
      <trkpt lat="44.88943" lon="3.79079">
        <ele>1217.233</ele>
        <time>2021-09-29T16:29:01Z</time>
      </trkpt>
      <trkpt lat="44.88943" lon="3.79079">
        <ele>1217.259</ele>
        <time>2021-09-29T16:29:41Z</time>
      </trkpt>
      <trkpt lat="44.88942" lon="3.79079">
        <ele>1217.284</ele>
        <time>2021-09-29T16:30:21Z</time>
      </trkpt>
      <trkpt lat="44.88941" lon="3.79078">
        <ele>1217.366</ele>
        <time>2021-09-29T16:31:01Z</time>
      </trkpt>
      <trkpt lat="44.8894" lon="3.79078">
        <ele>1217.384</ele>
        <time>2021-09-29T16:31:41Z</time>
      </trkpt>
      <trkpt lat="44.8894" lon="3.79078">
        <ele>1217.337</ele>
        <time>2021-09-29T16:32:21Z</time>
      </trkpt>
      <trkpt lat="44.88939" lon="3.79077">
        <ele>1217.459</ele>
        <time>2021-09-29T16:33:01Z</time>
      </trkpt>
      <trkpt lat="44.88938" lon="3.79077">
        <ele>1217.479</ele>
        <time>2021-09-29T16:33:41Z</time>
      </trkpt>
      <trkpt lat="44.88937" lon="3.79076">
        <ele>1217.467</ele>
        <time>2021-09-29T16:34:21Z</time>
      </trkpt>
      <trkpt lat="44.88937" lon="3.79076">
        <ele>1217.581</ele>
        <time>2021-09-29T16:35:01Z</time>
      </trkpt>
      <trkpt lat="44.88936" lon="3.79076">
        <ele>1217.519</ele>
        <time>2021-09-29T16:35:41Z</time>
      </trkpt>
      <trkpt lat="44.88935" lon="3.79075">
        <ele>1217.508</ele>
        <time>2021-09-29T16:36:21Z</time>
      </trkpt>
      <trkpt lat="44.88935" lon="3.79075">
        <ele>1217.514</ele>
        <time>2021-09-29T16:37:01Z</time>
      </trkpt>
      <trkpt lat="44.88934" lon="3.79075">
        <ele>1217.66</ele>
        <time>2021-09-29T16:37:41Z</time>
      </trkpt>
      <trkpt lat="44.88934" lon="3.79074">
        <ele>1217.615</ele>
        <time>2021-09-29T16:38:21Z</time>
      </trkpt>
      <trkpt lat="44.88926" lon="3.79069">
        <ele>1217.867</ele>
        <time>2021-09-29T16:39:01Z</time>
      </trkpt>
      <trkpt lat="44.88916" lon="3.79063">
        <ele>1218.085</ele>
        <time>2021-09-29T16:39:41Z</time>
      </trkpt>
      <trkpt lat="44.88909" lon="3.79058">
        <ele>1218.078</ele>
        <time>2021-09-29T16:40:21Z</time>
      </trkpt>
      <trkpt lat="44.88907" lon="3.79057">
        <ele>1218.02</ele>
        <time>2021-09-29T16:41:01Z</time>
      </trkpt>
      <trkpt lat="44.889" lon="3.79052">
        <ele>1218.02</ele>
        <time>2021-09-29T16:41:41Z</time>
      </trkpt>
      <trkpt lat="44.88887" lon="3.79043">
        <ele>1218.031</ele>
        <time>2021-09-29T16:42:21Z</time>
      </trkpt>
      <trkpt lat="44.88869" lon="3.7903">
        <ele>1217.361</ele>
        <time>2021-09-29T16:43:01Z</time>
      </trkpt>
      <trkpt lat="44.88866" lon="3.79028">
        <ele>1217.207</ele>
        <time>2021-09-29T16:43:41Z</time>
      </trkpt>
      <trkpt lat="44.88865" lon="3.79027">
        <ele>1217.108</ele>
        <time>2021-09-29T16:44:21Z</time>
      </trkpt>
      <trkpt lat="44.88859" lon="3.79022">
        <ele>1217.081</ele>
        <time>2021-09-29T16:45:01Z</time>
      </trkpt>
      <trkpt lat="44.88852" lon="3.79017">
        <ele>1217.057</ele>
        <time>2021-09-29T16:45:41Z</time>
      </trkpt>
      <trkpt lat="44.88844" lon="3.79011">
        <ele>1217.052</ele>
        <time>2021-09-29T16:46:21Z</time>
      </trkpt>
      <trkpt lat="44.88834" lon="3.79003">
        <ele>1217.024</ele>
        <time>2021-09-29T16:47:01Z</time>
      </trkpt>
      <trkpt lat="44.88823" lon="3.79007">
        <ele>1217.362</ele>
        <time>2021-09-29T16:47:41Z</time>
      </trkpt>
      <trkpt lat="44.88812" lon="3.79013">
        <ele>1217.475</ele>
        <time>2021-09-29T16:48:21Z</time>
      </trkpt>
      <trkpt lat="44.88791" lon="3.79019">
        <ele>1216.867</ele>
        <time>2021-09-29T16:49:01Z</time>
      </trkpt>
      <trkpt lat="44.88763" lon="3.79025">
        <ele>1216.147</ele>
        <time>2021-09-29T16:49:41Z</time>
      </trkpt>
      <trkpt lat="44.88755" lon="3.79027">
        <ele>1216.055</ele>
        <time>2021-09-29T16:50:21Z</time>
      </trkpt>
      <trkpt lat="44.88743" lon="3.79029">
        <ele>1216.507</ele>
        <time>2021-09-29T16:51:01Z</time>
      </trkpt>
      <trkpt lat="44.88723" lon="3.79033">
        <ele>1217.717</ele>
        <time>2021-09-29T16:51:41Z</time>
      </trkpt>
      <trkpt lat="44.88692" lon="3.79038">
        <ele>1218.008</ele>
        <time>2021-09-29T16:52:21Z</time>
      </trkpt>
      <trkpt lat="44.88654" lon="3.79045">
        <ele>1218.073</ele>
        <time>2021-09-29T16:53:01Z</time>
      </trkpt>
      <trkpt lat="44.88648" lon="3.79046">
        <ele>1218.069</ele>
        <time>2021-09-29T16:53:41Z</time>
      </trkpt>
      <trkpt lat="44.88634" lon="3.79048">
        <ele>1218.074</ele>
        <time>2021-09-29T16:54:21Z</time>
      </trkpt>
      <trkpt lat="44.88593" lon="3.79054">
        <ele>1218.076</ele>
        <time>2021-09-29T16:55:01Z</time>
      </trkpt>
      <trkpt lat="44.88561" lon="3.79059">
        <ele>1218.854</ele>
        <time>2021-09-29T16:55:41Z</time>
      </trkpt>
      <trkpt lat="44.8853" lon="3.79064">
        <ele>1219.977</ele>
        <time>2021-09-29T16:56:21Z</time>
      </trkpt>
      <trkpt lat="44.885" lon="3.79072">
        <ele>1218.959</ele>
        <time>2021-09-29T16:57:01Z</time>
      </trkpt>
      <trkpt lat="44.88481" lon="3.79076">
        <ele>1216.499</ele>
        <time>2021-09-29T16:57:41Z</time>
      </trkpt>
      <trkpt lat="44.88468" lon="3.79079">
        <ele>1215.062</ele>
        <time>2021-09-29T16:58:21Z</time>
      </trkpt>
      <trkpt lat="44.88465" lon="3.79079">
        <ele>1214.983</ele>
        <time>2021-09-29T16:59:01Z</time>
      </trkpt>
      <trkpt lat="44.88443" lon="3.79084">
        <ele>1214.011</ele>
        <time>2021-09-29T16:59:41Z</time>
      </trkpt>
      <trkpt lat="44.88436" lon="3.79086">
        <ele>1213.908</ele>
        <time>2021-09-29T17:00:21Z</time>
      </trkpt>
      <trkpt lat="44.88425" lon="3.79089">
        <ele>1213.974</ele>
        <time>2021-09-29T17:01:01Z</time>
      </trkpt>
      <trkpt lat="44.88414" lon="3.79093">
        <ele>1214.17</ele>
        <time>2021-09-29T17:01:41Z</time>
      </trkpt>
      <trkpt lat="44.88394" lon="3.79101">
        <ele>1214.875</ele>
        <time>2021-09-29T17:02:21Z</time>
      </trkpt>
      <trkpt lat="44.88356" lon="3.79117">
        <ele>1214.497</ele>
        <time>2021-09-29T17:03:01Z</time>
      </trkpt>
      <trkpt lat="44.88336" lon="3.79124">
        <ele>1213.145</ele>
        <time>2021-09-29T17:03:41Z</time>
      </trkpt>
      <trkpt lat="44.88331" lon="3.79127">
        <ele>1212.878</ele>
        <time>2021-09-29T17:04:21Z</time>
      </trkpt>
      <trkpt lat="44.88319" lon="3.7913">
        <ele>1212.58</ele>
        <time>2021-09-29T17:05:01Z</time>
      </trkpt>
      <trkpt lat="44.88291" lon="3.7914">
        <ele>1212.05</ele>
        <time>2021-09-29T17:05:41Z</time>
      </trkpt>
      <trkpt lat="44.88277" lon="3.79144">
        <ele>1211.856</ele>
        <time>2021-09-29T17:06:21Z</time>
      </trkpt>
      <trkpt lat="44.88251" lon="3.79153">
        <ele>1211.959</ele>
        <time>2021-09-29T17:07:01Z</time>
      </trkpt>
      <trkpt lat="44.88239" lon="3.79158">
        <ele>1211.614</ele>
        <time>2021-09-29T17:07:41Z</time>
      </trkpt>
      <trkpt lat="44.88229" lon="3.79162">
        <ele>1211.408</ele>
        <time>2021-09-29T17:08:21Z</time>
      </trkpt>
      <trkpt lat="44.88212" lon="3.79168">
        <ele>1210.953</ele>
        <time>2021-09-29T17:09:01Z</time>
      </trkpt>
      <trkpt lat="44.88202" lon="3.79173">
        <ele>1210.899</ele>
        <time>2021-09-29T17:09:41Z</time>
      </trkpt>
      <trkpt lat="44.88178" lon="3.79185">
        <ele>1210.654</ele>
        <time>2021-09-29T17:10:21Z</time>
      </trkpt>
      <trkpt lat="44.88176" lon="3.79186">
        <ele>1210.596</ele>
        <time>2021-09-29T17:11:01Z</time>
      </trkpt>
      <trkpt lat="44.8817" lon="3.79188">
        <ele>1210.474</ele>
        <time>2021-09-29T17:11:41Z</time>
      </trkpt>
      <trkpt lat="44.88159" lon="3.79194">
        <ele>1209.497</ele>
        <time>2021-09-29T17:12:21Z</time>
      </trkpt>
      <trkpt lat="44.88141" lon="3.79203">
        <ele>1207.999</ele>
        <time>2021-09-29T17:13:01Z</time>
      </trkpt>
      <trkpt lat="44.88124" lon="3.79212">
        <ele>1207.419</ele>
        <time>2021-09-29T17:13:41Z</time>
      </trkpt>
      <trkpt lat="44.88118" lon="3.79215">
        <ele>1207.252</ele>
        <time>2021-09-29T17:14:21Z</time>
      </trkpt>
      <trkpt lat="44.88107" lon="3.79222">
        <ele>1206.953</ele>
        <time>2021-09-29T17:15:01Z</time>
      </trkpt>
      <trkpt lat="44.8804" lon="3.79261">
        <ele>1204.208</ele>
        <time>2021-09-29T17:15:41Z</time>
      </trkpt>
      <trkpt lat="44.88028" lon="3.79269">
        <ele>1204.308</ele>
        <time>2021-09-29T17:16:21Z</time>
      </trkpt>
      <trkpt lat="44.88022" lon="3.79272">
        <ele>1204.293</ele>
        <time>2021-09-29T17:17:01Z</time>
      </trkpt>
      <trkpt lat="44.88004" lon="3.79285">
        <ele>1204.029</ele>
        <time>2021-09-29T17:17:41Z</time>
      </trkpt>
      <trkpt lat="44.87968" lon="3.7931">
        <ele>1202.774</ele>
        <time>2021-09-29T17:18:21Z</time>
      </trkpt>
      <trkpt lat="44.87958" lon="3.79317">
        <ele>1202.216</ele>
        <time>2021-09-29T17:19:01Z</time>
      </trkpt>
      <trkpt lat="44.87948" lon="3.79324">
        <ele>1201.784</ele>
        <time>2021-09-29T17:19:41Z</time>
      </trkpt>
      <trkpt lat="44.87939" lon="3.7933">
        <ele>1201.337</ele>
        <time>2021-09-29T17:20:21Z</time>
      </trkpt>
      <trkpt lat="44.87922" lon="3.79342">
        <ele>1200.469</ele>
        <time>2021-09-29T17:21:01Z</time>
      </trkpt>
      <trkpt lat="44.87882" lon="3.79372">
        <ele>1198.489</ele>
        <time>2021-09-29T17:21:41Z</time>
      </trkpt>
      <trkpt lat="44.87875" lon="3.79377">
        <ele>1197.215</ele>
        <time>2021-09-29T17:22:21Z</time>
      </trkpt>
      <trkpt lat="44.87862" lon="3.79386">
        <ele>1195.365</ele>
        <time>2021-09-29T17:23:01Z</time>
      </trkpt>
      <trkpt lat="44.87842" lon="3.79401">
        <ele>1193.111</ele>
        <time>2021-09-29T17:23:41Z</time>
      </trkpt>
      <trkpt lat="44.87839" lon="3.79406">
        <ele>1192.708</ele>
        <time>2021-09-29T17:24:21Z</time>
      </trkpt>
      <trkpt lat="44.87836" lon="3.79411">
        <ele>1192.349</ele>
        <time>2021-09-29T17:25:01Z</time>
      </trkpt>
      <trkpt lat="44.87829" lon="3.79422">
        <ele>1192.285</ele>
        <time>2021-09-29T17:25:41Z</time>
      </trkpt>
      <trkpt lat="44.87819" lon="3.79436">
        <ele>1192.56</ele>
        <time>2021-09-29T17:26:21Z</time>
      </trkpt>
      <trkpt lat="44.87815" lon="3.79442">
        <ele>1192.722</ele>
        <time>2021-09-29T17:27:01Z</time>
      </trkpt>
      <trkpt lat="44.87811" lon="3.79445">
        <ele>1192.83</ele>
        <time>2021-09-29T17:27:41Z</time>
      </trkpt>
      <trkpt lat="44.87802" lon="3.79455">
        <ele>1192.563</ele>
        <time>2021-09-29T17:28:21Z</time>
      </trkpt>
      <trkpt lat="44.87794" lon="3.79463">
        <ele>1192.285</ele>
        <time>2021-09-29T17:29:01Z</time>
      </trkpt>
      <trkpt lat="44.87782" lon="3.79476">
        <ele>1192.085</ele>
        <time>2021-09-29T17:29:41Z</time>
      </trkpt>
      <trkpt lat="44.87767" lon="3.79493">
        <ele>1192.349</ele>
        <time>2021-09-29T17:30:21Z</time>
      </trkpt>
      <trkpt lat="44.87754" lon="3.79506">
        <ele>1192.802</ele>
        <time>2021-09-29T17:31:01Z</time>
      </trkpt>
      <trkpt lat="44.87738" lon="3.79524">
        <ele>1193.422</ele>
        <time>2021-09-29T17:31:41Z</time>
      </trkpt>
      <trkpt lat="44.8771" lon="3.79555">
        <ele>1193.008</ele>
        <time>2021-09-29T17:32:21Z</time>
      </trkpt>
      <trkpt lat="44.87685" lon="3.79579">
        <ele>1192.962</ele>
        <time>2021-09-29T17:33:01Z</time>
      </trkpt>
      <trkpt lat="44.87678" lon="3.79584">
        <ele>1193.088</ele>
        <time>2021-09-29T17:33:41Z</time>
      </trkpt>
      <trkpt lat="44.8767" lon="3.79591">
        <ele>1193.373</ele>
        <time>2021-09-29T17:34:21Z</time>
      </trkpt>
      <trkpt lat="44.8766" lon="3.79598">
        <ele>1193.665</ele>
        <time>2021-09-29T17:35:01Z</time>
      </trkpt>
      <trkpt lat="44.87658" lon="3.796">
        <ele>1193.723</ele>
        <time>2021-09-29T17:35:41Z</time>
      </trkpt>
      <trkpt lat="44.87656" lon="3.79602">
        <ele>1193.816</ele>
        <time>2021-09-29T17:36:21Z</time>
      </trkpt>
      <trkpt lat="44.8765" lon="3.79608">
        <ele>1194.038</ele>
        <time>2021-09-29T17:37:01Z</time>
      </trkpt>
      <trkpt lat="44.87645" lon="3.79613">
        <ele>1194.058</ele>
        <time>2021-09-29T17:37:41Z</time>
      </trkpt>
      <trkpt lat="44.87636" lon="3.7962">
        <ele>1193.989</ele>
        <time>2021-09-29T17:38:21Z</time>
      </trkpt>
      <trkpt lat="44.87633" lon="3.79623">
        <ele>1193.806</ele>
        <time>2021-09-29T17:39:01Z</time>
      </trkpt>
      <trkpt lat="44.87624" lon="3.7963">
        <ele>1193.526</ele>
        <time>2021-09-29T17:39:41Z</time>
      </trkpt>
      <trkpt lat="44.87613" lon="3.79639">
        <ele>1193.108</ele>
        <time>2021-09-29T17:40:21Z</time>
      </trkpt>
      <trkpt lat="44.87604" lon="3.79643">
        <ele>1193.016</ele>
        <time>2021-09-29T17:41:01Z</time>
      </trkpt>
      <trkpt lat="44.87576" lon="3.79652">
        <ele>1192.752</ele>
        <time>2021-09-29T17:41:41Z</time>
      </trkpt>
      <trkpt lat="44.87569" lon="3.79655">
        <ele>1192.527</ele>
        <time>2021-09-29T17:42:21Z</time>
      </trkpt>
      <trkpt lat="44.8756" lon="3.7966">
        <ele>1192.139</ele>
        <time>2021-09-29T17:43:01Z</time>
      </trkpt>
      <trkpt lat="44.87545" lon="3.79668">
        <ele>1191.727</ele>
        <time>2021-09-29T17:43:41Z</time>
      </trkpt>
      <trkpt lat="44.87515" lon="3.79686">
        <ele>1192.16</ele>
        <time>2021-09-29T17:44:21Z</time>
      </trkpt>
      <trkpt lat="44.87497" lon="3.79698">
        <ele>1192.182</ele>
        <time>2021-09-29T17:45:01Z</time>
      </trkpt>
      <trkpt lat="44.87485" lon="3.79705">
        <ele>1192.262</ele>
        <time>2021-09-29T17:45:41Z</time>
      </trkpt>
      <trkpt lat="44.87456" lon="3.79722">
        <ele>1191.424</ele>
        <time>2021-09-29T17:46:21Z</time>
      </trkpt>
      <trkpt lat="44.87438" lon="3.79732">
        <ele>1191.704</ele>
        <time>2021-09-29T17:47:01Z</time>
      </trkpt>
      <trkpt lat="44.87433" lon="3.79735">
        <ele>1191.914</ele>
        <time>2021-09-29T17:47:41Z</time>
      </trkpt>
      <trkpt lat="44.87428" lon="3.79738">
        <ele>1192.108</ele>
        <time>2021-09-29T17:48:21Z</time>
      </trkpt>
      <trkpt lat="44.87399" lon="3.79755">
        <ele>1193.38</ele>
        <time>2021-09-29T17:49:01Z</time>
      </trkpt>
      <trkpt lat="44.87371" lon="3.79771">
        <ele>1193.956</ele>
        <time>2021-09-29T17:49:41Z</time>
      </trkpt>
      <trkpt lat="44.87365" lon="3.79774">
        <ele>1193.931</ele>
        <time>2021-09-29T17:50:21Z</time>
      </trkpt>
      <trkpt lat="44.87358" lon="3.79779">
        <ele>1193.793</ele>
        <time>2021-09-29T17:51:01Z</time>
      </trkpt>
      <trkpt lat="44.87345" lon="3.79786">
        <ele>1192.851</ele>
        <time>2021-09-29T17:51:41Z</time>
      </trkpt>
      <trkpt lat="44.87328" lon="3.79795">
        <ele>1191.724</ele>
        <time>2021-09-29T17:52:21Z</time>
      </trkpt>
      <trkpt lat="44.8731" lon="3.79805">
        <ele>1190.526</ele>
        <time>2021-09-29T17:53:01Z</time>
      </trkpt>
      <trkpt lat="44.87286" lon="3.7982">
        <ele>1191.046</ele>
        <time>2021-09-29T17:53:41Z</time>
      </trkpt>
      <trkpt lat="44.87269" lon="3.79829">
        <ele>1191.868</ele>
        <time>2021-09-29T17:54:21Z</time>
      </trkpt>
      <trkpt lat="44.87251" lon="3.7984">
        <ele>1192.242</ele>
        <time>2021-09-29T17:55:01Z</time>
      </trkpt>
      <trkpt lat="44.87228" lon="3.79855">
        <ele>1192.026</ele>
        <time>2021-09-29T17:55:41Z</time>
      </trkpt>
      <trkpt lat="44.87207" lon="3.79868">
        <ele>1190.508</ele>
        <time>2021-09-29T17:56:21Z</time>
      </trkpt>
      <trkpt lat="44.87194" lon="3.79878">
        <ele>1189.654</ele>
        <time>2021-09-29T17:57:01Z</time>
      </trkpt>
      <trkpt lat="44.87166" lon="3.799">
        <ele>1186.32</ele>
        <time>2021-09-29T17:57:41Z</time>
      </trkpt>
      <trkpt lat="44.87157" lon="3.79907">
        <ele>1185.765</ele>
        <time>2021-09-29T17:58:21Z</time>
      </trkpt>
      <trkpt lat="44.87153" lon="3.7991">
        <ele>1185.477</ele>
        <time>2021-09-29T17:59:01Z</time>
      </trkpt>
      <trkpt lat="44.87151" lon="3.79912">
        <ele>1185.255</ele>
        <time>2021-09-29T17:59:41Z</time>
      </trkpt>
      <trkpt lat="44.87144" lon="3.79917">
        <ele>1184.588</ele>
        <time>2021-09-29T18:00:21Z</time>
      </trkpt>
      <trkpt lat="44.87129" lon="3.79927">
        <ele>1183.28</ele>
        <time>2021-09-29T18:01:01Z</time>
      </trkpt>
      <trkpt lat="44.871" lon="3.79949">
        <ele>1180.62</ele>
        <time>2021-09-29T18:01:41Z</time>
      </trkpt>
      <trkpt lat="44.87086" lon="3.7996">
        <ele>1180.155</ele>
        <time>2021-09-29T18:02:21Z</time>
      </trkpt>
      <trkpt lat="44.87068" lon="3.79976">
        <ele>1179.507</ele>
        <time>2021-09-29T18:03:01Z</time>
      </trkpt>
      <trkpt lat="44.87054" lon="3.79988">
        <ele>1179.017</ele>
        <time>2021-09-29T18:03:41Z</time>
      </trkpt>
      <trkpt lat="44.8703" lon="3.80008">
        <ele>1179.008</ele>
        <time>2021-09-29T18:04:21Z</time>
      </trkpt>
      <trkpt lat="44.87019" lon="3.80015">
        <ele>1178.593</ele>
        <time>2021-09-29T18:05:01Z</time>
      </trkpt>
      <trkpt lat="44.87015" lon="3.80018">
        <ele>1178.499</ele>
        <time>2021-09-29T18:05:41Z</time>
      </trkpt>
      <trkpt lat="44.87011" lon="3.80021">
        <ele>1178.284</ele>
        <time>2021-09-29T18:06:21Z</time>
      </trkpt>
      <trkpt lat="44.87" lon="3.80028">
        <ele>1177.936</ele>
        <time>2021-09-29T18:07:01Z</time>
      </trkpt>
      <trkpt lat="44.86995" lon="3.80032">
        <ele>1177.314</ele>
        <time>2021-09-29T18:07:41Z</time>
      </trkpt>
      <trkpt lat="44.86985" lon="3.80038">
        <ele>1176.257</ele>
        <time>2021-09-29T18:08:21Z</time>
      </trkpt>
      <trkpt lat="44.86966" lon="3.80053">
        <ele>1174.859</ele>
        <time>2021-09-29T18:09:01Z</time>
      </trkpt>
      <trkpt lat="44.86958" lon="3.80058">
        <ele>1174.479</ele>
        <time>2021-09-29T18:09:41Z</time>
      </trkpt>
      <trkpt lat="44.86953" lon="3.80061">
        <ele>1174.186</ele>
        <time>2021-09-29T18:10:21Z</time>
      </trkpt>
      <trkpt lat="44.86947" lon="3.80066">
        <ele>1173.76</ele>
        <time>2021-09-29T18:11:01Z</time>
      </trkpt>
      <trkpt lat="44.86931" lon="3.80077">
        <ele>1173.226</ele>
        <time>2021-09-29T18:11:41Z</time>
      </trkpt>
      <trkpt lat="44.86926" lon="3.8008">
        <ele>1173.108</ele>
        <time>2021-09-29T18:12:21Z</time>
      </trkpt>
      <trkpt lat="44.86919" lon="3.80085">
        <ele>1172.956</ele>
        <time>2021-09-29T18:13:01Z</time>
      </trkpt>
      <trkpt lat="44.86902" lon="3.80097">
        <ele>1172.562</ele>
        <time>2021-09-29T18:13:41Z</time>
      </trkpt>
      <trkpt lat="44.86899" lon="3.801">
        <ele>1172.427</ele>
        <time>2021-09-29T18:14:21Z</time>
      </trkpt>
      <trkpt lat="44.86881" lon="3.80115">
        <ele>1171.739</ele>
        <time>2021-09-29T18:15:01Z</time>
      </trkpt>
      <trkpt lat="44.86872" lon="3.80121">
        <ele>1171.447</ele>
        <time>2021-09-29T18:15:41Z</time>
      </trkpt>
      <trkpt lat="44.86864" lon="3.80126">
        <ele>1171.13</ele>
        <time>2021-09-29T18:16:21Z</time>
      </trkpt>
      <trkpt lat="44.86855" lon="3.80131">
        <ele>1170.862</ele>
        <time>2021-09-29T18:17:01Z</time>
      </trkpt>
      <trkpt lat="44.86844" lon="3.80137">
        <ele>1170.442</ele>
        <time>2021-09-29T18:17:41Z</time>
      </trkpt>
      <trkpt lat="44.86837" lon="3.8014">
        <ele>1170.158</ele>
        <time>2021-09-29T18:18:21Z</time>
      </trkpt>
      <trkpt lat="44.86818" lon="3.80149">
        <ele>1169.452</ele>
        <time>2021-09-29T18:19:01Z</time>
      </trkpt>
      <trkpt lat="44.86797" lon="3.80159">
        <ele>1168.817</ele>
        <time>2021-09-29T18:19:41Z</time>
      </trkpt>
      <trkpt lat="44.8678" lon="3.80168">
        <ele>1168.108</ele>
        <time>2021-09-29T18:20:21Z</time>
      </trkpt>
      <trkpt lat="44.8676" lon="3.80176">
        <ele>1168.023</ele>
        <time>2021-09-29T18:21:01Z</time>
      </trkpt>
      <trkpt lat="44.86737" lon="3.8019">
        <ele>1168.079</ele>
        <time>2021-09-29T18:21:41Z</time>
      </trkpt>
      <trkpt lat="44.86725" lon="3.80197">
        <ele>1167.984</ele>
        <time>2021-09-29T18:22:21Z</time>
      </trkpt>
      <trkpt lat="44.86716" lon="3.80203">
        <ele>1167.586</ele>
        <time>2021-09-29T18:23:01Z</time>
      </trkpt>
      <trkpt lat="44.86698" lon="3.80216">
        <ele>1167.034</ele>
        <time>2021-09-29T18:23:41Z</time>
      </trkpt>
      <trkpt lat="44.8669" lon="3.80222">
        <ele>1167.047</ele>
        <time>2021-09-29T18:24:21Z</time>
      </trkpt>
      <trkpt lat="44.86686" lon="3.80225">
        <ele>1167.099</ele>
        <time>2021-09-29T18:25:01Z</time>
      </trkpt>
      <trkpt lat="44.86676" lon="3.80234">
        <ele>1167.059</ele>
        <time>2021-09-29T18:25:41Z</time>
      </trkpt>
      <trkpt lat="44.86662" lon="3.80246">
        <ele>1166.835</ele>
        <time>2021-09-29T18:26:21Z</time>
      </trkpt>
      <trkpt lat="44.86644" lon="3.80262">
        <ele>1166.586</ele>
        <time>2021-09-29T18:27:01Z</time>
      </trkpt>
      <trkpt lat="44.86639" lon="3.80266">
        <ele>1166.614</ele>
        <time>2021-09-29T18:27:41Z</time>
      </trkpt>
      <trkpt lat="44.86635" lon="3.8027">
        <ele>1166.508</ele>
        <time>2021-09-29T18:28:21Z</time>
      </trkpt>
      <trkpt lat="44.86624" lon="3.80279">
        <ele>1165.911</ele>
        <time>2021-09-29T18:29:01Z</time>
      </trkpt>
      <trkpt lat="44.86614" lon="3.80288">
        <ele>1165.257</ele>
        <time>2021-09-29T18:29:41Z</time>
      </trkpt>
      <trkpt lat="44.86595" lon="3.80304">
        <ele>1164.422</ele>
        <time>2021-09-29T18:30:21Z</time>
      </trkpt>
      <trkpt lat="44.86592" lon="3.80307">
        <ele>1164.284</ele>
        <time>2021-09-29T18:31:01Z</time>
      </trkpt>
      <trkpt lat="44.86589" lon="3.80309">
        <ele>1164.152</ele>
        <time>2021-09-29T18:31:41Z</time>
      </trkpt>
      <trkpt lat="44.86579" lon="3.80318">
        <ele>1163.695</ele>
        <time>2021-09-29T18:32:21Z</time>
      </trkpt>
      <trkpt lat="44.86566" lon="3.8033">
        <ele>1163.137</ele>
        <time>2021-09-29T18:33:01Z</time>
      </trkpt>
      <trkpt lat="44.86556" lon="3.80339">
        <ele>1162.647</ele>
        <time>2021-09-29T18:33:41Z</time>
      </trkpt>
      <trkpt lat="44.86553" lon="3.80342">
        <ele>1162.353</ele>
        <time>2021-09-29T18:34:21Z</time>
      </trkpt>
      <trkpt lat="44.86547" lon="3.80349">
        <ele>1161.804</ele>
        <time>2021-09-29T18:35:01Z</time>
      </trkpt>
      <trkpt lat="44.86539" lon="3.80358">
        <ele>1161.214</ele>
        <time>2021-09-29T18:35:41Z</time>
      </trkpt>
      <trkpt lat="44.86535" lon="3.80362">
        <ele>1160.908</ele>
        <time>2021-09-29T18:36:21Z</time>
      </trkpt>
      <trkpt lat="44.86531" lon="3.80366">
        <ele>1160.753</ele>
        <time>2021-09-29T18:37:01Z</time>
      </trkpt>
      <trkpt lat="44.86524" lon="3.80373">
        <ele>1160.119</ele>
        <time>2021-09-29T18:37:41Z</time>
      </trkpt>
      <trkpt lat="44.86513" lon="3.80379">
        <ele>1159.514</ele>
        <time>2021-09-29T18:38:21Z</time>
      </trkpt>
      <trkpt lat="44.86509" lon="3.8038">
        <ele>1159.446</ele>
        <time>2021-09-29T18:39:01Z</time>
      </trkpt>
      <trkpt lat="44.86498" lon="3.80385">
        <ele>1159.214</ele>
        <time>2021-09-29T18:39:41Z</time>
      </trkpt>
      <trkpt lat="44.86489" lon="3.80391">
        <ele>1159.497</ele>
        <time>2021-09-29T18:40:21Z</time>
      </trkpt>
      <trkpt lat="44.86479" lon="3.80399">
        <ele>1159.759</ele>
        <time>2021-09-29T18:41:01Z</time>
      </trkpt>
      <trkpt lat="44.86467" lon="3.80412">
        <ele>1160.299</ele>
        <time>2021-09-29T18:41:41Z</time>
      </trkpt>
      <trkpt lat="44.86457" lon="3.80429">
        <ele>1161.073</ele>
        <time>2021-09-29T18:42:21Z</time>
      </trkpt>
      <trkpt lat="44.86452" lon="3.80449">
        <ele>1161.785</ele>
        <time>2021-09-29T18:43:01Z</time>
      </trkpt>
      <trkpt lat="44.86446" lon="3.8047">
        <ele>1161.913</ele>
        <time>2021-09-29T18:43:41Z</time>
      </trkpt>
      <trkpt lat="44.8644" lon="3.80489">
        <ele>1162.208</ele>
        <time>2021-09-29T18:44:21Z</time>
      </trkpt>
      <trkpt lat="44.86432" lon="3.80507">
        <ele>1162.695</ele>
        <time>2021-09-29T18:45:01Z</time>
      </trkpt>
      <trkpt lat="44.8642" lon="3.80533">
        <ele>1162.651</ele>
        <time>2021-09-29T18:45:41Z</time>
      </trkpt>
      <trkpt lat="44.86406" lon="3.80566">
        <ele>1160.746</ele>
        <time>2021-09-29T18:46:21Z</time>
      </trkpt>
      <trkpt lat="44.86392" lon="3.80596">
        <ele>1157.368</ele>
        <time>2021-09-29T18:47:01Z</time>
      </trkpt>
      <trkpt lat="44.86386" lon="3.80608">
        <ele>1156.396</ele>
        <time>2021-09-29T18:47:41Z</time>
      </trkpt>
      <trkpt lat="44.86381" lon="3.80621">
        <ele>1156.069</ele>
        <time>2021-09-29T18:48:21Z</time>
      </trkpt>
      <trkpt lat="44.86366" lon="3.80657">
        <ele>1156.631</ele>
        <time>2021-09-29T18:49:01Z</time>
      </trkpt>
      <trkpt lat="44.8636" lon="3.80673">
        <ele>1156.851</ele>
        <time>2021-09-29T18:49:41Z</time>
      </trkpt>
      <trkpt lat="44.86354" lon="3.80684">
        <ele>1156.645</ele>
        <time>2021-09-29T18:50:21Z</time>
      </trkpt>
      <trkpt lat="44.86346" lon="3.80702">
        <ele>1156.147</ele>
        <time>2021-09-29T18:51:01Z</time>
      </trkpt>
      <trkpt lat="44.86339" lon="3.80717">
        <ele>1155.911</ele>
        <time>2021-09-29T18:51:41Z</time>
      </trkpt>
      <trkpt lat="44.86333" lon="3.80725">
        <ele>1155.908</ele>
        <time>2021-09-29T18:52:21Z</time>
      </trkpt>
      <trkpt lat="44.86323" lon="3.8074">
        <ele>1156.152</ele>
        <time>2021-09-29T18:53:01Z</time>
      </trkpt>
      <trkpt lat="44.86313" lon="3.80756">
        <ele>1156.198</ele>
        <time>2021-09-29T18:53:41Z</time>
      </trkpt>
      <trkpt lat="44.86306" lon="3.80765">
        <ele>1155.973</ele>
        <time>2021-09-29T18:54:21Z</time>
      </trkpt>
      <trkpt lat="44.86303" lon="3.8077">
        <ele>1155.645</ele>
        <time>2021-09-29T18:55:01Z</time>
      </trkpt>
      <trkpt lat="44.86297" lon="3.80779">
        <ele>1154.973</ele>
        <time>2021-09-29T18:55:41Z</time>
      </trkpt>
      <trkpt lat="44.86279" lon="3.80804">
        <ele>1153.126</ele>
        <time>2021-09-29T18:56:21Z</time>
      </trkpt>
      <trkpt lat="44.86263" lon="3.80826">
        <ele>1152.128</ele>
        <time>2021-09-29T18:57:01Z</time>
      </trkpt>
      <trkpt lat="44.86249" lon="3.80843">
        <ele>1151.798</ele>
        <time>2021-09-29T18:57:41Z</time>
      </trkpt>
      <trkpt lat="44.86242" lon="3.80851">
        <ele>1151.795</ele>
        <time>2021-09-29T18:58:21Z</time>
      </trkpt>
      <trkpt lat="44.86232" lon="3.80862">
        <ele>1151.649</ele>
        <time>2021-09-29T18:59:01Z</time>
      </trkpt>
      <trkpt lat="44.86223" lon="3.80875">
        <ele>1152.023</ele>
        <time>2021-09-29T18:59:41Z</time>
      </trkpt>
      <trkpt lat="44.86218" lon="3.80884">
        <ele>1152.008</ele>
        <time>2021-09-29T19:00:21Z</time>
      </trkpt>
      <trkpt lat="44.86217" lon="3.80887">
        <ele>1152.097</ele>
        <time>2021-09-29T19:01:01Z</time>
      </trkpt>
      <trkpt lat="44.86212" lon="3.80901">
        <ele>1152.013</ele>
        <time>2021-09-29T19:01:41Z</time>
      </trkpt>
      <trkpt lat="44.86207" lon="3.80913">
        <ele>1152.058</ele>
        <time>2021-09-29T19:02:21Z</time>
      </trkpt>
      <trkpt lat="44.862" lon="3.80925">
        <ele>1151.72</ele>
        <time>2021-09-29T19:03:01Z</time>
      </trkpt>
      <trkpt lat="44.86194" lon="3.80936">
        <ele>1151.358</ele>
        <time>2021-09-29T19:03:41Z</time>
      </trkpt>
      <trkpt lat="44.86191" lon="3.80939">
        <ele>1151.361</ele>
        <time>2021-09-29T19:04:21Z</time>
      </trkpt>
      <trkpt lat="44.86188" lon="3.80942">
        <ele>1151.353</ele>
        <time>2021-09-29T19:05:01Z</time>
      </trkpt>
      <trkpt lat="44.86179" lon="3.80951">
        <ele>1151.393</ele>
        <time>2021-09-29T19:05:41Z</time>
      </trkpt>
      <trkpt lat="44.86174" lon="3.80955">
        <ele>1151.422</ele>
        <time>2021-09-29T19:06:21Z</time>
      </trkpt>
      <trkpt lat="44.86165" lon="3.80961">
        <ele>1151.462</ele>
        <time>2021-09-29T19:07:01Z</time>
      </trkpt>
      <trkpt lat="44.86153" lon="3.80969">
        <ele>1151.108</ele>
        <time>2021-09-29T19:07:41Z</time>
      </trkpt>
      <trkpt lat="44.86145" lon="3.80973">
        <ele>1151.008</ele>
        <time>2021-09-29T19:08:21Z</time>
      </trkpt>
      <trkpt lat="44.86136" lon="3.80978">
        <ele>1150.85</ele>
        <time>2021-09-29T19:09:01Z</time>
      </trkpt>
      <trkpt lat="44.86115" lon="3.80993">
        <ele>1150.316</ele>
        <time>2021-09-29T19:09:41Z</time>
      </trkpt>
      <trkpt lat="44.86103" lon="3.81002">
        <ele>1150.371</ele>
        <time>2021-09-29T19:10:21Z</time>
      </trkpt>
      <trkpt lat="44.86096" lon="3.81007">
        <ele>1150.513</ele>
        <time>2021-09-29T19:11:01Z</time>
      </trkpt>
      <trkpt lat="44.86083" lon="3.81017">
        <ele>1151.091</ele>
        <time>2021-09-29T19:11:41Z</time>
      </trkpt>
      <trkpt lat="44.86069" lon="3.8103">
        <ele>1151.974</ele>
        <time>2021-09-29T19:12:21Z</time>
      </trkpt>
      <trkpt lat="44.86056" lon="3.81041">
        <ele>1151.546</ele>
        <time>2021-09-29T19:13:01Z</time>
      </trkpt>
      <trkpt lat="44.86047" lon="3.8105">
        <ele>1151.186</ele>
        <time>2021-09-29T19:13:41Z</time>
      </trkpt>
      <trkpt lat="44.86033" lon="3.81064">
        <ele>1151.337</ele>
        <time>2021-09-29T19:14:21Z</time>
      </trkpt>
      <trkpt lat="44.86023" lon="3.81075">
        <ele>1151.349</ele>
        <time>2021-09-29T19:15:01Z</time>
      </trkpt>
      <trkpt lat="44.86014" lon="3.81088">
        <ele>1150.913</ele>
        <time>2021-09-29T19:15:41Z</time>
      </trkpt>
      <trkpt lat="44.86006" lon="3.81099">
        <ele>1150.908</ele>
        <time>2021-09-29T19:16:21Z</time>
      </trkpt>
      <trkpt lat="44.86001" lon="3.81112">
        <ele>1151.081</ele>
        <time>2021-09-29T19:17:01Z</time>
      </trkpt>
      <trkpt lat="44.85994" lon="3.81126">
        <ele>1151.097</ele>
        <time>2021-09-29T19:17:41Z</time>
      </trkpt>
      <trkpt lat="44.85989" lon="3.81138">
        <ele>1151.072</ele>
        <time>2021-09-29T19:18:21Z</time>
      </trkpt>
      <trkpt lat="44.85981" lon="3.81151">
        <ele>1150.994</ele>
        <time>2021-09-29T19:19:01Z</time>
      </trkpt>
      <trkpt lat="44.85976" lon="3.81155">
        <ele>1150.982</ele>
        <time>2021-09-29T19:19:41Z</time>
      </trkpt>
      <trkpt lat="44.85967" lon="3.81165">
        <ele>1150.835</ele>
        <time>2021-09-29T19:20:21Z</time>
      </trkpt>
      <trkpt lat="44.85965" lon="3.81167">
        <ele>1150.737</ele>
        <time>2021-09-29T19:21:01Z</time>
      </trkpt>
      <trkpt lat="44.85956" lon="3.81174">
        <ele>1150.267</ele>
        <time>2021-09-29T19:21:41Z</time>
      </trkpt>
      <trkpt lat="44.85948" lon="3.81178">
        <ele>1149.743</ele>
        <time>2021-09-29T19:22:21Z</time>
      </trkpt>
      <trkpt lat="44.85942" lon="3.8118">
        <ele>1149.564</ele>
        <time>2021-09-29T19:23:01Z</time>
      </trkpt>
      <trkpt lat="44.85938" lon="3.81182">
        <ele>1149.31</ele>
        <time>2021-09-29T19:23:41Z</time>
      </trkpt>
      <trkpt lat="44.85919" lon="3.8119">
        <ele>1149.008</ele>
        <time>2021-09-29T19:24:21Z</time>
      </trkpt>
      <trkpt lat="44.85912" lon="3.81192">
        <ele>1149.012</ele>
        <time>2021-09-29T19:25:01Z</time>
      </trkpt>
      <trkpt lat="44.85898" lon="3.81196">
        <ele>1149.088</ele>
        <time>2021-09-29T19:25:41Z</time>
      </trkpt>
      <trkpt lat="44.8587" lon="3.81201">
        <ele>1149.163</ele>
        <time>2021-09-29T19:26:21Z</time>
      </trkpt>
      <trkpt lat="44.85873" lon="3.81205">
        <ele>1149.275</ele>
        <time>2021-09-29T19:27:01Z</time>
      </trkpt>
      <trkpt lat="44.85876" lon="3.8121">
        <ele>1149.393</ele>
        <time>2021-09-29T19:27:41Z</time>
      </trkpt>
      <trkpt lat="44.85876" lon="3.81211">
        <ele>1149.356</ele>
        <time>2021-09-29T19:28:21Z</time>
      </trkpt>
      <trkpt lat="44.85878" lon="3.81215">
        <ele>1149.438</ele>
        <time>2021-09-29T19:29:01Z</time>
      </trkpt>
      <trkpt lat="44.85881" lon="3.81223">
        <ele>1149.788</ele>
        <time>2021-09-29T19:29:41Z</time>
      </trkpt>
      <trkpt lat="44.85885" lon="3.8123">
        <ele>1149.657</ele>
        <time>2021-09-29T19:30:21Z</time>
      </trkpt>
      <trkpt lat="44.85888" lon="3.81238">
        <ele>1149.4</ele>
        <time>2021-09-29T19:31:01Z</time>
      </trkpt>
      <trkpt lat="44.85891" lon="3.81246">
        <ele>1149.12</ele>
        <time>2021-09-29T19:31:41Z</time>
      </trkpt>
      <trkpt lat="44.85895" lon="3.81254">
        <ele>1149.008</ele>
        <time>2021-09-29T19:32:21Z</time>
      </trkpt>
      <trkpt lat="44.85898" lon="3.81262">
        <ele>1148.923</ele>
        <time>2021-09-29T19:33:01Z</time>
      </trkpt>
      <trkpt lat="44.85902" lon="3.8127">
        <ele>1148.719</ele>
        <time>2021-09-29T19:33:41Z</time>
      </trkpt>
      <trkpt lat="44.85905" lon="3.81278">
        <ele>1148.424</ele>
        <time>2021-09-29T19:34:21Z</time>
      </trkpt>
      <trkpt lat="44.85908" lon="3.81286">
        <ele>1148.266</ele>
        <time>2021-09-29T19:35:01Z</time>
      </trkpt>
      <trkpt lat="44.85912" lon="3.81296">
        <ele>1148.124</ele>
        <time>2021-09-29T19:35:41Z</time>
      </trkpt>
      <trkpt lat="44.85915" lon="3.81305">
        <ele>1148.077</ele>
        <time>2021-09-29T19:36:21Z</time>
      </trkpt>
      <trkpt lat="44.85919" lon="3.81314">
        <ele>1147.739</ele>
        <time>2021-09-29T19:37:01Z</time>
      </trkpt>
      <trkpt lat="44.85922" lon="3.81324">
        <ele>1147.679</ele>
        <time>2021-09-29T19:37:41Z</time>
      </trkpt>
      <trkpt lat="44.85926" lon="3.81333">
        <ele>1147.636</ele>
        <time>2021-09-29T19:38:21Z</time>
      </trkpt>
      <trkpt lat="44.85929" lon="3.81342">
        <ele>1148.017</ele>
        <time>2021-09-29T19:39:01Z</time>
      </trkpt>
      <trkpt lat="44.85932" lon="3.81352">
        <ele>1148.518</ele>
        <time>2021-09-29T19:39:41Z</time>
      </trkpt>
      <trkpt lat="44.85935" lon="3.81361">
        <ele>1148.908</ele>
        <time>2021-09-29T19:40:21Z</time>
      </trkpt>
      <trkpt lat="44.85937" lon="3.81369">
        <ele>1149.331</ele>
        <time>2021-09-29T19:41:01Z</time>
      </trkpt>
      <trkpt lat="44.85939" lon="3.81377">
        <ele>1149.637</ele>
        <time>2021-09-29T19:41:41Z</time>
      </trkpt>
      <trkpt lat="44.85942" lon="3.81385">
        <ele>1149.852</ele>
        <time>2021-09-29T19:42:21Z</time>
      </trkpt>
      <trkpt lat="44.85944" lon="3.81393">
        <ele>1150.094</ele>
        <time>2021-09-29T19:43:01Z</time>
      </trkpt>
      <trkpt lat="44.85947" lon="3.81401">
        <ele>1149.822</ele>
        <time>2021-09-29T19:43:41Z</time>
      </trkpt>
      <trkpt lat="44.85951" lon="3.81409">
        <ele>1149.655</ele>
        <time>2021-09-29T19:44:21Z</time>
      </trkpt>
      <trkpt lat="44.85954" lon="3.81417">
        <ele>1149.317</ele>
        <time>2021-09-29T19:45:01Z</time>
      </trkpt>
      <trkpt lat="44.85957" lon="3.81425">
        <ele>1148.937</ele>
        <time>2021-09-29T19:45:41Z</time>
      </trkpt>
      <trkpt lat="44.8596" lon="3.81434">
        <ele>1148.674</ele>
        <time>2021-09-29T19:46:21Z</time>
      </trkpt>
      <trkpt lat="44.85963" lon="3.81441">
        <ele>1148.456</ele>
        <time>2021-09-29T19:47:01Z</time>
      </trkpt>
      <trkpt lat="44.85966" lon="3.81448">
        <ele>1148.121</ele>
        <time>2021-09-29T19:47:41Z</time>
      </trkpt>
      <trkpt lat="44.85969" lon="3.81455">
        <ele>1147.708</ele>
        <time>2021-09-29T19:48:21Z</time>
      </trkpt>
      <trkpt lat="44.85972" lon="3.81463">
        <ele>1147.455</ele>
        <time>2021-09-29T19:49:01Z</time>
      </trkpt>
      <trkpt lat="44.85975" lon="3.81469">
        <ele>1147.061</ele>
        <time>2021-09-29T19:49:41Z</time>
      </trkpt>
      <trkpt lat="44.85977" lon="3.81476">
        <ele>1146.796</ele>
        <time>2021-09-29T19:50:21Z</time>
      </trkpt>
      <trkpt lat="44.8598" lon="3.81483">
        <ele>1146.398</ele>
        <time>2021-09-29T19:51:01Z</time>
      </trkpt>
      <trkpt lat="44.85984" lon="3.81491">
        <ele>1145.976</ele>
        <time>2021-09-29T19:51:41Z</time>
      </trkpt>
      <trkpt lat="44.85987" lon="3.815">
        <ele>1145.589</ele>
        <time>2021-09-29T19:52:21Z</time>
      </trkpt>
      <trkpt lat="44.85991" lon="3.81509">
        <ele>1145.231</ele>
        <time>2021-09-29T19:53:01Z</time>
      </trkpt>
      <trkpt lat="44.85994" lon="3.81516">
        <ele>1145.181</ele>
        <time>2021-09-29T19:53:41Z</time>
      </trkpt>
      <trkpt lat="44.85996" lon="3.81523">
        <ele>1145.028</ele>
        <time>2021-09-29T19:54:21Z</time>
      </trkpt>
      <trkpt lat="44.86" lon="3.8153">
        <ele>1144.989</ele>
        <time>2021-09-29T19:55:01Z</time>
      </trkpt>
      <trkpt lat="44.86003" lon="3.81538">
        <ele>1144.717</ele>
        <time>2021-09-29T19:55:41Z</time>
      </trkpt>
      <trkpt lat="44.86007" lon="3.81545">
        <ele>1144.508</ele>
        <time>2021-09-29T19:56:21Z</time>
      </trkpt>
      <trkpt lat="44.86011" lon="3.81552">
        <ele>1144.56</ele>
        <time>2021-09-29T19:57:01Z</time>
      </trkpt>
      <trkpt lat="44.86016" lon="3.8156">
        <ele>1144.526</ele>
        <time>2021-09-29T19:57:41Z</time>
      </trkpt>
      <trkpt lat="44.86022" lon="3.81569">
        <ele>1144.791</ele>
        <time>2021-09-29T19:58:21Z</time>
      </trkpt>
      <trkpt lat="44.86027" lon="3.81577">
        <ele>1145.083</ele>
        <time>2021-09-29T19:59:01Z</time>
      </trkpt>
      <trkpt lat="44.86032" lon="3.81582">
        <ele>1145.371</ele>
        <time>2021-09-29T19:59:41Z</time>
      </trkpt>
      <trkpt lat="44.86037" lon="3.81588">
        <ele>1145.754</ele>
        <time>2021-09-29T20:00:21Z</time>
      </trkpt>
      <trkpt lat="44.86042" lon="3.81593">
        <ele>1146.066</ele>
        <time>2021-09-29T20:01:01Z</time>
      </trkpt>
      <trkpt lat="44.86047" lon="3.81599">
        <ele>1146.446</ele>
        <time>2021-09-29T20:01:41Z</time>
      </trkpt>
      <trkpt lat="44.86054" lon="3.81605">
        <ele>1146.978</ele>
        <time>2021-09-29T20:02:21Z</time>
      </trkpt>
      <trkpt lat="44.8606" lon="3.81611">
        <ele>1147.033</ele>
        <time>2021-09-29T20:03:01Z</time>
      </trkpt>
      <trkpt lat="44.86065" lon="3.81617">
        <ele>1147.326</ele>
        <time>2021-09-29T20:03:41Z</time>
      </trkpt>
      <trkpt lat="44.86069" lon="3.81622">
        <ele>1147.608</ele>
        <time>2021-09-29T20:04:21Z</time>
      </trkpt>
      <trkpt lat="44.86074" lon="3.81627">
        <ele>1147.995</ele>
        <time>2021-09-29T20:05:01Z</time>
      </trkpt>
      <trkpt lat="44.86079" lon="3.81633">
        <ele>1148.421</ele>
        <time>2021-09-29T20:05:41Z</time>
      </trkpt>
      <trkpt lat="44.86084" lon="3.81639">
        <ele>1148.976</ele>
        <time>2021-09-29T20:06:21Z</time>
      </trkpt>
      <trkpt lat="44.8609" lon="3.81645">
        <ele>1148.818</ele>
        <time>2021-09-29T20:07:01Z</time>
      </trkpt>
      <trkpt lat="44.86095" lon="3.81651">
        <ele>1148.846</ele>
        <time>2021-09-29T20:07:41Z</time>
      </trkpt>
      <trkpt lat="44.86101" lon="3.81657">
        <ele>1148.849</ele>
        <time>2021-09-29T20:08:21Z</time>
      </trkpt>
      <trkpt lat="44.86106" lon="3.81663">
        <ele>1148.921</ele>
        <time>2021-09-29T20:09:01Z</time>
      </trkpt>
      <trkpt lat="44.86112" lon="3.8167">
        <ele>1149.061</ele>
        <time>2021-09-29T20:09:41Z</time>
      </trkpt>
      <trkpt lat="44.86117" lon="3.81677">
        <ele>1149.053</ele>
        <time>2021-09-29T20:10:21Z</time>
      </trkpt>
      <trkpt lat="44.86123" lon="3.81684">
        <ele>1149.004</ele>
        <time>2021-09-29T20:11:01Z</time>
      </trkpt>
      <trkpt lat="44.86128" lon="3.81691">
        <ele>1149.014</ele>
        <time>2021-09-29T20:11:41Z</time>
      </trkpt>
      <trkpt lat="44.86134" lon="3.81699">
        <ele>1149.008</ele>
        <time>2021-09-29T20:12:21Z</time>
      </trkpt>
      <trkpt lat="44.86137" lon="3.81703">
        <ele>1149.073</ele>
        <time>2021-09-29T20:13:01Z</time>
      </trkpt>
      <trkpt lat="44.86136" lon="3.81713">
        <ele>1149.189</ele>
        <time>2021-09-29T20:13:41Z</time>
      </trkpt>
      <trkpt lat="44.86134" lon="3.81721">
        <ele>1149.274</ele>
        <time>2021-09-29T20:14:21Z</time>
      </trkpt>
      <trkpt lat="44.8613" lon="3.8173">
        <ele>1149.596</ele>
        <time>2021-09-29T20:15:01Z</time>
      </trkpt>
      <trkpt lat="44.86127" lon="3.81739">
        <ele>1149.864</ele>
        <time>2021-09-29T20:15:41Z</time>
      </trkpt>
      <trkpt lat="44.86121" lon="3.81746">
        <ele>1150.047</ele>
        <time>2021-09-29T20:16:21Z</time>
      </trkpt>
      <trkpt lat="44.86116" lon="3.81753">
        <ele>1150.069</ele>
        <time>2021-09-29T20:17:01Z</time>
      </trkpt>
      <trkpt lat="44.86111" lon="3.8176">
        <ele>1150.089</ele>
        <time>2021-09-29T20:17:41Z</time>
      </trkpt>
      <trkpt lat="44.86106" lon="3.81767">
        <ele>1149.736</ele>
        <time>2021-09-29T20:18:21Z</time>
      </trkpt>
      <trkpt lat="44.86101" lon="3.81774">
        <ele>1149.317</ele>
        <time>2021-09-29T20:19:01Z</time>
      </trkpt>
      <trkpt lat="44.86097" lon="3.81779">
        <ele>1148.918</ele>
        <time>2021-09-29T20:19:41Z</time>
      </trkpt>
      <trkpt lat="44.86093" lon="3.81784">
        <ele>1148.308</ele>
        <time>2021-09-29T20:20:21Z</time>
      </trkpt>
      <trkpt lat="44.86086" lon="3.81791">
        <ele>1147.691</ele>
        <time>2021-09-29T20:21:01Z</time>
      </trkpt>
      <trkpt lat="44.8608" lon="3.81797">
        <ele>1147.337</ele>
        <time>2021-09-29T20:21:41Z</time>
      </trkpt>
      <trkpt lat="44.86074" lon="3.81801">
        <ele>1147.172</ele>
        <time>2021-09-29T20:22:21Z</time>
      </trkpt>
      <trkpt lat="44.86067" lon="3.81805">
        <ele>1147.074</ele>
        <time>2021-09-29T20:23:01Z</time>
      </trkpt>
      <trkpt lat="44.86062" lon="3.81809">
        <ele>1147.022</ele>
        <time>2021-09-29T20:23:41Z</time>
      </trkpt>
      <trkpt lat="44.86056" lon="3.81812">
        <ele>1147.095</ele>
        <time>2021-09-29T20:24:21Z</time>
      </trkpt>
      <trkpt lat="44.86049" lon="3.81816">
        <ele>1146.847</ele>
        <time>2021-09-29T20:25:01Z</time>
      </trkpt>
      <trkpt lat="44.86042" lon="3.8182">
        <ele>1146.817</ele>
        <time>2021-09-29T20:25:41Z</time>
      </trkpt>
      <trkpt lat="44.86035" lon="3.81824">
        <ele>1146.817</ele>
        <time>2021-09-29T20:26:21Z</time>
      </trkpt>
      <trkpt lat="44.86028" lon="3.81829">
        <ele>1146.887</ele>
        <time>2021-09-29T20:27:01Z</time>
      </trkpt>
      <trkpt lat="44.86021" lon="3.81833">
        <ele>1146.515</ele>
        <time>2021-09-29T20:27:41Z</time>
      </trkpt>
      <trkpt lat="44.86015" lon="3.81836">
        <ele>1146.108</ele>
        <time>2021-09-29T20:28:21Z</time>
      </trkpt>
      <trkpt lat="44.86009" lon="3.8184">
        <ele>1145.669</ele>
        <time>2021-09-29T20:29:01Z</time>
      </trkpt>
      <trkpt lat="44.86002" lon="3.81844">
        <ele>1145.295</ele>
        <time>2021-09-29T20:29:41Z</time>
      </trkpt>
      <trkpt lat="44.85996" lon="3.81848">
        <ele>1145.17</ele>
        <time>2021-09-29T20:30:21Z</time>
      </trkpt>
      <trkpt lat="44.85989" lon="3.81852">
        <ele>1145.392</ele>
        <time>2021-09-29T20:31:01Z</time>
      </trkpt>
      <trkpt lat="44.85982" lon="3.81857">
        <ele>1145.59</ele>
        <time>2021-09-29T20:31:41Z</time>
      </trkpt>
      <trkpt lat="44.85975" lon="3.81861">
        <ele>1145.923</ele>
        <time>2021-09-29T20:32:21Z</time>
      </trkpt>
      <trkpt lat="44.85968" lon="3.81866">
        <ele>1146.065</ele>
        <time>2021-09-29T20:33:01Z</time>
      </trkpt>
      <trkpt lat="44.85961" lon="3.8187">
        <ele>1146.035</ele>
        <time>2021-09-29T20:33:41Z</time>
      </trkpt>
      <trkpt lat="44.85954" lon="3.81875">
        <ele>1146.013</ele>
        <time>2021-09-29T20:34:21Z</time>
      </trkpt>
      <trkpt lat="44.85947" lon="3.81878">
        <ele>1146.043</ele>
        <time>2021-09-29T20:35:01Z</time>
      </trkpt>
      <trkpt lat="44.85941" lon="3.81881">
        <ele>1145.907</ele>
        <time>2021-09-29T20:35:41Z</time>
      </trkpt>
      <trkpt lat="44.85933" lon="3.81883">
        <ele>1145.608</ele>
        <time>2021-09-29T20:36:21Z</time>
      </trkpt>
      <trkpt lat="44.85927" lon="3.81889">
        <ele>1145.479</ele>
        <time>2021-09-29T20:37:01Z</time>
      </trkpt>
      <trkpt lat="44.85922" lon="3.81894">
        <ele>1145.235</ele>
        <time>2021-09-29T20:37:41Z</time>
      </trkpt>
      <trkpt lat="44.85917" lon="3.81899">
        <ele>1145.05</ele>
        <time>2021-09-29T20:38:21Z</time>
      </trkpt>
      <trkpt lat="44.85912" lon="3.81904">
        <ele>1145.012</ele>
        <time>2021-09-29T20:39:01Z</time>
      </trkpt>
      <trkpt lat="44.85906" lon="3.81909">
        <ele>1145.06</ele>
        <time>2021-09-29T20:39:41Z</time>
      </trkpt>
      <trkpt lat="44.85899" lon="3.81914">
        <ele>1145.083</ele>
        <time>2021-09-29T20:40:21Z</time>
      </trkpt>
      <trkpt lat="44.85892" lon="3.8192">
        <ele>1145.035</ele>
        <time>2021-09-29T20:41:01Z</time>
      </trkpt>
      <trkpt lat="44.85886" lon="3.81926">
        <ele>1145.065</ele>
        <time>2021-09-29T20:41:41Z</time>
      </trkpt>
      <trkpt lat="44.85879" lon="3.81931">
        <ele>1145.068</ele>
        <time>2021-09-29T20:42:21Z</time>
      </trkpt>
      <trkpt lat="44.85874" lon="3.81935">
        <ele>1145.042</ele>
        <time>2021-09-29T20:43:01Z</time>
      </trkpt>
      <trkpt lat="44.85869" lon="3.81938">
        <ele>1145.026</ele>
        <time>2021-09-29T20:43:41Z</time>
      </trkpt>
      <trkpt lat="44.85864" lon="3.81942">
        <ele>1145.008</ele>
        <time>2021-09-29T20:44:21Z</time>
      </trkpt>
      <trkpt lat="44.8586" lon="3.81945">
        <ele>1145.014</ele>
        <time>2021-09-29T20:45:01Z</time>
      </trkpt>
      <trkpt lat="44.85856" lon="3.81947">
        <ele>1145.02</ele>
        <time>2021-09-29T20:45:41Z</time>
      </trkpt>
      <trkpt lat="44.85852" lon="3.8195">
        <ele>1145.075</ele>
        <time>2021-09-29T20:46:21Z</time>
      </trkpt>
      <trkpt lat="44.85849" lon="3.81953">
        <ele>1145.037</ele>
        <time>2021-09-29T20:47:01Z</time>
      </trkpt>
      <trkpt lat="44.85845" lon="3.81956">
        <ele>1145.095</ele>
        <time>2021-09-29T20:47:41Z</time>
      </trkpt>
      <trkpt lat="44.85841" lon="3.81959">
        <ele>1145.048</ele>
        <time>2021-09-29T20:48:21Z</time>
      </trkpt>
      <trkpt lat="44.85835" lon="3.81963">
        <ele>1145.04</ele>
        <time>2021-09-29T20:49:01Z</time>
      </trkpt>
      <trkpt lat="44.85828" lon="3.81967">
        <ele>1145.07</ele>
        <time>2021-09-29T20:49:41Z</time>
      </trkpt>
      <trkpt lat="44.85822" lon="3.81972">
        <ele>1145.034</ele>
        <time>2021-09-29T20:50:21Z</time>
      </trkpt>
      <trkpt lat="44.85816" lon="3.81976">
        <ele>1145.155</ele>
        <time>2021-09-29T20:51:01Z</time>
      </trkpt>
      <trkpt lat="44.8581" lon="3.81981">
        <ele>1145.31</ele>
        <time>2021-09-29T20:51:41Z</time>
      </trkpt>
      <trkpt lat="44.85804" lon="3.81985">
        <ele>1145.408</ele>
        <time>2021-09-29T20:52:21Z</time>
      </trkpt>
      <trkpt lat="44.85799" lon="3.81988">
        <ele>1145.441</ele>
        <time>2021-09-29T20:53:01Z</time>
      </trkpt>
      <trkpt lat="44.85795" lon="3.81991">
        <ele>1145.377</ele>
        <time>2021-09-29T20:53:41Z</time>
      </trkpt>
      <trkpt lat="44.8579" lon="3.81994">
        <ele>1145.262</ele>
        <time>2021-09-29T20:54:21Z</time>
      </trkpt>
      <trkpt lat="44.85785" lon="3.81997">
        <ele>1145.244</ele>
        <time>2021-09-29T20:55:01Z</time>
      </trkpt>
      <trkpt lat="44.85781" lon="3.82">
        <ele>1145.182</ele>
        <time>2021-09-29T20:55:41Z</time>
      </trkpt>
      <trkpt lat="44.85776" lon="3.82003">
        <ele>1144.955</ele>
        <time>2021-09-29T20:56:21Z</time>
      </trkpt>
      <trkpt lat="44.85769" lon="3.82007">
        <ele>1144.437</ele>
        <time>2021-09-29T20:57:01Z</time>
      </trkpt>
      <trkpt lat="44.85762" lon="3.82011">
        <ele>1143.967</ele>
        <time>2021-09-29T20:57:41Z</time>
      </trkpt>
      <trkpt lat="44.85756" lon="3.82016">
        <ele>1143.459</ele>
        <time>2021-09-29T20:58:21Z</time>
      </trkpt>
      <trkpt lat="44.85749" lon="3.82022">
        <ele>1143.003</ele>
        <time>2021-09-29T20:59:01Z</time>
      </trkpt>
      <trkpt lat="44.85743" lon="3.82027">
        <ele>1142.723</ele>
        <time>2021-09-29T20:59:41Z</time>
      </trkpt>
      <trkpt lat="44.85737" lon="3.82034">
        <ele>1142.408</ele>
        <time>2021-09-29T21:00:21Z</time>
      </trkpt>
      <trkpt lat="44.85731" lon="3.82041">
        <ele>1142.243</ele>
        <time>2021-09-29T21:01:01Z</time>
      </trkpt>
      <trkpt lat="44.85726" lon="3.82047">
        <ele>1142.019</ele>
        <time>2021-09-29T21:01:41Z</time>
      </trkpt>
      <trkpt lat="44.8572" lon="3.82055">
        <ele>1142.124</ele>
        <time>2021-09-29T21:02:21Z</time>
      </trkpt>
      <trkpt lat="44.85715" lon="3.82062">
        <ele>1142.316</ele>
        <time>2021-09-29T21:03:01Z</time>
      </trkpt>
      <trkpt lat="44.85709" lon="3.8207">
        <ele>1142.594</ele>
        <time>2021-09-29T21:03:41Z</time>
      </trkpt>
      <trkpt lat="44.85704" lon="3.82077">
        <ele>1142.727</ele>
        <time>2021-09-29T21:04:21Z</time>
      </trkpt>
      <trkpt lat="44.85699" lon="3.82085">
        <ele>1142.859</ele>
        <time>2021-09-29T21:05:01Z</time>
      </trkpt>
      <trkpt lat="44.85693" lon="3.82092">
        <ele>1142.769</ele>
        <time>2021-09-29T21:05:41Z</time>
      </trkpt>
      <trkpt lat="44.85688" lon="3.82098">
        <ele>1142.678</ele>
        <time>2021-09-29T21:06:21Z</time>
      </trkpt>
      <trkpt lat="44.85683" lon="3.82104">
        <ele>1142.533</ele>
        <time>2021-09-29T21:07:01Z</time>
      </trkpt>
      <trkpt lat="44.85679" lon="3.8211">
        <ele>1142.626</ele>
        <time>2021-09-29T21:07:41Z</time>
      </trkpt>
      <trkpt lat="44.85674" lon="3.82116">
        <ele>1142.708</ele>
        <time>2021-09-29T21:08:21Z</time>
      </trkpt>
      <trkpt lat="44.85669" lon="3.82121">
        <ele>1142.965</ele>
        <time>2021-09-29T21:09:01Z</time>
      </trkpt>
      <trkpt lat="44.85664" lon="3.82127">
        <ele>1143.121</ele>
        <time>2021-09-29T21:09:41Z</time>
      </trkpt>
      <trkpt lat="44.8566" lon="3.82133">
        <ele>1143.326</ele>
        <time>2021-09-29T21:10:21Z</time>
      </trkpt>
      <trkpt lat="44.85655" lon="3.82139">
        <ele>1143.448</ele>
        <time>2021-09-29T21:11:01Z</time>
      </trkpt>
      <trkpt lat="44.8565" lon="3.82146">
        <ele>1143.596</ele>
        <time>2021-09-29T21:11:41Z</time>
      </trkpt>
      <trkpt lat="44.85645" lon="3.82153">
        <ele>1143.799</ele>
        <time>2021-09-29T21:12:21Z</time>
      </trkpt>
      <trkpt lat="44.8564" lon="3.82159">
        <ele>1143.921</ele>
        <time>2021-09-29T21:13:01Z</time>
      </trkpt>
      <trkpt lat="44.85635" lon="3.82165">
        <ele>1144.181</ele>
        <time>2021-09-29T21:13:41Z</time>
      </trkpt>
      <trkpt lat="44.8563" lon="3.82171">
        <ele>1144.246</ele>
        <time>2021-09-29T21:14:21Z</time>
      </trkpt>
      <trkpt lat="44.85625" lon="3.82177">
        <ele>1144.388</ele>
        <time>2021-09-29T21:15:01Z</time>
      </trkpt>
      <trkpt lat="44.8562" lon="3.82182">
        <ele>1144.516</ele>
        <time>2021-09-29T21:15:41Z</time>
      </trkpt>
      <trkpt lat="44.85614" lon="3.8219">
        <ele>1144.808</ele>
        <time>2021-09-29T21:16:21Z</time>
      </trkpt>
      <trkpt lat="44.85609" lon="3.82197">
        <ele>1144.922</ele>
        <time>2021-09-29T21:17:01Z</time>
      </trkpt>
      <trkpt lat="44.85604" lon="3.82204">
        <ele>1144.718</ele>
        <time>2021-09-29T21:17:41Z</time>
      </trkpt>
      <trkpt lat="44.85599" lon="3.82211">
        <ele>1144.463</ele>
        <time>2021-09-29T21:18:21Z</time>
      </trkpt>
      <trkpt lat="44.85593" lon="3.82219">
        <ele>1144.135</ele>
        <time>2021-09-29T21:19:01Z</time>
      </trkpt>
      <trkpt lat="44.85588" lon="3.82225">
        <ele>1144.023</ele>
        <time>2021-09-29T21:19:41Z</time>
      </trkpt>
      <trkpt lat="44.85583" lon="3.82231">
        <ele>1144.036</ele>
        <time>2021-09-29T21:20:21Z</time>
      </trkpt>
      <trkpt lat="44.85578" lon="3.82237">
        <ele>1144.098</ele>
        <time>2021-09-29T21:21:01Z</time>
      </trkpt>
      <trkpt lat="44.85573" lon="3.82243">
        <ele>1144.088</ele>
        <time>2021-09-29T21:21:41Z</time>
      </trkpt>
      <trkpt lat="44.85569" lon="3.82249">
        <ele>1144.078</ele>
        <time>2021-09-29T21:22:21Z</time>
      </trkpt>
      <trkpt lat="44.85563" lon="3.82257">
        <ele>1143.733</ele>
        <time>2021-09-29T21:23:01Z</time>
      </trkpt>
      <trkpt lat="44.85558" lon="3.82266">
        <ele>1143.426</ele>
        <time>2021-09-29T21:23:41Z</time>
      </trkpt>
      <trkpt lat="44.85553" lon="3.82274">
        <ele>1143.108</ele>
        <time>2021-09-29T21:24:21Z</time>
      </trkpt>
      <trkpt lat="44.85548" lon="3.82282">
        <ele>1142.795</ele>
        <time>2021-09-29T21:25:01Z</time>
      </trkpt>
      <trkpt lat="44.85543" lon="3.82292">
        <ele>1142.241</ele>
        <time>2021-09-29T21:25:41Z</time>
      </trkpt>
      <trkpt lat="44.85539" lon="3.82301">
        <ele>1141.866</ele>
        <time>2021-09-29T21:26:21Z</time>
      </trkpt>
      <trkpt lat="44.85534" lon="3.8231">
        <ele>1141.568</ele>
        <time>2021-09-29T21:27:01Z</time>
      </trkpt>
      <trkpt lat="44.85528" lon="3.82317">
        <ele>1141.276</ele>
        <time>2021-09-29T21:27:41Z</time>
      </trkpt>
      <trkpt lat="44.85522" lon="3.82324">
        <ele>1140.959</ele>
        <time>2021-09-29T21:28:21Z</time>
      </trkpt>
      <trkpt lat="44.85518" lon="3.82329">
        <ele>1140.741</ele>
        <time>2021-09-29T21:29:01Z</time>
      </trkpt>
      <trkpt lat="44.85515" lon="3.82333">
        <ele>1140.561</ele>
        <time>2021-09-29T21:29:41Z</time>
      </trkpt>
      <trkpt lat="44.8551" lon="3.82339">
        <ele>1140.584</ele>
        <time>2021-09-29T21:30:21Z</time>
      </trkpt>
      <trkpt lat="44.85505" lon="3.82345">
        <ele>1140.507</ele>
        <time>2021-09-29T21:31:01Z</time>
      </trkpt>
      <trkpt lat="44.855" lon="3.8235">
        <ele>1140.417</ele>
        <time>2021-09-29T21:31:41Z</time>
      </trkpt>
      <trkpt lat="44.85496" lon="3.82355">
        <ele>1140.508</ele>
        <time>2021-09-29T21:32:21Z</time>
      </trkpt>
      <trkpt lat="44.85492" lon="3.8236">
        <ele>1140.736</ele>
        <time>2021-09-29T21:33:01Z</time>
      </trkpt>
      <trkpt lat="44.85486" lon="3.82366">
        <ele>1140.932</ele>
        <time>2021-09-29T21:33:41Z</time>
      </trkpt>
      <trkpt lat="44.8548" lon="3.82373">
        <ele>1141.287</ele>
        <time>2021-09-29T21:34:21Z</time>
      </trkpt>
      <trkpt lat="44.85474" lon="3.82379">
        <ele>1141.389</ele>
        <time>2021-09-29T21:35:01Z</time>
      </trkpt>
      <trkpt lat="44.85468" lon="3.82386">
        <ele>1141.127</ele>
        <time>2021-09-29T21:35:41Z</time>
      </trkpt>
      <trkpt lat="44.85462" lon="3.82392">
        <ele>1140.92</ele>
        <time>2021-09-29T21:36:21Z</time>
      </trkpt>
      <trkpt lat="44.85455" lon="3.82398">
        <ele>1140.922</ele>
        <time>2021-09-29T21:37:01Z</time>
      </trkpt>
      <trkpt lat="44.85449" lon="3.82404">
        <ele>1140.962</ele>
        <time>2021-09-29T21:37:41Z</time>
      </trkpt>
      <trkpt lat="44.85445" lon="3.82408">
        <ele>1141.089</ele>
        <time>2021-09-29T21:38:21Z</time>
      </trkpt>
      <trkpt lat="44.8544" lon="3.82412">
        <ele>1140.806</ele>
        <time>2021-09-29T21:39:01Z</time>
      </trkpt>
      <trkpt lat="44.85437" lon="3.82415">
        <ele>1140.726</ele>
        <time>2021-09-29T21:39:41Z</time>
      </trkpt>
      <trkpt lat="44.8543" lon="3.8242">
        <ele>1140.608</ele>
        <time>2021-09-29T21:40:21Z</time>
      </trkpt>
      <trkpt lat="44.85423" lon="3.82425">
        <ele>1140.596</ele>
        <time>2021-09-29T21:41:01Z</time>
      </trkpt>
      <trkpt lat="44.85417" lon="3.8243">
        <ele>1140.592</ele>
        <time>2021-09-29T21:41:41Z</time>
      </trkpt>
      <trkpt lat="44.85411" lon="3.82434">
        <ele>1140.877</ele>
        <time>2021-09-29T21:42:21Z</time>
      </trkpt>
      <trkpt lat="44.85405" lon="3.82438">
        <ele>1141.139</ele>
        <time>2021-09-29T21:43:01Z</time>
      </trkpt>
      <trkpt lat="44.85399" lon="3.82442">
        <ele>1141.547</ele>
        <time>2021-09-29T21:43:41Z</time>
      </trkpt>
      <trkpt lat="44.85395" lon="3.82446">
        <ele>1141.81</ele>
        <time>2021-09-29T21:44:21Z</time>
      </trkpt>
      <trkpt lat="44.8539" lon="3.82449">
        <ele>1142.142</ele>
        <time>2021-09-29T21:45:01Z</time>
      </trkpt>
      <trkpt lat="44.85386" lon="3.82452">
        <ele>1142.342</ele>
        <time>2021-09-29T21:45:41Z</time>
      </trkpt>
      <trkpt lat="44.85382" lon="3.82455">
        <ele>1142.597</ele>
        <time>2021-09-29T21:46:21Z</time>
      </trkpt>
      <trkpt lat="44.85376" lon="3.82459">
        <ele>1142.723</ele>
        <time>2021-09-29T21:47:01Z</time>
      </trkpt>
      <trkpt lat="44.85369" lon="3.82463">
        <ele>1142.925</ele>
        <time>2021-09-29T21:47:41Z</time>
      </trkpt>
      <trkpt lat="44.85363" lon="3.82466">
        <ele>1143.008</ele>
        <time>2021-09-29T21:48:21Z</time>
      </trkpt>
      <trkpt lat="44.85357" lon="3.8247">
        <ele>1142.797</ele>
        <time>2021-09-29T21:49:01Z</time>
      </trkpt>
      <trkpt lat="44.85352" lon="3.82473">
        <ele>1142.333</ele>
        <time>2021-09-29T21:49:41Z</time>
      </trkpt>
      <trkpt lat="44.85347" lon="3.82475">
        <ele>1141.948</ele>
        <time>2021-09-29T21:50:21Z</time>
      </trkpt>
      <trkpt lat="44.85341" lon="3.82479">
        <ele>1141.33</ele>
        <time>2021-09-29T21:51:01Z</time>
      </trkpt>
      <trkpt lat="44.85334" lon="3.82482">
        <ele>1140.758</ele>
        <time>2021-09-29T21:51:41Z</time>
      </trkpt>
      <trkpt lat="44.85328" lon="3.82485">
        <ele>1140.061</ele>
        <time>2021-09-29T21:52:21Z</time>
      </trkpt>
      <trkpt lat="44.85321" lon="3.82488">
        <ele>1139.163</ele>
        <time>2021-09-29T21:53:01Z</time>
      </trkpt>
      <trkpt lat="44.85315" lon="3.82492">
        <ele>1138.363</ele>
        <time>2021-09-29T21:53:41Z</time>
      </trkpt>
      <trkpt lat="44.85308" lon="3.82495">
        <ele>1137.495</ele>
        <time>2021-09-29T21:54:21Z</time>
      </trkpt>
      <trkpt lat="44.85302" lon="3.82499">
        <ele>1137.049</ele>
        <time>2021-09-29T21:55:01Z</time>
      </trkpt>
      <trkpt lat="44.85298" lon="3.82502">
        <ele>1137.023</ele>
        <time>2021-09-29T21:55:41Z</time>
      </trkpt>
      <trkpt lat="44.85293" lon="3.82505">
        <ele>1137.108</ele>
        <time>2021-09-29T21:56:21Z</time>
      </trkpt>
      <trkpt lat="44.85288" lon="3.82509">
        <ele>1137.127</ele>
        <time>2021-09-29T21:57:01Z</time>
      </trkpt>
      <trkpt lat="44.85282" lon="3.82513">
        <ele>1137.133</ele>
        <time>2021-09-29T21:57:41Z</time>
      </trkpt>
      <trkpt lat="44.85277" lon="3.82518">
        <ele>1137.088</ele>
        <time>2021-09-29T21:58:21Z</time>
      </trkpt>
      <trkpt lat="44.85274" lon="3.82524">
        <ele>1137.02</ele>
        <time>2021-09-29T21:59:01Z</time>
      </trkpt>
      <trkpt lat="44.85272" lon="3.82529">
        <ele>1137.068</ele>
        <time>2021-09-29T21:59:41Z</time>
      </trkpt>
      <trkpt lat="44.85268" lon="3.82538">
        <ele>1137.211</ele>
        <time>2021-09-29T22:00:21Z</time>
      </trkpt>
      <trkpt lat="44.85264" lon="3.82546">
        <ele>1137.363</ele>
        <time>2021-09-29T22:01:01Z</time>
      </trkpt>
      <trkpt lat="44.85262" lon="3.82553">
        <ele>1137.453</ele>
        <time>2021-09-29T22:01:41Z</time>
      </trkpt>
      <trkpt lat="44.85259" lon="3.82559">
        <ele>1137.321</ele>
        <time>2021-09-29T22:02:21Z</time>
      </trkpt>
      <trkpt lat="44.85256" lon="3.82566">
        <ele>1137.241</ele>
        <time>2021-09-29T22:03:01Z</time>
      </trkpt>
      <trkpt lat="44.85253" lon="3.82573">
        <ele>1137.105</ele>
        <time>2021-09-29T22:03:41Z</time>
      </trkpt>
      <trkpt lat="44.8525" lon="3.8258">
        <ele>1137.008</ele>
        <time>2021-09-29T22:04:21Z</time>
      </trkpt>
      <trkpt lat="44.85248" lon="3.82587">
        <ele>1136.89</ele>
        <time>2021-09-29T22:05:01Z</time>
      </trkpt>
      <trkpt lat="44.85245" lon="3.82594">
        <ele>1136.696</ele>
        <time>2021-09-29T22:05:41Z</time>
      </trkpt>
      <trkpt lat="44.85242" lon="3.82601">
        <ele>1136.551</ele>
        <time>2021-09-29T22:06:21Z</time>
      </trkpt>
      <trkpt lat="44.85241" lon="3.82607">
        <ele>1136.313</ele>
        <time>2021-09-29T22:07:01Z</time>
      </trkpt>
      <trkpt lat="44.85239" lon="3.82613">
        <ele>1136.231</ele>
        <time>2021-09-29T22:07:41Z</time>
      </trkpt>
      <trkpt lat="44.85238" lon="3.82615">
        <ele>1136.214</ele>
        <time>2021-09-29T22:08:21Z</time>
      </trkpt>
      <trkpt lat="44.85238" lon="3.82618">
        <ele>1136.126</ele>
        <time>2021-09-29T22:09:01Z</time>
      </trkpt>
      <trkpt lat="44.85236" lon="3.82624">
        <ele>1136.056</ele>
        <time>2021-09-29T22:09:41Z</time>
      </trkpt>
      <trkpt lat="44.85236" lon="3.8263">
        <ele>1136.081</ele>
        <time>2021-09-29T22:10:21Z</time>
      </trkpt>
      <trkpt lat="44.85235" lon="3.82636">
        <ele>1135.961</ele>
        <time>2021-09-29T22:11:01Z</time>
      </trkpt>
      <trkpt lat="44.85237" lon="3.82646">
        <ele>1135.817</ele>
        <time>2021-09-29T22:11:41Z</time>
      </trkpt>
      <trkpt lat="44.85238" lon="3.8265">
        <ele>1135.708</ele>
        <time>2021-09-29T22:12:21Z</time>
      </trkpt>
      <trkpt lat="44.85235" lon="3.82648">
        <ele>1135.696</ele>
        <time>2021-09-29T22:13:01Z</time>
      </trkpt>
      <trkpt lat="44.85232" lon="3.82647">
        <ele>1135.472</ele>
        <time>2021-09-29T22:13:41Z</time>
      </trkpt>
      <trkpt lat="44.8523" lon="3.82645">
        <ele>1135.377</ele>
        <time>2021-09-29T22:14:21Z</time>
      </trkpt>
      <trkpt lat="44.85228" lon="3.82643">
        <ele>1135.219</ele>
        <time>2021-09-29T22:15:01Z</time>
      </trkpt>
      <trkpt lat="44.85225" lon="3.82641">
        <ele>1135.117</ele>
        <time>2021-09-29T22:15:41Z</time>
      </trkpt>
      <trkpt lat="44.85223" lon="3.82639">
        <ele>1135.11</ele>
        <time>2021-09-29T22:16:21Z</time>
      </trkpt>
      <trkpt lat="44.85221" lon="3.82638">
        <ele>1135.042</ele>
        <time>2021-09-29T22:17:01Z</time>
      </trkpt>
      <trkpt lat="44.85219" lon="3.82635">
        <ele>1134.962</ele>
        <time>2021-09-29T22:17:41Z</time>
      </trkpt>
      <trkpt lat="44.85217" lon="3.82633">
        <ele>1134.841</ele>
        <time>2021-09-29T22:18:21Z</time>
      </trkpt>
      <trkpt lat="44.85215" lon="3.82631">
        <ele>1134.881</ele>
        <time>2021-09-29T22:19:01Z</time>
      </trkpt>
      <trkpt lat="44.85212" lon="3.82629">
        <ele>1134.809</ele>
        <time>2021-09-29T22:19:41Z</time>
      </trkpt>
      <trkpt lat="44.8521" lon="3.82627">
        <ele>1134.708</ele>
        <time>2021-09-29T22:20:21Z</time>
      </trkpt>
      <trkpt lat="44.85208" lon="3.82625">
        <ele>1134.772</ele>
        <time>2021-09-29T22:21:01Z</time>
      </trkpt>
      <trkpt lat="44.85205" lon="3.82623">
        <ele>1134.728</ele>
        <time>2021-09-29T22:21:41Z</time>
      </trkpt>
      <trkpt lat="44.85203" lon="3.8262">
        <ele>1134.883</ele>
        <time>2021-09-29T22:22:21Z</time>
      </trkpt>
      <trkpt lat="44.85201" lon="3.82618">
        <ele>1134.865</ele>
        <time>2021-09-29T22:23:01Z</time>
      </trkpt>
      <trkpt lat="44.85199" lon="3.82616">
        <ele>1134.863</ele>
        <time>2021-09-29T22:23:41Z</time>
      </trkpt>
      <trkpt lat="44.85196" lon="3.82614">
        <ele>1134.946</ele>
        <time>2021-09-29T22:24:21Z</time>
      </trkpt>
      <trkpt lat="44.85194" lon="3.82612">
        <ele>1135.068</ele>
        <time>2021-09-29T22:25:01Z</time>
      </trkpt>
      <trkpt lat="44.85192" lon="3.8261">
        <ele>1135.188</ele>
        <time>2021-09-29T22:25:41Z</time>
      </trkpt>
      <trkpt lat="44.8519" lon="3.82609">
        <ele>1135.211</ele>
        <time>2021-09-29T22:26:21Z</time>
      </trkpt>
      <trkpt lat="44.85187" lon="3.82607">
        <ele>1135.321</ele>
        <time>2021-09-29T22:27:01Z</time>
      </trkpt>
      <trkpt lat="44.85185" lon="3.82606">
        <ele>1135.403</ele>
        <time>2021-09-29T22:27:41Z</time>
      </trkpt>
      <trkpt lat="44.85182" lon="3.82604">
        <ele>1135.408</ele>
        <time>2021-09-29T22:28:21Z</time>
      </trkpt>
      <trkpt lat="44.8518" lon="3.82603">
        <ele>1135.579</ele>
        <time>2021-09-29T22:29:01Z</time>
      </trkpt>
      <trkpt lat="44.85177" lon="3.82602">
        <ele>1135.575</ele>
        <time>2021-09-29T22:29:41Z</time>
      </trkpt>
      <trkpt lat="44.85175" lon="3.82601">
        <ele>1135.51</ele>
        <time>2021-09-29T22:30:21Z</time>
      </trkpt>
      <trkpt lat="44.85173" lon="3.826">
        <ele>1135.592</ele>
        <time>2021-09-29T22:31:01Z</time>
      </trkpt>
      <trkpt lat="44.8517" lon="3.826">
        <ele>1135.68</ele>
        <time>2021-09-29T22:31:41Z</time>
      </trkpt>
      <trkpt lat="44.85167" lon="3.82599">
        <ele>1135.753</ele>
        <time>2021-09-29T22:32:21Z</time>
      </trkpt>
      <trkpt lat="44.85164" lon="3.82599">
        <ele>1135.585</ele>
        <time>2021-09-29T22:33:01Z</time>
      </trkpt>
      <trkpt lat="44.85161" lon="3.82599">
        <ele>1135.345</ele>
        <time>2021-09-29T22:33:41Z</time>
      </trkpt>
      <trkpt lat="44.85158" lon="3.82598">
        <ele>1135.241</ele>
        <time>2021-09-29T22:34:21Z</time>
      </trkpt>
      <trkpt lat="44.85156" lon="3.82598">
        <ele>1135.181</ele>
        <time>2021-09-29T22:35:01Z</time>
      </trkpt>
      <trkpt lat="44.85153" lon="3.82598">
        <ele>1134.909</ele>
        <time>2021-09-29T22:35:41Z</time>
      </trkpt>
      <trkpt lat="44.8515" lon="3.82598">
        <ele>1134.708</ele>
        <time>2021-09-29T22:36:21Z</time>
      </trkpt>
      <trkpt lat="44.85149" lon="3.82598">
        <ele>1134.672</ele>
        <time>2021-09-29T22:37:01Z</time>
      </trkpt>
      <trkpt lat="44.85147" lon="3.82598">
        <ele>1134.658</ele>
        <time>2021-09-29T22:37:41Z</time>
      </trkpt>
      <trkpt lat="44.85144" lon="3.82598">
        <ele>1134.423</ele>
        <time>2021-09-29T22:38:21Z</time>
      </trkpt>
      <trkpt lat="44.85141" lon="3.82598">
        <ele>1134.255</ele>
        <time>2021-09-29T22:39:01Z</time>
      </trkpt>
      <trkpt lat="44.85139" lon="3.82598">
        <ele>1134.183</ele>
        <time>2021-09-29T22:39:41Z</time>
      </trkpt>
      <trkpt lat="44.85137" lon="3.82598">
        <ele>1133.956</ele>
        <time>2021-09-29T22:40:21Z</time>
      </trkpt>
      <trkpt lat="44.85134" lon="3.82597">
        <ele>1133.528</ele>
        <time>2021-09-29T22:41:01Z</time>
      </trkpt>
      <trkpt lat="44.85131" lon="3.82597">
        <ele>1133.248</ele>
        <time>2021-09-29T22:41:41Z</time>
      </trkpt>
      <trkpt lat="44.85129" lon="3.82596">
        <ele>1132.951</ele>
        <time>2021-09-29T22:42:21Z</time>
      </trkpt>
      <trkpt lat="44.85126" lon="3.82595">
        <ele>1132.601</ele>
        <time>2021-09-29T22:43:01Z</time>
      </trkpt>
      <trkpt lat="44.85125" lon="3.82595">
        <ele>1132.411</ele>
        <time>2021-09-29T22:43:41Z</time>
      </trkpt>
      <trkpt lat="44.85123" lon="3.82595">
        <ele>1132.208</ele>
        <time>2021-09-29T22:44:21Z</time>
      </trkpt>
      <trkpt lat="44.8512" lon="3.82595">
        <ele>1132.043</ele>
        <time>2021-09-29T22:45:01Z</time>
      </trkpt>
      <trkpt lat="44.85118" lon="3.82594">
        <ele>1131.759</ele>
        <time>2021-09-29T22:45:41Z</time>
      </trkpt>
      <trkpt lat="44.85115" lon="3.82594">
        <ele>1131.584</ele>
        <time>2021-09-29T22:46:21Z</time>
      </trkpt>
      <trkpt lat="44.85112" lon="3.82594">
        <ele>1131.226</ele>
        <time>2021-09-29T22:47:01Z</time>
      </trkpt>
      <trkpt lat="44.8511" lon="3.82594">
        <ele>1131.054</ele>
        <time>2021-09-29T22:47:41Z</time>
      </trkpt>
      <trkpt lat="44.85108" lon="3.82594">
        <ele>1130.737</ele>
        <time>2021-09-29T22:48:21Z</time>
      </trkpt>
      <trkpt lat="44.85105" lon="3.82594">
        <ele>1130.489</ele>
        <time>2021-09-29T22:49:01Z</time>
      </trkpt>
      <trkpt lat="44.85102" lon="3.82594">
        <ele>1130.079</ele>
        <time>2021-09-29T22:49:41Z</time>
      </trkpt>
      <trkpt lat="44.851" lon="3.82594">
        <ele>1129.638</ele>
        <time>2021-09-29T22:50:21Z</time>
      </trkpt>
      <trkpt lat="44.85097" lon="3.82594">
        <ele>1129.37</ele>
        <time>2021-09-29T22:51:01Z</time>
      </trkpt>
      <trkpt lat="44.85095" lon="3.82594">
        <ele>1129.017</ele>
        <time>2021-09-29T22:51:41Z</time>
      </trkpt>
      <trkpt lat="44.85093" lon="3.82595">
        <ele>1128.708</ele>
        <time>2021-09-29T22:52:21Z</time>
      </trkpt>
      <trkpt lat="44.8509" lon="3.82596">
        <ele>1128.491</ele>
        <time>2021-09-29T22:53:01Z</time>
      </trkpt>
      <trkpt lat="44.85088" lon="3.82597">
        <ele>1128.147</ele>
        <time>2021-09-29T22:53:41Z</time>
      </trkpt>
      <trkpt lat="44.85085" lon="3.82598">
        <ele>1127.862</ele>
        <time>2021-09-29T22:54:21Z</time>
      </trkpt>
      <trkpt lat="44.85083" lon="3.82599">
        <ele>1127.594</ele>
        <time>2021-09-29T22:55:01Z</time>
      </trkpt>
      <trkpt lat="44.85081" lon="3.826">
        <ele>1127.222</ele>
        <time>2021-09-29T22:55:41Z</time>
      </trkpt>
      <trkpt lat="44.85079" lon="3.82601">
        <ele>1126.895</ele>
        <time>2021-09-29T22:56:21Z</time>
      </trkpt>
      <trkpt lat="44.85076" lon="3.82603">
        <ele>1126.467</ele>
        <time>2021-09-29T22:57:01Z</time>
      </trkpt>
      <trkpt lat="44.85073" lon="3.82605">
        <ele>1125.997</ele>
        <time>2021-09-29T22:57:41Z</time>
      </trkpt>
      <trkpt lat="44.8507" lon="3.82606">
        <ele>1125.515</ele>
        <time>2021-09-29T22:58:21Z</time>
      </trkpt>
      <trkpt lat="44.85068" lon="3.82607">
        <ele>1125.165</ele>
        <time>2021-09-29T22:59:01Z</time>
      </trkpt>
      <trkpt lat="44.85066" lon="3.82609">
        <ele>1124.711</ele>
        <time>2021-09-29T22:59:41Z</time>
      </trkpt>
      <trkpt lat="44.85063" lon="3.8261">
        <ele>1124.408</ele>
        <time>2021-09-29T23:00:21Z</time>
      </trkpt>
      <trkpt lat="44.85061" lon="3.82611">
        <ele>1123.919</ele>
        <time>2021-09-29T23:01:01Z</time>
      </trkpt>
      <trkpt lat="44.85058" lon="3.82613">
        <ele>1123.585</ele>
        <time>2021-09-29T23:01:41Z</time>
      </trkpt>
      <trkpt lat="44.85056" lon="3.82614">
        <ele>1123.09</ele>
        <time>2021-09-29T23:02:21Z</time>
      </trkpt>
      <trkpt lat="44.85053" lon="3.82616">
        <ele>1122.592</ele>
        <time>2021-09-29T23:03:01Z</time>
      </trkpt>
      <trkpt lat="44.8505" lon="3.82617">
        <ele>1122.03</ele>
        <time>2021-09-29T23:03:41Z</time>
      </trkpt>
      <trkpt lat="44.85048" lon="3.82619">
        <ele>1121.593</ele>
        <time>2021-09-29T23:04:21Z</time>
      </trkpt>
      <trkpt lat="44.85045" lon="3.8262">
        <ele>1121.055</ele>
        <time>2021-09-29T23:05:01Z</time>
      </trkpt>
      <trkpt lat="44.85043" lon="3.82621">
        <ele>1120.535</ele>
        <time>2021-09-29T23:05:41Z</time>
      </trkpt>
      <trkpt lat="44.8504" lon="3.82622">
        <ele>1120.078</ele>
        <time>2021-09-29T23:06:21Z</time>
      </trkpt>
      <trkpt lat="44.85037" lon="3.82623">
        <ele>1119.433</ele>
        <time>2021-09-29T23:07:01Z</time>
      </trkpt>
      <trkpt lat="44.85035" lon="3.82625">
        <ele>1118.926</ele>
        <time>2021-09-29T23:07:41Z</time>
      </trkpt>
      <trkpt lat="44.85032" lon="3.82626">
        <ele>1118.408</ele>
        <time>2021-09-29T23:08:21Z</time>
      </trkpt>
      <trkpt lat="44.8503" lon="3.82627">
        <ele>1117.875</ele>
        <time>2021-09-29T23:09:01Z</time>
      </trkpt>
      <trkpt lat="44.85027" lon="3.82628">
        <ele>1117.361</ele>
        <time>2021-09-29T23:09:41Z</time>
      </trkpt>
      <trkpt lat="44.85025" lon="3.8263">
        <ele>1117.056</ele>
        <time>2021-09-29T23:10:21Z</time>
      </trkpt>
      <trkpt lat="44.85022" lon="3.82631">
        <ele>1116.628</ele>
        <time>2021-09-29T23:11:01Z</time>
      </trkpt>
      <trkpt lat="44.85019" lon="3.82632">
        <ele>1116.216</ele>
        <time>2021-09-29T23:11:41Z</time>
      </trkpt>
      <trkpt lat="44.85017" lon="3.82633">
        <ele>1115.989</ele>
        <time>2021-09-29T23:12:21Z</time>
      </trkpt>
      <trkpt lat="44.85014" lon="3.82635">
        <ele>1115.611</ele>
        <time>2021-09-29T23:13:01Z</time>
      </trkpt>
      <trkpt lat="44.85012" lon="3.82637">
        <ele>1115.391</ele>
        <time>2021-09-29T23:13:41Z</time>
      </trkpt>
      <trkpt lat="44.8501" lon="3.82638">
        <ele>1115.025</ele>
        <time>2021-09-29T23:14:21Z</time>
      </trkpt>
      <trkpt lat="44.85007" lon="3.82641">
        <ele>1114.826</ele>
        <time>2021-09-29T23:15:01Z</time>
      </trkpt>
      <trkpt lat="44.85005" lon="3.82643">
        <ele>1114.608</ele>
        <time>2021-09-29T23:15:41Z</time>
      </trkpt>
      <trkpt lat="44.85003" lon="3.82645">
        <ele>1114.408</ele>
        <time>2021-09-29T23:16:21Z</time>
      </trkpt>
      <trkpt lat="44.85001" lon="3.82647">
        <ele>1114.17</ele>
        <time>2021-09-29T23:17:01Z</time>
      </trkpt>
      <trkpt lat="44.84999" lon="3.8265">
        <ele>1113.996</ele>
        <time>2021-09-29T23:17:41Z</time>
      </trkpt>
      <trkpt lat="44.84997" lon="3.82652">
        <ele>1113.781</ele>
        <time>2021-09-29T23:18:21Z</time>
      </trkpt>
      <trkpt lat="44.84995" lon="3.82654">
        <ele>1113.563</ele>
        <time>2021-09-29T23:19:01Z</time>
      </trkpt>
      <trkpt lat="44.84993" lon="3.82656">
        <ele>1113.331</ele>
        <time>2021-09-29T23:19:41Z</time>
      </trkpt>
      <trkpt lat="44.84991" lon="3.82658">
        <ele>1113.134</ele>
        <time>2021-09-29T23:20:21Z</time>
      </trkpt>
      <trkpt lat="44.8499" lon="3.82661">
        <ele>1112.966</ele>
        <time>2021-09-29T23:21:01Z</time>
      </trkpt>
      <trkpt lat="44.84987" lon="3.82663">
        <ele>1112.686</ele>
        <time>2021-09-29T23:21:41Z</time>
      </trkpt>
      <trkpt lat="44.84985" lon="3.82665">
        <ele>1112.485</ele>
        <time>2021-09-29T23:22:21Z</time>
      </trkpt>
      <trkpt lat="44.84983" lon="3.82668">
        <ele>1112.289</ele>
        <time>2021-09-29T23:23:01Z</time>
      </trkpt>
      <trkpt lat="44.84981" lon="3.8267">
        <ele>1112.017</ele>
        <time>2021-09-29T23:23:41Z</time>
      </trkpt>
      <trkpt lat="44.84979" lon="3.82672">
        <ele>1111.708</ele>
        <time>2021-09-29T23:24:21Z</time>
      </trkpt>
      <trkpt lat="44.84977" lon="3.82673">
        <ele>1111.526</ele>
        <time>2021-09-29T23:25:01Z</time>
      </trkpt>
      <trkpt lat="44.84975" lon="3.82675">
        <ele>1111.322</ele>
        <time>2021-09-29T23:25:41Z</time>
      </trkpt>
      <trkpt lat="44.84973" lon="3.82677">
        <ele>1111.187</ele>
        <time>2021-09-29T23:26:21Z</time>
      </trkpt>
      <trkpt lat="44.8497" lon="3.82679">
        <ele>1110.969</ele>
        <time>2021-09-29T23:27:01Z</time>
      </trkpt>
      <trkpt lat="44.84968" lon="3.82681">
        <ele>1110.897</ele>
        <time>2021-09-29T23:27:41Z</time>
      </trkpt>
      <trkpt lat="44.84965" lon="3.82682">
        <ele>1110.88</ele>
        <time>2021-09-29T23:28:21Z</time>
      </trkpt>
      <trkpt lat="44.84963" lon="3.82684">
        <ele>1110.732</ele>
        <time>2021-09-29T23:29:01Z</time>
      </trkpt>
      <trkpt lat="44.84961" lon="3.82686">
        <ele>1110.612</ele>
        <time>2021-09-29T23:29:41Z</time>
      </trkpt>
      <trkpt lat="44.84959" lon="3.82687">
        <ele>1110.567</ele>
        <time>2021-09-29T23:30:21Z</time>
      </trkpt>
      <trkpt lat="44.84956" lon="3.82687">
        <ele>1110.481</ele>
        <time>2021-09-29T23:31:01Z</time>
      </trkpt>
      <trkpt lat="44.84954" lon="3.82687">
        <ele>1110.419</ele>
        <time>2021-09-29T23:31:41Z</time>
      </trkpt>
      <trkpt lat="44.84952" lon="3.82687">
        <ele>1110.308</ele>
        <time>2021-09-29T23:32:21Z</time>
      </trkpt>
      <trkpt lat="44.8495" lon="3.82686">
        <ele>1110.224</ele>
        <time>2021-09-29T23:33:01Z</time>
      </trkpt>
      <trkpt lat="44.84948" lon="3.82685">
        <ele>1110.11</ele>
        <time>2021-09-29T23:33:41Z</time>
      </trkpt>
      <trkpt lat="44.84945" lon="3.82684">
        <ele>1110.035</ele>
        <time>2021-09-29T23:34:21Z</time>
      </trkpt>
      <trkpt lat="44.84943" lon="3.82682">
        <ele>1110.097</ele>
        <time>2021-09-29T23:35:01Z</time>
      </trkpt>
      <trkpt lat="44.8494" lon="3.82681">
        <ele>1110.075</ele>
        <time>2021-09-29T23:35:41Z</time>
      </trkpt>
      <trkpt lat="44.84938" lon="3.82679">
        <ele>1110.028</ele>
        <time>2021-09-29T23:36:21Z</time>
      </trkpt>
      <trkpt lat="44.84935" lon="3.82678">
        <ele>1110.05</ele>
        <time>2021-09-29T23:37:01Z</time>
      </trkpt>
      <trkpt lat="44.84933" lon="3.82677">
        <ele>1110.01</ele>
        <time>2021-09-29T23:37:41Z</time>
      </trkpt>
      <trkpt lat="44.84931" lon="3.82676">
        <ele>1110.053</ele>
        <time>2021-09-29T23:38:21Z</time>
      </trkpt>
      <trkpt lat="44.84929" lon="3.82675">
        <ele>1110.004</ele>
        <time>2021-09-29T23:39:01Z</time>
      </trkpt>
      <trkpt lat="44.84926" lon="3.82673">
        <ele>1110.014</ele>
        <time>2021-09-29T23:39:41Z</time>
      </trkpt>
      <trkpt lat="44.84924" lon="3.82671">
        <ele>1110.008</ele>
        <time>2021-09-29T23:40:21Z</time>
      </trkpt>
      <trkpt lat="44.84921" lon="3.82669">
        <ele>1110.073</ele>
        <time>2021-09-29T23:41:01Z</time>
      </trkpt>
      <trkpt lat="44.84919" lon="3.82667">
        <ele>1110.029</ele>
        <time>2021-09-29T23:41:41Z</time>
      </trkpt>
      <trkpt lat="44.84917" lon="3.82664">
        <ele>1110.124</ele>
        <time>2021-09-29T23:42:21Z</time>
      </trkpt>
      <trkpt lat="44.84915" lon="3.82662">
        <ele>1110.246</ele>
        <time>2021-09-29T23:43:01Z</time>
      </trkpt>
      <trkpt lat="44.84913" lon="3.82659">
        <ele>1110.434</ele>
        <time>2021-09-29T23:43:41Z</time>
      </trkpt>
      <trkpt lat="44.84911" lon="3.82656">
        <ele>1110.617</ele>
        <time>2021-09-29T23:44:21Z</time>
      </trkpt>
      <trkpt lat="44.8491" lon="3.82654">
        <ele>1110.759</ele>
        <time>2021-09-29T23:45:01Z</time>
      </trkpt>
      <trkpt lat="44.84908" lon="3.82652">
        <ele>1110.849</ele>
        <time>2021-09-29T23:45:41Z</time>
      </trkpt>
      <trkpt lat="44.84907" lon="3.8265">
        <ele>1110.948</ele>
        <time>2021-09-29T23:46:21Z</time>
      </trkpt>
      <trkpt lat="44.84905" lon="3.82653">
        <ele>1110.961</ele>
        <time>2021-09-29T23:47:01Z</time>
      </trkpt>
      <trkpt lat="44.84903" lon="3.82656">
        <ele>1110.917</ele>
        <time>2021-09-29T23:47:41Z</time>
      </trkpt>
      <trkpt lat="44.849" lon="3.82658">
        <ele>1110.908</ele>
        <time>2021-09-29T23:48:21Z</time>
      </trkpt>
      <trkpt lat="44.84898" lon="3.82661">
        <ele>1110.982</ele>
        <time>2021-09-29T23:49:01Z</time>
      </trkpt>
      <trkpt lat="44.84896" lon="3.82663">
        <ele>1110.998</ele>
        <time>2021-09-29T23:49:41Z</time>
      </trkpt>
      <trkpt lat="44.84894" lon="3.82666">
        <ele>1110.853</ele>
        <time>2021-09-29T23:50:21Z</time>
      </trkpt>
      <trkpt lat="44.84892" lon="3.82668">
        <ele>1110.855</ele>
        <time>2021-09-29T23:51:01Z</time>
      </trkpt>
      <trkpt lat="44.8489" lon="3.82671">
        <ele>1110.843</ele>
        <time>2021-09-29T23:51:41Z</time>
      </trkpt>
      <trkpt lat="44.84888" lon="3.82673">
        <ele>1110.886</ele>
        <time>2021-09-29T23:52:21Z</time>
      </trkpt>
      <trkpt lat="44.84886" lon="3.82676">
        <ele>1110.758</ele>
        <time>2021-09-29T23:53:01Z</time>
      </trkpt>
      <trkpt lat="44.84884" lon="3.82679">
        <ele>1110.628</ele>
        <time>2021-09-29T23:53:41Z</time>
      </trkpt>
      <trkpt lat="44.84882" lon="3.82681">
        <ele>1110.558</ele>
        <time>2021-09-29T23:54:21Z</time>
      </trkpt>
      <trkpt lat="44.8488" lon="3.82683">
        <ele>1110.452</ele>
        <time>2021-09-29T23:55:01Z</time>
      </trkpt>
      <trkpt lat="44.84878" lon="3.82685">
        <ele>1110.317</ele>
        <time>2021-09-29T23:55:41Z</time>
      </trkpt>
      <trkpt lat="44.84876" lon="3.82687">
        <ele>1110.308</ele>
        <time>2021-09-29T23:56:21Z</time>
      </trkpt>
      <trkpt lat="44.84874" lon="3.8269">
        <ele>1110.243</ele>
        <time>2021-09-29T23:57:01Z</time>
      </trkpt>
      <trkpt lat="44.84871" lon="3.8269">
        <ele>1110.299</ele>
        <time>2021-09-29T23:57:41Z</time>
      </trkpt>
      <trkpt lat="44.84869" lon="3.8269">
        <ele>1110.184</ele>
        <time>2021-09-29T23:58:21Z</time>
      </trkpt>
      <trkpt lat="44.84867" lon="3.82691">
        <ele>1110.126</ele>
        <time>2021-09-29T23:59:01Z</time>
      </trkpt>
      <trkpt lat="44.84865" lon="3.82691">
        <ele>1110.114</ele>
        <time>2021-09-29T23:59:41Z</time>
      </trkpt>
      <trkpt lat="44.84862" lon="3.8269">
        <ele>1110.117</ele>
        <time>2021-09-30T00:00:21Z</time>
      </trkpt>
      <trkpt lat="44.84859" lon="3.8269">
        <ele>1110.199</ele>
        <time>2021-09-30T00:01:01Z</time>
      </trkpt>
      <trkpt lat="44.84857" lon="3.8269">
        <ele>1110.039</ele>
        <time>2021-09-30T00:01:41Z</time>
      </trkpt>
      <trkpt lat="44.84855" lon="3.8269">
        <ele>1110.087</ele>
        <time>2021-09-30T00:02:21Z</time>
      </trkpt>
      <trkpt lat="44.84853" lon="3.8269">
        <ele>1109.942</ele>
        <time>2021-09-30T00:03:01Z</time>
      </trkpt>
      <trkpt lat="44.8485" lon="3.8269">
        <ele>1109.826</ele>
        <time>2021-09-30T00:03:41Z</time>
      </trkpt>
      <trkpt lat="44.84847" lon="3.82689">
        <ele>1109.808</ele>
        <time>2021-09-30T00:04:21Z</time>
      </trkpt>
      <trkpt lat="44.84845" lon="3.82689">
        <ele>1109.756</ele>
        <time>2021-09-30T00:05:01Z</time>
      </trkpt>
      <trkpt lat="44.84842" lon="3.82689">
        <ele>1109.742</ele>
        <time>2021-09-30T00:05:41Z</time>
      </trkpt>
      <trkpt lat="44.84839" lon="3.82688">
        <ele>1109.697</ele>
        <time>2021-09-30T00:06:21Z</time>
      </trkpt>
      <trkpt lat="44.84837" lon="3.82688">
        <ele>1109.669</ele>
        <time>2021-09-30T00:07:01Z</time>
      </trkpt>
      <trkpt lat="44.84834" lon="3.82688">
        <ele>1109.517</ele>
        <time>2021-09-30T00:07:41Z</time>
      </trkpt>
      <trkpt lat="44.84831" lon="3.82687">
        <ele>1109.56</ele>
        <time>2021-09-30T00:08:21Z</time>
      </trkpt>
      <trkpt lat="44.84829" lon="3.82687">
        <ele>1109.632</ele>
        <time>2021-09-30T00:09:01Z</time>
      </trkpt>
      <trkpt lat="44.84826" lon="3.82686">
        <ele>1109.682</ele>
        <time>2021-09-30T00:09:41Z</time>
      </trkpt>
      <trkpt lat="44.84824" lon="3.82685">
        <ele>1109.745</ele>
        <time>2021-09-30T00:10:21Z</time>
      </trkpt>
      <trkpt lat="44.84821" lon="3.82684">
        <ele>1109.847</ele>
        <time>2021-09-30T00:11:01Z</time>
      </trkpt>
      <trkpt lat="44.84819" lon="3.82683">
        <ele>1109.811</ele>
        <time>2021-09-30T00:11:41Z</time>
      </trkpt>
      <trkpt lat="44.84816" lon="3.82682">
        <ele>1109.908</ele>
        <time>2021-09-30T00:12:21Z</time>
      </trkpt>
      <trkpt lat="44.84814" lon="3.82681">
        <ele>1110.022</ele>
        <time>2021-09-30T00:13:01Z</time>
      </trkpt>
      <trkpt lat="44.84812" lon="3.8268">
        <ele>1110.198</ele>
        <time>2021-09-30T00:13:41Z</time>
      </trkpt>
      <trkpt lat="44.84809" lon="3.82679">
        <ele>1110.183</ele>
        <time>2021-09-30T00:14:21Z</time>
      </trkpt>
      <trkpt lat="44.84807" lon="3.82678">
        <ele>1110.225</ele>
        <time>2021-09-30T00:15:01Z</time>
      </trkpt>
      <trkpt lat="44.84805" lon="3.82677">
        <ele>1110.293</ele>
        <time>2021-09-30T00:15:41Z</time>
      </trkpt>
      <trkpt lat="44.84803" lon="3.82676">
        <ele>1110.226</ele>
        <time>2021-09-30T00:16:21Z</time>
      </trkpt>
      <trkpt lat="44.84801" lon="3.82675">
        <ele>1110.278</ele>
        <time>2021-09-30T00:17:01Z</time>
      </trkpt>
      <trkpt lat="44.84798" lon="3.82674">
        <ele>1110.298</ele>
        <time>2021-09-30T00:17:41Z</time>
      </trkpt>
      <trkpt lat="44.84795" lon="3.82673">
        <ele>1110.221</ele>
        <time>2021-09-30T00:18:21Z</time>
      </trkpt>
      <trkpt lat="44.84792" lon="3.82672">
        <ele>1110.241</ele>
        <time>2021-09-30T00:19:01Z</time>
      </trkpt>
      <trkpt lat="44.8479" lon="3.8267">
        <ele>1110.205</ele>
        <time>2021-09-30T00:19:41Z</time>
      </trkpt>
      <trkpt lat="44.84787" lon="3.82669">
        <ele>1110.108</ele>
        <time>2021-09-30T00:20:21Z</time>
      </trkpt>
      <trkpt lat="44.84784" lon="3.82669">
        <ele>1110.15</ele>
        <time>2021-09-30T00:21:01Z</time>
      </trkpt>
      <trkpt lat="44.84781" lon="3.82668">
        <ele>1110.026</ele>
        <time>2021-09-30T00:21:41Z</time>
      </trkpt>
      <trkpt lat="44.84778" lon="3.82667">
        <ele>1110.081</ele>
        <time>2021-09-30T00:22:21Z</time>
      </trkpt>
      <trkpt lat="44.84775" lon="3.82666">
        <ele>1109.943</ele>
        <time>2021-09-30T00:23:01Z</time>
      </trkpt>
      <trkpt lat="44.84772" lon="3.82665">
        <ele>1109.731</ele>
        <time>2021-09-30T00:23:41Z</time>
      </trkpt>
      <trkpt lat="44.84769" lon="3.82664">
        <ele>1109.644</ele>
        <time>2021-09-30T00:24:21Z</time>
      </trkpt>
      <trkpt lat="44.84767" lon="3.82664">
        <ele>1109.566</ele>
        <time>2021-09-30T00:25:01Z</time>
      </trkpt>
      <trkpt lat="44.84764" lon="3.82663">
        <ele>1109.336</ele>
        <time>2021-09-30T00:25:41Z</time>
      </trkpt>
      <trkpt lat="44.84761" lon="3.82662">
        <ele>1109.251</ele>
        <time>2021-09-30T00:26:21Z</time>
      </trkpt>
      <trkpt lat="44.84759" lon="3.82662">
        <ele>1109.101</ele>
        <time>2021-09-30T00:27:01Z</time>
      </trkpt>
      <trkpt lat="44.84756" lon="3.82662">
        <ele>1108.911</ele>
        <time>2021-09-30T00:27:41Z</time>
      </trkpt>
      <trkpt lat="44.84754" lon="3.82661">
        <ele>1108.808</ele>
        <time>2021-09-30T00:28:21Z</time>
      </trkpt>
      <trkpt lat="44.84751" lon="3.82661">
        <ele>1108.743</ele>
        <time>2021-09-30T00:29:01Z</time>
      </trkpt>
      <trkpt lat="44.84749" lon="3.82661">
        <ele>1108.549</ele>
        <time>2021-09-30T00:29:41Z</time>
      </trkpt>
      <trkpt lat="44.84746" lon="3.8266">
        <ele>1108.454</ele>
        <time>2021-09-30T00:30:21Z</time>
      </trkpt>
      <trkpt lat="44.84744" lon="3.8266">
        <ele>1108.396</ele>
        <time>2021-09-30T00:31:01Z</time>
      </trkpt>
      <trkpt lat="44.84741" lon="3.8266">
        <ele>1108.194</ele>
        <time>2021-09-30T00:31:41Z</time>
      </trkpt>
      <trkpt lat="44.84739" lon="3.82659">
        <ele>1108.087</ele>
        <time>2021-09-30T00:32:21Z</time>
      </trkpt>
      <trkpt lat="44.84736" lon="3.82659">
        <ele>1107.919</ele>
        <time>2021-09-30T00:33:01Z</time>
      </trkpt>
      <trkpt lat="44.84734" lon="3.82658">
        <ele>1107.729</ele>
        <time>2021-09-30T00:33:41Z</time>
      </trkpt>
      <trkpt lat="44.84731" lon="3.82658">
        <ele>1107.688</ele>
        <time>2021-09-30T00:34:21Z</time>
      </trkpt>
      <trkpt lat="44.84728" lon="3.82657">
        <ele>1107.524</ele>
        <time>2021-09-30T00:35:01Z</time>
      </trkpt>
      <trkpt lat="44.84726" lon="3.82657">
        <ele>1107.326</ele>
        <time>2021-09-30T00:35:41Z</time>
      </trkpt>
      <trkpt lat="44.84723" lon="3.82656">
        <ele>1107.208</ele>
        <time>2021-09-30T00:36:21Z</time>
      </trkpt>
      <trkpt lat="44.84721" lon="3.82656">
        <ele>1107.156</ele>
        <time>2021-09-30T00:37:01Z</time>
      </trkpt>
      <trkpt lat="44.84718" lon="3.82655">
        <ele>1107.112</ele>
        <time>2021-09-30T00:37:41Z</time>
      </trkpt>
      <trkpt lat="44.84715" lon="3.82655">
        <ele>1107.167</ele>
        <time>2021-09-30T00:38:21Z</time>
      </trkpt>
      <trkpt lat="44.84713" lon="3.82654">
        <ele>1107.219</ele>
        <time>2021-09-30T00:39:01Z</time>
      </trkpt>
      <trkpt lat="44.8471" lon="3.82654">
        <ele>1107.217</ele>
        <time>2021-09-30T00:39:41Z</time>
      </trkpt>
      <trkpt lat="44.84707" lon="3.82653">
        <ele>1107.22</ele>
        <time>2021-09-30T00:40:21Z</time>
      </trkpt>
      <trkpt lat="44.84705" lon="3.82653">
        <ele>1107.222</ele>
        <time>2021-09-30T00:41:01Z</time>
      </trkpt>
      <trkpt lat="44.84702" lon="3.82652">
        <ele>1107.282</ele>
        <time>2021-09-30T00:41:41Z</time>
      </trkpt>
      <trkpt lat="44.84699" lon="3.82651">
        <ele>1107.392</ele>
        <time>2021-09-30T00:42:21Z</time>
      </trkpt>
      <trkpt lat="44.84697" lon="3.8265">
        <ele>1107.473</ele>
        <time>2021-09-30T00:43:01Z</time>
      </trkpt>
      <trkpt lat="44.84694" lon="3.82649">
        <ele>1107.52</ele>
        <time>2021-09-30T00:43:41Z</time>
      </trkpt>
      <trkpt lat="44.84691" lon="3.82648">
        <ele>1107.708</ele>
        <time>2021-09-30T00:44:21Z</time>
      </trkpt>
      <trkpt lat="44.84689" lon="3.82647">
        <ele>1107.947</ele>
        <time>2021-09-30T00:45:01Z</time>
      </trkpt>
      <trkpt lat="44.84687" lon="3.82646">
        <ele>1108.073</ele>
        <time>2021-09-30T00:45:41Z</time>
      </trkpt>
      <trkpt lat="44.84686" lon="3.82645">
        <ele>1108.138</ele>
        <time>2021-09-30T00:46:21Z</time>
      </trkpt>
      <trkpt lat="44.84684" lon="3.82644">
        <ele>1108.24</ele>
        <time>2021-09-30T00:47:01Z</time>
      </trkpt>
      <trkpt lat="44.84681" lon="3.82648">
        <ele>1107.718</ele>
        <time>2021-09-30T00:47:41Z</time>
      </trkpt>
      <trkpt lat="44.84676" lon="3.82655">
        <ele>1106.721</ele>
        <time>2021-09-30T00:48:21Z</time>
      </trkpt>
      <trkpt lat="44.84671" lon="3.82662">
        <ele>1105.763</ele>
        <time>2021-09-30T00:49:01Z</time>
      </trkpt>
      <trkpt lat="44.84667" lon="3.82667">
        <ele>1105.063</ele>
        <time>2021-09-30T00:49:41Z</time>
      </trkpt>
      <trkpt lat="44.84663" lon="3.82672">
        <ele>1104.991</ele>
        <time>2021-09-30T00:50:21Z</time>
      </trkpt>
      <trkpt lat="44.84658" lon="3.82679">
        <ele>1104.781</ele>
        <time>2021-09-30T00:51:01Z</time>
      </trkpt>
      <trkpt lat="44.84653" lon="3.82685">
        <ele>1104.519</ele>
        <time>2021-09-30T00:51:41Z</time>
      </trkpt>
      <trkpt lat="44.84647" lon="3.82692">
        <ele>1104.108</ele>
        <time>2021-09-30T00:52:21Z</time>
      </trkpt>
      <trkpt lat="44.84642" lon="3.82699">
        <ele>1103.877</ele>
        <time>2021-09-30T00:53:01Z</time>
      </trkpt>
      <trkpt lat="44.84638" lon="3.82703">
        <ele>1103.733</ele>
        <time>2021-09-30T00:53:41Z</time>
      </trkpt>
      <trkpt lat="44.84635" lon="3.82707">
        <ele>1103.538</ele>
        <time>2021-09-30T00:54:21Z</time>
      </trkpt>
      <trkpt lat="44.8463" lon="3.82712">
        <ele>1103.44</ele>
        <time>2021-09-30T00:55:01Z</time>
      </trkpt>
      <trkpt lat="44.84627" lon="3.82717">
        <ele>1103.288</ele>
        <time>2021-09-30T00:55:41Z</time>
      </trkpt>
      <trkpt lat="44.84624" lon="3.82722">
        <ele>1103.081</ele>
        <time>2021-09-30T00:56:21Z</time>
      </trkpt>
      <trkpt lat="44.8462" lon="3.82727">
        <ele>1102.933</ele>
        <time>2021-09-30T00:57:01Z</time>
      </trkpt>
      <trkpt lat="44.84617" lon="3.82734">
        <ele>1102.713</ele>
        <time>2021-09-30T00:57:41Z</time>
      </trkpt>
      <trkpt lat="44.84612" lon="3.82734">
        <ele>1102.684</ele>
        <time>2021-09-30T00:58:21Z</time>
      </trkpt>
      <trkpt lat="44.84608" lon="3.82735">
        <ele>1102.507</ele>
        <time>2021-09-30T00:59:01Z</time>
      </trkpt>
      <trkpt lat="44.84603" lon="3.82737">
        <ele>1102.317</ele>
        <time>2021-09-30T00:59:41Z</time>
      </trkpt>
      <trkpt lat="44.84601" lon="3.82742">
        <ele>1102.008</ele>
        <time>2021-09-30T01:00:21Z</time>
      </trkpt>
      <trkpt lat="44.84601" lon="3.82744">
        <ele>1101.936</ele>
        <time>2021-09-30T01:01:01Z</time>
      </trkpt>
      <trkpt lat="44.84601" lon="3.82751">
        <ele>1101.742</ele>
        <time>2021-09-30T01:01:41Z</time>
      </trkpt>
      <trkpt lat="44.84602" lon="3.82757">
        <ele>1102.157</ele>
        <time>2021-09-30T01:02:21Z</time>
      </trkpt>
      <trkpt lat="44.84603" lon="3.82767">
        <ele>1102.749</ele>
        <time>2021-09-30T01:03:01Z</time>
      </trkpt>
      <trkpt lat="44.84601" lon="3.82767">
        <ele>1102.677</ele>
        <time>2021-09-30T01:03:41Z</time>
      </trkpt>
      <trkpt lat="44.84598" lon="3.82769">
        <ele>1102.67</ele>
        <time>2021-09-30T01:04:21Z</time>
      </trkpt>
      <trkpt lat="44.84592" lon="3.82773">
        <ele>1102.452</ele>
        <time>2021-09-30T01:05:01Z</time>
      </trkpt>
      <trkpt lat="44.84586" lon="3.82777">
        <ele>1102.222</ele>
        <time>2021-09-30T01:05:41Z</time>
      </trkpt>
      <trkpt lat="44.84579" lon="3.82782">
        <ele>1102.148</ele>
        <time>2021-09-30T01:06:21Z</time>
      </trkpt>
      <trkpt lat="44.84573" lon="3.82787">
        <ele>1102.061</ele>
        <time>2021-09-30T01:07:01Z</time>
      </trkpt>
      <trkpt lat="44.84566" lon="3.82792">
        <ele>1101.817</ele>
        <time>2021-09-30T01:07:41Z</time>
      </trkpt>
      <trkpt lat="44.84559" lon="3.82799">
        <ele>1101.308</ele>
        <time>2021-09-30T01:08:21Z</time>
      </trkpt>
      <trkpt lat="44.84552" lon="3.82805">
        <ele>1100.662</ele>
        <time>2021-09-30T01:09:01Z</time>
      </trkpt>
      <trkpt lat="44.84548" lon="3.82809">
        <ele>1100.218</ele>
        <time>2021-09-30T01:09:41Z</time>
      </trkpt>
      <trkpt lat="44.84542" lon="3.82815">
        <ele>1099.863</ele>
        <time>2021-09-30T01:10:21Z</time>
      </trkpt>
      <trkpt lat="44.84536" lon="3.82821">
        <ele>1099.475</ele>
        <time>2021-09-30T01:11:01Z</time>
      </trkpt>
      <trkpt lat="44.84533" lon="3.82824">
        <ele>1099.253</ele>
        <time>2021-09-30T01:11:41Z</time>
      </trkpt>
      <trkpt lat="44.84529" lon="3.82828">
        <ele>1098.996</ele>
        <time>2021-09-30T01:12:21Z</time>
      </trkpt>
      <trkpt lat="44.84523" lon="3.82834">
        <ele>1098.748</ele>
        <time>2021-09-30T01:13:01Z</time>
      </trkpt>
      <trkpt lat="44.84516" lon="3.82841">
        <ele>1098.338</ele>
        <time>2021-09-30T01:13:41Z</time>
      </trkpt>
      <trkpt lat="44.8451" lon="3.82847">
        <ele>1097.948</ele>
        <time>2021-09-30T01:14:21Z</time>
      </trkpt>
      <trkpt lat="44.84505" lon="3.82851">
        <ele>1097.561</ele>
        <time>2021-09-30T01:15:01Z</time>
      </trkpt>
      <trkpt lat="44.84501" lon="3.82856">
        <ele>1097.117</ele>
        <time>2021-09-30T01:15:41Z</time>
      </trkpt>
      <trkpt lat="44.84496" lon="3.8286">
        <ele>1096.708</ele>
        <time>2021-09-30T01:16:21Z</time>
      </trkpt>
      <trkpt lat="44.8449" lon="3.82866">
        <ele>1096.592</ele>
        <time>2021-09-30T01:17:01Z</time>
      </trkpt>
      <trkpt lat="44.84485" lon="3.82871">
        <ele>1096.278</ele>
        <time>2021-09-30T01:17:41Z</time>
      </trkpt>
      <trkpt lat="44.84481" lon="3.82874">
        <ele>1095.933</ele>
        <time>2021-09-30T01:18:21Z</time>
      </trkpt>
      <trkpt lat="44.84477" lon="3.82878">
        <ele>1095.545</ele>
        <time>2021-09-30T01:19:01Z</time>
      </trkpt>
      <trkpt lat="44.84475" lon="3.82879">
        <ele>1095.333</ele>
        <time>2021-09-30T01:19:41Z</time>
      </trkpt>
      <trkpt lat="44.84472" lon="3.82881">
        <ele>1095.066</ele>
        <time>2021-09-30T01:20:21Z</time>
      </trkpt>
      <trkpt lat="44.84466" lon="3.82885">
        <ele>1094.868</ele>
        <time>2021-09-30T01:21:01Z</time>
      </trkpt>
      <trkpt lat="44.8446" lon="3.82891">
        <ele>1094.738</ele>
        <time>2021-09-30T01:21:41Z</time>
      </trkpt>
      <trkpt lat="44.84455" lon="3.82897">
        <ele>1094.722</ele>
        <time>2021-09-30T01:22:21Z</time>
      </trkpt>
      <trkpt lat="44.84449" lon="3.82902">
        <ele>1094.762</ele>
        <time>2021-09-30T01:23:01Z</time>
      </trkpt>
      <trkpt lat="44.84444" lon="3.82908">
        <ele>1094.708</ele>
        <time>2021-09-30T01:23:41Z</time>
      </trkpt>
      <trkpt lat="44.8444" lon="3.82912">
        <ele>1094.908</ele>
        <time>2021-09-30T01:24:21Z</time>
      </trkpt>
      <trkpt lat="44.84436" lon="3.82916">
        <ele>1095.09</ele>
        <time>2021-09-30T01:25:01Z</time>
      </trkpt>
      <trkpt lat="44.84431" lon="3.8292">
        <ele>1095.286</ele>
        <time>2021-09-30T01:25:41Z</time>
      </trkpt>
      <trkpt lat="44.84426" lon="3.82924">
        <ele>1095.451</ele>
        <time>2021-09-30T01:26:21Z</time>
      </trkpt>
      <trkpt lat="44.84421" lon="3.82929">
        <ele>1095.633</ele>
        <time>2021-09-30T01:27:01Z</time>
      </trkpt>
      <trkpt lat="44.84416" lon="3.82934">
        <ele>1095.661</ele>
        <time>2021-09-30T01:27:41Z</time>
      </trkpt>
      <trkpt lat="44.84411" lon="3.82939">
        <ele>1095.374</ele>
        <time>2021-09-30T01:28:21Z</time>
      </trkpt>
      <trkpt lat="44.84407" lon="3.82944">
        <ele>1094.946</ele>
        <time>2021-09-30T01:29:01Z</time>
      </trkpt>
      <trkpt lat="44.84402" lon="3.82948">
        <ele>1094.616</ele>
        <time>2021-09-30T01:29:41Z</time>
      </trkpt>
      <trkpt lat="44.84398" lon="3.82953">
        <ele>1094.315</ele>
        <time>2021-09-30T01:30:21Z</time>
      </trkpt>
      <trkpt lat="44.84394" lon="3.82957">
        <ele>1094.065</ele>
        <time>2021-09-30T01:31:01Z</time>
      </trkpt>
      <trkpt lat="44.8439" lon="3.82961">
        <ele>1093.711</ele>
        <time>2021-09-30T01:31:41Z</time>
      </trkpt>
      <trkpt lat="44.84387" lon="3.82966">
        <ele>1093.708</ele>
        <time>2021-09-30T01:32:21Z</time>
      </trkpt>
      <trkpt lat="44.84383" lon="3.82972">
        <ele>1093.819</ele>
        <time>2021-09-30T01:33:01Z</time>
      </trkpt>
      <trkpt lat="44.84379" lon="3.82977">
        <ele>1094.065</ele>
        <time>2021-09-30T01:33:41Z</time>
      </trkpt>
      <trkpt lat="44.84377" lon="3.82984">
        <ele>1094.45</ele>
        <time>2021-09-30T01:34:21Z</time>
      </trkpt>
      <trkpt lat="44.84376" lon="3.82991">
        <ele>1094.972</ele>
        <time>2021-09-30T01:35:01Z</time>
      </trkpt>
      <trkpt lat="44.84376" lon="3.82991">
        <ele>1094.91</ele>
        <time>2021-09-30T01:35:41Z</time>
      </trkpt>
      <trkpt lat="44.84376" lon="3.82991">
        <ele>1094.913</ele>
        <time>2021-09-30T01:36:21Z</time>
      </trkpt>
      <trkpt lat="44.84376" lon="3.82992">
        <ele>1094.935</ele>
        <time>2021-09-30T01:37:01Z</time>
      </trkpt>
      <trkpt lat="44.84375" lon="3.82992">
        <ele>1094.985</ele>
        <time>2021-09-30T01:37:41Z</time>
      </trkpt>
      <trkpt lat="44.84375" lon="3.82992">
        <ele>1094.917</ele>
        <time>2021-09-30T01:38:21Z</time>
      </trkpt>
      <trkpt lat="44.84375" lon="3.82992">
        <ele>1095.087</ele>
        <time>2021-09-30T01:39:01Z</time>
      </trkpt>
      <trkpt lat="44.84375" lon="3.82992">
        <ele>1095.015</ele>
        <time>2021-09-30T01:39:41Z</time>
      </trkpt>
      <trkpt lat="44.84375" lon="3.82993">
        <ele>1095.008</ele>
        <time>2021-09-30T01:40:21Z</time>
      </trkpt>
      <trkpt lat="44.84375" lon="3.82993">
        <ele>1095.089</ele>
        <time>2021-09-30T01:41:01Z</time>
      </trkpt>
      <trkpt lat="44.84375" lon="3.82993">
        <ele>1095.015</ele>
        <time>2021-09-30T01:41:41Z</time>
      </trkpt>
      <trkpt lat="44.84375" lon="3.82993">
        <ele>1095.01</ele>
        <time>2021-09-30T01:42:21Z</time>
      </trkpt>
      <trkpt lat="44.84375" lon="3.82994">
        <ele>1095.092</ele>
        <time>2021-09-30T01:43:01Z</time>
      </trkpt>
      <trkpt lat="44.84375" lon="3.82994">
        <ele>1095.14</ele>
        <time>2021-09-30T01:43:41Z</time>
      </trkpt>
      <trkpt lat="44.84375" lon="3.82994">
        <ele>1095.153</ele>
        <time>2021-09-30T01:44:21Z</time>
      </trkpt>
      <trkpt lat="44.84375" lon="3.82994">
        <ele>1095.155</ele>
        <time>2021-09-30T01:45:01Z</time>
      </trkpt>
      <trkpt lat="44.84375" lon="3.82994">
        <ele>1095.165</ele>
        <time>2021-09-30T01:45:41Z</time>
      </trkpt>
      <trkpt lat="44.84375" lon="3.82995">
        <ele>1095.132</ele>
        <time>2021-09-30T01:46:21Z</time>
      </trkpt>
      <trkpt lat="44.84375" lon="3.82995">
        <ele>1095.192</ele>
        <time>2021-09-30T01:47:01Z</time>
      </trkpt>
      <trkpt lat="44.84375" lon="3.82995">
        <ele>1095.111</ele>
        <time>2021-09-30T01:47:41Z</time>
      </trkpt>
      <trkpt lat="44.84375" lon="3.82995">
        <ele>1095.208</ele>
        <time>2021-09-30T01:48:21Z</time>
      </trkpt>
      <trkpt lat="44.84375" lon="3.82996">
        <ele>1095.221</ele>
        <time>2021-09-30T01:49:01Z</time>
      </trkpt>
      <trkpt lat="44.84375" lon="3.82996">
        <ele>1095.297</ele>
        <time>2021-09-30T01:49:41Z</time>
      </trkpt>
      <trkpt lat="44.84375" lon="3.82996">
        <ele>1095.292</ele>
        <time>2021-09-30T01:50:21Z</time>
      </trkpt>
      <trkpt lat="44.84375" lon="3.82996">
        <ele>1095.234</ele>
        <time>2021-09-30T01:51:01Z</time>
      </trkpt>
      <trkpt lat="44.84375" lon="3.82996">
        <ele>1095.212</ele>
        <time>2021-09-30T01:51:41Z</time>
      </trkpt>
      <trkpt lat="44.84375" lon="3.82997">
        <ele>1095.295</ele>
        <time>2021-09-30T01:52:21Z</time>
      </trkpt>
      <trkpt lat="44.84375" lon="3.82997">
        <ele>1095.317</ele>
        <time>2021-09-30T01:53:01Z</time>
      </trkpt>
      <trkpt lat="44.84375" lon="3.82997">
        <ele>1095.397</ele>
        <time>2021-09-30T01:53:41Z</time>
      </trkpt>
      <trkpt lat="44.84375" lon="3.82997">
        <ele>1095.345</ele>
        <time>2021-09-30T01:54:21Z</time>
      </trkpt>
      <trkpt lat="44.84375" lon="3.82997">
        <ele>1095.347</ele>
        <time>2021-09-30T01:55:01Z</time>
      </trkpt>
      <trkpt lat="44.84375" lon="3.82998">
        <ele>1095.311</ele>
        <time>2021-09-30T01:55:41Z</time>
      </trkpt>
      <trkpt lat="44.84375" lon="3.82998">
        <ele>1095.308</ele>
        <time>2021-09-30T01:56:21Z</time>
      </trkpt>
      <trkpt lat="44.84375" lon="3.82998">
        <ele>1095.462</ele>
        <time>2021-09-30T01:57:01Z</time>
      </trkpt>
      <trkpt lat="44.84375" lon="3.82998">
        <ele>1095.488</ele>
        <time>2021-09-30T01:57:41Z</time>
      </trkpt>
      <trkpt lat="44.84375" lon="3.82999">
        <ele>1095.413</ele>
        <time>2021-09-30T01:58:21Z</time>
      </trkpt>
      <trkpt lat="44.84375" lon="3.82999">
        <ele>1095.425</ele>
        <time>2021-09-30T01:59:01Z</time>
      </trkpt>
      <trkpt lat="44.84375" lon="3.82999">
        <ele>1095.473</ele>
        <time>2021-09-30T01:59:41Z</time>
      </trkpt>
      <trkpt lat="44.84375" lon="3.82999">
        <ele>1095.416</ele>
        <time>2021-09-30T02:00:21Z</time>
      </trkpt>
      <trkpt lat="44.84375" lon="3.82999">
        <ele>1095.418</ele>
        <time>2021-09-30T02:01:01Z</time>
      </trkpt>
      <trkpt lat="44.84375" lon="3.83">
        <ele>1095.528</ele>
        <time>2021-09-30T02:01:41Z</time>
      </trkpt>
      <trkpt lat="44.84375" lon="3.83">
        <ele>1095.559</ele>
        <time>2021-09-30T02:02:21Z</time>
      </trkpt>
      <trkpt lat="44.84375" lon="3.83">
        <ele>1095.503</ele>
        <time>2021-09-30T02:03:01Z</time>
      </trkpt>
      <trkpt lat="44.84375" lon="3.83">
        <ele>1095.523</ele>
        <time>2021-09-30T02:03:41Z</time>
      </trkpt>
      <trkpt lat="44.84375" lon="3.83">
        <ele>1095.508</ele>
        <time>2021-09-30T02:04:21Z</time>
      </trkpt>
      <trkpt lat="44.84375" lon="3.83001">
        <ele>1095.563</ele>
        <time>2021-09-30T02:05:01Z</time>
      </trkpt>
      <trkpt lat="44.84375" lon="3.83001">
        <ele>1095.549</ele>
        <time>2021-09-30T02:05:41Z</time>
      </trkpt>
      <trkpt lat="44.84375" lon="3.83001">
        <ele>1095.594</ele>
        <time>2021-09-30T02:06:21Z</time>
      </trkpt>
      <trkpt lat="44.84375" lon="3.83001">
        <ele>1095.656</ele>
        <time>2021-09-30T02:07:01Z</time>
      </trkpt>
      <trkpt lat="44.84375" lon="3.83002">
        <ele>1095.624</ele>
        <time>2021-09-30T02:07:41Z</time>
      </trkpt>
      <trkpt lat="44.84368" lon="3.83001">
        <ele>1095.327</ele>
        <time>2021-09-30T02:08:21Z</time>
      </trkpt>
      <trkpt lat="44.84362" lon="3.83">
        <ele>1095.039</ele>
        <time>2021-09-30T02:09:01Z</time>
      </trkpt>
      <trkpt lat="44.84356" lon="3.82999">
        <ele>1094.959</ele>
        <time>2021-09-30T02:09:41Z</time>
      </trkpt>
      <trkpt lat="44.8435" lon="3.82998">
        <ele>1094.916</ele>
        <time>2021-09-30T02:10:21Z</time>
      </trkpt>
      <trkpt lat="44.84347" lon="3.82998">
        <ele>1094.976</ele>
        <time>2021-09-30T02:11:01Z</time>
      </trkpt>
      <trkpt lat="44.84339" lon="3.82997">
        <ele>1094.913</ele>
        <time>2021-09-30T02:11:41Z</time>
      </trkpt>
      <trkpt lat="44.84332" lon="3.82996">
        <ele>1095.008</ele>
        <time>2021-09-30T02:12:21Z</time>
      </trkpt>
      <trkpt lat="44.84324" lon="3.82995">
        <ele>1095.459</ele>
        <time>2021-09-30T02:13:01Z</time>
      </trkpt>
      <trkpt lat="44.84317" lon="3.82994">
        <ele>1095.875</ele>
        <time>2021-09-30T02:13:41Z</time>
      </trkpt>
      <trkpt lat="44.84313" lon="3.82994">
        <ele>1096.18</ele>
        <time>2021-09-30T02:14:21Z</time>
      </trkpt>
      <trkpt lat="44.84312" lon="3.82995">
        <ele>1096.292</ele>
        <time>2021-09-30T02:15:01Z</time>
      </trkpt>
      <trkpt lat="44.84307" lon="3.82998">
        <ele>1096.89</ele>
        <time>2021-09-30T02:15:41Z</time>
      </trkpt>
      <trkpt lat="44.84306" lon="3.82996">
        <ele>1096.713</ele>
        <time>2021-09-30T02:16:21Z</time>
      </trkpt>
      <trkpt lat="44.84302" lon="3.82988">
        <ele>1096.315</ele>
        <time>2021-09-30T02:17:01Z</time>
      </trkpt>
      <trkpt lat="44.843" lon="3.82983">
        <ele>1096.015</ele>
        <time>2021-09-30T02:17:41Z</time>
      </trkpt>
      <trkpt lat="44.84299" lon="3.82984">
        <ele>1096.286</ele>
        <time>2021-09-30T02:18:21Z</time>
      </trkpt>
      <trkpt lat="44.84293" lon="3.82987">
        <ele>1096.76</ele>
        <time>2021-09-30T02:19:01Z</time>
      </trkpt>
      <trkpt lat="44.84287" lon="3.8299">
        <ele>1097.426</ele>
        <time>2021-09-30T02:19:41Z</time>
      </trkpt>
      <trkpt lat="44.84281" lon="3.82992">
        <ele>1098.008</ele>
        <time>2021-09-30T02:20:21Z</time>
      </trkpt>
      <trkpt lat="44.84274" lon="3.82995">
        <ele>1098.466</ele>
        <time>2021-09-30T02:21:01Z</time>
      </trkpt>
      <trkpt lat="44.84271" lon="3.82996">
        <ele>1098.522</ele>
        <time>2021-09-30T02:21:41Z</time>
      </trkpt>
      <trkpt lat="44.84267" lon="3.82997">
        <ele>1098.697</ele>
        <time>2021-09-30T02:22:21Z</time>
      </trkpt>
      <trkpt lat="44.84263" lon="3.82997">
        <ele>1098.699</ele>
        <time>2021-09-30T02:23:01Z</time>
      </trkpt>
      <trkpt lat="44.84257" lon="3.82996">
        <ele>1098.627</ele>
        <time>2021-09-30T02:23:41Z</time>
      </trkpt>
      <trkpt lat="44.84251" lon="3.82995">
        <ele>1098.54</ele>
        <time>2021-09-30T02:24:21Z</time>
      </trkpt>
      <trkpt lat="44.84244" lon="3.82994">
        <ele>1098.232</ele>
        <time>2021-09-30T02:25:01Z</time>
      </trkpt>
      <trkpt lat="44.84238" lon="3.82993">
        <ele>1097.872</ele>
        <time>2021-09-30T02:25:41Z</time>
      </trkpt>
      <trkpt lat="44.84232" lon="3.82991">
        <ele>1097.399</ele>
        <time>2021-09-30T02:26:21Z</time>
      </trkpt>
      <trkpt lat="44.84226" lon="3.82989">
        <ele>1096.907</ele>
        <time>2021-09-30T02:27:01Z</time>
      </trkpt>
      <trkpt lat="44.84219" lon="3.82987">
        <ele>1096.727</ele>
        <time>2021-09-30T02:27:41Z</time>
      </trkpt>
      <trkpt lat="44.84213" lon="3.82985">
        <ele>1096.708</ele>
        <time>2021-09-30T02:28:21Z</time>
      </trkpt>
      <trkpt lat="44.84207" lon="3.82982">
        <ele>1096.637</ele>
        <time>2021-09-30T02:29:01Z</time>
      </trkpt>
      <trkpt lat="44.842" lon="3.8298">
        <ele>1096.683</ele>
        <time>2021-09-30T02:29:41Z</time>
      </trkpt>
      <trkpt lat="44.84195" lon="3.82979">
        <ele>1096.778</ele>
        <time>2021-09-30T02:30:21Z</time>
      </trkpt>
      <trkpt lat="44.8419" lon="3.82977">
        <ele>1096.76</ele>
        <time>2021-09-30T02:31:01Z</time>
      </trkpt>
      <trkpt lat="44.84185" lon="3.82977">
        <ele>1096.898</ele>
        <time>2021-09-30T02:31:41Z</time>
      </trkpt>
      <trkpt lat="44.8418" lon="3.82977">
        <ele>1096.981</ele>
        <time>2021-09-30T02:32:21Z</time>
      </trkpt>
      <trkpt lat="44.84174" lon="3.82979">
        <ele>1097.133</ele>
        <time>2021-09-30T02:33:01Z</time>
      </trkpt>
      <trkpt lat="44.84169" lon="3.8298">
        <ele>1097.213</ele>
        <time>2021-09-30T02:33:41Z</time>
      </trkpt>
      <trkpt lat="44.84163" lon="3.82981">
        <ele>1097.214</ele>
        <time>2021-09-30T02:34:21Z</time>
      </trkpt>
      <trkpt lat="44.84158" lon="3.82983">
        <ele>1097.154</ele>
        <time>2021-09-30T02:35:01Z</time>
      </trkpt>
      <trkpt lat="44.84152" lon="3.82986">
        <ele>1097.009</ele>
        <time>2021-09-30T02:35:41Z</time>
      </trkpt>
      <trkpt lat="44.84147" lon="3.82988">
        <ele>1096.908</ele>
        <time>2021-09-30T02:36:21Z</time>
      </trkpt>
      <trkpt lat="44.84142" lon="3.82991">
        <ele>1096.849</ele>
        <time>2021-09-30T02:37:01Z</time>
      </trkpt>
      <trkpt lat="44.84136" lon="3.82993">
        <ele>1096.785</ele>
        <time>2021-09-30T02:37:41Z</time>
      </trkpt>
      <trkpt lat="44.84132" lon="3.82998">
        <ele>1096.65</ele>
        <time>2021-09-30T02:38:21Z</time>
      </trkpt>
      <trkpt lat="44.84127" lon="3.83002">
        <ele>1096.842</ele>
        <time>2021-09-30T02:39:01Z</time>
      </trkpt>
      <trkpt lat="44.84123" lon="3.83006">
        <ele>1097.19</ele>
        <time>2021-09-30T02:39:41Z</time>
      </trkpt>
      <trkpt lat="44.84117" lon="3.83011">
        <ele>1097.533</ele>
        <time>2021-09-30T02:40:21Z</time>
      </trkpt>
      <trkpt lat="44.84112" lon="3.83016">
        <ele>1097.835</ele>
        <time>2021-09-30T02:41:01Z</time>
      </trkpt>
      <trkpt lat="44.84107" lon="3.83021">
        <ele>1097.965</ele>
        <time>2021-09-30T02:41:41Z</time>
      </trkpt>
      <trkpt lat="44.84105" lon="3.83023">
        <ele>1097.879</ele>
        <time>2021-09-30T02:42:21Z</time>
      </trkpt>
      <trkpt lat="44.841" lon="3.83026">
        <ele>1097.705</ele>
        <time>2021-09-30T02:43:01Z</time>
      </trkpt>
      <trkpt lat="44.84095" lon="3.8303">
        <ele>1097.525</ele>
        <time>2021-09-30T02:43:41Z</time>
      </trkpt>
      <trkpt lat="44.8409" lon="3.83034">
        <ele>1097.208</ele>
        <time>2021-09-30T02:44:21Z</time>
      </trkpt>
      <trkpt lat="44.84084" lon="3.83038">
        <ele>1096.965</ele>
        <time>2021-09-30T02:45:01Z</time>
      </trkpt>
      <trkpt lat="44.8408" lon="3.83044">
        <ele>1096.961</ele>
        <time>2021-09-30T02:45:41Z</time>
      </trkpt>
      <trkpt lat="44.84074" lon="3.83052">
        <ele>1097.186</ele>
        <time>2021-09-30T02:46:21Z</time>
      </trkpt>
      <trkpt lat="44.84069" lon="3.83059">
        <ele>1097.258</ele>
        <time>2021-09-30T02:47:01Z</time>
      </trkpt>
      <trkpt lat="44.84062" lon="3.83064">
        <ele>1096.926</ele>
        <time>2021-09-30T02:47:41Z</time>
      </trkpt>
      <trkpt lat="44.84056" lon="3.83068">
        <ele>1096.599</ele>
        <time>2021-09-30T02:48:21Z</time>
      </trkpt>
      <trkpt lat="44.84052" lon="3.83069">
        <ele>1096.041</ele>
        <time>2021-09-30T02:49:01Z</time>
      </trkpt>
      <trkpt lat="44.84048" lon="3.8307">
        <ele>1095.461</ele>
        <time>2021-09-30T02:49:41Z</time>
      </trkpt>
      <trkpt lat="44.84041" lon="3.83072">
        <ele>1094.469</ele>
        <time>2021-09-30T02:50:21Z</time>
      </trkpt>
      <trkpt lat="44.84037" lon="3.83076">
        <ele>1094.104</ele>
        <time>2021-09-30T02:51:01Z</time>
      </trkpt>
      <trkpt lat="44.84031" lon="3.83082">
        <ele>1093.524</ele>
        <time>2021-09-30T02:51:41Z</time>
      </trkpt>
      <trkpt lat="44.84028" lon="3.83088">
        <ele>1093.408</ele>
        <time>2021-09-30T02:52:21Z</time>
      </trkpt>
      <trkpt lat="44.84025" lon="3.83094">
        <ele>1093.584</ele>
        <time>2021-09-30T02:53:01Z</time>
      </trkpt>
      <trkpt lat="44.84022" lon="3.83103">
        <ele>1093.97</ele>
        <time>2021-09-30T02:53:41Z</time>
      </trkpt>
      <trkpt lat="44.84018" lon="3.83111">
        <ele>1094.315</ele>
        <time>2021-09-30T02:54:21Z</time>
      </trkpt>
      <trkpt lat="44.84016" lon="3.83119">
        <ele>1095.057</ele>
        <time>2021-09-30T02:55:01Z</time>
      </trkpt>
      <trkpt lat="44.84013" lon="3.83127">
        <ele>1095.635</ele>
        <time>2021-09-30T02:55:41Z</time>
      </trkpt>
      <trkpt lat="44.8401" lon="3.83135">
        <ele>1096.338</ele>
        <time>2021-09-30T02:56:21Z</time>
      </trkpt>
      <trkpt lat="44.84008" lon="3.83141">
        <ele>1096.89</ele>
        <time>2021-09-30T02:57:01Z</time>
      </trkpt>
      <trkpt lat="44.84005" lon="3.83145">
        <ele>1097.02</ele>
        <time>2021-09-30T02:57:41Z</time>
      </trkpt>
      <trkpt lat="44.84" lon="3.83149">
        <ele>1097.142</ele>
        <time>2021-09-30T02:58:21Z</time>
      </trkpt>
      <trkpt lat="44.83996" lon="3.83152">
        <ele>1097.222</ele>
        <time>2021-09-30T02:59:01Z</time>
      </trkpt>
      <trkpt lat="44.83991" lon="3.83157">
        <ele>1097.314</ele>
        <time>2021-09-30T02:59:41Z</time>
      </trkpt>
      <trkpt lat="44.83986" lon="3.83162">
        <ele>1097.508</ele>
        <time>2021-09-30T03:00:21Z</time>
      </trkpt>
      <trkpt lat="44.83982" lon="3.83167">
        <ele>1097.712</ele>
        <time>2021-09-30T03:01:01Z</time>
      </trkpt>
      <trkpt lat="44.83977" lon="3.83172">
        <ele>1097.818</ele>
        <time>2021-09-30T03:01:41Z</time>
      </trkpt>
      <trkpt lat="44.83971" lon="3.83178">
        <ele>1097.723</ele>
        <time>2021-09-30T03:02:21Z</time>
      </trkpt>
      <trkpt lat="44.83966" lon="3.83183">
        <ele>1097.635</ele>
        <time>2021-09-30T03:03:01Z</time>
      </trkpt>
      <trkpt lat="44.83963" lon="3.83186">
        <ele>1097.583</ele>
        <time>2021-09-30T03:03:41Z</time>
      </trkpt>
      <trkpt lat="44.83961" lon="3.83191">
        <ele>1097.886</ele>
        <time>2021-09-30T03:04:21Z</time>
      </trkpt>
      <trkpt lat="44.83959" lon="3.83193">
        <ele>1098.098</ele>
        <time>2021-09-30T03:05:01Z</time>
      </trkpt>
      <trkpt lat="44.83955" lon="3.832">
        <ele>1098.598</ele>
        <time>2021-09-30T03:05:41Z</time>
      </trkpt>
      <trkpt lat="44.83951" lon="3.83207">
        <ele>1099.035</ele>
        <time>2021-09-30T03:06:21Z</time>
      </trkpt>
      <trkpt lat="44.83947" lon="3.83214">
        <ele>1099.486</ele>
        <time>2021-09-30T03:07:01Z</time>
      </trkpt>
      <trkpt lat="44.83943" lon="3.8322">
        <ele>1099.614</ele>
        <time>2021-09-30T03:07:41Z</time>
      </trkpt>
      <trkpt lat="44.83936" lon="3.83227">
        <ele>1099.608</ele>
        <time>2021-09-30T03:08:21Z</time>
      </trkpt>
      <trkpt lat="44.8393" lon="3.83233">
        <ele>1099.631</ele>
        <time>2021-09-30T03:09:01Z</time>
      </trkpt>
      <trkpt lat="44.83924" lon="3.83239">
        <ele>1099.657</ele>
        <time>2021-09-30T03:09:41Z</time>
      </trkpt>
      <trkpt lat="44.83918" lon="3.83245">
        <ele>1099.682</ele>
        <time>2021-09-30T03:10:21Z</time>
      </trkpt>
      <trkpt lat="44.83912" lon="3.83251">
        <ele>1099.714</ele>
        <time>2021-09-30T03:11:01Z</time>
      </trkpt>
      <trkpt lat="44.83906" lon="3.83257">
        <ele>1099.792</ele>
        <time>2021-09-30T03:11:41Z</time>
      </trkpt>
      <trkpt lat="44.839" lon="3.83263">
        <ele>1099.725</ele>
        <time>2021-09-30T03:12:21Z</time>
      </trkpt>
      <trkpt lat="44.83894" lon="3.83267">
        <ele>1099.677</ele>
        <time>2021-09-30T03:13:01Z</time>
      </trkpt>
      <trkpt lat="44.83888" lon="3.83271">
        <ele>1099.577</ele>
        <time>2021-09-30T03:13:41Z</time>
      </trkpt>
      <trkpt lat="44.83881" lon="3.83275">
        <ele>1099.539</ele>
        <time>2021-09-30T03:14:21Z</time>
      </trkpt>
      <trkpt lat="44.83874" lon="3.83278">
        <ele>1099.501</ele>
        <time>2021-09-30T03:15:01Z</time>
      </trkpt>
      <trkpt lat="44.83868" lon="3.8328">
        <ele>1099.421</ele>
        <time>2021-09-30T03:15:41Z</time>
      </trkpt>
      <trkpt lat="44.83862" lon="3.83281">
        <ele>1099.308</ele>
        <time>2021-09-30T03:16:21Z</time>
      </trkpt>
      <trkpt lat="44.83857" lon="3.83283">
        <ele>1099.261</ele>
        <time>2021-09-30T03:17:01Z</time>
      </trkpt>
      <trkpt lat="44.83853" lon="3.83282">
        <ele>1099.027</ele>
        <time>2021-09-30T03:17:41Z</time>
      </trkpt>
      <trkpt lat="44.83848" lon="3.83281">
        <ele>1098.852</ele>
        <time>2021-09-30T03:18:21Z</time>
      </trkpt>
      <trkpt lat="44.83842" lon="3.8328">
        <ele>1098.544</ele>
        <time>2021-09-30T03:19:01Z</time>
      </trkpt>
      <trkpt lat="44.83837" lon="3.83279">
        <ele>1098.272</ele>
        <time>2021-09-30T03:19:41Z</time>
      </trkpt>
      <trkpt lat="44.8383" lon="3.83279">
        <ele>1097.965</ele>
        <time>2021-09-30T03:20:21Z</time>
      </trkpt>
      <trkpt lat="44.83823" lon="3.83279">
        <ele>1097.497</ele>
        <time>2021-09-30T03:21:01Z</time>
      </trkpt>
      <trkpt lat="44.83816" lon="3.83279">
        <ele>1096.997</ele>
        <time>2021-09-30T03:21:41Z</time>
      </trkpt>
      <trkpt lat="44.83809" lon="3.83279">
        <ele>1096.435</ele>
        <time>2021-09-30T03:22:21Z</time>
      </trkpt>
      <trkpt lat="44.83803" lon="3.83279">
        <ele>1096.286</ele>
        <time>2021-09-30T03:23:01Z</time>
      </trkpt>
      <trkpt lat="44.83796" lon="3.83279">
        <ele>1096.214</ele>
        <time>2021-09-30T03:23:41Z</time>
      </trkpt>
      <trkpt lat="44.8379" lon="3.83279">
        <ele>1096.108</ele>
        <time>2021-09-30T03:24:21Z</time>
      </trkpt>
      <trkpt lat="44.83784" lon="3.83279">
        <ele>1096.171</ele>
        <time>2021-09-30T03:25:01Z</time>
      </trkpt>
      <trkpt lat="44.83779" lon="3.83279">
        <ele>1096.197</ele>
        <time>2021-09-30T03:25:41Z</time>
      </trkpt>
      <trkpt lat="44.83772" lon="3.8328">
        <ele>1096.352</ele>
        <time>2021-09-30T03:26:21Z</time>
      </trkpt>
      <trkpt lat="44.83765" lon="3.83281">
        <ele>1096.654</ele>
        <time>2021-09-30T03:27:01Z</time>
      </trkpt>
      <trkpt lat="44.83757" lon="3.83282">
        <ele>1096.962</ele>
        <time>2021-09-30T03:27:41Z</time>
      </trkpt>
      <trkpt lat="44.8375" lon="3.83283">
        <ele>1097.275</ele>
        <time>2021-09-30T03:28:21Z</time>
      </trkpt>
      <trkpt lat="44.83743" lon="3.83284">
        <ele>1097.327</ele>
        <time>2021-09-30T03:29:01Z</time>
      </trkpt>
      <trkpt lat="44.83737" lon="3.83285">
        <ele>1097.437</ele>
        <time>2021-09-30T03:29:41Z</time>
      </trkpt>
      <trkpt lat="44.8373" lon="3.83286">
        <ele>1097.595</ele>
        <time>2021-09-30T03:30:21Z</time>
      </trkpt>
      <trkpt lat="44.83723" lon="3.83287">
        <ele>1097.749</ele>
        <time>2021-09-30T03:31:01Z</time>
      </trkpt>
      <trkpt lat="44.83717" lon="3.83288">
        <ele>1097.923</ele>
        <time>2021-09-30T03:31:41Z</time>
      </trkpt>
      <trkpt lat="44.8371" lon="3.83289">
        <ele>1098.108</ele>
        <time>2021-09-30T03:32:21Z</time>
      </trkpt>
      <trkpt lat="44.83704" lon="3.83291">
        <ele>1098.347</ele>
        <time>2021-09-30T03:33:01Z</time>
      </trkpt>
      <trkpt lat="44.83697" lon="3.83292">
        <ele>1098.533</ele>
        <time>2021-09-30T03:33:41Z</time>
      </trkpt>
      <trkpt lat="44.8369" lon="3.83293">
        <ele>1098.578</ele>
        <time>2021-09-30T03:34:21Z</time>
      </trkpt>
      <trkpt lat="44.83684" lon="3.83294">
        <ele>1098.65</ele>
        <time>2021-09-30T03:35:01Z</time>
      </trkpt>
      <trkpt lat="44.83678" lon="3.83295">
        <ele>1098.658</ele>
        <time>2021-09-30T03:35:41Z</time>
      </trkpt>
      <trkpt lat="44.83672" lon="3.83296">
        <ele>1098.741</ele>
        <time>2021-09-30T03:36:21Z</time>
      </trkpt>
      <trkpt lat="44.83667" lon="3.83297">
        <ele>1098.773</ele>
        <time>2021-09-30T03:37:01Z</time>
      </trkpt>
      <trkpt lat="44.83661" lon="3.83297">
        <ele>1098.653</ele>
        <time>2021-09-30T03:37:41Z</time>
      </trkpt>
      <trkpt lat="44.83656" lon="3.83297">
        <ele>1098.651</ele>
        <time>2021-09-30T03:38:21Z</time>
      </trkpt>
      <trkpt lat="44.8365" lon="3.83298">
        <ele>1098.501</ele>
        <time>2021-09-30T03:39:01Z</time>
      </trkpt>
      <trkpt lat="44.83644" lon="3.83298">
        <ele>1098.511</ele>
        <time>2021-09-30T03:39:41Z</time>
      </trkpt>
      <trkpt lat="44.83638" lon="3.83298">
        <ele>1098.608</ele>
        <time>2021-09-30T03:40:21Z</time>
      </trkpt>
      <trkpt lat="44.83631" lon="3.83298">
        <ele>1099.043</ele>
        <time>2021-09-30T03:41:01Z</time>
      </trkpt>
      <trkpt lat="44.83625" lon="3.83299">
        <ele>1099.529</ele>
        <time>2021-09-30T03:41:41Z</time>
      </trkpt>
      <trkpt lat="44.83619" lon="3.83299">
        <ele>1100.034</ele>
        <time>2021-09-30T03:42:21Z</time>
      </trkpt>
      <trkpt lat="44.83612" lon="3.83299">
        <ele>1100.556</ele>
        <time>2021-09-30T03:43:01Z</time>
      </trkpt>
      <trkpt lat="44.83605" lon="3.83299">
        <ele>1101.074</ele>
        <time>2021-09-30T03:43:41Z</time>
      </trkpt>
      <trkpt lat="44.83598" lon="3.83299">
        <ele>1101.517</ele>
        <time>2021-09-30T03:44:21Z</time>
      </trkpt>
      <trkpt lat="44.83592" lon="3.833">
        <ele>1102.059</ele>
        <time>2021-09-30T03:45:01Z</time>
      </trkpt>
      <trkpt lat="44.83585" lon="3.833">
        <ele>1102.589</ele>
        <time>2021-09-30T03:45:41Z</time>
      </trkpt>
      <trkpt lat="44.83581" lon="3.833">
        <ele>1102.666</ele>
        <time>2021-09-30T03:46:21Z</time>
      </trkpt>
      <trkpt lat="44.83576" lon="3.833">
        <ele>1102.629</ele>
        <time>2021-09-30T03:47:01Z</time>
      </trkpt>
      <trkpt lat="44.83572" lon="3.833">
        <ele>1102.621</ele>
        <time>2021-09-30T03:47:41Z</time>
      </trkpt>
      <trkpt lat="44.83568" lon="3.833">
        <ele>1102.608</ele>
        <time>2021-09-30T03:48:21Z</time>
      </trkpt>
      <trkpt lat="44.83562" lon="3.833">
        <ele>1102.674</ele>
        <time>2021-09-30T03:49:01Z</time>
      </trkpt>
      <trkpt lat="44.83557" lon="3.83301">
        <ele>1102.68</ele>
        <time>2021-09-30T03:49:41Z</time>
      </trkpt>
      <trkpt lat="44.83551" lon="3.83301">
        <ele>1102.725</ele>
        <time>2021-09-30T03:50:21Z</time>
      </trkpt>
      <trkpt lat="44.83543" lon="3.83301">
        <ele>1102.757</ele>
        <time>2021-09-30T03:51:01Z</time>
      </trkpt>
      <trkpt lat="44.83536" lon="3.83301">
        <ele>1102.815</ele>
        <time>2021-09-30T03:51:41Z</time>
      </trkpt>
      <trkpt lat="44.8353" lon="3.83302">
        <ele>1102.968</ele>
        <time>2021-09-30T03:52:21Z</time>
      </trkpt>
      <trkpt lat="44.83523" lon="3.83304">
        <ele>1103.18</ele>
        <time>2021-09-30T03:53:01Z</time>
      </trkpt>
      <trkpt lat="44.83518" lon="3.83306">
        <ele>1103.41</ele>
        <time>2021-09-30T03:53:41Z</time>
      </trkpt>
      <trkpt lat="44.83515" lon="3.83307">
        <ele>1103.514</ele>
        <time>2021-09-30T03:54:21Z</time>
      </trkpt>
      <trkpt lat="44.83513" lon="3.83308">
        <ele>1103.554</ele>
        <time>2021-09-30T03:55:01Z</time>
      </trkpt>
      <trkpt lat="44.83512" lon="3.83308">
        <ele>1103.609</ele>
        <time>2021-09-30T03:55:41Z</time>
      </trkpt>
      <trkpt lat="44.83507" lon="3.83311">
        <ele>1103.808</ele>
        <time>2021-09-30T03:56:21Z</time>
      </trkpt>
      <trkpt lat="44.83501" lon="3.83314">
        <ele>1104.029</ele>
        <time>2021-09-30T03:57:01Z</time>
      </trkpt>
      <trkpt lat="44.83498" lon="3.83317">
        <ele>1104.025</ele>
        <time>2021-09-30T03:57:41Z</time>
      </trkpt>
      <trkpt lat="44.83494" lon="3.8332">
        <ele>1104.08</ele>
        <time>2021-09-30T03:58:21Z</time>
      </trkpt>
      <trkpt lat="44.83489" lon="3.83314">
        <ele>1104.062</ele>
        <time>2021-09-30T03:59:01Z</time>
      </trkpt>
      <trkpt lat="44.83484" lon="3.83308">
        <ele>1104.04</ele>
        <time>2021-09-30T03:59:41Z</time>
      </trkpt>
      <trkpt lat="44.8348" lon="3.83303">
        <ele>1104.083</ele>
        <time>2021-09-30T04:00:21Z</time>
      </trkpt>
      <trkpt lat="44.83476" lon="3.83298">
        <ele>1104.075</ele>
        <time>2021-09-30T04:01:01Z</time>
      </trkpt>
      <trkpt lat="44.83471" lon="3.83292">
        <ele>1104.045</ele>
        <time>2021-09-30T04:01:41Z</time>
      </trkpt>
      <trkpt lat="44.83465" lon="3.83286">
        <ele>1104.264</ele>
        <time>2021-09-30T04:02:21Z</time>
      </trkpt>
      <trkpt lat="44.83459" lon="3.83279">
        <ele>1104.406</ele>
        <time>2021-09-30T04:03:01Z</time>
      </trkpt>
      <trkpt lat="44.83457" lon="3.83276">
        <ele>1104.516</ele>
        <time>2021-09-30T04:03:41Z</time>
      </trkpt>
      <trkpt lat="44.83454" lon="3.83272">
        <ele>1104.608</ele>
        <time>2021-09-30T04:04:21Z</time>
      </trkpt>
      <trkpt lat="44.83449" lon="3.83265">
        <ele>1104.784</ele>
        <time>2021-09-30T04:05:01Z</time>
      </trkpt>
      <trkpt lat="44.83445" lon="3.83258">
        <ele>1105.07</ele>
        <time>2021-09-30T04:05:41Z</time>
      </trkpt>
      <trkpt lat="44.8344" lon="3.83251">
        <ele>1105.055</ele>
        <time>2021-09-30T04:06:21Z</time>
      </trkpt>
      <trkpt lat="44.83435" lon="3.83244">
        <ele>1105.267</ele>
        <time>2021-09-30T04:07:01Z</time>
      </trkpt>
      <trkpt lat="44.83429" lon="3.83237">
        <ele>1105.515</ele>
        <time>2021-09-30T04:07:41Z</time>
      </trkpt>
      <trkpt lat="44.83425" lon="3.83233">
        <ele>1105.958</ele>
        <time>2021-09-30T04:08:21Z</time>
      </trkpt>
      <trkpt lat="44.8342" lon="3.83228">
        <ele>1106.41</ele>
        <time>2021-09-30T04:09:01Z</time>
      </trkpt>
      <trkpt lat="44.83415" lon="3.83223">
        <ele>1107.09</ele>
        <time>2021-09-30T04:09:41Z</time>
      </trkpt>
      <trkpt lat="44.83411" lon="3.83217">
        <ele>1107.273</ele>
        <time>2021-09-30T04:10:21Z</time>
      </trkpt>
      <trkpt lat="44.83407" lon="3.83212">
        <ele>1107.585</ele>
        <time>2021-09-30T04:11:01Z</time>
      </trkpt>
      <trkpt lat="44.83403" lon="3.83206">
        <ele>1107.913</ele>
        <time>2021-09-30T04:11:41Z</time>
      </trkpt>
      <trkpt lat="44.83398" lon="3.832">
        <ele>1108.308</ele>
        <time>2021-09-30T04:12:21Z</time>
      </trkpt>
      <trkpt lat="44.83393" lon="3.83194">
        <ele>1108.915</ele>
        <time>2021-09-30T04:13:01Z</time>
      </trkpt>
      <trkpt lat="44.83386" lon="3.83189">
        <ele>1109.711</ele>
        <time>2021-09-30T04:13:41Z</time>
      </trkpt>
      <trkpt lat="44.8338" lon="3.83184">
        <ele>1110.436</ele>
        <time>2021-09-30T04:14:21Z</time>
      </trkpt>
      <trkpt lat="44.83374" lon="3.83178">
        <ele>1111.048</ele>
        <time>2021-09-30T04:15:01Z</time>
      </trkpt>
      <trkpt lat="44.83369" lon="3.83174">
        <ele>1111.496</ele>
        <time>2021-09-30T04:15:41Z</time>
      </trkpt>
      <trkpt lat="44.83365" lon="3.83169">
        <ele>1111.899</ele>
        <time>2021-09-30T04:16:21Z</time>
      </trkpt>
      <trkpt lat="44.8336" lon="3.83165">
        <ele>1112.191</ele>
        <time>2021-09-30T04:17:01Z</time>
      </trkpt>
      <trkpt lat="44.83355" lon="3.8316">
        <ele>1112.321</ele>
        <time>2021-09-30T04:17:41Z</time>
      </trkpt>
      <trkpt lat="44.8335" lon="3.83155">
        <ele>1112.556</ele>
        <time>2021-09-30T04:18:21Z</time>
      </trkpt>
      <trkpt lat="44.83346" lon="3.8315">
        <ele>1112.759</ele>
        <time>2021-09-30T04:19:01Z</time>
      </trkpt>
      <trkpt lat="44.83341" lon="3.83145">
        <ele>1112.814</ele>
        <time>2021-09-30T04:19:41Z</time>
      </trkpt>
      <trkpt lat="44.83337" lon="3.83141">
        <ele>1113.008</ele>
        <time>2021-09-30T04:20:21Z</time>
      </trkpt>
      <trkpt lat="44.83333" lon="3.83137">
        <ele>1113.293</ele>
        <time>2021-09-30T04:21:01Z</time>
      </trkpt>
      <trkpt lat="44.83329" lon="3.83132">
        <ele>1113.439</ele>
        <time>2021-09-30T04:21:41Z</time>
      </trkpt>
      <trkpt lat="44.83323" lon="3.83126">
        <ele>1113.714</ele>
        <time>2021-09-30T04:22:21Z</time>
      </trkpt>
      <trkpt lat="44.83317" lon="3.8312">
        <ele>1114.096</ele>
        <time>2021-09-30T04:23:01Z</time>
      </trkpt>
      <trkpt lat="44.83312" lon="3.83114">
        <ele>1114.144</ele>
        <time>2021-09-30T04:23:41Z</time>
      </trkpt>
      <trkpt lat="44.83305" lon="3.83108">
        <ele>1114.137</ele>
        <time>2021-09-30T04:24:21Z</time>
      </trkpt>
      <trkpt lat="44.83299" lon="3.83102">
        <ele>1114.359</ele>
        <time>2021-09-30T04:25:01Z</time>
      </trkpt>
      <trkpt lat="44.83294" lon="3.83098">
        <ele>1114.549</ele>
        <time>2021-09-30T04:25:41Z</time>
      </trkpt>
      <trkpt lat="44.8329" lon="3.83094">
        <ele>1114.632</ele>
        <time>2021-09-30T04:26:21Z</time>
      </trkpt>
      <trkpt lat="44.83285" lon="3.8309">
        <ele>1114.892</ele>
        <time>2021-09-30T04:27:01Z</time>
      </trkpt>
      <trkpt lat="44.83279" lon="3.83086">
        <ele>1114.911</ele>
        <time>2021-09-30T04:27:41Z</time>
      </trkpt>
      <trkpt lat="44.83273" lon="3.83082">
        <ele>1115.408</ele>
        <time>2021-09-30T04:28:21Z</time>
      </trkpt>
      <trkpt lat="44.83267" lon="3.83078">
        <ele>1115.971</ele>
        <time>2021-09-30T04:29:01Z</time>
      </trkpt>
      <trkpt lat="44.83261" lon="3.83073">
        <ele>1116.447</ele>
        <time>2021-09-30T04:29:41Z</time>
      </trkpt>
      <trkpt lat="44.83256" lon="3.83069">
        <ele>1117.052</ele>
        <time>2021-09-30T04:30:21Z</time>
      </trkpt>
      <trkpt lat="44.83251" lon="3.83065">
        <ele>1117.624</ele>
        <time>2021-09-30T04:31:01Z</time>
      </trkpt>
      <trkpt lat="44.83246" lon="3.8306">
        <ele>1118.022</ele>
        <time>2021-09-30T04:31:41Z</time>
      </trkpt>
      <trkpt lat="44.83241" lon="3.83055">
        <ele>1118.355</ele>
        <time>2021-09-30T04:32:21Z</time>
      </trkpt>
      <trkpt lat="44.83236" lon="3.83049">
        <ele>1118.647</ele>
        <time>2021-09-30T04:33:01Z</time>
      </trkpt>
      <trkpt lat="44.83231" lon="3.83044">
        <ele>1119.027</ele>
        <time>2021-09-30T04:33:41Z</time>
      </trkpt>
      <trkpt lat="44.83226" lon="3.83039">
        <ele>1119.423</ele>
        <time>2021-09-30T04:34:21Z</time>
      </trkpt>
      <trkpt lat="44.83221" lon="3.83033">
        <ele>1119.783</ele>
        <time>2021-09-30T04:35:01Z</time>
      </trkpt>
      <trkpt lat="44.83216" lon="3.83027">
        <ele>1119.511</ele>
        <time>2021-09-30T04:35:41Z</time>
      </trkpt>
      <trkpt lat="44.83211" lon="3.83022">
        <ele>1119.008</ele>
        <time>2021-09-30T04:36:21Z</time>
      </trkpt>
      <trkpt lat="44.83206" lon="3.83016">
        <ele>1118.48</ele>
        <time>2021-09-30T04:37:01Z</time>
      </trkpt>
      <trkpt lat="44.83201" lon="3.8301">
        <ele>1117.856</ele>
        <time>2021-09-30T04:37:41Z</time>
      </trkpt>
      <trkpt lat="44.83196" lon="3.83004">
        <ele>1117.311</ele>
        <time>2021-09-30T04:38:21Z</time>
      </trkpt>
      <trkpt lat="44.83191" lon="3.82999">
        <ele>1116.863</ele>
        <time>2021-09-30T04:39:01Z</time>
      </trkpt>
      <trkpt lat="44.83187" lon="3.82992">
        <ele>1116.551</ele>
        <time>2021-09-30T04:39:41Z</time>
      </trkpt>
      <trkpt lat="44.83182" lon="3.82984">
        <ele>1116.294</ele>
        <time>2021-09-30T04:40:21Z</time>
      </trkpt>
      <trkpt lat="44.83177" lon="3.82978">
        <ele>1116.126</ele>
        <time>2021-09-30T04:41:01Z</time>
      </trkpt>
      <trkpt lat="44.83175" lon="3.82974">
        <ele>1116.066</ele>
        <time>2021-09-30T04:41:41Z</time>
      </trkpt>
      <trkpt lat="44.83173" lon="3.82971">
        <ele>1115.978</ele>
        <time>2021-09-30T04:42:21Z</time>
      </trkpt>
      <trkpt lat="44.83169" lon="3.82966">
        <ele>1115.633</ele>
        <time>2021-09-30T04:43:01Z</time>
      </trkpt>
      <trkpt lat="44.83165" lon="3.82962">
        <ele>1115.326</ele>
        <time>2021-09-30T04:43:41Z</time>
      </trkpt>
      <trkpt lat="44.8316" lon="3.82956">
        <ele>1115.008</ele>
        <time>2021-09-30T04:44:21Z</time>
      </trkpt>
      <trkpt lat="44.83156" lon="3.8295">
        <ele>1114.765</ele>
        <time>2021-09-30T04:45:01Z</time>
      </trkpt>
      <trkpt lat="44.83151" lon="3.82945">
        <ele>1114.641</ele>
        <time>2021-09-30T04:45:41Z</time>
      </trkpt>
      <trkpt lat="44.83146" lon="3.82939">
        <ele>1114.346</ele>
        <time>2021-09-30T04:46:21Z</time>
      </trkpt>
      <trkpt lat="44.83143" lon="3.82934">
        <ele>1114.158</ele>
        <time>2021-09-30T04:47:01Z</time>
      </trkpt>
      <trkpt lat="44.8314" lon="3.8293">
        <ele>1113.936</ele>
        <time>2021-09-30T04:47:41Z</time>
      </trkpt>
      <trkpt lat="44.83136" lon="3.82922">
        <ele>1113.479</ele>
        <time>2021-09-30T04:48:21Z</time>
      </trkpt>
      <trkpt lat="44.83132" lon="3.82915">
        <ele>1113.091</ele>
        <time>2021-09-30T04:49:01Z</time>
      </trkpt>
      <trkpt lat="44.83129" lon="3.82908">
        <ele>1112.831</ele>
        <time>2021-09-30T04:49:41Z</time>
      </trkpt>
      <trkpt lat="44.83125" lon="3.82901">
        <ele>1112.795</ele>
        <time>2021-09-30T04:50:21Z</time>
      </trkpt>
      <trkpt lat="44.83122" lon="3.82894">
        <ele>1112.749</ele>
        <time>2021-09-30T04:51:01Z</time>
      </trkpt>
      <trkpt lat="44.83118" lon="3.82887">
        <ele>1112.723</ele>
        <time>2021-09-30T04:51:41Z</time>
      </trkpt>
      <trkpt lat="44.83114" lon="3.82878">
        <ele>1112.508</ele>
        <time>2021-09-30T04:52:21Z</time>
      </trkpt>
      <trkpt lat="44.8311" lon="3.82869">
        <ele>1112.347</ele>
        <time>2021-09-30T04:53:01Z</time>
      </trkpt>
      <trkpt lat="44.83106" lon="3.8286">
        <ele>1111.823</ele>
        <time>2021-09-30T04:53:41Z</time>
      </trkpt>
      <trkpt lat="44.83103" lon="3.82852">
        <ele>1111.578</ele>
        <time>2021-09-30T04:54:21Z</time>
      </trkpt>
      <trkpt lat="44.831" lon="3.82843">
        <ele>1111.26</ele>
        <time>2021-09-30T04:55:01Z</time>
      </trkpt>
      <trkpt lat="44.83096" lon="3.82835">
        <ele>1111.078</ele>
        <time>2021-09-30T04:55:41Z</time>
      </trkpt>
      <trkpt lat="44.83093" lon="3.82826">
        <ele>1110.881</ele>
        <time>2021-09-30T04:56:21Z</time>
      </trkpt>
      <trkpt lat="44.8309" lon="3.82817">
        <ele>1110.723</ele>
        <time>2021-09-30T04:57:01Z</time>
      </trkpt>
      <trkpt lat="44.83087" lon="3.82809">
        <ele>1110.853</ele>
        <time>2021-09-30T04:57:41Z</time>
      </trkpt>
      <trkpt lat="44.83084" lon="3.828">
        <ele>1110.791</ele>
        <time>2021-09-30T04:58:21Z</time>
      </trkpt>
      <trkpt lat="44.83081" lon="3.82791">
        <ele>1110.481</ele>
        <time>2021-09-30T04:59:01Z</time>
      </trkpt>
      <trkpt lat="44.83079" lon="3.82782">
        <ele>1110.019</ele>
        <time>2021-09-30T04:59:41Z</time>
      </trkpt>
      <trkpt lat="44.83076" lon="3.82774">
        <ele>1109.508</ele>
        <time>2021-09-30T05:00:21Z</time>
      </trkpt>
      <trkpt lat="44.83073" lon="3.82765">
        <ele>1108.977</ele>
        <time>2021-09-30T05:01:01Z</time>
      </trkpt>
      <trkpt lat="44.8307" lon="3.82756">
        <ele>1108.323</ele>
        <time>2021-09-30T05:01:41Z</time>
      </trkpt>
      <trkpt lat="44.83067" lon="3.82747">
        <ele>1108.028</ele>
        <time>2021-09-30T05:02:21Z</time>
      </trkpt>
      <trkpt lat="44.83065" lon="3.82744">
        <ele>1108.01</ele>
        <time>2021-09-30T05:03:01Z</time>
      </trkpt>
      <trkpt lat="44.8306" lon="3.82749">
        <ele>1108.038</ele>
        <time>2021-09-30T05:03:41Z</time>
      </trkpt>
      <trkpt lat="44.83055" lon="3.82753">
        <ele>1108.151</ele>
        <time>2021-09-30T05:04:21Z</time>
      </trkpt>
      <trkpt lat="44.83048" lon="3.82761">
        <ele>1107.863</ele>
        <time>2021-09-30T05:05:01Z</time>
      </trkpt>
      <trkpt lat="44.8304" lon="3.82771">
        <ele>1107.613</ele>
        <time>2021-09-30T05:05:41Z</time>
      </trkpt>
      <trkpt lat="44.83039" lon="3.82765">
        <ele>1107.319</ele>
        <time>2021-09-30T05:06:21Z</time>
      </trkpt>
      <trkpt lat="44.83038" lon="3.82756">
        <ele>1107.009</ele>
        <time>2021-09-30T05:07:01Z</time>
      </trkpt>
      <trkpt lat="44.83038" lon="3.82746">
        <ele>1106.719</ele>
        <time>2021-09-30T05:07:41Z</time>
      </trkpt>
      <trkpt lat="44.83037" lon="3.82732">
        <ele>1106.708</ele>
        <time>2021-09-30T05:08:21Z</time>
      </trkpt>
      <trkpt lat="44.83036" lon="3.82721">
        <ele>1106.629</ele>
        <time>2021-09-30T05:09:01Z</time>
      </trkpt>
      <trkpt lat="44.83033" lon="3.82697">
        <ele>1107.555</ele>
        <time>2021-09-30T05:09:41Z</time>
      </trkpt>
      <trkpt lat="44.83032" lon="3.82662">
        <ele>1109.65</ele>
        <time>2021-09-30T05:10:21Z</time>
      </trkpt>
      <trkpt lat="44.8303" lon="3.82631">
        <ele>1110.442</ele>
        <time>2021-09-30T05:11:01Z</time>
      </trkpt>
      <trkpt lat="44.83025" lon="3.82601">
        <ele>1111.18</ele>
        <time>2021-09-30T05:11:41Z</time>
      </trkpt>
      <trkpt lat="44.8302" lon="3.82581">
        <ele>1111.283</ele>
        <time>2021-09-30T05:12:21Z</time>
      </trkpt>
      <trkpt lat="44.83018" lon="3.82574">
        <ele>1111.565</ele>
        <time>2021-09-30T05:13:01Z</time>
      </trkpt>
      <trkpt lat="44.83013" lon="3.82556">
        <ele>1112.475</ele>
        <time>2021-09-30T05:13:41Z</time>
      </trkpt>
      <trkpt lat="44.83009" lon="3.82541">
        <ele>1113.053</ele>
        <time>2021-09-30T05:14:21Z</time>
      </trkpt>
      <trkpt lat="44.83005" lon="3.82525">
        <ele>1113.204</ele>
        <time>2021-09-30T05:15:01Z</time>
      </trkpt>
      <trkpt lat="44.83002" lon="3.82514">
        <ele>1112.614</ele>
        <time>2021-09-30T05:15:41Z</time>
      </trkpt>
      <trkpt lat="44.82999" lon="3.82499">
        <ele>1112.008</ele>
        <time>2021-09-30T05:16:21Z</time>
      </trkpt>
      <trkpt lat="44.82992" lon="3.82494">
        <ele>1111.763</ele>
        <time>2021-09-30T05:17:01Z</time>
      </trkpt>
      <trkpt lat="44.82988" lon="3.82488">
        <ele>1111.619</ele>
        <time>2021-09-30T05:17:41Z</time>
      </trkpt>
      <trkpt lat="44.82985" lon="3.82483">
        <ele>1111.594</ele>
        <time>2021-09-30T05:18:21Z</time>
      </trkpt>
      <trkpt lat="44.82984" lon="3.8248">
        <ele>1111.596</ele>
        <time>2021-09-30T05:19:01Z</time>
      </trkpt>
      <trkpt lat="44.82982" lon="3.82478">
        <ele>1111.534</ele>
        <time>2021-09-30T05:19:41Z</time>
      </trkpt>
      <trkpt lat="44.82973" lon="3.82462">
        <ele>1111.567</ele>
        <time>2021-09-30T05:20:21Z</time>
      </trkpt>
      <trkpt lat="44.82966" lon="3.82451">
        <ele>1111.419</ele>
        <time>2021-09-30T05:21:01Z</time>
      </trkpt>
      <trkpt lat="44.82962" lon="3.82444">
        <ele>1111.759</ele>
        <time>2021-09-30T05:21:41Z</time>
      </trkpt>
      <trkpt lat="44.82951" lon="3.82427">
        <ele>1113.622</ele>
        <time>2021-09-30T05:22:21Z</time>
      </trkpt>
      <trkpt lat="44.82948" lon="3.82421">
        <ele>1113.962</ele>
        <time>2021-09-30T05:23:01Z</time>
      </trkpt>
      <trkpt lat="44.82941" lon="3.82412">
        <ele>1113.908</ele>
        <time>2021-09-30T05:23:41Z</time>
      </trkpt>
      <trkpt lat="44.82931" lon="3.82396">
        <ele>1114.208</ele>
        <time>2021-09-30T05:24:21Z</time>
      </trkpt>
      <trkpt lat="44.82922" lon="3.82386">
        <ele>1114.63</ele>
        <time>2021-09-30T05:25:01Z</time>
      </trkpt>
      <trkpt lat="44.82915" lon="3.82377">
        <ele>1114.786</ele>
        <time>2021-09-30T05:25:41Z</time>
      </trkpt>
      <trkpt lat="44.82911" lon="3.82373">
        <ele>1114.481</ele>
        <time>2021-09-30T05:26:21Z</time>
      </trkpt>
      <trkpt lat="44.82896" lon="3.82361">
        <ele>1113.883</ele>
        <time>2021-09-30T05:27:01Z</time>
      </trkpt>
      <trkpt lat="44.82876" lon="3.82349">
        <ele>1113.141</ele>
        <time>2021-09-30T05:27:41Z</time>
      </trkpt>
      <trkpt lat="44.82866" lon="3.82345">
        <ele>1113.014</ele>
        <time>2021-09-30T05:28:21Z</time>
      </trkpt>
      <trkpt lat="44.82851" lon="3.82338">
        <ele>1113.036</ele>
        <time>2021-09-30T05:29:01Z</time>
      </trkpt>
      <trkpt lat="44.82842" lon="3.82335">
        <ele>1113.196</ele>
        <time>2021-09-30T05:29:41Z</time>
      </trkpt>
      <trkpt lat="44.82833" lon="3.82331">
        <ele>1113.096</ele>
        <time>2021-09-30T05:30:21Z</time>
      </trkpt>
      <trkpt lat="44.82822" lon="3.82327">
        <ele>1111.931</ele>
        <time>2021-09-30T05:31:01Z</time>
      </trkpt>
      <trkpt lat="44.82816" lon="3.82325">
        <ele>1111.224</ele>
        <time>2021-09-30T05:31:41Z</time>
      </trkpt>
      <trkpt lat="44.82802" lon="3.82319">
        <ele>1109.608</ele>
        <time>2021-09-30T05:32:21Z</time>
      </trkpt>
      <trkpt lat="44.82791" lon="3.82312">
        <ele>1108.487</ele>
        <time>2021-09-30T05:33:01Z</time>
      </trkpt>
      <trkpt lat="44.8278" lon="3.82305">
        <ele>1107.293</ele>
        <time>2021-09-30T05:33:41Z</time>
      </trkpt>
      <trkpt lat="44.82773" lon="3.82303">
        <ele>1106.888</ele>
        <time>2021-09-30T05:34:21Z</time>
      </trkpt>
      <trkpt lat="44.82768" lon="3.82303">
        <ele>1106.65</ele>
        <time>2021-09-30T05:35:01Z</time>
      </trkpt>
      <trkpt lat="44.82765" lon="3.82296">
        <ele>1106.638</ele>
        <time>2021-09-30T05:35:41Z</time>
      </trkpt>
      <trkpt lat="44.82761" lon="3.82289">
        <ele>1106.471</ele>
        <time>2021-09-30T05:36:21Z</time>
      </trkpt>
      <trkpt lat="44.82754" lon="3.82281">
        <ele>1106.123</ele>
        <time>2021-09-30T05:37:01Z</time>
      </trkpt>
      <trkpt lat="44.82746" lon="3.82273">
        <ele>1106.033</ele>
        <time>2021-09-30T05:37:41Z</time>
      </trkpt>
      <trkpt lat="44.82734" lon="3.82261">
        <ele>1106.048</ele>
        <time>2021-09-30T05:38:21Z</time>
      </trkpt>
      <trkpt lat="44.82721" lon="3.82248">
        <ele>1105.961</ele>
        <time>2021-09-30T05:39:01Z</time>
      </trkpt>
      <trkpt lat="44.82707" lon="3.82231">
        <ele>1104.917</ele>
        <time>2021-09-30T05:39:41Z</time>
      </trkpt>
      <trkpt lat="44.82701" lon="3.82218">
        <ele>1104.308</ele>
        <time>2021-09-30T05:40:21Z</time>
      </trkpt>
      <trkpt lat="44.82689" lon="3.82194">
        <ele>1102.892</ele>
        <time>2021-09-30T05:41:01Z</time>
      </trkpt>
      <trkpt lat="44.82683" lon="3.82184">
        <ele>1103.048</ele>
        <time>2021-09-30T05:41:41Z</time>
      </trkpt>
      <trkpt lat="44.82677" lon="3.82173">
        <ele>1103.183</ele>
        <time>2021-09-30T05:42:21Z</time>
      </trkpt>
      <trkpt lat="44.82668" lon="3.8216">
        <ele>1103.335</ele>
        <time>2021-09-30T05:43:01Z</time>
      </trkpt>
      <trkpt lat="44.82656" lon="3.82143">
        <ele>1102.743</ele>
        <time>2021-09-30T05:43:41Z</time>
      </trkpt>
      <trkpt lat="44.82632" lon="3.8211">
        <ele>1099.346</ele>
        <time>2021-09-30T05:44:21Z</time>
      </trkpt>
      <trkpt lat="44.82629" lon="3.82106">
        <ele>1098.938</ele>
        <time>2021-09-30T05:45:01Z</time>
      </trkpt>
      <trkpt lat="44.82625" lon="3.82101">
        <ele>1098.528</ele>
        <time>2021-09-30T05:45:41Z</time>
      </trkpt>
      <trkpt lat="44.82618" lon="3.8209">
        <ele>1098.169</ele>
        <time>2021-09-30T05:46:21Z</time>
      </trkpt>
      <trkpt lat="44.82609" lon="3.82077">
        <ele>1097.604</ele>
        <time>2021-09-30T05:47:01Z</time>
      </trkpt>
      <trkpt lat="44.82603" lon="3.82069">
        <ele>1096.924</ele>
        <time>2021-09-30T05:47:41Z</time>
      </trkpt>
      <trkpt lat="44.82596" lon="3.82058">
        <ele>1096.008</ele>
        <time>2021-09-30T05:48:21Z</time>
      </trkpt>
      <trkpt lat="44.82585" lon="3.82042">
        <ele>1094.794</ele>
        <time>2021-09-30T05:49:01Z</time>
      </trkpt>
      <trkpt lat="44.8258" lon="3.82033">
        <ele>1094.07</ele>
        <time>2021-09-30T05:49:41Z</time>
      </trkpt>
      <trkpt lat="44.82569" lon="3.8202">
        <ele>1093.335</ele>
        <time>2021-09-30T05:50:21Z</time>
      </trkpt>
      <trkpt lat="44.82559" lon="3.8201">
        <ele>1092.697</ele>
        <time>2021-09-30T05:51:01Z</time>
      </trkpt>
      <trkpt lat="44.82551" lon="3.82001">
        <ele>1092.035</ele>
        <time>2021-09-30T05:51:41Z</time>
      </trkpt>
      <trkpt lat="44.82544" lon="3.81995">
        <ele>1091.968</ele>
        <time>2021-09-30T05:52:21Z</time>
      </trkpt>
      <trkpt lat="44.82533" lon="3.81985">
        <ele>1091.61</ele>
        <time>2021-09-30T05:53:01Z</time>
      </trkpt>
      <trkpt lat="44.82525" lon="3.81978">
        <ele>1091.13</ele>
        <time>2021-09-30T05:53:41Z</time>
      </trkpt>
      <trkpt lat="44.8252" lon="3.81974">
        <ele>1090.854</ele>
        <time>2021-09-30T05:54:21Z</time>
      </trkpt>
      <trkpt lat="44.82508" lon="3.81965">
        <ele>1090.056</ele>
        <time>2021-09-30T05:55:01Z</time>
      </trkpt>
      <trkpt lat="44.82497" lon="3.81956">
        <ele>1089.311</ele>
        <time>2021-09-30T05:55:41Z</time>
      </trkpt>
      <trkpt lat="44.82491" lon="3.81952">
        <ele>1088.908</ele>
        <time>2021-09-30T05:56:21Z</time>
      </trkpt>
      <trkpt lat="44.8248" lon="3.81945">
        <ele>1088.373</ele>
        <time>2021-09-30T05:57:01Z</time>
      </trkpt>
      <trkpt lat="44.82475" lon="3.81941">
        <ele>1088.039</ele>
        <time>2021-09-30T05:57:41Z</time>
      </trkpt>
      <trkpt lat="44.82468" lon="3.81936">
        <ele>1087.664</ele>
        <time>2021-09-30T05:58:21Z</time>
      </trkpt>
      <trkpt lat="44.82459" lon="3.81927">
        <ele>1087.256</ele>
        <time>2021-09-30T05:59:01Z</time>
      </trkpt>
      <trkpt lat="44.82446" lon="3.81913">
        <ele>1086.914</ele>
        <time>2021-09-30T05:59:41Z</time>
      </trkpt>
      <trkpt lat="44.82424" lon="3.81891">
        <ele>1086.167</ele>
        <time>2021-09-30T06:00:21Z</time>
      </trkpt>
      <trkpt lat="44.82416" lon="3.81883">
        <ele>1085.569</ele>
        <time>2021-09-30T06:01:01Z</time>
      </trkpt>
      <trkpt lat="44.82406" lon="3.81874">
        <ele>1084.749</ele>
        <time>2021-09-30T06:01:41Z</time>
      </trkpt>
      <trkpt lat="44.82389" lon="3.81857">
        <ele>1083.942</ele>
        <time>2021-09-30T06:02:21Z</time>
      </trkpt>
      <trkpt lat="44.82378" lon="3.81847">
        <ele>1083.322</ele>
        <time>2021-09-30T06:03:01Z</time>
      </trkpt>
      <trkpt lat="44.82368" lon="3.81837">
        <ele>1083.014</ele>
        <time>2021-09-30T06:03:41Z</time>
      </trkpt>
      <trkpt lat="44.82347" lon="3.81816">
        <ele>1081.708</ele>
        <time>2021-09-30T06:04:21Z</time>
      </trkpt>
      <trkpt lat="44.82337" lon="3.81807">
        <ele>1081.192</ele>
        <time>2021-09-30T06:05:01Z</time>
      </trkpt>
      <trkpt lat="44.82325" lon="3.81792">
        <ele>1079.968</ele>
        <time>2021-09-30T06:05:41Z</time>
      </trkpt>
      <trkpt lat="44.82317" lon="3.81778">
        <ele>1078.813</ele>
        <time>2021-09-30T06:06:21Z</time>
      </trkpt>
      <trkpt lat="44.8231" lon="3.81766">
        <ele>1077.655</ele>
        <time>2021-09-30T06:07:01Z</time>
      </trkpt>
      <trkpt lat="44.82303" lon="3.81753">
        <ele>1076.023</ele>
        <time>2021-09-30T06:07:41Z</time>
      </trkpt>
      <trkpt lat="44.82294" lon="3.81737">
        <ele>1074.296</ele>
        <time>2021-09-30T06:08:21Z</time>
      </trkpt>
      <trkpt lat="44.82284" lon="3.81718">
        <ele>1072.048</ele>
        <time>2021-09-30T06:09:01Z</time>
      </trkpt>
      <trkpt lat="44.82269" lon="3.81689">
        <ele>1072.198</ele>
        <time>2021-09-30T06:09:41Z</time>
      </trkpt>
      <trkpt lat="44.82261" lon="3.8167">
        <ele>1072.358</ele>
        <time>2021-09-30T06:10:21Z</time>
      </trkpt>
      <trkpt lat="44.8225" lon="3.81646">
        <ele>1072.052</ele>
        <time>2021-09-30T06:11:01Z</time>
      </trkpt>
      <trkpt lat="44.82247" lon="3.81637">
        <ele>1071.817</ele>
        <time>2021-09-30T06:11:41Z</time>
      </trkpt>
      <trkpt lat="44.82237" lon="3.8161">
        <ele>1070.508</ele>
        <time>2021-09-30T06:12:21Z</time>
      </trkpt>
      <trkpt lat="44.82229" lon="3.81588">
        <ele>1070.333</ele>
        <time>2021-09-30T06:13:01Z</time>
      </trkpt>
      <trkpt lat="44.82219" lon="3.81562">
        <ele>1069.149</ele>
        <time>2021-09-30T06:13:41Z</time>
      </trkpt>
      <trkpt lat="44.82213" lon="3.81547">
        <ele>1068.594</ele>
        <time>2021-09-30T06:14:21Z</time>
      </trkpt>
      <trkpt lat="44.82208" lon="3.81527">
        <ele>1068.066</ele>
        <time>2021-09-30T06:15:01Z</time>
      </trkpt>
      <trkpt lat="44.82204" lon="3.81506">
        <ele>1067.774</ele>
        <time>2021-09-30T06:15:41Z</time>
      </trkpt>
      <trkpt lat="44.82196" lon="3.81477">
        <ele>1066.367</ele>
        <time>2021-09-30T06:16:21Z</time>
      </trkpt>
      <trkpt lat="44.82193" lon="3.81461">
        <ele>1065.219</ele>
        <time>2021-09-30T06:17:01Z</time>
      </trkpt>
      <trkpt lat="44.8219" lon="3.81436">
        <ele>1063.389</ele>
        <time>2021-09-30T06:17:41Z</time>
      </trkpt>
      <trkpt lat="44.82187" lon="3.81417">
        <ele>1062.098</ele>
        <time>2021-09-30T06:18:21Z</time>
      </trkpt>
      <trkpt lat="44.82183" lon="3.81403">
        <ele>1061.315</ele>
        <time>2021-09-30T06:19:01Z</time>
      </trkpt>
      <trkpt lat="44.82179" lon="3.81394">
        <ele>1060.726</ele>
        <time>2021-09-30T06:19:41Z</time>
      </trkpt>
      <trkpt lat="44.82169" lon="3.81373">
        <ele>1059.508</ele>
        <time>2021-09-30T06:20:21Z</time>
      </trkpt>
      <trkpt lat="44.82159" lon="3.81354">
        <ele>1059.017</ele>
        <time>2021-09-30T06:21:01Z</time>
      </trkpt>
      <trkpt lat="44.82152" lon="3.81336">
        <ele>1059.023</ele>
        <time>2021-09-30T06:21:41Z</time>
      </trkpt>
      <trkpt lat="44.82149" lon="3.81319">
        <ele>1058.848</ele>
        <time>2021-09-30T06:22:21Z</time>
      </trkpt>
      <trkpt lat="44.82147" lon="3.81302">
        <ele>1058.78</ele>
        <time>2021-09-30T06:23:01Z</time>
      </trkpt>
      <trkpt lat="44.82145" lon="3.81283">
        <ele>1058.838</ele>
        <time>2021-09-30T06:23:41Z</time>
      </trkpt>
      <trkpt lat="44.82142" lon="3.81269">
        <ele>1058.371</ele>
        <time>2021-09-30T06:24:21Z</time>
      </trkpt>
      <trkpt lat="44.82134" lon="3.81248">
        <ele>1056.383</ele>
        <time>2021-09-30T06:25:01Z</time>
      </trkpt>
      <trkpt lat="44.82129" lon="3.81236">
        <ele>1054.563</ele>
        <time>2021-09-30T06:25:41Z</time>
      </trkpt>
      <trkpt lat="44.82121" lon="3.81216">
        <ele>1052.349</ele>
        <time>2021-09-30T06:26:21Z</time>
      </trkpt>
      <trkpt lat="44.82115" lon="3.81197">
        <ele>1050.502</ele>
        <time>2021-09-30T06:27:01Z</time>
      </trkpt>
      <trkpt lat="44.8211" lon="3.81189">
        <ele>1049.822</ele>
        <time>2021-09-30T06:27:41Z</time>
      </trkpt>
      <trkpt lat="44.82109" lon="3.81191">
        <ele>1049.808</ele>
        <time>2021-09-30T06:28:21Z</time>
      </trkpt>
      <trkpt lat="44.82105" lon="3.81197">
        <ele>1049.932</ele>
        <time>2021-09-30T06:29:01Z</time>
      </trkpt>
      <trkpt lat="44.82094" lon="3.81204">
        <ele>1049.678</ele>
        <time>2021-09-30T06:29:41Z</time>
      </trkpt>
      <trkpt lat="44.82087" lon="3.81205">
        <ele>1049.223</ele>
        <time>2021-09-30T06:30:21Z</time>
      </trkpt>
      <trkpt lat="44.82074" lon="3.81209">
        <ele>1048.535</ele>
        <time>2021-09-30T06:31:01Z</time>
      </trkpt>
      <trkpt lat="44.82067" lon="3.81209">
        <ele>1048.173</ele>
        <time>2021-09-30T06:31:41Z</time>
      </trkpt>
      <trkpt lat="44.82053" lon="3.8121">
        <ele>1047.796</ele>
        <time>2021-09-30T06:32:21Z</time>
      </trkpt>
      <trkpt lat="44.82043" lon="3.81208">
        <ele>1048.218</ele>
        <time>2021-09-30T06:33:01Z</time>
      </trkpt>
      <trkpt lat="44.82029" lon="3.81202">
        <ele>1048.528</ele>
        <time>2021-09-30T06:33:41Z</time>
      </trkpt>
      <trkpt lat="44.82022" lon="3.81196">
        <ele>1048.417</ele>
        <time>2021-09-30T06:34:21Z</time>
      </trkpt>
      <trkpt lat="44.82009" lon="3.81187">
        <ele>1048.287</ele>
        <time>2021-09-30T06:35:01Z</time>
      </trkpt>
      <trkpt lat="44.82005" lon="3.81184">
        <ele>1048.115</ele>
        <time>2021-09-30T06:35:41Z</time>
      </trkpt>
      <trkpt lat="44.81998" lon="3.81178">
        <ele>1047.908</ele>
        <time>2021-09-30T06:36:21Z</time>
      </trkpt>
      <trkpt lat="44.81989" lon="3.8117">
        <ele>1047.659</ele>
        <time>2021-09-30T06:37:01Z</time>
      </trkpt>
      <trkpt lat="44.81981" lon="3.81164">
        <ele>1047.525</ele>
        <time>2021-09-30T06:37:41Z</time>
      </trkpt>
      <trkpt lat="44.81974" lon="3.81157">
        <ele>1047.35</ele>
        <time>2021-09-30T06:38:21Z</time>
      </trkpt>
      <trkpt lat="44.8197" lon="3.81153">
        <ele>1047.032</ele>
        <time>2021-09-30T06:39:01Z</time>
      </trkpt>
      <trkpt lat="44.81962" lon="3.81146">
        <ele>1046.77</ele>
        <time>2021-09-30T06:39:41Z</time>
      </trkpt>
      <trkpt lat="44.8195" lon="3.81133">
        <ele>1046.593</ele>
        <time>2021-09-30T06:40:21Z</time>
      </trkpt>
      <trkpt lat="44.81942" lon="3.81127">
        <ele>1046.165</ele>
        <time>2021-09-30T06:41:01Z</time>
      </trkpt>
      <trkpt lat="44.81936" lon="3.81126">
        <ele>1045.965</ele>
        <time>2021-09-30T06:41:41Z</time>
      </trkpt>
      <trkpt lat="44.81933" lon="3.81126">
        <ele>1045.896</ele>
        <time>2021-09-30T06:42:21Z</time>
      </trkpt>
      <trkpt lat="44.81926" lon="3.81127">
        <ele>1045.831</ele>
        <time>2021-09-30T06:43:01Z</time>
      </trkpt>
      <trkpt lat="44.81909" lon="3.81135">
        <ele>1045.824</ele>
        <time>2021-09-30T06:43:41Z</time>
      </trkpt>
      <trkpt lat="44.81894" lon="3.81144">
        <ele>1046.208</ele>
        <time>2021-09-30T06:44:21Z</time>
      </trkpt>
      <trkpt lat="44.81886" lon="3.8115">
        <ele>1046.337</ele>
        <time>2021-09-30T06:45:01Z</time>
      </trkpt>
      <trkpt lat="44.81879" lon="3.81154">
        <ele>1046.263</ele>
        <time>2021-09-30T06:45:41Z</time>
      </trkpt>
      <trkpt lat="44.81872" lon="3.81159">
        <ele>1046.178</ele>
        <time>2021-09-30T06:46:21Z</time>
      </trkpt>
      <trkpt lat="44.81864" lon="3.81164">
        <ele>1046.06</ele>
        <time>2021-09-30T06:47:01Z</time>
      </trkpt>
      <trkpt lat="44.81845" lon="3.81176">
        <ele>1043.918</ele>
        <time>2021-09-30T06:47:41Z</time>
      </trkpt>
      <trkpt lat="44.81834" lon="3.81183">
        <ele>1041.821</ele>
        <time>2021-09-30T06:48:21Z</time>
      </trkpt>
      <trkpt lat="44.81822" lon="3.8119">
        <ele>1039.723</ele>
        <time>2021-09-30T06:49:01Z</time>
      </trkpt>
      <trkpt lat="44.81822" lon="3.812">
        <ele>1038.543</ele>
        <time>2021-09-30T06:49:41Z</time>
      </trkpt>
      <trkpt lat="44.81823" lon="3.81209">
        <ele>1037.577</ele>
        <time>2021-09-30T06:50:21Z</time>
      </trkpt>
      <trkpt lat="44.81827" lon="3.81218">
        <ele>1036.961</ele>
        <time>2021-09-30T06:51:01Z</time>
      </trkpt>
      <trkpt lat="44.81832" lon="3.81225">
        <ele>1036.727</ele>
        <time>2021-09-30T06:51:41Z</time>
      </trkpt>
      <trkpt lat="44.81844" lon="3.81243">
        <ele>1038.208</ele>
        <time>2021-09-30T06:52:21Z</time>
      </trkpt>
      <trkpt lat="44.81853" lon="3.8126">
        <ele>1039.065</ele>
        <time>2021-09-30T06:53:01Z</time>
      </trkpt>
      <trkpt lat="44.8186" lon="3.81284">
        <ele>1038.941</ele>
        <time>2021-09-30T06:53:41Z</time>
      </trkpt>
      <trkpt lat="44.81864" lon="3.81293">
        <ele>1038.496</ele>
        <time>2021-09-30T06:54:21Z</time>
      </trkpt>
      <trkpt lat="44.81869" lon="3.81306">
        <ele>1037.618</ele>
        <time>2021-09-30T06:55:01Z</time>
      </trkpt>
      <trkpt lat="44.81871" lon="3.81311">
        <ele>1037.426</ele>
        <time>2021-09-30T06:55:41Z</time>
      </trkpt>
      <trkpt lat="44.81878" lon="3.81328">
        <ele>1036.749</ele>
        <time>2021-09-30T06:56:21Z</time>
      </trkpt>
      <trkpt lat="44.81886" lon="3.81354">
        <ele>1035.331</ele>
        <time>2021-09-30T06:57:01Z</time>
      </trkpt>
      <trkpt lat="44.81889" lon="3.81364">
        <ele>1034.771</ele>
        <time>2021-09-30T06:57:41Z</time>
      </trkpt>
      <trkpt lat="44.81894" lon="3.81386">
        <ele>1034.126</ele>
        <time>2021-09-30T06:58:21Z</time>
      </trkpt>
      <trkpt lat="44.81895" lon="3.81407">
        <ele>1033.147</ele>
        <time>2021-09-30T06:59:01Z</time>
      </trkpt>
      <trkpt lat="44.81895" lon="3.8143">
        <ele>1032.511</ele>
        <time>2021-09-30T06:59:41Z</time>
      </trkpt>
      <trkpt lat="44.81892" lon="3.81455">
        <ele>1032.108</ele>
        <time>2021-09-30T07:00:21Z</time>
      </trkpt>
      <trkpt lat="44.81886" lon="3.81466">
        <ele>1030.98</ele>
        <time>2021-09-30T07:01:01Z</time>
      </trkpt>
      <trkpt lat="44.81879" lon="3.81476">
        <ele>1029.586</ele>
        <time>2021-09-30T07:01:41Z</time>
      </trkpt>
      <trkpt lat="44.81873" lon="3.81486">
        <ele>1028.041</ele>
        <time>2021-09-30T07:02:21Z</time>
      </trkpt>
      <trkpt lat="44.81865" lon="3.815">
        <ele>1026.183</ele>
        <time>2021-09-30T07:03:01Z</time>
      </trkpt>
      <trkpt lat="44.81859" lon="3.81513">
        <ele>1023.861</ele>
        <time>2021-09-30T07:03:41Z</time>
      </trkpt>
      <trkpt lat="44.8185" lon="3.8153">
        <ele>1021.754</ele>
        <time>2021-09-30T07:04:21Z</time>
      </trkpt>
      <trkpt lat="44.81846" lon="3.81538">
        <ele>1021.246</ele>
        <time>2021-09-30T07:05:01Z</time>
      </trkpt>
      <trkpt lat="44.81837" lon="3.81557">
        <ele>1021.016</ele>
        <time>2021-09-30T07:05:41Z</time>
      </trkpt>
      <trkpt lat="44.81831" lon="3.81567">
        <ele>1021.781</ele>
        <time>2021-09-30T07:06:21Z</time>
      </trkpt>
      <trkpt lat="44.81824" lon="3.81572">
        <ele>1022.761</ele>
        <time>2021-09-30T07:07:01Z</time>
      </trkpt>
      <trkpt lat="44.81817" lon="3.81571">
        <ele>1023.717</ele>
        <time>2021-09-30T07:07:41Z</time>
      </trkpt>
      <trkpt lat="44.81812" lon="3.8157">
        <ele>1024.208</ele>
        <time>2021-09-30T07:08:21Z</time>
      </trkpt>
      <trkpt lat="44.81804" lon="3.81567">
        <ele>1025.036</ele>
        <time>2021-09-30T07:09:01Z</time>
      </trkpt>
      <trkpt lat="44.818" lon="3.81563">
        <ele>1025.552</ele>
        <time>2021-09-30T07:09:41Z</time>
      </trkpt>
      <trkpt lat="44.8179" lon="3.81557">
        <ele>1026.327</ele>
        <time>2021-09-30T07:10:21Z</time>
      </trkpt>
      <trkpt lat="44.81786" lon="3.81552">
        <ele>1026.679</ele>
        <time>2021-09-30T07:11:01Z</time>
      </trkpt>
      <trkpt lat="44.8178" lon="3.81547">
        <ele>1027.097</ele>
        <time>2021-09-30T07:11:41Z</time>
      </trkpt>
      <trkpt lat="44.81776" lon="3.81543">
        <ele>1027.64</ele>
        <time>2021-09-30T07:12:21Z</time>
      </trkpt>
      <trkpt lat="44.81768" lon="3.81535">
        <ele>1029.542</ele>
        <time>2021-09-30T07:13:01Z</time>
      </trkpt>
      <trkpt lat="44.8176" lon="3.81528">
        <ele>1031.142</ele>
        <time>2021-09-30T07:13:41Z</time>
      </trkpt>
      <trkpt lat="44.81749" lon="3.81521">
        <ele>1033.279</ele>
        <time>2021-09-30T07:14:21Z</time>
      </trkpt>
      <trkpt lat="44.81739" lon="3.81515">
        <ele>1034.205</ele>
        <time>2021-09-30T07:15:01Z</time>
      </trkpt>
      <trkpt lat="44.81732" lon="3.81509">
        <ele>1034.525</ele>
        <time>2021-09-30T07:15:41Z</time>
      </trkpt>
      <trkpt lat="44.81725" lon="3.81502">
        <ele>1034.908</ele>
        <time>2021-09-30T07:16:21Z</time>
      </trkpt>
      <trkpt lat="44.8172" lon="3.81498">
        <ele>1035.055</ele>
        <time>2021-09-30T07:17:01Z</time>
      </trkpt>
      <trkpt lat="44.81708" lon="3.81485">
        <ele>1035.491</ele>
        <time>2021-09-30T07:17:41Z</time>
      </trkpt>
      <trkpt lat="44.817" lon="3.81478">
        <ele>1036.476</ele>
        <time>2021-09-30T07:18:21Z</time>
      </trkpt>
      <trkpt lat="44.8169" lon="3.8147">
        <ele>1037.358</ele>
        <time>2021-09-30T07:19:01Z</time>
      </trkpt>
      <trkpt lat="44.8168" lon="3.81464">
        <ele>1038.176</ele>
        <time>2021-09-30T07:19:41Z</time>
      </trkpt>
      <trkpt lat="44.8167" lon="3.81462">
        <ele>1039.379</ele>
        <time>2021-09-30T07:20:21Z</time>
      </trkpt>
      <trkpt lat="44.81668" lon="3.81461">
        <ele>1039.571</ele>
        <time>2021-09-30T07:21:01Z</time>
      </trkpt>
      <trkpt lat="44.81665" lon="3.81459">
        <ele>1039.771</ele>
        <time>2021-09-30T07:21:41Z</time>
      </trkpt>
      <trkpt lat="44.81658" lon="3.81449">
        <ele>1039.429</ele>
        <time>2021-09-30T07:22:21Z</time>
      </trkpt>
      <trkpt lat="44.81656" lon="3.81448">
        <ele>1039.4</ele>
        <time>2021-09-30T07:23:01Z</time>
      </trkpt>
      <trkpt lat="44.81649" lon="3.81441">
        <ele>1039.42</ele>
        <time>2021-09-30T07:23:41Z</time>
      </trkpt>
      <trkpt lat="44.81639" lon="3.81437">
        <ele>1039.908</ele>
        <time>2021-09-30T07:24:21Z</time>
      </trkpt>
      <trkpt lat="44.81634" lon="3.81436">
        <ele>1040.28</ele>
        <time>2021-09-30T07:25:01Z</time>
      </trkpt>
      <trkpt lat="44.81626" lon="3.81435">
        <ele>1040.846</ele>
        <time>2021-09-30T07:25:41Z</time>
      </trkpt>
      <trkpt lat="44.81611" lon="3.81437">
        <ele>1042.261</ele>
        <time>2021-09-30T07:26:21Z</time>
      </trkpt>
      <trkpt lat="44.81601" lon="3.81439">
        <ele>1042.583</ele>
        <time>2021-09-30T07:27:01Z</time>
      </trkpt>
      <trkpt lat="44.81591" lon="3.81441">
        <ele>1042.791</ele>
        <time>2021-09-30T07:27:41Z</time>
      </trkpt>
      <trkpt lat="44.81579" lon="3.81443">
        <ele>1042.854</ele>
        <time>2021-09-30T07:28:21Z</time>
      </trkpt>
      <trkpt lat="44.8157" lon="3.81445">
        <ele>1042.536</ele>
        <time>2021-09-30T07:29:01Z</time>
      </trkpt>
      <trkpt lat="44.81563" lon="3.81446">
        <ele>1042.386</ele>
        <time>2021-09-30T07:29:41Z</time>
      </trkpt>
      <trkpt lat="44.81554" lon="3.81447">
        <ele>1042.088</ele>
        <time>2021-09-30T07:30:21Z</time>
      </trkpt>
      <trkpt lat="44.81549" lon="3.81446">
        <ele>1041.824</ele>
        <time>2021-09-30T07:31:01Z</time>
      </trkpt>
      <trkpt lat="44.81541" lon="3.81446">
        <ele>1041.626</ele>
        <time>2021-09-30T07:31:41Z</time>
      </trkpt>
      <trkpt lat="44.81534" lon="3.81445">
        <ele>1041.208</ele>
        <time>2021-09-30T07:32:21Z</time>
      </trkpt>
      <trkpt lat="44.81526" lon="3.81444">
        <ele>1041.016</ele>
        <time>2021-09-30T07:33:01Z</time>
      </trkpt>
      <trkpt lat="44.81518" lon="3.81444">
        <ele>1041.052</ele>
        <time>2021-09-30T07:33:41Z</time>
      </trkpt>
      <trkpt lat="44.81508" lon="3.81445">
        <ele>1041.027</ele>
        <time>2021-09-30T07:34:21Z</time>
      </trkpt>
      <trkpt lat="44.81497" lon="3.81448">
        <ele>1041.059</ele>
        <time>2021-09-30T07:35:01Z</time>
      </trkpt>
      <trkpt lat="44.8149" lon="3.81449">
        <ele>1040.827</ele>
        <time>2021-09-30T07:35:41Z</time>
      </trkpt>
      <trkpt lat="44.81485" lon="3.81451">
        <ele>1040.79</ele>
        <time>2021-09-30T07:36:21Z</time>
      </trkpt>
      <trkpt lat="44.81472" lon="3.81458">
        <ele>1040.582</ele>
        <time>2021-09-30T07:37:01Z</time>
      </trkpt>
      <trkpt lat="44.81465" lon="3.81461">
        <ele>1040.412</ele>
        <time>2021-09-30T07:37:41Z</time>
      </trkpt>
      <trkpt lat="44.81452" lon="3.8147">
        <ele>1040.231</ele>
        <time>2021-09-30T07:38:21Z</time>
      </trkpt>
      <trkpt lat="44.81445" lon="3.81473">
        <ele>1040.061</ele>
        <time>2021-09-30T07:39:01Z</time>
      </trkpt>
      <trkpt lat="44.81434" lon="3.81473">
        <ele>1040.007</ele>
        <time>2021-09-30T07:39:41Z</time>
      </trkpt>
      <trkpt lat="44.81426" lon="3.81472">
        <ele>1040.008</ele>
        <time>2021-09-30T07:40:21Z</time>
      </trkpt>
      <trkpt lat="44.81418" lon="3.81471">
        <ele>1040.021</ele>
        <time>2021-09-30T07:41:01Z</time>
      </trkpt>
      <trkpt lat="44.81414" lon="3.81473">
        <ele>1040.037</ele>
        <time>2021-09-30T07:41:41Z</time>
      </trkpt>
      <trkpt lat="44.81411" lon="3.81477">
        <ele>1040.252</ele>
        <time>2021-09-30T07:42:21Z</time>
      </trkpt>
      <trkpt lat="44.814" lon="3.81496">
        <ele>1040.884</ele>
        <time>2021-09-30T07:43:01Z</time>
      </trkpt>
      <trkpt lat="44.81396" lon="3.81502">
        <ele>1041.042</ele>
        <time>2021-09-30T07:43:41Z</time>
      </trkpt>
      <trkpt lat="44.81385" lon="3.81518">
        <ele>1040.965</ele>
        <time>2021-09-30T07:44:21Z</time>
      </trkpt>
      <trkpt lat="44.81382" lon="3.81523">
        <ele>1040.817</ele>
        <time>2021-09-30T07:45:01Z</time>
      </trkpt>
      <trkpt lat="44.81378" lon="3.81529">
        <ele>1040.697</ele>
        <time>2021-09-30T07:45:41Z</time>
      </trkpt>
      <trkpt lat="44.81371" lon="3.81538">
        <ele>1040.594</ele>
        <time>2021-09-30T07:46:21Z</time>
      </trkpt>
      <trkpt lat="44.81369" lon="3.81542">
        <ele>1040.557</ele>
        <time>2021-09-30T07:47:01Z</time>
      </trkpt>
      <trkpt lat="44.81366" lon="3.81546">
        <ele>1040.622</ele>
        <time>2021-09-30T07:47:41Z</time>
      </trkpt>
      <trkpt lat="44.81355" lon="3.8156">
        <ele>1040.808</ele>
        <time>2021-09-30T07:48:21Z</time>
      </trkpt>
      <trkpt lat="44.81342" lon="3.81582">
        <ele>1041.287</ele>
        <time>2021-09-30T07:49:01Z</time>
      </trkpt>
      <trkpt lat="44.81337" lon="3.81589">
        <ele>1041.623</ele>
        <time>2021-09-30T07:49:41Z</time>
      </trkpt>
      <trkpt lat="44.81333" lon="3.81596">
        <ele>1041.978</ele>
        <time>2021-09-30T07:50:21Z</time>
      </trkpt>
      <trkpt lat="44.81327" lon="3.81607">
        <ele>1042.55</ele>
        <time>2021-09-30T07:51:01Z</time>
      </trkpt>
      <trkpt lat="44.81323" lon="3.81612">
        <ele>1042.798</ele>
        <time>2021-09-30T07:51:41Z</time>
      </trkpt>
      <trkpt lat="44.81315" lon="3.81622">
        <ele>1042.881</ele>
        <time>2021-09-30T07:52:21Z</time>
      </trkpt>
      <trkpt lat="44.81309" lon="3.81626">
        <ele>1042.853</ele>
        <time>2021-09-30T07:53:01Z</time>
      </trkpt>
      <trkpt lat="44.81301" lon="3.81633">
        <ele>1042.683</ele>
        <time>2021-09-30T07:53:41Z</time>
      </trkpt>
      <trkpt lat="44.81288" lon="3.81641">
        <ele>1042.476</ele>
        <time>2021-09-30T07:54:21Z</time>
      </trkpt>
      <trkpt lat="44.81278" lon="3.81645">
        <ele>1042.09</ele>
        <time>2021-09-30T07:55:01Z</time>
      </trkpt>
      <trkpt lat="44.81268" lon="3.81647">
        <ele>1041.619</ele>
        <time>2021-09-30T07:55:41Z</time>
      </trkpt>
      <trkpt lat="44.81259" lon="3.81648">
        <ele>1041.308</ele>
        <time>2021-09-30T07:56:21Z</time>
      </trkpt>
      <trkpt lat="44.81251" lon="3.81654">
        <ele>1041.095</ele>
        <time>2021-09-30T07:57:01Z</time>
      </trkpt>
      <trkpt lat="44.81245" lon="3.81661">
        <ele>1041.051</ele>
        <time>2021-09-30T07:57:41Z</time>
      </trkpt>
      <trkpt lat="44.81238" lon="3.81671">
        <ele>1041.146</ele>
        <time>2021-09-30T07:58:21Z</time>
      </trkpt>
      <trkpt lat="44.81232" lon="3.81679">
        <ele>1041.218</ele>
        <time>2021-09-30T07:59:01Z</time>
      </trkpt>
      <trkpt lat="44.81219" lon="3.81701">
        <ele>1040.926</ele>
        <time>2021-09-30T07:59:41Z</time>
      </trkpt>
      <trkpt lat="44.81207" lon="3.81721">
        <ele>1040.439</ele>
        <time>2021-09-30T08:00:21Z</time>
      </trkpt>
      <trkpt lat="44.812" lon="3.81733">
        <ele>1040.161</ele>
        <time>2021-09-30T08:01:01Z</time>
      </trkpt>
      <trkpt lat="44.8119" lon="3.81749">
        <ele>1039.851</ele>
        <time>2021-09-30T08:01:41Z</time>
      </trkpt>
      <trkpt lat="44.81184" lon="3.81755">
        <ele>1039.779</ele>
        <time>2021-09-30T08:02:21Z</time>
      </trkpt>
      <trkpt lat="44.81179" lon="3.81756">
        <ele>1039.505</ele>
        <time>2021-09-30T08:03:01Z</time>
      </trkpt>
      <trkpt lat="44.81174" lon="3.81755">
        <ele>1039.325</ele>
        <time>2021-09-30T08:03:41Z</time>
      </trkpt>
      <trkpt lat="44.81168" lon="3.81747">
        <ele>1039.008</ele>
        <time>2021-09-30T08:04:21Z</time>
      </trkpt>
      <trkpt lat="44.81156" lon="3.81731">
        <ele>1038.285</ele>
        <time>2021-09-30T08:05:01Z</time>
      </trkpt>
      <trkpt lat="44.81152" lon="3.81727">
        <ele>1037.981</ele>
        <time>2021-09-30T08:05:41Z</time>
      </trkpt>
      <trkpt lat="44.81147" lon="3.81726">
        <ele>1037.666</ele>
        <time>2021-09-30T08:06:21Z</time>
      </trkpt>
      <trkpt lat="44.81142" lon="3.81729">
        <ele>1037.248</ele>
        <time>2021-09-30T08:07:01Z</time>
      </trkpt>
      <trkpt lat="44.81138" lon="3.81735">
        <ele>1037.026</ele>
        <time>2021-09-30T08:07:41Z</time>
      </trkpt>
      <trkpt lat="44.81135" lon="3.81742">
        <ele>1036.749</ele>
        <time>2021-09-30T08:08:21Z</time>
      </trkpt>
      <trkpt lat="44.81126" lon="3.8176">
        <ele>1035.981</ele>
        <time>2021-09-30T08:09:01Z</time>
      </trkpt>
      <trkpt lat="44.81119" lon="3.81776">
        <ele>1035.351</ele>
        <time>2021-09-30T08:09:41Z</time>
      </trkpt>
      <trkpt lat="44.81111" lon="3.81793">
        <ele>1035.091</ele>
        <time>2021-09-30T08:10:21Z</time>
      </trkpt>
      <trkpt lat="44.81105" lon="3.81806">
        <ele>1035.381</ele>
        <time>2021-09-30T08:11:01Z</time>
      </trkpt>
      <trkpt lat="44.811" lon="3.81816">
        <ele>1035.819</ele>
        <time>2021-09-30T08:11:41Z</time>
      </trkpt>
      <trkpt lat="44.81097" lon="3.81823">
        <ele>1036.108</ele>
        <time>2021-09-30T08:12:21Z</time>
      </trkpt>
      <trkpt lat="44.81093" lon="3.81829">
        <ele>1036.557</ele>
        <time>2021-09-30T08:13:01Z</time>
      </trkpt>
      <trkpt lat="44.81087" lon="3.81841">
        <ele>1036.933</ele>
        <time>2021-09-30T08:13:41Z</time>
      </trkpt>
      <trkpt lat="44.81076" lon="3.8186">
        <ele>1036.768</ele>
        <time>2021-09-30T08:14:21Z</time>
      </trkpt>
      <trkpt lat="44.81066" lon="3.81877">
        <ele>1036.46</ele>
        <time>2021-09-30T08:15:01Z</time>
      </trkpt>
      <trkpt lat="44.81062" lon="3.81886">
        <ele>1036.268</ele>
        <time>2021-09-30T08:15:41Z</time>
      </trkpt>
      <trkpt lat="44.81059" lon="3.81893">
        <ele>1036.391</ele>
        <time>2021-09-30T08:16:21Z</time>
      </trkpt>
      <trkpt lat="44.81057" lon="3.819">
        <ele>1036.493</ele>
        <time>2021-09-30T08:17:01Z</time>
      </trkpt>
      <trkpt lat="44.81052" lon="3.81914">
        <ele>1036.623</ele>
        <time>2021-09-30T08:17:41Z</time>
      </trkpt>
      <trkpt lat="44.81047" lon="3.81926">
        <ele>1036.593</ele>
        <time>2021-09-30T08:18:21Z</time>
      </trkpt>
      <trkpt lat="44.81039" lon="3.81948">
        <ele>1036.565</ele>
        <time>2021-09-30T08:19:01Z</time>
      </trkpt>
      <trkpt lat="44.81035" lon="3.81956">
        <ele>1036.421</ele>
        <time>2021-09-30T08:19:41Z</time>
      </trkpt>
      <trkpt lat="44.81023" lon="3.81977">
        <ele>1035.708</ele>
        <time>2021-09-30T08:20:21Z</time>
      </trkpt>
      <trkpt lat="44.81009" lon="3.82001">
        <ele>1035.367</ele>
        <time>2021-09-30T08:21:01Z</time>
      </trkpt>
      <trkpt lat="44.80997" lon="3.82026">
        <ele>1034.923</ele>
        <time>2021-09-30T08:21:41Z</time>
      </trkpt>
      <trkpt lat="44.80992" lon="3.82039">
        <ele>1035.058</ele>
        <time>2021-09-30T08:22:21Z</time>
      </trkpt>
      <trkpt lat="44.80982" lon="3.82062">
        <ele>1034.53</ele>
        <time>2021-09-30T08:23:01Z</time>
      </trkpt>
      <trkpt lat="44.80974" lon="3.82082">
        <ele>1033.238</ele>
        <time>2021-09-30T08:23:41Z</time>
      </trkpt>
      <trkpt lat="44.80968" lon="3.82097">
        <ele>1031.641</ele>
        <time>2021-09-30T08:24:21Z</time>
      </trkpt>
      <trkpt lat="44.80964" lon="3.82106">
        <ele>1030.543</ele>
        <time>2021-09-30T08:25:01Z</time>
      </trkpt>
      <trkpt lat="44.80951" lon="3.8214">
        <ele>1026.993</ele>
        <time>2021-09-30T08:25:41Z</time>
      </trkpt>
      <trkpt lat="44.80938" lon="3.82172">
        <ele>1025.138</ele>
        <time>2021-09-30T08:26:21Z</time>
      </trkpt>
      <trkpt lat="44.80929" lon="3.82194">
        <ele>1023.97</ele>
        <time>2021-09-30T08:27:01Z</time>
      </trkpt>
      <trkpt lat="44.80919" lon="3.82213">
        <ele>1023.117</ele>
        <time>2021-09-30T08:27:41Z</time>
      </trkpt>
      <trkpt lat="44.80909" lon="3.82231">
        <ele>1021.908</ele>
        <time>2021-09-30T08:28:21Z</time>
      </trkpt>
      <trkpt lat="44.80897" lon="3.82249">
        <ele>1019.941</ele>
        <time>2021-09-30T08:29:01Z</time>
      </trkpt>
      <trkpt lat="44.80899" lon="3.82254">
        <ele>1020.087</ele>
        <time>2021-09-30T08:29:41Z</time>
      </trkpt>
      <trkpt lat="44.80901" lon="3.82267">
        <ele>1020.372</ele>
        <time>2021-09-30T08:30:21Z</time>
      </trkpt>
      <trkpt lat="44.80902" lon="3.8228">
        <ele>1020.544</ele>
        <time>2021-09-30T08:31:01Z</time>
      </trkpt>
      <trkpt lat="44.80902" lon="3.82294">
        <ele>1021.082</ele>
        <time>2021-09-30T08:31:41Z</time>
      </trkpt>
      <trkpt lat="44.80901" lon="3.82311">
        <ele>1021.695</ele>
        <time>2021-09-30T08:32:21Z</time>
      </trkpt>
      <trkpt lat="44.80897" lon="3.82318">
        <ele>1021.747</ele>
        <time>2021-09-30T08:33:01Z</time>
      </trkpt>
      <trkpt lat="44.80893" lon="3.82327">
        <ele>1021.847</ele>
        <time>2021-09-30T08:33:41Z</time>
      </trkpt>
      <trkpt lat="44.80891" lon="3.82332">
        <ele>1022.149</ele>
        <time>2021-09-30T08:34:21Z</time>
      </trkpt>
      <trkpt lat="44.80881" lon="3.82334">
        <ele>1021.202</ele>
        <time>2021-09-30T08:35:01Z</time>
      </trkpt>
      <trkpt lat="44.80878" lon="3.82334">
        <ele>1020.922</ele>
        <time>2021-09-30T08:35:41Z</time>
      </trkpt>
      <trkpt lat="44.80858" lon="3.82338">
        <ele>1019.208</ele>
        <time>2021-09-30T08:36:21Z</time>
      </trkpt>
      <trkpt lat="44.8084" lon="3.82339">
        <ele>1018.762</ele>
        <time>2021-09-30T08:37:01Z</time>
      </trkpt>
      <trkpt lat="44.80833" lon="3.82341">
        <ele>1018.558</ele>
        <time>2021-09-30T08:37:41Z</time>
      </trkpt>
      <trkpt lat="44.80823" lon="3.82343">
        <ele>1018.373</ele>
        <time>2021-09-30T08:38:21Z</time>
      </trkpt>
      <trkpt lat="44.8082" lon="3.82343">
        <ele>1018.275</ele>
        <time>2021-09-30T08:39:01Z</time>
      </trkpt>
      <trkpt lat="44.80812" lon="3.82344">
        <ele>1018.063</ele>
        <time>2021-09-30T08:39:41Z</time>
      </trkpt>
      <trkpt lat="44.80803" lon="3.82344">
        <ele>1017.636</ele>
        <time>2021-09-30T08:40:21Z</time>
      </trkpt>
      <trkpt lat="44.80796" lon="3.82345">
        <ele>1017.378</ele>
        <time>2021-09-30T08:41:01Z</time>
      </trkpt>
      <trkpt lat="44.80785" lon="3.82344">
        <ele>1016.858</ele>
        <time>2021-09-30T08:41:41Z</time>
      </trkpt>
      <trkpt lat="44.80776" lon="3.82344">
        <ele>1016.254</ele>
        <time>2021-09-30T08:42:21Z</time>
      </trkpt>
      <trkpt lat="44.8077" lon="3.82344">
        <ele>1015.856</ele>
        <time>2021-09-30T08:43:01Z</time>
      </trkpt>
      <trkpt lat="44.80759" lon="3.82343">
        <ele>1015.011</ele>
        <time>2021-09-30T08:43:41Z</time>
      </trkpt>
      <trkpt lat="44.80757" lon="3.82343">
        <ele>1014.808</ele>
        <time>2021-09-30T08:44:21Z</time>
      </trkpt>
      <trkpt lat="44.80744" lon="3.82344">
        <ele>1013.913</ele>
        <time>2021-09-30T08:45:01Z</time>
      </trkpt>
      <trkpt lat="44.80734" lon="3.82348">
        <ele>1013.359</ele>
        <time>2021-09-30T08:45:41Z</time>
      </trkpt>
      <trkpt lat="44.80732" lon="3.82348">
        <ele>1013.214</ele>
        <time>2021-09-30T08:46:21Z</time>
      </trkpt>
      <trkpt lat="44.80718" lon="3.82358">
        <ele>1012.166</ele>
        <time>2021-09-30T08:47:01Z</time>
      </trkpt>
      <trkpt lat="44.80706" lon="3.82367">
        <ele>1010.214</ele>
        <time>2021-09-30T08:47:41Z</time>
      </trkpt>
      <trkpt lat="44.80698" lon="3.82372">
        <ele>1008.667</ele>
        <time>2021-09-30T08:48:21Z</time>
      </trkpt>
      <trkpt lat="44.80692" lon="3.82372">
        <ele>1007.319</ele>
        <time>2021-09-30T08:49:01Z</time>
      </trkpt>
      <trkpt lat="44.80689" lon="3.82378">
        <ele>1006.459</ele>
        <time>2021-09-30T08:49:41Z</time>
      </trkpt>
      <trkpt lat="44.80687" lon="3.82384">
        <ele>1005.714</ele>
        <time>2021-09-30T08:50:21Z</time>
      </trkpt>
      <trkpt lat="44.80686" lon="3.82405">
        <ele>1005.254</ele>
        <time>2021-09-30T08:51:01Z</time>
      </trkpt>
      <trkpt lat="44.80686" lon="3.82413">
        <ele>1005.009</ele>
        <time>2021-09-30T08:51:41Z</time>
      </trkpt>
      <trkpt lat="44.80686" lon="3.82434">
        <ele>1005.908</ele>
        <time>2021-09-30T08:52:21Z</time>
      </trkpt>
      <trkpt lat="44.80685" lon="3.82465">
        <ele>1007.459</ele>
        <time>2021-09-30T08:53:01Z</time>
      </trkpt>
      <trkpt lat="44.80684" lon="3.82483">
        <ele>1008.115</ele>
        <time>2021-09-30T08:53:41Z</time>
      </trkpt>
      <trkpt lat="44.80682" lon="3.82497">
        <ele>1008.16</ele>
        <time>2021-09-30T08:54:21Z</time>
      </trkpt>
      <trkpt lat="44.80676" lon="3.82516">
        <ele>1007.212</ele>
        <time>2021-09-30T08:55:01Z</time>
      </trkpt>
      <trkpt lat="44.80673" lon="3.82535">
        <ele>1005.51</ele>
        <time>2021-09-30T08:55:41Z</time>
      </trkpt>
      <trkpt lat="44.80672" lon="3.82553">
        <ele>1002.933</ele>
        <time>2021-09-30T08:56:21Z</time>
      </trkpt>
      <trkpt lat="44.80672" lon="3.82572">
        <ele>998.535</ele>
        <time>2021-09-30T08:57:01Z</time>
      </trkpt>
      <trkpt lat="44.80675" lon="3.82586">
        <ele>995.435</ele>
        <time>2021-09-30T08:57:41Z</time>
      </trkpt>
      <trkpt lat="44.80678" lon="3.82597">
        <ele>993.646</ele>
        <time>2021-09-30T08:58:21Z</time>
      </trkpt>
      <trkpt lat="44.80683" lon="3.82606">
        <ele>992.888</ele>
        <time>2021-09-30T08:59:01Z</time>
      </trkpt>
      <trkpt lat="44.80689" lon="3.82613">
        <ele>992.816</ele>
        <time>2021-09-30T08:59:41Z</time>
      </trkpt>
      <trkpt lat="44.80698" lon="3.82623">
        <ele>992.708</ele>
        <time>2021-09-30T09:00:21Z</time>
      </trkpt>
      <trkpt lat="44.80705" lon="3.8263">
        <ele>992.842</ele>
        <time>2021-09-30T09:01:01Z</time>
      </trkpt>
      <trkpt lat="44.80716" lon="3.82641">
        <ele>993.568</ele>
        <time>2021-09-30T09:01:41Z</time>
      </trkpt>
      <trkpt lat="44.80727" lon="3.82655">
        <ele>994.193</ele>
        <time>2021-09-30T09:02:21Z</time>
      </trkpt>
      <trkpt lat="44.80733" lon="3.82666">
        <ele>994.165</ele>
        <time>2021-09-30T09:03:01Z</time>
      </trkpt>
      <trkpt lat="44.80738" lon="3.82679">
        <ele>993.553</ele>
        <time>2021-09-30T09:03:41Z</time>
      </trkpt>
      <trkpt lat="44.80741" lon="3.82695">
        <ele>991.776</ele>
        <time>2021-09-30T09:04:21Z</time>
      </trkpt>
      <trkpt lat="44.80744" lon="3.82712">
        <ele>989.558</ele>
        <time>2021-09-30T09:05:01Z</time>
      </trkpt>
      <trkpt lat="44.80749" lon="3.82737">
        <ele>987.288</ele>
        <time>2021-09-30T09:05:41Z</time>
      </trkpt>
      <trkpt lat="44.80751" lon="3.82749">
        <ele>986.538</ele>
        <time>2021-09-30T09:06:21Z</time>
      </trkpt>
      <trkpt lat="44.80751" lon="3.82759">
        <ele>986.37</ele>
        <time>2021-09-30T09:07:01Z</time>
      </trkpt>
      <trkpt lat="44.8075" lon="3.82766">
        <ele>986.017</ele>
        <time>2021-09-30T09:07:41Z</time>
      </trkpt>
      <trkpt lat="44.80746" lon="3.82775">
        <ele>986.208</ele>
        <time>2021-09-30T09:08:21Z</time>
      </trkpt>
      <trkpt lat="44.8074" lon="3.82785">
        <ele>988.341</ele>
        <time>2021-09-30T09:09:01Z</time>
      </trkpt>
      <trkpt lat="44.80735" lon="3.82789">
        <ele>989.397</ele>
        <time>2021-09-30T09:09:41Z</time>
      </trkpt>
      <trkpt lat="44.80728" lon="3.82791">
        <ele>990.052</ele>
        <time>2021-09-30T09:10:21Z</time>
      </trkpt>
      <trkpt lat="44.80722" lon="3.82789">
        <ele>990.124</ele>
        <time>2021-09-30T09:11:01Z</time>
      </trkpt>
      <trkpt lat="44.80712" lon="3.82787">
        <ele>990.052</ele>
        <time>2021-09-30T09:11:41Z</time>
      </trkpt>
      <trkpt lat="44.80701" lon="3.8278">
        <ele>989.165</ele>
        <time>2021-09-30T09:12:21Z</time>
      </trkpt>
      <trkpt lat="44.8069" lon="3.82773">
        <ele>988.237</ele>
        <time>2021-09-30T09:13:01Z</time>
      </trkpt>
      <trkpt lat="44.80672" lon="3.82762">
        <ele>986.767</ele>
        <time>2021-09-30T09:13:41Z</time>
      </trkpt>
      <trkpt lat="44.8066" lon="3.82752">
        <ele>985.591</ele>
        <time>2021-09-30T09:14:21Z</time>
      </trkpt>
      <trkpt lat="44.8065" lon="3.82748">
        <ele>985.381</ele>
        <time>2021-09-30T09:15:01Z</time>
      </trkpt>
      <trkpt lat="44.8064" lon="3.82745">
        <ele>985.419</ele>
        <time>2021-09-30T09:15:41Z</time>
      </trkpt>
      <trkpt lat="44.8063" lon="3.82743">
        <ele>986.208</ele>
        <time>2021-09-30T09:16:21Z</time>
      </trkpt>
      <trkpt lat="44.80619" lon="3.82744">
        <ele>987.397</ele>
        <time>2021-09-30T09:17:01Z</time>
      </trkpt>
      <trkpt lat="44.80612" lon="3.82744">
        <ele>988.173</ele>
        <time>2021-09-30T09:17:41Z</time>
      </trkpt>
      <trkpt lat="44.80596" lon="3.82745">
        <ele>990.898</ele>
        <time>2021-09-30T09:18:21Z</time>
      </trkpt>
      <trkpt lat="44.80585" lon="3.82746">
        <ele>993.01</ele>
        <time>2021-09-30T09:19:01Z</time>
      </trkpt>
      <trkpt lat="44.80575" lon="3.82749">
        <ele>996.548</ele>
        <time>2021-09-30T09:19:41Z</time>
      </trkpt>
      <trkpt lat="44.80565" lon="3.82754">
        <ele>1000.971</ele>
        <time>2021-09-30T09:20:21Z</time>
      </trkpt>
      <trkpt lat="44.80552" lon="3.82763">
        <ele>1005.883</ele>
        <time>2021-09-30T09:21:01Z</time>
      </trkpt>
      <trkpt lat="44.80538" lon="3.82768">
        <ele>1007.493</ele>
        <time>2021-09-30T09:21:41Z</time>
      </trkpt>
      <trkpt lat="44.8053" lon="3.8277">
        <ele>1007.921</ele>
        <time>2021-09-30T09:22:21Z</time>
      </trkpt>
      <trkpt lat="44.80523" lon="3.82772">
        <ele>1007.841</ele>
        <time>2021-09-30T09:23:01Z</time>
      </trkpt>
      <trkpt lat="44.80514" lon="3.82774">
        <ele>1007.505</ele>
        <time>2021-09-30T09:23:41Z</time>
      </trkpt>
      <trkpt lat="44.80502" lon="3.82777">
        <ele>1007.108</ele>
        <time>2021-09-30T09:24:21Z</time>
      </trkpt>
      <trkpt lat="44.80489" lon="3.82781">
        <ele>1007.62</ele>
        <time>2021-09-30T09:25:01Z</time>
      </trkpt>
      <trkpt lat="44.80484" lon="3.82782">
        <ele>1007.866</ele>
        <time>2021-09-30T09:25:41Z</time>
      </trkpt>
      <trkpt lat="44.80473" lon="3.82786">
        <ele>1008.571</ele>
        <time>2021-09-30T09:26:21Z</time>
      </trkpt>
      <trkpt lat="44.80467" lon="3.82789">
        <ele>1008.743</ele>
        <time>2021-09-30T09:27:01Z</time>
      </trkpt>
      <trkpt lat="44.80461" lon="3.82793">
        <ele>1008.791</ele>
        <time>2021-09-30T09:27:41Z</time>
      </trkpt>
      <trkpt lat="44.80452" lon="3.82802">
        <ele>1009.014</ele>
        <time>2021-09-30T09:28:21Z</time>
      </trkpt>
      <trkpt lat="44.80444" lon="3.82809">
        <ele>1009.166</ele>
        <time>2021-09-30T09:29:01Z</time>
      </trkpt>
      <trkpt lat="44.80434" lon="3.82816">
        <ele>1008.786</ele>
        <time>2021-09-30T09:29:41Z</time>
      </trkpt>
      <trkpt lat="44.80427" lon="3.82822">
        <ele>1008.762</ele>
        <time>2021-09-30T09:30:21Z</time>
      </trkpt>
      <trkpt lat="44.80423" lon="3.82827">
        <ele>1008.983</ele>
        <time>2021-09-30T09:31:01Z</time>
      </trkpt>
      <trkpt lat="44.80422" lon="3.82839">
        <ele>1009.511</ele>
        <time>2021-09-30T09:31:41Z</time>
      </trkpt>
      <trkpt lat="44.80419" lon="3.8285">
        <ele>1010.308</ele>
        <time>2021-09-30T09:32:21Z</time>
      </trkpt>
      <trkpt lat="44.80416" lon="3.8286">
        <ele>1010.984</ele>
        <time>2021-09-30T09:33:01Z</time>
      </trkpt>
      <trkpt lat="44.80411" lon="3.82869">
        <ele>1010.73</ele>
        <time>2021-09-30T09:33:41Z</time>
      </trkpt>
      <trkpt lat="44.80405" lon="3.82876">
        <ele>1010.315</ele>
        <time>2021-09-30T09:34:21Z</time>
      </trkpt>
      <trkpt lat="44.80397" lon="3.82882">
        <ele>1009.767</ele>
        <time>2021-09-30T09:35:01Z</time>
      </trkpt>
      <trkpt lat="44.8039" lon="3.82888">
        <ele>1009.195</ele>
        <time>2021-09-30T09:35:41Z</time>
      </trkpt>
      <trkpt lat="44.80385" lon="3.82893">
        <ele>1009.338</ele>
        <time>2021-09-30T09:36:21Z</time>
      </trkpt>
      <trkpt lat="44.80377" lon="3.829">
        <ele>1009.99</ele>
        <time>2021-09-30T09:37:01Z</time>
      </trkpt>
      <trkpt lat="44.8037" lon="3.82907">
        <ele>1010.77</ele>
        <time>2021-09-30T09:37:41Z</time>
      </trkpt>
      <trkpt lat="44.80364" lon="3.82913">
        <ele>1011.521</ele>
        <time>2021-09-30T09:38:21Z</time>
      </trkpt>
      <trkpt lat="44.80357" lon="3.82922">
        <ele>1013.041</ele>
        <time>2021-09-30T09:39:01Z</time>
      </trkpt>
      <trkpt lat="44.8035" lon="3.8293">
        <ele>1014.505</ele>
        <time>2021-09-30T09:39:41Z</time>
      </trkpt>
      <trkpt lat="44.80344" lon="3.82938">
        <ele>1015.808</ele>
        <time>2021-09-30T09:40:21Z</time>
      </trkpt>
      <trkpt lat="44.80337" lon="3.82947">
        <ele>1017.14</ele>
        <time>2021-09-30T09:41:01Z</time>
      </trkpt>
      <trkpt lat="44.80332" lon="3.82955">
        <ele>1018.246</ele>
        <time>2021-09-30T09:41:41Z</time>
      </trkpt>
      <trkpt lat="44.80329" lon="3.82963">
        <ele>1018.961</ele>
        <time>2021-09-30T09:42:21Z</time>
      </trkpt>
      <trkpt lat="44.80328" lon="3.82975">
        <ele>1020.043</ele>
        <time>2021-09-30T09:43:01Z</time>
      </trkpt>
      <trkpt lat="44.80328" lon="3.82986">
        <ele>1020.881</ele>
        <time>2021-09-30T09:43:41Z</time>
      </trkpt>
      <trkpt lat="44.80328" lon="3.82991">
        <ele>1021.254</ele>
        <time>2021-09-30T09:44:21Z</time>
      </trkpt>
      <trkpt lat="44.80328" lon="3.82996">
        <ele>1021.576</ele>
        <time>2021-09-30T09:45:01Z</time>
      </trkpt>
      <trkpt lat="44.80328" lon="3.83006">
        <ele>1022.366</ele>
        <time>2021-09-30T09:45:41Z</time>
      </trkpt>
      <trkpt lat="44.80328" lon="3.83024">
        <ele>1023.587</ele>
        <time>2021-09-30T09:46:21Z</time>
      </trkpt>
      <trkpt lat="44.8035" lon="3.83022">
        <ele>1023.542</ele>
        <time>2021-09-30T09:47:01Z</time>
      </trkpt>
      <trkpt lat="44.80365" lon="3.83021">
        <ele>1023.526</ele>
        <time>2021-09-30T09:47:41Z</time>
      </trkpt>
      <trkpt lat="44.80376" lon="3.8302">
        <ele>1023.408</ele>
        <time>2021-09-30T09:48:21Z</time>
      </trkpt>
      <trkpt lat="44.80381" lon="3.83019">
        <ele>1023.496</ele>
        <time>2021-09-30T09:49:01Z</time>
      </trkpt>
      <trkpt lat="44.80396" lon="3.83018">
        <ele>1023.322</ele>
        <time>2021-09-30T09:49:41Z</time>
      </trkpt>
      <trkpt lat="44.80407" lon="3.83019">
        <ele>1023.617</ele>
        <time>2021-09-30T09:50:21Z</time>
      </trkpt>
      <trkpt lat="44.80421" lon="3.83023">
        <ele>1024.269</ele>
        <time>2021-09-30T09:51:01Z</time>
      </trkpt>
      <trkpt lat="44.8044" lon="3.83027">
        <ele>1024.127</ele>
        <time>2021-09-30T09:51:41Z</time>
      </trkpt>
      <trkpt lat="44.80452" lon="3.83028">
        <ele>1024.34</ele>
        <time>2021-09-30T09:52:21Z</time>
      </trkpt>
      <trkpt lat="44.8046" lon="3.83028">
        <ele>1024.682</ele>
        <time>2021-09-30T09:53:01Z</time>
      </trkpt>
      <trkpt lat="44.80475" lon="3.83032">
        <ele>1026.092</ele>
        <time>2021-09-30T09:53:41Z</time>
      </trkpt>
      <trkpt lat="44.80493" lon="3.83036">
        <ele>1028.431</ele>
        <time>2021-09-30T09:54:21Z</time>
      </trkpt>
      <trkpt lat="44.80503" lon="3.83039">
        <ele>1029.761</ele>
        <time>2021-09-30T09:55:01Z</time>
      </trkpt>
      <trkpt lat="44.80511" lon="3.83042">
        <ele>1030.407</ele>
        <time>2021-09-30T09:55:41Z</time>
      </trkpt>
      <trkpt lat="44.80515" lon="3.83043">
        <ele>1030.808</ele>
        <time>2021-09-30T09:56:21Z</time>
      </trkpt>
      <trkpt lat="44.80523" lon="3.83047">
        <ele>1031.651</ele>
        <time>2021-09-30T09:57:01Z</time>
      </trkpt>
      <trkpt lat="44.80527" lon="3.83049">
        <ele>1032.027</ele>
        <time>2021-09-30T09:57:41Z</time>
      </trkpt>
      <trkpt lat="44.80539" lon="3.83055">
        <ele>1032.532</ele>
        <time>2021-09-30T09:58:21Z</time>
      </trkpt>
      <trkpt lat="44.80544" lon="3.83056">
        <ele>1032.584</ele>
        <time>2021-09-30T09:59:01Z</time>
      </trkpt>
      <trkpt lat="44.80556" lon="3.8306">
        <ele>1032.832</ele>
        <time>2021-09-30T09:59:41Z</time>
      </trkpt>
      <trkpt lat="44.80561" lon="3.83062">
        <ele>1032.855</ele>
        <time>2021-09-30T10:00:21Z</time>
      </trkpt>
      <trkpt lat="44.80575" lon="3.83066">
        <ele>1033.047</ele>
        <time>2021-09-30T10:01:01Z</time>
      </trkpt>
      <trkpt lat="44.8058" lon="3.83069">
        <ele>1033.187</ele>
        <time>2021-09-30T10:01:41Z</time>
      </trkpt>
      <trkpt lat="44.80591" lon="3.83075">
        <ele>1033.872</ele>
        <time>2021-09-30T10:02:21Z</time>
      </trkpt>
      <trkpt lat="44.80595" lon="3.83077">
        <ele>1033.913</ele>
        <time>2021-09-30T10:03:01Z</time>
      </trkpt>
      <trkpt lat="44.80605" lon="3.8308">
        <ele>1034.414</ele>
        <time>2021-09-30T10:03:41Z</time>
      </trkpt>
      <trkpt lat="44.80611" lon="3.83081">
        <ele>1034.708</ele>
        <time>2021-09-30T10:04:21Z</time>
      </trkpt>
      <trkpt lat="44.80622" lon="3.83084">
        <ele>1035.155</ele>
        <time>2021-09-30T10:05:01Z</time>
      </trkpt>
      <trkpt lat="44.80638" lon="3.83086">
        <ele>1035.821</ele>
        <time>2021-09-30T10:05:41Z</time>
      </trkpt>
      <trkpt lat="44.80654" lon="3.83086">
        <ele>1036.126</ele>
        <time>2021-09-30T10:06:21Z</time>
      </trkpt>
      <trkpt lat="44.80663" lon="3.83086">
        <ele>1036.438</ele>
        <time>2021-09-30T10:07:01Z</time>
      </trkpt>
      <trkpt lat="44.80668" lon="3.8309">
        <ele>1037.216</ele>
        <time>2021-09-30T10:07:41Z</time>
      </trkpt>
      <trkpt lat="44.80665" lon="3.831">
        <ele>1039.039</ele>
        <time>2021-09-30T10:08:21Z</time>
      </trkpt>
      <trkpt lat="44.80662" lon="3.83109">
        <ele>1040.871</ele>
        <time>2021-09-30T10:09:01Z</time>
      </trkpt>
      <trkpt lat="44.8066" lon="3.83117">
        <ele>1042.171</ele>
        <time>2021-09-30T10:09:41Z</time>
      </trkpt>
      <trkpt lat="44.80657" lon="3.83136">
        <ele>1045.223</ele>
        <time>2021-09-30T10:10:21Z</time>
      </trkpt>
      <trkpt lat="44.80655" lon="3.83146">
        <ele>1046.583</ele>
        <time>2021-09-30T10:11:01Z</time>
      </trkpt>
      <trkpt lat="44.80653" lon="3.8316">
        <ele>1047.911</ele>
        <time>2021-09-30T10:11:41Z</time>
      </trkpt>
      <trkpt lat="44.80651" lon="3.83177">
        <ele>1049.608</ele>
        <time>2021-09-30T10:12:21Z</time>
      </trkpt>
      <trkpt lat="44.80649" lon="3.83202">
        <ele>1052.69</ele>
        <time>2021-09-30T10:13:01Z</time>
      </trkpt>
      <trkpt lat="44.80645" lon="3.83228">
        <ele>1057.176</ele>
        <time>2021-09-30T10:13:41Z</time>
      </trkpt>
      <trkpt lat="44.80642" lon="3.83244">
        <ele>1059.331</ele>
        <time>2021-09-30T10:14:21Z</time>
      </trkpt>
      <trkpt lat="44.80638" lon="3.83257">
        <ele>1060.493</ele>
        <time>2021-09-30T10:15:01Z</time>
      </trkpt>
      <trkpt lat="44.80634" lon="3.83264">
        <ele>1060.731</ele>
        <time>2021-09-30T10:15:41Z</time>
      </trkpt>
      <trkpt lat="44.8063" lon="3.83276">
        <ele>1061.684</ele>
        <time>2021-09-30T10:16:21Z</time>
      </trkpt>
      <trkpt lat="44.80628" lon="3.83288">
        <ele>1062.066</ele>
        <time>2021-09-30T10:17:01Z</time>
      </trkpt>
      <trkpt lat="44.80626" lon="3.83297">
        <ele>1062.246</ele>
        <time>2021-09-30T10:17:41Z</time>
      </trkpt>
      <trkpt lat="44.80622" lon="3.83312">
        <ele>1063.084</ele>
        <time>2021-09-30T10:18:21Z</time>
      </trkpt>
      <trkpt lat="44.80618" lon="3.83328">
        <ele>1064.507</ele>
        <time>2021-09-30T10:19:01Z</time>
      </trkpt>
      <trkpt lat="44.8061" lon="3.83348">
        <ele>1066.717</ele>
        <time>2021-09-30T10:19:41Z</time>
      </trkpt>
      <trkpt lat="44.80602" lon="3.83367">
        <ele>1069.908</ele>
        <time>2021-09-30T10:20:21Z</time>
      </trkpt>
      <trkpt lat="44.80598" lon="3.83374">
        <ele>1071.116</ele>
        <time>2021-09-30T10:21:01Z</time>
      </trkpt>
      <trkpt lat="44.80594" lon="3.83381">
        <ele>1072.332</ele>
        <time>2021-09-30T10:21:41Z</time>
      </trkpt>
      <trkpt lat="44.80588" lon="3.83392">
        <ele>1073.927</ele>
        <time>2021-09-30T10:22:21Z</time>
      </trkpt>
      <trkpt lat="44.80577" lon="3.83405">
        <ele>1075.749</ele>
        <time>2021-09-30T10:23:01Z</time>
      </trkpt>
      <trkpt lat="44.80566" lon="3.8342">
        <ele>1077.567</ele>
        <time>2021-09-30T10:23:41Z</time>
      </trkpt>
      <trkpt lat="44.8056" lon="3.83429">
        <ele>1078.56</ele>
        <time>2021-09-30T10:24:21Z</time>
      </trkpt>
      <trkpt lat="44.80554" lon="3.83439">
        <ele>1079.582</ele>
        <time>2021-09-30T10:25:01Z</time>
      </trkpt>
      <trkpt lat="44.80542" lon="3.83458">
        <ele>1080.732</ele>
        <time>2021-09-30T10:25:41Z</time>
      </trkpt>
      <trkpt lat="44.80539" lon="3.83463">
        <ele>1081.211</ele>
        <time>2021-09-30T10:26:21Z</time>
      </trkpt>
      <trkpt lat="44.80529" lon="3.83481">
        <ele>1082.621</ele>
        <time>2021-09-30T10:27:01Z</time>
      </trkpt>
      <trkpt lat="44.80522" lon="3.83492">
        <ele>1083.103</ele>
        <time>2021-09-30T10:27:41Z</time>
      </trkpt>
      <trkpt lat="44.80514" lon="3.83506">
        <ele>1083.208</ele>
        <time>2021-09-30T10:28:21Z</time>
      </trkpt>
      <trkpt lat="44.80507" lon="3.83518">
        <ele>1083.199</ele>
        <time>2021-09-30T10:29:01Z</time>
      </trkpt>
      <trkpt lat="44.80505" lon="3.83521">
        <ele>1083.135</ele>
        <time>2021-09-30T10:29:41Z</time>
      </trkpt>
      <trkpt lat="44.80498" lon="3.83531">
        <ele>1083.34</ele>
        <time>2021-09-30T10:30:21Z</time>
      </trkpt>
      <trkpt lat="44.8049" lon="3.83538">
        <ele>1084.042</ele>
        <time>2021-09-30T10:31:01Z</time>
      </trkpt>
      <trkpt lat="44.8048" lon="3.8355">
        <ele>1084.94</ele>
        <time>2021-09-30T10:31:41Z</time>
      </trkpt>
      <trkpt lat="44.80474" lon="3.8356">
        <ele>1086.133</ele>
        <time>2021-09-30T10:32:21Z</time>
      </trkpt>
      <trkpt lat="44.80469" lon="3.8357">
        <ele>1088.035</ele>
        <time>2021-09-30T10:33:01Z</time>
      </trkpt>
      <trkpt lat="44.80468" lon="3.83573">
        <ele>1088.615</ele>
        <time>2021-09-30T10:33:41Z</time>
      </trkpt>
      <trkpt lat="44.80461" lon="3.83587">
        <ele>1091.047</ele>
        <time>2021-09-30T10:34:21Z</time>
      </trkpt>
      <trkpt lat="44.80459" lon="3.83593">
        <ele>1091.829</ele>
        <time>2021-09-30T10:35:01Z</time>
      </trkpt>
      <trkpt lat="44.80455" lon="3.836">
        <ele>1093.021</ele>
        <time>2021-09-30T10:35:41Z</time>
      </trkpt>
      <trkpt lat="44.80449" lon="3.8361">
        <ele>1094.408</ele>
        <time>2021-09-30T10:36:21Z</time>
      </trkpt>
      <trkpt lat="44.8044" lon="3.83628">
        <ele>1096.612</ele>
        <time>2021-09-30T10:37:01Z</time>
      </trkpt>
      <trkpt lat="44.80432" lon="3.83644">
        <ele>1098.048</ele>
        <time>2021-09-30T10:37:41Z</time>
      </trkpt>
      <trkpt lat="44.80424" lon="3.83655">
        <ele>1098.343</ele>
        <time>2021-09-30T10:38:21Z</time>
      </trkpt>
      <trkpt lat="44.80419" lon="3.83661">
        <ele>1098.685</ele>
        <time>2021-09-30T10:39:01Z</time>
      </trkpt>
      <trkpt lat="44.80415" lon="3.83668">
        <ele>1098.933</ele>
        <time>2021-09-30T10:39:41Z</time>
      </trkpt>
      <trkpt lat="44.80408" lon="3.8368">
        <ele>1099.026</ele>
        <time>2021-09-30T10:40:21Z</time>
      </trkpt>
      <trkpt lat="44.80401" lon="3.83694">
        <ele>1099.358</ele>
        <time>2021-09-30T10:41:01Z</time>
      </trkpt>
      <trkpt lat="44.80397" lon="3.83704">
        <ele>1099.278</ele>
        <time>2021-09-30T10:41:41Z</time>
      </trkpt>
      <trkpt lat="44.80395" lon="3.83708">
        <ele>1099.289</ele>
        <time>2021-09-30T10:42:21Z</time>
      </trkpt>
      <trkpt lat="44.8039" lon="3.83721">
        <ele>1099.106</ele>
        <time>2021-09-30T10:43:01Z</time>
      </trkpt>
      <trkpt lat="44.80388" lon="3.83731">
        <ele>1099.326</ele>
        <time>2021-09-30T10:43:41Z</time>
      </trkpt>
      <trkpt lat="44.80384" lon="3.83741">
        <ele>1099.508</ele>
        <time>2021-09-30T10:44:21Z</time>
      </trkpt>
      <trkpt lat="44.80379" lon="3.83754">
        <ele>1099.786</ele>
        <time>2021-09-30T10:45:01Z</time>
      </trkpt>
      <trkpt lat="44.80375" lon="3.83768">
        <ele>1100.272</ele>
        <time>2021-09-30T10:45:41Z</time>
      </trkpt>
      <trkpt lat="44.80373" lon="3.83781">
        <ele>1100.737</ele>
        <time>2021-09-30T10:46:21Z</time>
      </trkpt>
      <trkpt lat="44.80372" lon="3.83795">
        <ele>1101.099</ele>
        <time>2021-09-30T10:47:01Z</time>
      </trkpt>
      <trkpt lat="44.8037" lon="3.83808">
        <ele>1101.527</ele>
        <time>2021-09-30T10:47:41Z</time>
      </trkpt>
      <trkpt lat="44.80367" lon="3.83816">
        <ele>1102.13</ele>
        <time>2021-09-30T10:48:21Z</time>
      </trkpt>
      <trkpt lat="44.80362" lon="3.83826">
        <ele>1103.492</ele>
        <time>2021-09-30T10:49:01Z</time>
      </trkpt>
      <trkpt lat="44.80356" lon="3.83837">
        <ele>1104.612</ele>
        <time>2021-09-30T10:49:41Z</time>
      </trkpt>
      <trkpt lat="44.80352" lon="3.83846">
        <ele>1105.291</ele>
        <time>2021-09-30T10:50:21Z</time>
      </trkpt>
      <trkpt lat="44.80346" lon="3.83861">
        <ele>1106.281</ele>
        <time>2021-09-30T10:51:01Z</time>
      </trkpt>
      <trkpt lat="44.80343" lon="3.83867">
        <ele>1106.719</ele>
        <time>2021-09-30T10:51:41Z</time>
      </trkpt>
      <trkpt lat="44.80337" lon="3.83882">
        <ele>1108.108</ele>
        <time>2021-09-30T10:52:21Z</time>
      </trkpt>
      <trkpt lat="44.80328" lon="3.83905">
        <ele>1109.157</ele>
        <time>2021-09-30T10:53:01Z</time>
      </trkpt>
      <trkpt lat="44.80324" lon="3.83915">
        <ele>1109.443</ele>
        <time>2021-09-30T10:53:41Z</time>
      </trkpt>
      <trkpt lat="44.8032" lon="3.83923">
        <ele>1109.898</ele>
        <time>2021-09-30T10:54:21Z</time>
      </trkpt>
      <trkpt lat="44.80316" lon="3.83931">
        <ele>1110.16</ele>
        <time>2021-09-30T10:55:01Z</time>
      </trkpt>
      <trkpt lat="44.80311" lon="3.83944">
        <ele>1110.448</ele>
        <time>2021-09-30T10:55:41Z</time>
      </trkpt>
      <trkpt lat="44.80309" lon="3.83949">
        <ele>1110.811</ele>
        <time>2021-09-30T10:56:21Z</time>
      </trkpt>
      <trkpt lat="44.80303" lon="3.83961">
        <ele>1111.843</ele>
        <time>2021-09-30T10:57:01Z</time>
      </trkpt>
      <trkpt lat="44.80296" lon="3.83975">
        <ele>1113.273</ele>
        <time>2021-09-30T10:57:41Z</time>
      </trkpt>
      <trkpt lat="44.80287" lon="3.83991">
        <ele>1114.915</ele>
        <time>2021-09-30T10:58:21Z</time>
      </trkpt>
      <trkpt lat="44.80283" lon="3.84001">
        <ele>1115.765</ele>
        <time>2021-09-30T10:59:01Z</time>
      </trkpt>
      <trkpt lat="44.80277" lon="3.84016">
        <ele>1117.211</ele>
        <time>2021-09-30T10:59:41Z</time>
      </trkpt>
      <trkpt lat="44.80265" lon="3.84044">
        <ele>1119.808</ele>
        <time>2021-09-30T11:00:21Z</time>
      </trkpt>
      <trkpt lat="44.80261" lon="3.84054">
        <ele>1120.739</ele>
        <time>2021-09-30T11:01:01Z</time>
      </trkpt>
      <trkpt lat="44.80253" lon="3.84071">
        <ele>1122.285</ele>
        <time>2021-09-30T11:01:41Z</time>
      </trkpt>
      <trkpt lat="44.80245" lon="3.84092">
        <ele>1124.16</ele>
        <time>2021-09-30T11:02:21Z</time>
      </trkpt>
      <trkpt lat="44.80241" lon="3.84103">
        <ele>1125.132</ele>
        <time>2021-09-30T11:03:01Z</time>
      </trkpt>
      <trkpt lat="44.80235" lon="3.84122">
        <ele>1126.39</ele>
        <time>2021-09-30T11:03:41Z</time>
      </trkpt>
      <trkpt lat="44.80231" lon="3.84134">
        <ele>1126.923</ele>
        <time>2021-09-30T11:04:21Z</time>
      </trkpt>
      <trkpt lat="44.80227" lon="3.8415">
        <ele>1127.955</ele>
        <time>2021-09-30T11:05:01Z</time>
      </trkpt>
      <trkpt lat="44.80223" lon="3.84163">
        <ele>1128.885</ele>
        <time>2021-09-30T11:05:41Z</time>
      </trkpt>
      <trkpt lat="44.80216" lon="3.84189">
        <ele>1130.112</ele>
        <time>2021-09-30T11:06:21Z</time>
      </trkpt>
      <trkpt lat="44.80211" lon="3.8421">
        <ele>1132.132</ele>
        <time>2021-09-30T11:07:01Z</time>
      </trkpt>
      <trkpt lat="44.8021" lon="3.84219">
        <ele>1133.005</ele>
        <time>2021-09-30T11:07:41Z</time>
      </trkpt>
      <trkpt lat="44.80207" lon="3.84238">
        <ele>1135.508</ele>
        <time>2021-09-30T11:08:21Z</time>
      </trkpt>
      <trkpt lat="44.80204" lon="3.8426">
        <ele>1138.839</ele>
        <time>2021-09-30T11:09:01Z</time>
      </trkpt>
      <trkpt lat="44.80201" lon="3.8428">
        <ele>1141.585</ele>
        <time>2021-09-30T11:09:41Z</time>
      </trkpt>
      <trkpt lat="44.80197" lon="3.84303">
        <ele>1142.55</ele>
        <time>2021-09-30T11:10:21Z</time>
      </trkpt>
      <trkpt lat="44.80193" lon="3.84319">
        <ele>1143.162</ele>
        <time>2021-09-30T11:11:01Z</time>
      </trkpt>
      <trkpt lat="44.80186" lon="3.84334">
        <ele>1143.64</ele>
        <time>2021-09-30T11:11:41Z</time>
      </trkpt>
      <trkpt lat="44.80179" lon="3.84344">
        <ele>1144.183</ele>
        <time>2021-09-30T11:12:21Z</time>
      </trkpt>
      <trkpt lat="44.80176" lon="3.84349">
        <ele>1144.375</ele>
        <time>2021-09-30T11:13:01Z</time>
      </trkpt>
      <trkpt lat="44.80169" lon="3.84362">
        <ele>1144.935</ele>
        <time>2021-09-30T11:13:41Z</time>
      </trkpt>
      <trkpt lat="44.80162" lon="3.84378">
        <ele>1145.969</ele>
        <time>2021-09-30T11:14:21Z</time>
      </trkpt>
      <trkpt lat="44.80154" lon="3.844">
        <ele>1146.904</ele>
        <time>2021-09-30T11:15:01Z</time>
      </trkpt>
      <trkpt lat="44.80148" lon="3.84416">
        <ele>1147.424</ele>
        <time>2021-09-30T11:15:41Z</time>
      </trkpt>
      <trkpt lat="44.80145" lon="3.84423">
        <ele>1148.008</ele>
        <time>2021-09-30T11:16:21Z</time>
      </trkpt>
      <trkpt lat="44.80137" lon="3.84445">
        <ele>1150.224</ele>
        <time>2021-09-30T11:17:01Z</time>
      </trkpt>
      <trkpt lat="44.80133" lon="3.84457">
        <ele>1150.91</ele>
        <time>2021-09-30T11:17:41Z</time>
      </trkpt>
      <trkpt lat="44.8013" lon="3.84468">
        <ele>1151.585</ele>
        <time>2021-09-30T11:18:21Z</time>
      </trkpt>
      <trkpt lat="44.80126" lon="3.84485">
        <ele>1152.417</ele>
        <time>2021-09-30T11:19:01Z</time>
      </trkpt>
      <trkpt lat="44.8012" lon="3.84506">
        <ele>1153.025</ele>
        <time>2021-09-30T11:19:41Z</time>
      </trkpt>
      <trkpt lat="44.80112" lon="3.84526">
        <ele>1153.038</ele>
        <time>2021-09-30T11:20:21Z</time>
      </trkpt>
      <trkpt lat="44.80109" lon="3.84531">
        <ele>1153.01</ele>
        <time>2021-09-30T11:21:01Z</time>
      </trkpt>
      <trkpt lat="44.80106" lon="3.8454">
        <ele>1153.07</ele>
        <time>2021-09-30T11:21:41Z</time>
      </trkpt>
      <trkpt lat="44.80101" lon="3.8455">
        <ele>1153.022</ele>
        <time>2021-09-30T11:22:21Z</time>
      </trkpt>
      <trkpt lat="44.80098" lon="3.84563">
        <ele>1153.162</ele>
        <time>2021-09-30T11:23:01Z</time>
      </trkpt>
      <trkpt lat="44.80097" lon="3.8457">
        <ele>1153.208</ele>
        <time>2021-09-30T11:23:41Z</time>
      </trkpt>
      <trkpt lat="44.80095" lon="3.84581">
        <ele>1153.408</ele>
        <time>2021-09-30T11:24:21Z</time>
      </trkpt>
      <trkpt lat="44.80093" lon="3.84607">
        <ele>1153.13</ele>
        <time>2021-09-30T11:25:01Z</time>
      </trkpt>
      <trkpt lat="44.80091" lon="3.84628">
        <ele>1152.656</ele>
        <time>2021-09-30T11:25:41Z</time>
      </trkpt>
      <trkpt lat="44.80087" lon="3.84645">
        <ele>1151.921</ele>
        <time>2021-09-30T11:26:21Z</time>
      </trkpt>
      <trkpt lat="44.8008" lon="3.84661">
        <ele>1151.073</ele>
        <time>2021-09-30T11:27:01Z</time>
      </trkpt>
      <trkpt lat="44.80075" lon="3.84671">
        <ele>1150.221</ele>
        <time>2021-09-30T11:27:41Z</time>
      </trkpt>
      <trkpt lat="44.80069" lon="3.84683">
        <ele>1149.034</ele>
        <time>2021-09-30T11:28:21Z</time>
      </trkpt>
      <trkpt lat="44.80065" lon="3.84699">
        <ele>1147.826</ele>
        <time>2021-09-30T11:29:01Z</time>
      </trkpt>
      <trkpt lat="44.80065" lon="3.8472">
        <ele>1146.536</ele>
        <time>2021-09-30T11:29:41Z</time>
      </trkpt>
      <trkpt lat="44.80066" lon="3.84737">
        <ele>1146.569</ele>
        <time>2021-09-30T11:30:21Z</time>
      </trkpt>
      <trkpt lat="44.80066" lon="3.84743">
        <ele>1146.504</ele>
        <time>2021-09-30T11:31:01Z</time>
      </trkpt>
      <trkpt lat="44.80066" lon="3.84756">
        <ele>1146.424</ele>
        <time>2021-09-30T11:31:41Z</time>
      </trkpt>
      <trkpt lat="44.80066" lon="3.84779">
        <ele>1146.008</ele>
        <time>2021-09-30T11:32:21Z</time>
      </trkpt>
      <trkpt lat="44.80066" lon="3.84788">
        <ele>1145.894</ele>
        <time>2021-09-30T11:33:01Z</time>
      </trkpt>
      <trkpt lat="44.80067" lon="3.84801">
        <ele>1145.44</ele>
        <time>2021-09-30T11:33:41Z</time>
      </trkpt>
      <trkpt lat="44.80068" lon="3.84816">
        <ele>1145.375</ele>
        <time>2021-09-30T11:34:21Z</time>
      </trkpt>
      <trkpt lat="44.80069" lon="3.84827">
        <ele>1145.417</ele>
        <time>2021-09-30T11:35:01Z</time>
      </trkpt>
      <trkpt lat="44.8007" lon="3.8484">
        <ele>1145.335</ele>
        <time>2021-09-30T11:35:41Z</time>
      </trkpt>
      <trkpt lat="44.80071" lon="3.84848">
        <ele>1145.358</ele>
        <time>2021-09-30T11:36:21Z</time>
      </trkpt>
      <trkpt lat="44.80074" lon="3.84874">
        <ele>1145.59</ele>
        <time>2021-09-30T11:37:01Z</time>
      </trkpt>
      <trkpt lat="44.80076" lon="3.84895">
        <ele>1145.34</ele>
        <time>2021-09-30T11:37:41Z</time>
      </trkpt>
      <trkpt lat="44.80077" lon="3.84915">
        <ele>1144.258</ele>
        <time>2021-09-30T11:38:21Z</time>
      </trkpt>
      <trkpt lat="44.80079" lon="3.84938">
        <ele>1143.752</ele>
        <time>2021-09-30T11:39:01Z</time>
      </trkpt>
      <trkpt lat="44.8008" lon="3.84955">
        <ele>1143.317</ele>
        <time>2021-09-30T11:39:41Z</time>
      </trkpt>
      <trkpt lat="44.80081" lon="3.84978">
        <ele>1142.208</ele>
        <time>2021-09-30T11:40:21Z</time>
      </trkpt>
      <trkpt lat="44.80081" lon="3.84997">
        <ele>1140.183</ele>
        <time>2021-09-30T11:41:01Z</time>
      </trkpt>
      <trkpt lat="44.80079" lon="3.85011">
        <ele>1139.349</ele>
        <time>2021-09-30T11:41:41Z</time>
      </trkpt>
      <trkpt lat="44.80078" lon="3.85018">
        <ele>1139.054</ele>
        <time>2021-09-30T11:42:21Z</time>
      </trkpt>
      <trkpt lat="44.80076" lon="3.8503">
        <ele>1138.566</ele>
        <time>2021-09-30T11:43:01Z</time>
      </trkpt>
      <trkpt lat="44.80072" lon="3.85043">
        <ele>1138.694</ele>
        <time>2021-09-30T11:43:41Z</time>
      </trkpt>
      <trkpt lat="44.80067" lon="3.85054">
        <ele>1138.977</ele>
        <time>2021-09-30T11:44:21Z</time>
      </trkpt>
      <trkpt lat="44.8007" lon="3.85064">
        <ele>1139.199</ele>
        <time>2021-09-30T11:45:01Z</time>
      </trkpt>
      <trkpt lat="44.80076" lon="3.85079">
        <ele>1139.229</ele>
        <time>2021-09-30T11:45:41Z</time>
      </trkpt>
      <trkpt lat="44.80065" lon="3.85095">
        <ele>1140.476</ele>
        <time>2021-09-30T11:46:21Z</time>
      </trkpt>
      <trkpt lat="44.80056" lon="3.8511">
        <ele>1141.99</ele>
        <time>2021-09-30T11:47:01Z</time>
      </trkpt>
      <trkpt lat="44.80048" lon="3.85121">
        <ele>1142.619</ele>
        <time>2021-09-30T11:47:41Z</time>
      </trkpt>
      <trkpt lat="44.8003" lon="3.85145">
        <ele>1143.508</ele>
        <time>2021-09-30T11:48:21Z</time>
      </trkpt>
      <trkpt lat="44.80023" lon="3.85152">
        <ele>1143.845</ele>
        <time>2021-09-30T11:49:01Z</time>
      </trkpt>
      <trkpt lat="44.8002" lon="3.85156">
        <ele>1143.981</ele>
        <time>2021-09-30T11:49:41Z</time>
      </trkpt>
      <trkpt lat="44.80014" lon="3.85159">
        <ele>1143.726</ele>
        <time>2021-09-30T11:50:21Z</time>
      </trkpt>
      <trkpt lat="44.80009" lon="3.85159">
        <ele>1143.518</ele>
        <time>2021-09-30T11:51:01Z</time>
      </trkpt>
      <trkpt lat="44.80003" lon="3.85171">
        <ele>1143.496</ele>
        <time>2021-09-30T11:51:41Z</time>
      </trkpt>
      <trkpt lat="44.79993" lon="3.85186">
        <ele>1143.399</ele>
        <time>2021-09-30T11:52:21Z</time>
      </trkpt>
      <trkpt lat="44.7998" lon="3.85206">
        <ele>1144.151</ele>
        <time>2021-09-30T11:53:01Z</time>
      </trkpt>
      <trkpt lat="44.79972" lon="3.85218">
        <ele>1144.741</ele>
        <time>2021-09-30T11:53:41Z</time>
      </trkpt>
      <trkpt lat="44.7997" lon="3.85222">
        <ele>1144.726</ele>
        <time>2021-09-30T11:54:21Z</time>
      </trkpt>
      <trkpt lat="44.7996" lon="3.85236">
        <ele>1144.747</ele>
        <time>2021-09-30T11:55:01Z</time>
      </trkpt>
      <trkpt lat="44.79948" lon="3.85254">
        <ele>1144.811</ele>
        <time>2021-09-30T11:55:41Z</time>
      </trkpt>
      <trkpt lat="44.79943" lon="3.85261">
        <ele>1145.008</ele>
        <time>2021-09-30T11:56:21Z</time>
      </trkpt>
      <trkpt lat="44.79934" lon="3.85273">
        <ele>1145.06</ele>
        <time>2021-09-30T11:57:01Z</time>
      </trkpt>
      <trkpt lat="44.79926" lon="3.85283">
        <ele>1144.716</ele>
        <time>2021-09-30T11:57:41Z</time>
      </trkpt>
      <trkpt lat="44.79919" lon="3.85292">
        <ele>1144.361</ele>
        <time>2021-09-30T11:58:21Z</time>
      </trkpt>
      <trkpt lat="44.79912" lon="3.85301">
        <ele>1144.763</ele>
        <time>2021-09-30T11:59:01Z</time>
      </trkpt>
      <trkpt lat="44.79902" lon="3.8531">
        <ele>1145.441</ele>
        <time>2021-09-30T11:59:41Z</time>
      </trkpt>
      <trkpt lat="44.79894" lon="3.85318">
        <ele>1145.974</ele>
        <time>2021-09-30T12:00:21Z</time>
      </trkpt>
      <trkpt lat="44.7989" lon="3.85321">
        <ele>1146.176</ele>
        <time>2021-09-30T12:01:01Z</time>
      </trkpt>
      <trkpt lat="44.79884" lon="3.85327">
        <ele>1146.316</ele>
        <time>2021-09-30T12:01:41Z</time>
      </trkpt>
      <trkpt lat="44.79874" lon="3.85336">
        <ele>1146.759</ele>
        <time>2021-09-30T12:02:21Z</time>
      </trkpt>
      <trkpt lat="44.79866" lon="3.85343">
        <ele>1147.203</ele>
        <time>2021-09-30T12:03:01Z</time>
      </trkpt>
      <trkpt lat="44.7986" lon="3.85349">
        <ele>1147.523</ele>
        <time>2021-09-30T12:03:41Z</time>
      </trkpt>
      <trkpt lat="44.79856" lon="3.85353">
        <ele>1147.408</ele>
        <time>2021-09-30T12:04:21Z</time>
      </trkpt>
      <trkpt lat="44.79846" lon="3.85363">
        <ele>1147.063</ele>
        <time>2021-09-30T12:05:01Z</time>
      </trkpt>
      <trkpt lat="44.79838" lon="3.8537">
        <ele>1146.979</ele>
        <time>2021-09-30T12:05:41Z</time>
      </trkpt>
      <trkpt lat="44.79831" lon="3.85378">
        <ele>1147.164</ele>
        <time>2021-09-30T12:06:21Z</time>
      </trkpt>
      <trkpt lat="44.79817" lon="3.8539">
        <ele>1148.096</ele>
        <time>2021-09-30T12:07:01Z</time>
      </trkpt>
      <trkpt lat="44.79805" lon="3.854">
        <ele>1148.994</ele>
        <time>2021-09-30T12:07:41Z</time>
      </trkpt>
      <trkpt lat="44.79798" lon="3.85405">
        <ele>1148.887</ele>
        <time>2021-09-30T12:08:21Z</time>
      </trkpt>
      <trkpt lat="44.7979" lon="3.85413">
        <ele>1149.059</ele>
        <time>2021-09-30T12:09:01Z</time>
      </trkpt>
      <trkpt lat="44.79776" lon="3.85425">
        <ele>1149.059</ele>
        <time>2021-09-30T12:09:41Z</time>
      </trkpt>
      <trkpt lat="44.79765" lon="3.85438">
        <ele>1149.285</ele>
        <time>2021-09-30T12:10:21Z</time>
      </trkpt>
      <trkpt lat="44.79754" lon="3.85451">
        <ele>1149.489</ele>
        <time>2021-09-30T12:11:01Z</time>
      </trkpt>
      <trkpt lat="44.79744" lon="3.85461">
        <ele>1149.817</ele>
        <time>2021-09-30T12:11:41Z</time>
      </trkpt>
      <trkpt lat="44.79733" lon="3.85476">
        <ele>1150.608</ele>
        <time>2021-09-30T12:12:21Z</time>
      </trkpt>
      <trkpt lat="44.79724" lon="3.85493">
        <ele>1151.416</ele>
        <time>2021-09-30T12:13:01Z</time>
      </trkpt>
      <trkpt lat="44.7972" lon="3.855">
        <ele>1151.772</ele>
        <time>2021-09-30T12:13:41Z</time>
      </trkpt>
      <trkpt lat="44.79713" lon="3.85513">
        <ele>1152.457</ele>
        <time>2021-09-30T12:14:21Z</time>
      </trkpt>
      <trkpt lat="44.79701" lon="3.85524">
        <ele>1152.349</ele>
        <time>2021-09-30T12:15:01Z</time>
      </trkpt>
      <trkpt lat="44.79691" lon="3.85531">
        <ele>1152.387</ele>
        <time>2021-09-30T12:15:41Z</time>
      </trkpt>
      <trkpt lat="44.79679" lon="3.85536">
        <ele>1152.69</ele>
        <time>2021-09-30T12:16:21Z</time>
      </trkpt>
      <trkpt lat="44.79675" lon="3.85538">
        <ele>1152.752</ele>
        <time>2021-09-30T12:17:01Z</time>
      </trkpt>
      <trkpt lat="44.7967" lon="3.8554">
        <ele>1152.932</ele>
        <time>2021-09-30T12:17:41Z</time>
      </trkpt>
      <trkpt lat="44.79656" lon="3.85546">
        <ele>1153.192</ele>
        <time>2021-09-30T12:18:21Z</time>
      </trkpt>
      <trkpt lat="44.79644" lon="3.85555">
        <ele>1153.373</ele>
        <time>2021-09-30T12:19:01Z</time>
      </trkpt>
      <trkpt lat="44.79636" lon="3.85562">
        <ele>1153.82</ele>
        <time>2021-09-30T12:19:41Z</time>
      </trkpt>
      <trkpt lat="44.79625" lon="3.85572">
        <ele>1154.808</ele>
        <time>2021-09-30T12:20:21Z</time>
      </trkpt>
      <trkpt lat="44.79622" lon="3.85574">
        <ele>1155.067</ele>
        <time>2021-09-30T12:21:01Z</time>
      </trkpt>
      <trkpt lat="44.79611" lon="3.85582">
        <ele>1155.863</ele>
        <time>2021-09-30T12:21:41Z</time>
      </trkpt>
      <trkpt lat="44.79607" lon="3.85585">
        <ele>1155.788</ele>
        <time>2021-09-30T12:22:21Z</time>
      </trkpt>
      <trkpt lat="44.79594" lon="3.85594">
        <ele>1155.04</ele>
        <time>2021-09-30T12:23:01Z</time>
      </trkpt>
      <trkpt lat="44.79586" lon="3.85602">
        <ele>1154.688</ele>
        <time>2021-09-30T12:23:41Z</time>
      </trkpt>
      <trkpt lat="44.79576" lon="3.85611">
        <ele>1153.411</ele>
        <time>2021-09-30T12:24:21Z</time>
      </trkpt>
      <trkpt lat="44.79566" lon="3.8562">
        <ele>1152.073</ele>
        <time>2021-09-30T12:25:01Z</time>
      </trkpt>
      <trkpt lat="44.79555" lon="3.85627">
        <ele>1150.763</ele>
        <time>2021-09-30T12:25:41Z</time>
      </trkpt>
      <trkpt lat="44.79545" lon="3.85634">
        <ele>1150.713</ele>
        <time>2021-09-30T12:26:21Z</time>
      </trkpt>
      <trkpt lat="44.79542" lon="3.85637">
        <ele>1150.843</ele>
        <time>2021-09-30T12:27:01Z</time>
      </trkpt>
      <trkpt lat="44.79533" lon="3.85643">
        <ele>1150.707</ele>
        <time>2021-09-30T12:27:41Z</time>
      </trkpt>
      <trkpt lat="44.79523" lon="3.85651">
        <ele>1150.408</ele>
        <time>2021-09-30T12:28:21Z</time>
      </trkpt>
      <trkpt lat="44.79517" lon="3.85656">
        <ele>1150.249</ele>
        <time>2021-09-30T12:29:01Z</time>
      </trkpt>
      <trkpt lat="44.79506" lon="3.85667">
        <ele>1149.635</ele>
        <time>2021-09-30T12:29:41Z</time>
      </trkpt>
      <trkpt lat="44.79501" lon="3.85672">
        <ele>1149.35</ele>
        <time>2021-09-30T12:30:21Z</time>
      </trkpt>
      <trkpt lat="44.79491" lon="3.85684">
        <ele>1149.292</ele>
        <time>2021-09-30T12:31:01Z</time>
      </trkpt>
      <trkpt lat="44.7948" lon="3.85702">
        <ele>1149.66</ele>
        <time>2021-09-30T12:31:41Z</time>
      </trkpt>
      <trkpt lat="44.79472" lon="3.85717">
        <ele>1149.893</ele>
        <time>2021-09-30T12:32:21Z</time>
      </trkpt>
      <trkpt lat="44.79465" lon="3.85729">
        <ele>1150.745</ele>
        <time>2021-09-30T12:33:01Z</time>
      </trkpt>
      <trkpt lat="44.79461" lon="3.85735">
        <ele>1151.195</ele>
        <time>2021-09-30T12:33:41Z</time>
      </trkpt>
      <trkpt lat="44.79451" lon="3.85751">
        <ele>1152.073</ele>
        <time>2021-09-30T12:34:21Z</time>
      </trkpt>
      <trkpt lat="44.79444" lon="3.85765">
        <ele>1152.085</ele>
        <time>2021-09-30T12:35:01Z</time>
      </trkpt>
      <trkpt lat="44.79435" lon="3.85781">
        <ele>1152.213</ele>
        <time>2021-09-30T12:35:41Z</time>
      </trkpt>
      <trkpt lat="44.79429" lon="3.85791">
        <ele>1152.708</ele>
        <time>2021-09-30T12:36:21Z</time>
      </trkpt>
      <trkpt lat="44.79424" lon="3.858">
        <ele>1153.035</ele>
        <time>2021-09-30T12:37:01Z</time>
      </trkpt>
      <trkpt lat="44.79422" lon="3.85803">
        <ele>1153.111</ele>
        <time>2021-09-30T12:37:41Z</time>
      </trkpt>
      <trkpt lat="44.79412" lon="3.85817">
        <ele>1153.346</ele>
        <time>2021-09-30T12:38:21Z</time>
      </trkpt>
      <trkpt lat="44.79409" lon="3.85821">
        <ele>1153.398</ele>
        <time>2021-09-30T12:39:01Z</time>
      </trkpt>
      <trkpt lat="44.79398" lon="3.85834">
        <ele>1153.476</ele>
        <time>2021-09-30T12:39:41Z</time>
      </trkpt>
      <trkpt lat="44.79391" lon="3.85842">
        <ele>1153.459</ele>
        <time>2021-09-30T12:40:21Z</time>
      </trkpt>
      <trkpt lat="44.79384" lon="3.85851">
        <ele>1153.991</ele>
        <time>2021-09-30T12:41:01Z</time>
      </trkpt>
      <trkpt lat="44.79374" lon="3.85862">
        <ele>1155.131</ele>
        <time>2021-09-30T12:41:41Z</time>
      </trkpt>
      <trkpt lat="44.79365" lon="3.85868">
        <ele>1156.048</ele>
        <time>2021-09-30T12:42:21Z</time>
      </trkpt>
      <trkpt lat="44.79363" lon="3.8587">
        <ele>1156.261</ele>
        <time>2021-09-30T12:43:01Z</time>
      </trkpt>
      <trkpt lat="44.79358" lon="3.85874">
        <ele>1156.617</ele>
        <time>2021-09-30T12:43:41Z</time>
      </trkpt>
      <trkpt lat="44.79355" lon="3.85877">
        <ele>1156.908</ele>
        <time>2021-09-30T12:44:21Z</time>
      </trkpt>
      <trkpt lat="44.79353" lon="3.85872">
        <ele>1156.892</ele>
        <time>2021-09-30T12:45:01Z</time>
      </trkpt>
      <trkpt lat="44.79346" lon="3.85868">
        <ele>1157.048</ele>
        <time>2021-09-30T12:45:41Z</time>
      </trkpt>
      <trkpt lat="44.7934" lon="3.85867">
        <ele>1157.293</ele>
        <time>2021-09-30T12:46:21Z</time>
      </trkpt>
      <trkpt lat="44.79331" lon="3.8587">
        <ele>1157.835</ele>
        <time>2021-09-30T12:47:01Z</time>
      </trkpt>
      <trkpt lat="44.79326" lon="3.85872">
        <ele>1158.193</ele>
        <time>2021-09-30T12:47:41Z</time>
      </trkpt>
      <trkpt lat="44.79321" lon="3.85873">
        <ele>1158.496</ele>
        <time>2021-09-30T12:48:21Z</time>
      </trkpt>
      <trkpt lat="44.7931" lon="3.85878">
        <ele>1158.948</ele>
        <time>2021-09-30T12:49:01Z</time>
      </trkpt>
      <trkpt lat="44.79297" lon="3.85883">
        <ele>1158.798</ele>
        <time>2021-09-30T12:49:41Z</time>
      </trkpt>
      <trkpt lat="44.7929" lon="3.85885">
        <ele>1158.462</ele>
        <time>2021-09-30T12:50:21Z</time>
      </trkpt>
      <trkpt lat="44.79278" lon="3.85887">
        <ele>1158.083</ele>
        <time>2021-09-30T12:51:01Z</time>
      </trkpt>
      <trkpt lat="44.79266" lon="3.85887">
        <ele>1157.511</ele>
        <time>2021-09-30T12:51:41Z</time>
      </trkpt>
      <trkpt lat="44.7925" lon="3.85883">
        <ele>1156.808</ele>
        <time>2021-09-30T12:52:21Z</time>
      </trkpt>
      <trkpt lat="44.79238" lon="3.8588">
        <ele>1157.054</ele>
        <time>2021-09-30T12:53:01Z</time>
      </trkpt>
      <trkpt lat="44.79226" lon="3.85877">
        <ele>1157.06</ele>
        <time>2021-09-30T12:53:41Z</time>
      </trkpt>
      <trkpt lat="44.79218" lon="3.85875">
        <ele>1157.135</ele>
        <time>2021-09-30T12:54:21Z</time>
      </trkpt>
      <trkpt lat="44.79206" lon="3.85872">
        <ele>1157.297</ele>
        <time>2021-09-30T12:55:01Z</time>
      </trkpt>
      <trkpt lat="44.79199" lon="3.85872">
        <ele>1157.365</ele>
        <time>2021-09-30T12:55:41Z</time>
      </trkpt>
      <trkpt lat="44.79188" lon="3.85872">
        <ele>1157.298</ele>
        <time>2021-09-30T12:56:21Z</time>
      </trkpt>
      <trkpt lat="44.79178" lon="3.85874">
        <ele>1156.94</ele>
        <time>2021-09-30T12:57:01Z</time>
      </trkpt>
      <trkpt lat="44.79168" lon="3.85876">
        <ele>1156.62</ele>
        <time>2021-09-30T12:57:41Z</time>
      </trkpt>
      <trkpt lat="44.79162" lon="3.85877">
        <ele>1156.522</ele>
        <time>2021-09-30T12:58:21Z</time>
      </trkpt>
      <trkpt lat="44.7915" lon="3.85878">
        <ele>1156.462</ele>
        <time>2021-09-30T12:59:01Z</time>
      </trkpt>
      <trkpt lat="44.79145" lon="3.85881">
        <ele>1156.508</ele>
        <time>2021-09-30T12:59:41Z</time>
      </trkpt>
      <trkpt lat="44.79134" lon="3.85886">
        <ele>1156.608</ele>
        <time>2021-09-30T13:00:21Z</time>
      </trkpt>
      <trkpt lat="44.79127" lon="3.8589">
        <ele>1156.78</ele>
        <time>2021-09-30T13:01:01Z</time>
      </trkpt>
      <trkpt lat="44.7912" lon="3.85894">
        <ele>1156.896</ele>
        <time>2021-09-30T13:01:41Z</time>
      </trkpt>
      <trkpt lat="44.79108" lon="3.85899">
        <ele>1157.221</ele>
        <time>2021-09-30T13:02:21Z</time>
      </trkpt>
      <trkpt lat="44.79096" lon="3.85903">
        <ele>1158.193</ele>
        <time>2021-09-30T13:03:01Z</time>
      </trkpt>
      <trkpt lat="44.79093" lon="3.85904">
        <ele>1158.341</ele>
        <time>2021-09-30T13:03:41Z</time>
      </trkpt>
      <trkpt lat="44.79078" lon="3.85908">
        <ele>1159.094</ele>
        <time>2021-09-30T13:04:21Z</time>
      </trkpt>
      <trkpt lat="44.79073" lon="3.85909">
        <ele>1159.266</ele>
        <time>2021-09-30T13:05:01Z</time>
      </trkpt>
      <trkpt lat="44.7907" lon="3.8591">
        <ele>1159.266</ele>
        <time>2021-09-30T13:05:41Z</time>
      </trkpt>
      <trkpt lat="44.7906" lon="3.85913">
        <ele>1159.682</ele>
        <time>2021-09-30T13:06:21Z</time>
      </trkpt>
      <trkpt lat="44.79047" lon="3.85916">
        <ele>1159.343</ele>
        <time>2021-09-30T13:07:01Z</time>
      </trkpt>
      <trkpt lat="44.79033" lon="3.85924">
        <ele>1158.917</ele>
        <time>2021-09-30T13:07:41Z</time>
      </trkpt>
      <trkpt lat="44.79027" lon="3.85926">
        <ele>1158.608</ele>
        <time>2021-09-30T13:08:21Z</time>
      </trkpt>
      <trkpt lat="44.7902" lon="3.85929">
        <ele>1157.576</ele>
        <time>2021-09-30T13:09:01Z</time>
      </trkpt>
      <trkpt lat="44.79015" lon="3.85932">
        <ele>1156.822</ele>
        <time>2021-09-30T13:09:41Z</time>
      </trkpt>
      <trkpt lat="44.79006" lon="3.85936">
        <ele>1155.927</ele>
        <time>2021-09-30T13:10:21Z</time>
      </trkpt>
      <trkpt lat="44.78999" lon="3.85942">
        <ele>1155.559</ele>
        <time>2021-09-30T13:11:01Z</time>
      </trkpt>
      <trkpt lat="44.78992" lon="3.85947">
        <ele>1155.147</ele>
        <time>2021-09-30T13:11:41Z</time>
      </trkpt>
      <trkpt lat="44.78985" lon="3.85952">
        <ele>1154.72</ele>
        <time>2021-09-30T13:12:21Z</time>
      </trkpt>
      <trkpt lat="44.78976" lon="3.85961">
        <ele>1154.772</ele>
        <time>2021-09-30T13:13:01Z</time>
      </trkpt>
      <trkpt lat="44.78969" lon="3.85968">
        <ele>1154.772</ele>
        <time>2021-09-30T13:13:41Z</time>
      </trkpt>
      <trkpt lat="44.78963" lon="3.8598">
        <ele>1154.926</ele>
        <time>2021-09-30T13:14:21Z</time>
      </trkpt>
      <trkpt lat="44.78961" lon="3.85994">
        <ele>1155.647</ele>
        <time>2021-09-30T13:15:01Z</time>
      </trkpt>
      <trkpt lat="44.78963" lon="3.8602">
        <ele>1156.111</ele>
        <time>2021-09-30T13:15:41Z</time>
      </trkpt>
      <trkpt lat="44.78962" lon="3.86039">
        <ele>1155.308</ele>
        <time>2021-09-30T13:16:21Z</time>
      </trkpt>
      <trkpt lat="44.78961" lon="3.8606">
        <ele>1154.23</ele>
        <time>2021-09-30T13:17:01Z</time>
      </trkpt>
      <trkpt lat="44.78959" lon="3.86067">
        <ele>1153.876</ele>
        <time>2021-09-30T13:17:41Z</time>
      </trkpt>
      <trkpt lat="44.78955" lon="3.8608">
        <ele>1153.321</ele>
        <time>2021-09-30T13:18:21Z</time>
      </trkpt>
      <trkpt lat="44.78952" lon="3.86085">
        <ele>1153.143</ele>
        <time>2021-09-30T13:19:01Z</time>
      </trkpt>
      <trkpt lat="44.78946" lon="3.86095">
        <ele>1152.641</ele>
        <time>2021-09-30T13:19:41Z</time>
      </trkpt>
      <trkpt lat="44.78943" lon="3.86098">
        <ele>1152.524</ele>
        <time>2021-09-30T13:20:21Z</time>
      </trkpt>
      <trkpt lat="44.78937" lon="3.86104">
        <ele>1152.826</ele>
        <time>2021-09-30T13:21:01Z</time>
      </trkpt>
      <trkpt lat="44.78933" lon="3.86105">
        <ele>1152.966</ele>
        <time>2021-09-30T13:21:41Z</time>
      </trkpt>
      <trkpt lat="44.78928" lon="3.86103">
        <ele>1152.824</ele>
        <time>2021-09-30T13:22:21Z</time>
      </trkpt>
      <trkpt lat="44.78921" lon="3.86093">
        <ele>1151.504</ele>
        <time>2021-09-30T13:23:01Z</time>
      </trkpt>
      <trkpt lat="44.78913" lon="3.86084">
        <ele>1150.414</ele>
        <time>2021-09-30T13:23:41Z</time>
      </trkpt>
      <trkpt lat="44.78907" lon="3.86077">
        <ele>1150.208</ele>
        <time>2021-09-30T13:24:21Z</time>
      </trkpt>
      <trkpt lat="44.78904" lon="3.86073">
        <ele>1150.19</ele>
        <time>2021-09-30T13:25:01Z</time>
      </trkpt>
      <trkpt lat="44.78898" lon="3.86066">
        <ele>1149.796</ele>
        <time>2021-09-30T13:25:41Z</time>
      </trkpt>
      <trkpt lat="44.78892" lon="3.86059">
        <ele>1149.311</ele>
        <time>2021-09-30T13:26:21Z</time>
      </trkpt>
      <trkpt lat="44.78886" lon="3.86055">
        <ele>1149.483</ele>
        <time>2021-09-30T13:27:01Z</time>
      </trkpt>
      <trkpt lat="44.78884" lon="3.86052">
        <ele>1149.721</ele>
        <time>2021-09-30T13:27:41Z</time>
      </trkpt>
      <trkpt lat="44.78879" lon="3.86047">
        <ele>1150.014</ele>
        <time>2021-09-30T13:28:21Z</time>
      </trkpt>
      <trkpt lat="44.78877" lon="3.86046">
        <ele>1150.316</ele>
        <time>2021-09-30T13:29:01Z</time>
      </trkpt>
      <trkpt lat="44.7887" lon="3.86041">
        <ele>1151.036</ele>
        <time>2021-09-30T13:29:41Z</time>
      </trkpt>
      <trkpt lat="44.78864" lon="3.86037">
        <ele>1151.532</ele>
        <time>2021-09-30T13:30:21Z</time>
      </trkpt>
      <trkpt lat="44.78857" lon="3.86047">
        <ele>1153.492</ele>
        <time>2021-09-30T13:31:01Z</time>
      </trkpt>
      <trkpt lat="44.78852" lon="3.86054">
        <ele>1154.411</ele>
        <time>2021-09-30T13:31:41Z</time>
      </trkpt>
      <trkpt lat="44.78846" lon="3.86056">
        <ele>1155.208</ele>
        <time>2021-09-30T13:32:21Z</time>
      </trkpt>
      <trkpt lat="44.78838" lon="3.8606">
        <ele>1156.281</ele>
        <time>2021-09-30T13:33:01Z</time>
      </trkpt>
      <trkpt lat="44.78829" lon="3.86065">
        <ele>1157.727</ele>
        <time>2021-09-30T13:33:41Z</time>
      </trkpt>
      <trkpt lat="44.78822" lon="3.8607">
        <ele>1158.932</ele>
        <time>2021-09-30T13:34:21Z</time>
      </trkpt>
      <trkpt lat="44.78819" lon="3.86071">
        <ele>1159.244</ele>
        <time>2021-09-30T13:35:01Z</time>
      </trkpt>
      <trkpt lat="44.7881" lon="3.86074">
        <ele>1160.332</ele>
        <time>2021-09-30T13:35:41Z</time>
      </trkpt>
      <trkpt lat="44.78804" lon="3.86077">
        <ele>1161.245</ele>
        <time>2021-09-30T13:36:21Z</time>
      </trkpt>
      <trkpt lat="44.78797" lon="3.86081">
        <ele>1162.577</ele>
        <time>2021-09-30T13:37:01Z</time>
      </trkpt>
      <trkpt lat="44.78795" lon="3.86083">
        <ele>1163.287</ele>
        <time>2021-09-30T13:37:41Z</time>
      </trkpt>
      <trkpt lat="44.78786" lon="3.86093">
        <ele>1165.862</ele>
        <time>2021-09-30T13:38:21Z</time>
      </trkpt>
      <trkpt lat="44.78773" lon="3.86106">
        <ele>1169.583</ele>
        <time>2021-09-30T13:39:01Z</time>
      </trkpt>
      <trkpt lat="44.78768" lon="3.86112">
        <ele>1170.811</ele>
        <time>2021-09-30T13:39:41Z</time>
      </trkpt>
      <trkpt lat="44.78759" lon="3.8612">
        <ele>1172.708</ele>
        <time>2021-09-30T13:40:21Z</time>
      </trkpt>
      <trkpt lat="44.78748" lon="3.86133">
        <ele>1175.744</ele>
        <time>2021-09-30T13:41:01Z</time>
      </trkpt>
      <trkpt lat="44.78737" lon="3.86141">
        <ele>1176.36</ele>
        <time>2021-09-30T13:41:41Z</time>
      </trkpt>
      <trkpt lat="44.78726" lon="3.86146">
        <ele>1176.255</ele>
        <time>2021-09-30T13:42:21Z</time>
      </trkpt>
      <trkpt lat="44.78724" lon="3.86151">
        <ele>1176.857</ele>
        <time>2021-09-30T13:43:01Z</time>
      </trkpt>
      <trkpt lat="44.78719" lon="3.86159">
        <ele>1177.715</ele>
        <time>2021-09-30T13:43:41Z</time>
      </trkpt>
      <trkpt lat="44.78715" lon="3.86166">
        <ele>1178.728</ele>
        <time>2021-09-30T13:44:21Z</time>
      </trkpt>
      <trkpt lat="44.78714" lon="3.86178">
        <ele>1179.54</ele>
        <time>2021-09-30T13:45:01Z</time>
      </trkpt>
      <trkpt lat="44.78711" lon="3.86188">
        <ele>1180.15</ele>
        <time>2021-09-30T13:45:41Z</time>
      </trkpt>
      <trkpt lat="44.78705" lon="3.86199">
        <ele>1180.624</ele>
        <time>2021-09-30T13:46:21Z</time>
      </trkpt>
      <trkpt lat="44.78699" lon="3.86213">
        <ele>1181.404</ele>
        <time>2021-09-30T13:47:01Z</time>
      </trkpt>
      <trkpt lat="44.78691" lon="3.86235">
        <ele>1183.214</ele>
        <time>2021-09-30T13:47:41Z</time>
      </trkpt>
      <trkpt lat="44.78686" lon="3.86246">
        <ele>1184.308</ele>
        <time>2021-09-30T13:48:21Z</time>
      </trkpt>
      <trkpt lat="44.78681" lon="3.8626">
        <ele>1185.04</ele>
        <time>2021-09-30T13:49:01Z</time>
      </trkpt>
      <trkpt lat="44.78675" lon="3.86275">
        <ele>1185.866</ele>
        <time>2021-09-30T13:49:41Z</time>
      </trkpt>
      <trkpt lat="44.78667" lon="3.86293">
        <ele>1186.561</ele>
        <time>2021-09-30T13:50:21Z</time>
      </trkpt>
      <trkpt lat="44.78661" lon="3.86305">
        <ele>1187.053</ele>
        <time>2021-09-30T13:51:01Z</time>
      </trkpt>
      <trkpt lat="44.78656" lon="3.86317">
        <ele>1188.231</ele>
        <time>2021-09-30T13:51:41Z</time>
      </trkpt>
      <trkpt lat="44.78653" lon="3.86326">
        <ele>1189.284</ele>
        <time>2021-09-30T13:52:21Z</time>
      </trkpt>
      <trkpt lat="44.78648" lon="3.86339">
        <ele>1190.646</ele>
        <time>2021-09-30T13:53:01Z</time>
      </trkpt>
      <trkpt lat="44.78645" lon="3.86348">
        <ele>1191.786</ele>
        <time>2021-09-30T13:53:41Z</time>
      </trkpt>
      <trkpt lat="44.7864" lon="3.86352">
        <ele>1192.128</ele>
        <time>2021-09-30T13:54:21Z</time>
      </trkpt>
      <trkpt lat="44.78634" lon="3.86362">
        <ele>1192.689</ele>
        <time>2021-09-30T13:55:01Z</time>
      </trkpt>
      <trkpt lat="44.7863" lon="3.8637">
        <ele>1192.817</ele>
        <time>2021-09-30T13:55:41Z</time>
      </trkpt>
      <trkpt lat="44.78626" lon="3.86381">
        <ele>1193.108</ele>
        <time>2021-09-30T13:56:21Z</time>
      </trkpt>
      <trkpt lat="44.7862" lon="3.86396">
        <ele>1193.98</ele>
        <time>2021-09-30T13:57:01Z</time>
      </trkpt>
      <trkpt lat="44.78615" lon="3.8641">
        <ele>1195.286</ele>
        <time>2021-09-30T13:57:41Z</time>
      </trkpt>
      <trkpt lat="44.78604" lon="3.86431">
        <ele>1197.051</ele>
        <time>2021-09-30T13:58:21Z</time>
      </trkpt>
      <trkpt lat="44.78595" lon="3.86448">
        <ele>1198.323</ele>
        <time>2021-09-30T13:59:01Z</time>
      </trkpt>
      <trkpt lat="44.78589" lon="3.86462">
        <ele>1199.861</ele>
        <time>2021-09-30T13:59:41Z</time>
      </trkpt>
      <trkpt lat="44.78581" lon="3.86476">
        <ele>1201.244</ele>
        <time>2021-09-30T14:00:21Z</time>
      </trkpt>
      <trkpt lat="44.78578" lon="3.86484">
        <ele>1201.886</ele>
        <time>2021-09-30T14:01:01Z</time>
      </trkpt>
      <trkpt lat="44.78574" lon="3.86491">
        <ele>1202.526</ele>
        <time>2021-09-30T14:01:41Z</time>
      </trkpt>
      <trkpt lat="44.78565" lon="3.86507">
        <ele>1204.449</ele>
        <time>2021-09-30T14:02:21Z</time>
      </trkpt>
      <trkpt lat="44.78558" lon="3.86518">
        <ele>1205.902</ele>
        <time>2021-09-30T14:03:01Z</time>
      </trkpt>
      <trkpt lat="44.78547" lon="3.86543">
        <ele>1208.422</ele>
        <time>2021-09-30T14:03:41Z</time>
      </trkpt>
      <trkpt lat="44.78543" lon="3.86557">
        <ele>1209.708</ele>
        <time>2021-09-30T14:04:21Z</time>
      </trkpt>
      <trkpt lat="44.78541" lon="3.86573">
        <ele>1210.432</ele>
        <time>2021-09-30T14:05:01Z</time>
      </trkpt>
      <trkpt lat="44.78536" lon="3.86584">
        <ele>1210.258</ele>
        <time>2021-09-30T14:05:41Z</time>
      </trkpt>
      <trkpt lat="44.78527" lon="3.86595">
        <ele>1209.833</ele>
        <time>2021-09-30T14:06:21Z</time>
      </trkpt>
      <trkpt lat="44.78515" lon="3.8661">
        <ele>1209.655</ele>
        <time>2021-09-30T14:07:01Z</time>
      </trkpt>
      <trkpt lat="44.78504" lon="3.86624">
        <ele>1209.693</ele>
        <time>2021-09-30T14:07:41Z</time>
      </trkpt>
      <trkpt lat="44.78493" lon="3.86637">
        <ele>1210.536</ele>
        <time>2021-09-30T14:08:21Z</time>
      </trkpt>
      <trkpt lat="44.78483" lon="3.8665">
        <ele>1210.868</ele>
        <time>2021-09-30T14:09:01Z</time>
      </trkpt>
      <trkpt lat="44.78472" lon="3.86663">
        <ele>1210.888</ele>
        <time>2021-09-30T14:09:41Z</time>
      </trkpt>
      <trkpt lat="44.78463" lon="3.86673">
        <ele>1211.189</ele>
        <time>2021-09-30T14:10:21Z</time>
      </trkpt>
      <trkpt lat="44.78455" lon="3.86682">
        <ele>1211.206</ele>
        <time>2021-09-30T14:11:01Z</time>
      </trkpt>
      <trkpt lat="44.78449" lon="3.8669">
        <ele>1211.126</ele>
        <time>2021-09-30T14:11:41Z</time>
      </trkpt>
      <trkpt lat="44.78442" lon="3.867">
        <ele>1211.308</ele>
        <time>2021-09-30T14:12:21Z</time>
      </trkpt>
      <trkpt lat="44.7843" lon="3.86716">
        <ele>1212.156</ele>
        <time>2021-09-30T14:13:01Z</time>
      </trkpt>
      <trkpt lat="44.78416" lon="3.86732">
        <ele>1212.762</ele>
        <time>2021-09-30T14:13:41Z</time>
      </trkpt>
      <trkpt lat="44.78413" lon="3.86737">
        <ele>1212.787</ele>
        <time>2021-09-30T14:14:21Z</time>
      </trkpt>
      <trkpt lat="44.78409" lon="3.86741">
        <ele>1212.819</ele>
        <time>2021-09-30T14:15:01Z</time>
      </trkpt>
      <trkpt lat="44.78398" lon="3.86755">
        <ele>1213.067</ele>
        <time>2021-09-30T14:15:41Z</time>
      </trkpt>
      <trkpt lat="44.78395" lon="3.86761">
        <ele>1213.13</ele>
        <time>2021-09-30T14:16:21Z</time>
      </trkpt>
      <trkpt lat="44.78379" lon="3.86787">
        <ele>1214.322</ele>
        <time>2021-09-30T14:17:01Z</time>
      </trkpt>
      <trkpt lat="44.78378" lon="3.8679">
        <ele>1214.562</ele>
        <time>2021-09-30T14:17:41Z</time>
      </trkpt>
      <trkpt lat="44.78371" lon="3.86804">
        <ele>1215.245</ele>
        <time>2021-09-30T14:18:21Z</time>
      </trkpt>
      <trkpt lat="44.78367" lon="3.86814">
        <ele>1215.947</ele>
        <time>2021-09-30T14:19:01Z</time>
      </trkpt>
      <trkpt lat="44.78361" lon="3.8683">
        <ele>1216.711</ele>
        <time>2021-09-30T14:19:41Z</time>
      </trkpt>
      <trkpt lat="44.78356" lon="3.86841">
        <ele>1217.408</ele>
        <time>2021-09-30T14:20:21Z</time>
      </trkpt>
      <trkpt lat="44.78345" lon="3.86864">
        <ele>1219.092</ele>
        <time>2021-09-30T14:21:01Z</time>
      </trkpt>
      <trkpt lat="44.78338" lon="3.86881">
        <ele>1219.938</ele>
        <time>2021-09-30T14:21:41Z</time>
      </trkpt>
      <trkpt lat="44.78334" lon="3.8689">
        <ele>1220.143</ele>
        <time>2021-09-30T14:22:21Z</time>
      </trkpt>
      <trkpt lat="44.78329" lon="3.86901">
        <ele>1220.925</ele>
        <time>2021-09-30T14:23:01Z</time>
      </trkpt>
      <trkpt lat="44.78321" lon="3.8692">
        <ele>1222.933</ele>
        <time>2021-09-30T14:23:41Z</time>
      </trkpt>
      <trkpt lat="44.78309" lon="3.86942">
        <ele>1226.686</ele>
        <time>2021-09-30T14:24:21Z</time>
      </trkpt>
      <trkpt lat="44.78302" lon="3.86956">
        <ele>1227.838</ele>
        <time>2021-09-30T14:25:01Z</time>
      </trkpt>
      <trkpt lat="44.78294" lon="3.8697">
        <ele>1228.168</ele>
        <time>2021-09-30T14:25:41Z</time>
      </trkpt>
      <trkpt lat="44.7828" lon="3.86993">
        <ele>1228.596</ele>
        <time>2021-09-30T14:26:21Z</time>
      </trkpt>
      <trkpt lat="44.78278" lon="3.86998">
        <ele>1228.731</ele>
        <time>2021-09-30T14:27:01Z</time>
      </trkpt>
      <trkpt lat="44.78273" lon="3.87007">
        <ele>1228.824</ele>
        <time>2021-09-30T14:27:41Z</time>
      </trkpt>
      <trkpt lat="44.78271" lon="3.87011">
        <ele>1228.908</ele>
        <time>2021-09-30T14:28:21Z</time>
      </trkpt>
      <trkpt lat="44.78269" lon="3.87015">
        <ele>1229.187</ele>
        <time>2021-09-30T14:29:01Z</time>
      </trkpt>
      <trkpt lat="44.78261" lon="3.87032">
        <ele>1230.383</ele>
        <time>2021-09-30T14:29:41Z</time>
      </trkpt>
      <trkpt lat="44.78256" lon="3.87048">
        <ele>1231.518</ele>
        <time>2021-09-30T14:30:21Z</time>
      </trkpt>
      <trkpt lat="44.78254" lon="3.87056">
        <ele>1232.07</ele>
        <time>2021-09-30T14:31:01Z</time>
      </trkpt>
      <trkpt lat="44.78251" lon="3.87068">
        <ele>1232.418</ele>
        <time>2021-09-30T14:31:41Z</time>
      </trkpt>
      <trkpt lat="44.78249" lon="3.87074">
        <ele>1232.631</ele>
        <time>2021-09-30T14:32:21Z</time>
      </trkpt>
      <trkpt lat="44.78245" lon="3.87089">
        <ele>1233.053</ele>
        <time>2021-09-30T14:33:01Z</time>
      </trkpt>
      <trkpt lat="44.78241" lon="3.87107">
        <ele>1233.243</ele>
        <time>2021-09-30T14:33:41Z</time>
      </trkpt>
      <trkpt lat="44.78244" lon="3.87126">
        <ele>1233.485</ele>
        <time>2021-09-30T14:34:21Z</time>
      </trkpt>
      <trkpt lat="44.78251" lon="3.8714">
        <ele>1234.089</ele>
        <time>2021-09-30T14:35:01Z</time>
      </trkpt>
      <trkpt lat="44.78255" lon="3.87149">
        <ele>1234.117</ele>
        <time>2021-09-30T14:35:41Z</time>
      </trkpt>
      <trkpt lat="44.78259" lon="3.87159">
        <ele>1234.208</ele>
        <time>2021-09-30T14:36:21Z</time>
      </trkpt>
      <trkpt lat="44.78266" lon="3.87175">
        <ele>1233.976</ele>
        <time>2021-09-30T14:37:01Z</time>
      </trkpt>
      <trkpt lat="44.78271" lon="3.87185">
        <ele>1233.212</ele>
        <time>2021-09-30T14:37:41Z</time>
      </trkpt>
      <trkpt lat="44.78277" lon="3.87199">
        <ele>1232.447</ele>
        <time>2021-09-30T14:38:21Z</time>
      </trkpt>
      <trkpt lat="44.78283" lon="3.8721">
        <ele>1232.099</ele>
        <time>2021-09-30T14:39:01Z</time>
      </trkpt>
      <trkpt lat="44.78291" lon="3.87224">
        <ele>1231.837</ele>
        <time>2021-09-30T14:39:41Z</time>
      </trkpt>
      <trkpt lat="44.78292" lon="3.87228">
        <ele>1231.97</ele>
        <time>2021-09-30T14:40:21Z</time>
      </trkpt>
      <trkpt lat="44.78302" lon="3.87248">
        <ele>1232.652</ele>
        <time>2021-09-30T14:41:01Z</time>
      </trkpt>
      <trkpt lat="44.78303" lon="3.8725">
        <ele>1232.612</ele>
        <time>2021-09-30T14:41:41Z</time>
      </trkpt>
      <trkpt lat="44.78305" lon="3.87256">
        <ele>1233.012</ele>
        <time>2021-09-30T14:42:21Z</time>
      </trkpt>
      <trkpt lat="44.78322" lon="3.87296">
        <ele>1234.432</ele>
        <time>2021-09-30T14:43:01Z</time>
      </trkpt>
      <trkpt lat="44.78333" lon="3.87327">
        <ele>1235.005</ele>
        <time>2021-09-30T14:43:41Z</time>
      </trkpt>
      <trkpt lat="44.78344" lon="3.87356">
        <ele>1234.108</ele>
        <time>2021-09-30T14:44:21Z</time>
      </trkpt>
      <trkpt lat="44.7835" lon="3.87374">
        <ele>1233.889</ele>
        <time>2021-09-30T14:45:01Z</time>
      </trkpt>
      <trkpt lat="44.78356" lon="3.87382">
        <ele>1233.885</ele>
        <time>2021-09-30T14:45:41Z</time>
      </trkpt>
      <trkpt lat="44.78358" lon="3.87385">
        <ele>1234.06</ele>
        <time>2021-09-30T14:46:21Z</time>
      </trkpt>
      <trkpt lat="44.78364" lon="3.8739">
        <ele>1234.242</ele>
        <time>2021-09-30T14:47:01Z</time>
      </trkpt>
      <trkpt lat="44.7837" lon="3.87393">
        <ele>1234.67</ele>
        <time>2021-09-30T14:47:41Z</time>
      </trkpt>
      <trkpt lat="44.78372" lon="3.87395">
        <ele>1234.893</ele>
        <time>2021-09-30T14:48:21Z</time>
      </trkpt>
      <trkpt lat="44.78386" lon="3.87405">
        <ele>1235.815</ele>
        <time>2021-09-30T14:49:01Z</time>
      </trkpt>
      <trkpt lat="44.78397" lon="3.87417">
        <ele>1236.635</ele>
        <time>2021-09-30T14:49:41Z</time>
      </trkpt>
      <trkpt lat="44.78407" lon="3.87431">
        <ele>1237.387</ele>
        <time>2021-09-30T14:50:21Z</time>
      </trkpt>
      <trkpt lat="44.78414" lon="3.8744">
        <ele>1237.842</ele>
        <time>2021-09-30T14:51:01Z</time>
      </trkpt>
      <trkpt lat="44.78416" lon="3.87444">
        <ele>1238.026</ele>
        <time>2021-09-30T14:51:41Z</time>
      </trkpt>
      <trkpt lat="44.78423" lon="3.87453">
        <ele>1238.408</ele>
        <time>2021-09-30T14:52:21Z</time>
      </trkpt>
      <trkpt lat="44.78427" lon="3.87459">
        <ele>1238.556</ele>
        <time>2021-09-30T14:53:01Z</time>
      </trkpt>
      <trkpt lat="44.78434" lon="3.87466">
        <ele>1238.742</ele>
        <time>2021-09-30T14:53:41Z</time>
      </trkpt>
      <trkpt lat="44.78444" lon="3.87477">
        <ele>1238.657</ele>
        <time>2021-09-30T14:54:21Z</time>
      </trkpt>
      <trkpt lat="44.7845" lon="3.87484">
        <ele>1238.399</ele>
        <time>2021-09-30T14:55:01Z</time>
      </trkpt>
      <trkpt lat="44.78455" lon="3.87488">
        <ele>1238.087</ele>
        <time>2021-09-30T14:55:41Z</time>
      </trkpt>
      <trkpt lat="44.78466" lon="3.87497">
        <ele>1237.32</ele>
        <time>2021-09-30T14:56:21Z</time>
      </trkpt>
      <trkpt lat="44.78472" lon="3.875">
        <ele>1237.062</ele>
        <time>2021-09-30T14:57:01Z</time>
      </trkpt>
      <trkpt lat="44.78486" lon="3.87507">
        <ele>1236.532</ele>
        <time>2021-09-30T14:57:41Z</time>
      </trkpt>
      <trkpt lat="44.7849" lon="3.87509">
        <ele>1236.378</ele>
        <time>2021-09-30T14:58:21Z</time>
      </trkpt>
      <trkpt lat="44.78496" lon="3.87513">
        <ele>1236.033</ele>
        <time>2021-09-30T14:59:01Z</time>
      </trkpt>
      <trkpt lat="44.78492" lon="3.8752">
        <ele>1234.926</ele>
        <time>2021-09-30T14:59:41Z</time>
      </trkpt>
      <trkpt lat="44.78483" lon="3.87524">
        <ele>1234.008</ele>
        <time>2021-09-30T15:00:21Z</time>
      </trkpt>
      <trkpt lat="44.78471" lon="3.87527">
        <ele>1233.245</ele>
        <time>2021-09-30T15:01:01Z</time>
      </trkpt>
      <trkpt lat="44.78465" lon="3.87529">
        <ele>1233.551</ele>
        <time>2021-09-30T15:01:41Z</time>
      </trkpt>
      <trkpt lat="44.78461" lon="3.8753">
        <ele>1233.766</ele>
        <time>2021-09-30T15:02:21Z</time>
      </trkpt>
      <trkpt lat="44.7845" lon="3.8753">
        <ele>1234.558</ele>
        <time>2021-09-30T15:03:01Z</time>
      </trkpt>
      <trkpt lat="44.78446" lon="3.8753">
        <ele>1234.776</ele>
        <time>2021-09-30T15:03:41Z</time>
      </trkpt>
      <trkpt lat="44.78441" lon="3.87531">
        <ele>1234.949</ele>
        <time>2021-09-30T15:04:21Z</time>
      </trkpt>
      <trkpt lat="44.78433" lon="3.87531">
        <ele>1235.221</ele>
        <time>2021-09-30T15:05:01Z</time>
      </trkpt>
      <trkpt lat="44.78428" lon="3.87533">
        <ele>1235.321</ele>
        <time>2021-09-30T15:05:41Z</time>
      </trkpt>
      <trkpt lat="44.78421" lon="3.87534">
        <ele>1235.436</ele>
        <time>2021-09-30T15:06:21Z</time>
      </trkpt>
      <trkpt lat="44.78409" lon="3.87538">
        <ele>1235.617</ele>
        <time>2021-09-30T15:07:01Z</time>
      </trkpt>
      <trkpt lat="44.784" lon="3.87541">
        <ele>1235.618</ele>
        <time>2021-09-30T15:07:41Z</time>
      </trkpt>
      <trkpt lat="44.78387" lon="3.87546">
        <ele>1235.708</ele>
        <time>2021-09-30T15:08:21Z</time>
      </trkpt>
      <trkpt lat="44.78373" lon="3.87551">
        <ele>1235.281</ele>
        <time>2021-09-30T15:09:01Z</time>
      </trkpt>
      <trkpt lat="44.7836" lon="3.87558">
        <ele>1234.767</ele>
        <time>2021-09-30T15:09:41Z</time>
      </trkpt>
      <trkpt lat="44.78351" lon="3.87563">
        <ele>1233.592</ele>
        <time>2021-09-30T15:10:21Z</time>
      </trkpt>
      <trkpt lat="44.78339" lon="3.87573">
        <ele>1231.874</ele>
        <time>2021-09-30T15:11:01Z</time>
      </trkpt>
      <trkpt lat="44.78327" lon="3.87583">
        <ele>1230.542</ele>
        <time>2021-09-30T15:11:41Z</time>
      </trkpt>
      <trkpt lat="44.78319" lon="3.87588">
        <ele>1229.945</ele>
        <time>2021-09-30T15:12:21Z</time>
      </trkpt>
      <trkpt lat="44.78312" lon="3.87598">
        <ele>1229.327</ele>
        <time>2021-09-30T15:13:01Z</time>
      </trkpt>
      <trkpt lat="44.78305" lon="3.87606">
        <ele>1229.057</ele>
        <time>2021-09-30T15:13:41Z</time>
      </trkpt>
      <trkpt lat="44.78299" lon="3.87614">
        <ele>1229.183</ele>
        <time>2021-09-30T15:14:21Z</time>
      </trkpt>
      <trkpt lat="44.78294" lon="3.87617">
        <ele>1229.325</ele>
        <time>2021-09-30T15:15:01Z</time>
      </trkpt>
      <trkpt lat="44.78284" lon="3.87625">
        <ele>1229.917</ele>
        <time>2021-09-30T15:15:41Z</time>
      </trkpt>
      <trkpt lat="44.78272" lon="3.87633">
        <ele>1230.608</ele>
        <time>2021-09-30T15:16:21Z</time>
      </trkpt>
      <trkpt lat="44.78262" lon="3.8764">
        <ele>1231.076</ele>
        <time>2021-09-30T15:17:01Z</time>
      </trkpt>
      <trkpt lat="44.78248" lon="3.87647">
        <ele>1231.272</ele>
        <time>2021-09-30T15:17:41Z</time>
      </trkpt>
      <trkpt lat="44.78236" lon="3.87654">
        <ele>1231.377</ele>
        <time>2021-09-30T15:18:21Z</time>
      </trkpt>
      <trkpt lat="44.78218" lon="3.87659">
        <ele>1231.269</ele>
        <time>2021-09-30T15:19:01Z</time>
      </trkpt>
      <trkpt lat="44.78211" lon="3.87662">
        <ele>1230.947</ele>
        <time>2021-09-30T15:19:41Z</time>
      </trkpt>
      <trkpt lat="44.782" lon="3.87665">
        <ele>1230.44</ele>
        <time>2021-09-30T15:20:21Z</time>
      </trkpt>
      <trkpt lat="44.78182" lon="3.87671">
        <ele>1229.332</ele>
        <time>2021-09-30T15:21:01Z</time>
      </trkpt>
      <trkpt lat="44.78174" lon="3.87675">
        <ele>1228.872</ele>
        <time>2021-09-30T15:21:41Z</time>
      </trkpt>
      <trkpt lat="44.78162" lon="3.8768">
        <ele>1227.814</ele>
        <time>2021-09-30T15:22:21Z</time>
      </trkpt>
      <trkpt lat="44.78151" lon="3.87684">
        <ele>1226.354</ele>
        <time>2021-09-30T15:23:01Z</time>
      </trkpt>
      <trkpt lat="44.78135" lon="3.87688">
        <ele>1224.109</ele>
        <time>2021-09-30T15:23:41Z</time>
      </trkpt>
      <trkpt lat="44.78123" lon="3.87687">
        <ele>1221.808</ele>
        <time>2021-09-30T15:24:21Z</time>
      </trkpt>
      <trkpt lat="44.78115" lon="3.87688">
        <ele>1220.439</ele>
        <time>2021-09-30T15:25:01Z</time>
      </trkpt>
      <trkpt lat="44.78109" lon="3.87688">
        <ele>1219.445</ele>
        <time>2021-09-30T15:25:41Z</time>
      </trkpt>
      <trkpt lat="44.78104" lon="3.8769">
        <ele>1218.62</ele>
        <time>2021-09-30T15:26:21Z</time>
      </trkpt>
      <trkpt lat="44.78091" lon="3.87703">
        <ele>1216.792</ele>
        <time>2021-09-30T15:27:01Z</time>
      </trkpt>
      <trkpt lat="44.78083" lon="3.87712">
        <ele>1215.69</ele>
        <time>2021-09-30T15:27:41Z</time>
      </trkpt>
      <trkpt lat="44.78076" lon="3.87721">
        <ele>1215.473</ele>
        <time>2021-09-30T15:28:21Z</time>
      </trkpt>
      <trkpt lat="44.78068" lon="3.87731">
        <ele>1215.165</ele>
        <time>2021-09-30T15:29:01Z</time>
      </trkpt>
      <trkpt lat="44.78064" lon="3.87737">
        <ele>1215.065</ele>
        <time>2021-09-30T15:29:41Z</time>
      </trkpt>
      <trkpt lat="44.78059" lon="3.87743">
        <ele>1214.975</ele>
        <time>2021-09-30T15:30:21Z</time>
      </trkpt>
      <trkpt lat="44.78051" lon="3.87753">
        <ele>1214.228</ele>
        <time>2021-09-30T15:31:01Z</time>
      </trkpt>
      <trkpt lat="44.78046" lon="3.87758">
        <ele>1213.42</ele>
        <time>2021-09-30T15:31:41Z</time>
      </trkpt>
      <trkpt lat="44.78037" lon="3.87767">
        <ele>1212.108</ele>
        <time>2021-09-30T15:32:21Z</time>
      </trkpt>
      <trkpt lat="44.78025" lon="3.87777">
        <ele>1210.425</ele>
        <time>2021-09-30T15:33:01Z</time>
      </trkpt>
      <trkpt lat="44.78016" lon="3.8779">
        <ele>1208.861</ele>
        <time>2021-09-30T15:33:41Z</time>
      </trkpt>
      <trkpt lat="44.7801" lon="3.87797">
        <ele>1208.026</ele>
        <time>2021-09-30T15:34:21Z</time>
      </trkpt>
      <trkpt lat="44.78005" lon="3.87805">
        <ele>1207.768</ele>
        <time>2021-09-30T15:35:01Z</time>
      </trkpt>
      <trkpt lat="44.77998" lon="3.87823">
        <ele>1207.546</ele>
        <time>2021-09-30T15:35:41Z</time>
      </trkpt>
      <trkpt lat="44.7799" lon="3.87837">
        <ele>1208.059</ele>
        <time>2021-09-30T15:36:21Z</time>
      </trkpt>
      <trkpt lat="44.7798" lon="3.87848">
        <ele>1208.571</ele>
        <time>2021-09-30T15:37:01Z</time>
      </trkpt>
      <trkpt lat="44.77971" lon="3.87855">
        <ele>1208.451</ele>
        <time>2021-09-30T15:37:41Z</time>
      </trkpt>
      <trkpt lat="44.77961" lon="3.87859">
        <ele>1206.814</ele>
        <time>2021-09-30T15:38:21Z</time>
      </trkpt>
      <trkpt lat="44.77946" lon="3.8786">
        <ele>1204.354</ele>
        <time>2021-09-30T15:39:01Z</time>
      </trkpt>
      <trkpt lat="44.77922" lon="3.87857">
        <ele>1199.909</ele>
        <time>2021-09-30T15:39:41Z</time>
      </trkpt>
      <trkpt lat="44.7791" lon="3.87862">
        <ele>1196.908</ele>
        <time>2021-09-30T15:40:21Z</time>
      </trkpt>
      <trkpt lat="44.77903" lon="3.87869">
        <ele>1194.759</ele>
        <time>2021-09-30T15:41:01Z</time>
      </trkpt>
      <trkpt lat="44.77902" lon="3.87872">
        <ele>1194.175</ele>
        <time>2021-09-30T15:41:41Z</time>
      </trkpt>
      <trkpt lat="44.77897" lon="3.8788">
        <ele>1192.65</ele>
        <time>2021-09-30T15:42:21Z</time>
      </trkpt>
      <trkpt lat="44.77891" lon="3.87895">
        <ele>1190.962</ele>
        <time>2021-09-30T15:43:01Z</time>
      </trkpt>
      <trkpt lat="44.77882" lon="3.87911">
        <ele>1188.67</ele>
        <time>2021-09-30T15:43:41Z</time>
      </trkpt>
      <trkpt lat="44.77874" lon="3.87925">
        <ele>1187.263</ele>
        <time>2021-09-30T15:44:21Z</time>
      </trkpt>
      <trkpt lat="44.77862" lon="3.87945">
        <ele>1185.435</ele>
        <time>2021-09-30T15:45:01Z</time>
      </trkpt>
      <trkpt lat="44.7785" lon="3.87965">
        <ele>1183.735</ele>
        <time>2021-09-30T15:45:41Z</time>
      </trkpt>
      <trkpt lat="44.77844" lon="3.87977">
        <ele>1182.849</ele>
        <time>2021-09-30T15:46:21Z</time>
      </trkpt>
      <trkpt lat="44.77832" lon="3.87999">
        <ele>1180.402</ele>
        <time>2021-09-30T15:47:01Z</time>
      </trkpt>
      <trkpt lat="44.77822" lon="3.88017">
        <ele>1178.622</ele>
        <time>2021-09-30T15:47:41Z</time>
      </trkpt>
      <trkpt lat="44.77809" lon="3.88037">
        <ele>1175.108</ele>
        <time>2021-09-30T15:48:21Z</time>
      </trkpt>
      <trkpt lat="44.778" lon="3.88051">
        <ele>1172.582</ele>
        <time>2021-09-30T15:49:01Z</time>
      </trkpt>
      <trkpt lat="44.77795" lon="3.88057">
        <ele>1171.518</ele>
        <time>2021-09-30T15:49:41Z</time>
      </trkpt>
      <trkpt lat="44.77791" lon="3.88063">
        <ele>1170.753</ele>
        <time>2021-09-30T15:50:21Z</time>
      </trkpt>
      <trkpt lat="44.77783" lon="3.88073">
        <ele>1169.555</ele>
        <time>2021-09-30T15:51:01Z</time>
      </trkpt>
      <trkpt lat="44.77775" lon="3.88084">
        <ele>1168.243</ele>
        <time>2021-09-30T15:51:41Z</time>
      </trkpt>
      <trkpt lat="44.77768" lon="3.88092">
        <ele>1166.936</ele>
        <time>2021-09-30T15:52:21Z</time>
      </trkpt>
      <trkpt lat="44.77751" lon="3.88111">
        <ele>1162.528</ele>
        <time>2021-09-30T15:53:01Z</time>
      </trkpt>
      <trkpt lat="44.77748" lon="3.88115">
        <ele>1161.688</ele>
        <time>2021-09-30T15:53:41Z</time>
      </trkpt>
      <trkpt lat="44.77741" lon="3.88122">
        <ele>1159.646</ele>
        <time>2021-09-30T15:54:21Z</time>
      </trkpt>
      <trkpt lat="44.77732" lon="3.88131">
        <ele>1156.588</ele>
        <time>2021-09-30T15:55:01Z</time>
      </trkpt>
      <trkpt lat="44.77723" lon="3.88145">
        <ele>1153.016</ele>
        <time>2021-09-30T15:55:41Z</time>
      </trkpt>
      <trkpt lat="44.77722" lon="3.88149">
        <ele>1153.208</ele>
        <time>2021-09-30T15:56:21Z</time>
      </trkpt>
      <trkpt lat="44.77715" lon="3.88164">
        <ele>1153.092</ele>
        <time>2021-09-30T15:57:01Z</time>
      </trkpt>
      <trkpt lat="44.77709" lon="3.8819">
        <ele>1154.188</ele>
        <time>2021-09-30T15:57:41Z</time>
      </trkpt>
      <trkpt lat="44.77704" lon="3.882">
        <ele>1153.413</ele>
        <time>2021-09-30T15:58:21Z</time>
      </trkpt>
      <trkpt lat="44.77698" lon="3.88212">
        <ele>1152.825</ele>
        <time>2021-09-30T15:59:01Z</time>
      </trkpt>
      <trkpt lat="44.77694" lon="3.8822">
        <ele>1152.463</ele>
        <time>2021-09-30T15:59:41Z</time>
      </trkpt>
      <trkpt lat="44.77689" lon="3.8823">
        <ele>1151.676</ele>
        <time>2021-09-30T16:00:21Z</time>
      </trkpt>
      <trkpt lat="44.77684" lon="3.8824">
        <ele>1150.818</ele>
        <time>2021-09-30T16:01:01Z</time>
      </trkpt>
      <trkpt lat="44.77677" lon="3.88255">
        <ele>1149.598</ele>
        <time>2021-09-30T16:01:41Z</time>
      </trkpt>
      <trkpt lat="44.77673" lon="3.88263">
        <ele>1149.183</ele>
        <time>2021-09-30T16:02:21Z</time>
      </trkpt>
      <trkpt lat="44.77667" lon="3.88277">
        <ele>1148.125</ele>
        <time>2021-09-30T16:03:01Z</time>
      </trkpt>
      <trkpt lat="44.77664" lon="3.88286">
        <ele>1148.417</ele>
        <time>2021-09-30T16:03:41Z</time>
      </trkpt>
      <trkpt lat="44.77661" lon="3.88292">
        <ele>1148.708</ele>
        <time>2021-09-30T16:04:21Z</time>
      </trkpt>
      <trkpt lat="44.77658" lon="3.88299">
        <ele>1148.936</ele>
        <time>2021-09-30T16:05:01Z</time>
      </trkpt>
      <trkpt lat="44.77651" lon="3.88315">
        <ele>1148.812</ele>
        <time>2021-09-30T16:05:41Z</time>
      </trkpt>
      <trkpt lat="44.77643" lon="3.88324">
        <ele>1147.347</ele>
        <time>2021-09-30T16:06:21Z</time>
      </trkpt>
      <trkpt lat="44.77635" lon="3.88328">
        <ele>1146.449</ele>
        <time>2021-09-30T16:07:01Z</time>
      </trkpt>
      <trkpt lat="44.77626" lon="3.88327">
        <ele>1146.067</ele>
        <time>2021-09-30T16:07:41Z</time>
      </trkpt>
      <trkpt lat="44.77619" lon="3.88321">
        <ele>1145.07</ele>
        <time>2021-09-30T16:08:21Z</time>
      </trkpt>
      <trkpt lat="44.77612" lon="3.88311">
        <ele>1143.752</ele>
        <time>2021-09-30T16:09:01Z</time>
      </trkpt>
      <trkpt lat="44.77608" lon="3.88303">
        <ele>1143.332</ele>
        <time>2021-09-30T16:09:41Z</time>
      </trkpt>
      <trkpt lat="44.77606" lon="3.88295">
        <ele>1142.816</ele>
        <time>2021-09-30T16:10:21Z</time>
      </trkpt>
      <trkpt lat="44.77607" lon="3.88286">
        <ele>1141.876</ele>
        <time>2021-09-30T16:11:01Z</time>
      </trkpt>
      <trkpt lat="44.77602" lon="3.88275">
        <ele>1141.813</ele>
        <time>2021-09-30T16:11:41Z</time>
      </trkpt>
      <trkpt lat="44.77595" lon="3.88263">
        <ele>1142.308</ele>
        <time>2021-09-30T16:12:21Z</time>
      </trkpt>
      <trkpt lat="44.77589" lon="3.8825">
        <ele>1142.829</ele>
        <time>2021-09-30T16:13:01Z</time>
      </trkpt>
      <trkpt lat="44.77583" lon="3.88239">
        <ele>1142.975</ele>
        <time>2021-09-30T16:13:41Z</time>
      </trkpt>
      <trkpt lat="44.77575" lon="3.88223">
        <ele>1142.48</ele>
        <time>2021-09-30T16:14:21Z</time>
      </trkpt>
      <trkpt lat="44.77569" lon="3.88215">
        <ele>1141.712</ele>
        <time>2021-09-30T16:15:01Z</time>
      </trkpt>
      <trkpt lat="44.77558" lon="3.88205">
        <ele>1141.44</ele>
        <time>2021-09-30T16:15:41Z</time>
      </trkpt>
      <trkpt lat="44.77552" lon="3.88199">
        <ele>1141.293</ele>
        <time>2021-09-30T16:16:21Z</time>
      </trkpt>
      <trkpt lat="44.77537" lon="3.88188">
        <ele>1140.365</ele>
        <time>2021-09-30T16:17:01Z</time>
      </trkpt>
      <trkpt lat="44.77529" lon="3.88182">
        <ele>1140.065</ele>
        <time>2021-09-30T16:17:41Z</time>
      </trkpt>
      <trkpt lat="44.77522" lon="3.88176">
        <ele>1139.512</ele>
        <time>2021-09-30T16:18:21Z</time>
      </trkpt>
      <trkpt lat="44.77511" lon="3.88167">
        <ele>1138.632</ele>
        <time>2021-09-30T16:19:01Z</time>
      </trkpt>
      <trkpt lat="44.77505" lon="3.88166">
        <ele>1138.705</ele>
        <time>2021-09-30T16:19:41Z</time>
      </trkpt>
      <trkpt lat="44.77502" lon="3.88173">
        <ele>1140.008</ele>
        <time>2021-09-30T16:20:21Z</time>
      </trkpt>
      <trkpt lat="44.77497" lon="3.88178">
        <ele>1141.069</ele>
        <time>2021-09-30T16:21:01Z</time>
      </trkpt>
      <trkpt lat="44.77489" lon="3.88186">
        <ele>1142.455</ele>
        <time>2021-09-30T16:21:41Z</time>
      </trkpt>
      <trkpt lat="44.77481" lon="3.88193">
        <ele>1143.83</ele>
        <time>2021-09-30T16:22:21Z</time>
      </trkpt>
      <trkpt lat="44.77473" lon="3.882">
        <ele>1145.312</ele>
        <time>2021-09-30T16:23:01Z</time>
      </trkpt>
      <trkpt lat="44.77458" lon="3.88211">
        <ele>1145.56</ele>
        <time>2021-09-30T16:23:41Z</time>
      </trkpt>
      <trkpt lat="44.77451" lon="3.88217">
        <ele>1145.333</ele>
        <time>2021-09-30T16:24:21Z</time>
      </trkpt>
      <trkpt lat="44.77445" lon="3.88222">
        <ele>1145.155</ele>
        <time>2021-09-30T16:25:01Z</time>
      </trkpt>
      <trkpt lat="44.77434" lon="3.88232">
        <ele>1144.495</ele>
        <time>2021-09-30T16:25:41Z</time>
      </trkpt>
      <trkpt lat="44.77423" lon="3.88243">
        <ele>1144.674</ele>
        <time>2021-09-30T16:26:21Z</time>
      </trkpt>
      <trkpt lat="44.77415" lon="3.88251">
        <ele>1145.256</ele>
        <time>2021-09-30T16:27:01Z</time>
      </trkpt>
      <trkpt lat="44.77411" lon="3.88256">
        <ele>1146.021</ele>
        <time>2021-09-30T16:27:41Z</time>
      </trkpt>
      <trkpt lat="44.77409" lon="3.88258">
        <ele>1146.408</ele>
        <time>2021-09-30T16:28:21Z</time>
      </trkpt>
      <trkpt lat="44.77407" lon="3.8826">
        <ele>1146.815</ele>
        <time>2021-09-30T16:29:01Z</time>
      </trkpt>
      <trkpt lat="44.77397" lon="3.88271">
        <ele>1148.741</ele>
        <time>2021-09-30T16:29:41Z</time>
      </trkpt>
      <trkpt lat="44.77383" lon="3.88279">
        <ele>1150.166</ele>
        <time>2021-09-30T16:30:21Z</time>
      </trkpt>
      <trkpt lat="44.77372" lon="3.88283">
        <ele>1150.828</ele>
        <time>2021-09-30T16:31:01Z</time>
      </trkpt>
      <trkpt lat="44.77361" lon="3.88286">
        <ele>1151.216</ele>
        <time>2021-09-30T16:31:41Z</time>
      </trkpt>
      <trkpt lat="44.77349" lon="3.88286">
        <ele>1150.989</ele>
        <time>2021-09-30T16:32:21Z</time>
      </trkpt>
      <trkpt lat="44.77331" lon="3.88283">
        <ele>1149.811</ele>
        <time>2021-09-30T16:33:01Z</time>
      </trkpt>
      <trkpt lat="44.77313" lon="3.88284">
        <ele>1148.821</ele>
        <time>2021-09-30T16:33:41Z</time>
      </trkpt>
      <trkpt lat="44.773" lon="3.88288">
        <ele>1149.498</ele>
        <time>2021-09-30T16:34:21Z</time>
      </trkpt>
      <trkpt lat="44.77287" lon="3.88294">
        <ele>1151.215</ele>
        <time>2021-09-30T16:35:01Z</time>
      </trkpt>
      <trkpt lat="44.7728" lon="3.88303">
        <ele>1153.226</ele>
        <time>2021-09-30T16:35:41Z</time>
      </trkpt>
      <trkpt lat="44.77282" lon="3.88305">
        <ele>1153.708</ele>
        <time>2021-09-30T16:36:21Z</time>
      </trkpt>
      <trkpt lat="44.77284" lon="3.88315">
        <ele>1155.347</ele>
        <time>2021-09-30T16:37:01Z</time>
      </trkpt>
      <trkpt lat="44.7728" lon="3.88316">
        <ele>1155.833</ele>
        <time>2021-09-30T16:37:41Z</time>
      </trkpt>
      <trkpt lat="44.77274" lon="3.88319">
        <ele>1156.138</ele>
        <time>2021-09-30T16:38:21Z</time>
      </trkpt>
      <trkpt lat="44.77258" lon="3.88325">
        <ele>1156.97</ele>
        <time>2021-09-30T16:39:01Z</time>
      </trkpt>
      <trkpt lat="44.77248" lon="3.88329">
        <ele>1157.868</ele>
        <time>2021-09-30T16:39:41Z</time>
      </trkpt>
      <trkpt lat="44.77241" lon="3.88333">
        <ele>1158.461</ele>
        <time>2021-09-30T16:40:21Z</time>
      </trkpt>
      <trkpt lat="44.77222" lon="3.88341">
        <ele>1160.233</ele>
        <time>2021-09-30T16:41:01Z</time>
      </trkpt>
      <trkpt lat="44.77205" lon="3.88348">
        <ele>1163.363</ele>
        <time>2021-09-30T16:41:41Z</time>
      </trkpt>
      <trkpt lat="44.77184" lon="3.88358">
        <ele>1166.141</ele>
        <time>2021-09-30T16:42:21Z</time>
      </trkpt>
      <trkpt lat="44.77179" lon="3.88362">
        <ele>1167.181</ele>
        <time>2021-09-30T16:43:01Z</time>
      </trkpt>
      <trkpt lat="44.77178" lon="3.88367">
        <ele>1167.709</ele>
        <time>2021-09-30T16:43:41Z</time>
      </trkpt>
      <trkpt lat="44.77171" lon="3.88364">
        <ele>1167.308</ele>
        <time>2021-09-30T16:44:21Z</time>
      </trkpt>
      <trkpt lat="44.77169" lon="3.88372">
        <ele>1168.272</ele>
        <time>2021-09-30T16:45:01Z</time>
      </trkpt>
      <trkpt lat="44.77165" lon="3.88384">
        <ele>1169.588</ele>
        <time>2021-09-30T16:45:41Z</time>
      </trkpt>
      <trkpt lat="44.77162" lon="3.88385">
        <ele>1169.643</ele>
        <time>2021-09-30T16:46:21Z</time>
      </trkpt>
      <trkpt lat="44.7716" lon="3.88385">
        <ele>1169.625</ele>
        <time>2021-09-30T16:47:01Z</time>
      </trkpt>
      <trkpt lat="44.77153" lon="3.88384">
        <ele>1169.573</ele>
        <time>2021-09-30T16:47:41Z</time>
      </trkpt>
      <trkpt lat="44.77145" lon="3.8838">
        <ele>1169.126</ele>
        <time>2021-09-30T16:48:21Z</time>
      </trkpt>
      <trkpt lat="44.77128" lon="3.88372">
        <ele>1168.088</ele>
        <time>2021-09-30T16:49:01Z</time>
      </trkpt>
      <trkpt lat="44.77111" lon="3.88363">
        <ele>1166.268</ele>
        <time>2021-09-30T16:49:41Z</time>
      </trkpt>
      <trkpt lat="44.77098" lon="3.88355">
        <ele>1165.592</ele>
        <time>2021-09-30T16:50:21Z</time>
      </trkpt>
      <trkpt lat="44.77092" lon="3.88352">
        <ele>1165.273</ele>
        <time>2021-09-30T16:51:01Z</time>
      </trkpt>
      <trkpt lat="44.77074" lon="3.8834">
        <ele>1163.72</ele>
        <time>2021-09-30T16:51:41Z</time>
      </trkpt>
      <trkpt lat="44.77058" lon="3.88332">
        <ele>1162.008</ele>
        <time>2021-09-30T16:52:21Z</time>
      </trkpt>
      <trkpt lat="44.77047" lon="3.88326">
        <ele>1160.677</ele>
        <time>2021-09-30T16:53:01Z</time>
      </trkpt>
      <trkpt lat="44.7704" lon="3.88322">
        <ele>1159.783</ele>
        <time>2021-09-30T16:53:41Z</time>
      </trkpt>
      <trkpt lat="44.7703" lon="3.88316">
        <ele>1158.528</ele>
        <time>2021-09-30T16:54:21Z</time>
      </trkpt>
      <trkpt lat="44.77025" lon="3.88312">
        <ele>1158.09</ele>
        <time>2021-09-30T16:55:01Z</time>
      </trkpt>
      <trkpt lat="44.77023" lon="3.88308">
        <ele>1157.768</ele>
        <time>2021-09-30T16:55:41Z</time>
      </trkpt>
      <trkpt lat="44.7702" lon="3.8831">
        <ele>1157.631</ele>
        <time>2021-09-30T16:56:21Z</time>
      </trkpt>
      <trkpt lat="44.77013" lon="3.88312">
        <ele>1157.263</ele>
        <time>2021-09-30T16:57:01Z</time>
      </trkpt>
      <trkpt lat="44.77007" lon="3.88315">
        <ele>1156.843</ele>
        <time>2021-09-30T16:57:41Z</time>
      </trkpt>
      <trkpt lat="44.77005" lon="3.88315">
        <ele>1156.772</ele>
        <time>2021-09-30T16:58:21Z</time>
      </trkpt>
      <trkpt lat="44.76999" lon="3.88316">
        <ele>1156.313</ele>
        <time>2021-09-30T16:59:01Z</time>
      </trkpt>
      <trkpt lat="44.7699" lon="3.88318">
        <ele>1155.714</ele>
        <time>2021-09-30T16:59:41Z</time>
      </trkpt>
      <trkpt lat="44.76979" lon="3.8832">
        <ele>1155.008</ele>
        <time>2021-09-30T17:00:21Z</time>
      </trkpt>
      <trkpt lat="44.7697" lon="3.88321">
        <ele>1154.645</ele>
        <time>2021-09-30T17:01:01Z</time>
      </trkpt>
      <trkpt lat="44.76969" lon="3.88318">
        <ele>1154.291</ele>
        <time>2021-09-30T17:01:41Z</time>
      </trkpt>
      <trkpt lat="44.76967" lon="3.88307">
        <ele>1153.156</ele>
        <time>2021-09-30T17:02:21Z</time>
      </trkpt>
      <trkpt lat="44.76966" lon="3.88298">
        <ele>1152.468</ele>
        <time>2021-09-30T17:03:01Z</time>
      </trkpt>
      <trkpt lat="44.76963" lon="3.88296">
        <ele>1152.316</ele>
        <time>2021-09-30T17:03:41Z</time>
      </trkpt>
      <trkpt lat="44.76959" lon="3.88293">
        <ele>1152.149</ele>
        <time>2021-09-30T17:04:21Z</time>
      </trkpt>
      <trkpt lat="44.76953" lon="3.88289">
        <ele>1151.881</ele>
        <time>2021-09-30T17:05:01Z</time>
      </trkpt>
      <trkpt lat="44.76945" lon="3.88282">
        <ele>1151.331</ele>
        <time>2021-09-30T17:05:41Z</time>
      </trkpt>
      <trkpt lat="44.76939" lon="3.88276">
        <ele>1151.176</ele>
        <time>2021-09-30T17:06:21Z</time>
      </trkpt>
      <trkpt lat="44.76936" lon="3.88271">
        <ele>1151.09</ele>
        <time>2021-09-30T17:07:01Z</time>
      </trkpt>
      <trkpt lat="44.76931" lon="3.88265">
        <ele>1151.019</ele>
        <time>2021-09-30T17:07:41Z</time>
      </trkpt>
      <trkpt lat="44.76927" lon="3.88252">
        <ele>1151.008</ele>
        <time>2021-09-30T17:08:21Z</time>
      </trkpt>
      <trkpt lat="44.76925" lon="3.88242">
        <ele>1151.045</ele>
        <time>2021-09-30T17:09:01Z</time>
      </trkpt>
      <trkpt lat="44.76914" lon="3.88237">
        <ele>1151.591</ele>
        <time>2021-09-30T17:09:41Z</time>
      </trkpt>
      <trkpt lat="44.76909" lon="3.88232">
        <ele>1151.236</ele>
        <time>2021-09-30T17:10:21Z</time>
      </trkpt>
      <trkpt lat="44.76901" lon="3.88222">
        <ele>1150.428</ele>
        <time>2021-09-30T17:11:01Z</time>
      </trkpt>
      <trkpt lat="44.76897" lon="3.88217">
        <ele>1150.516</ele>
        <time>2021-09-30T17:11:41Z</time>
      </trkpt>
      <trkpt lat="44.76889" lon="3.88227">
        <ele>1150.349</ele>
        <time>2021-09-30T17:12:21Z</time>
      </trkpt>
      <trkpt lat="44.76886" lon="3.8823">
        <ele>1150.051</ele>
        <time>2021-09-30T17:13:01Z</time>
      </trkpt>
      <trkpt lat="44.76875" lon="3.88236">
        <ele>1148.321</ele>
        <time>2021-09-30T17:13:41Z</time>
      </trkpt>
      <trkpt lat="44.76872" lon="3.88238">
        <ele>1147.962</ele>
        <time>2021-09-30T17:14:21Z</time>
      </trkpt>
      <trkpt lat="44.76866" lon="3.88241">
        <ele>1147.283</ele>
        <time>2021-09-30T17:15:01Z</time>
      </trkpt>
      <trkpt lat="44.76861" lon="3.88243">
        <ele>1146.711</ele>
        <time>2021-09-30T17:15:41Z</time>
      </trkpt>
      <trkpt lat="44.76858" lon="3.88245">
        <ele>1146.008</ele>
        <time>2021-09-30T17:16:21Z</time>
      </trkpt>
      <trkpt lat="44.76855" lon="3.88246">
        <ele>1145.564</ele>
        <time>2021-09-30T17:17:01Z</time>
      </trkpt>
      <trkpt lat="44.76853" lon="3.88247">
        <ele>1145.08</ele>
        <time>2021-09-30T17:17:41Z</time>
      </trkpt>
      <trkpt lat="44.76846" lon="3.8825">
        <ele>1143.565</ele>
        <time>2021-09-30T17:18:21Z</time>
      </trkpt>
      <trkpt lat="44.7684" lon="3.88252">
        <ele>1142.147</ele>
        <time>2021-09-30T17:19:01Z</time>
      </trkpt>
      <trkpt lat="44.76832" lon="3.88255">
        <ele>1140.415</ele>
        <time>2021-09-30T17:19:41Z</time>
      </trkpt>
      <trkpt lat="44.76831" lon="3.88255">
        <ele>1140.398</ele>
        <time>2021-09-30T17:20:21Z</time>
      </trkpt>
      <trkpt lat="44.76823" lon="3.88255">
        <ele>1138.86</ele>
        <time>2021-09-30T17:21:01Z</time>
      </trkpt>
      <trkpt lat="44.76814" lon="3.88259">
        <ele>1137.92</ele>
        <time>2021-09-30T17:21:41Z</time>
      </trkpt>
      <trkpt lat="44.76805" lon="3.88264">
        <ele>1136.921</ele>
        <time>2021-09-30T17:22:21Z</time>
      </trkpt>
      <trkpt lat="44.76797" lon="3.88268">
        <ele>1136.141</ele>
        <time>2021-09-30T17:23:01Z</time>
      </trkpt>
      <trkpt lat="44.76787" lon="3.88273">
        <ele>1135.105</ele>
        <time>2021-09-30T17:23:41Z</time>
      </trkpt>
      <trkpt lat="44.76785" lon="3.88274">
        <ele>1134.808</ele>
        <time>2021-09-30T17:24:21Z</time>
      </trkpt>
      <trkpt lat="44.76774" lon="3.88286">
        <ele>1134.42</ele>
        <time>2021-09-30T17:25:01Z</time>
      </trkpt>
      <trkpt lat="44.76772" lon="3.88288">
        <ele>1134.486</ele>
        <time>2021-09-30T17:25:41Z</time>
      </trkpt>
      <trkpt lat="44.76761" lon="3.88298">
        <ele>1134.381</ele>
        <time>2021-09-30T17:26:21Z</time>
      </trkpt>
      <trkpt lat="44.76752" lon="3.88303">
        <ele>1133.933</ele>
        <time>2021-09-30T17:27:01Z</time>
      </trkpt>
      <trkpt lat="44.7675" lon="3.88304">
        <ele>1133.891</ele>
        <time>2021-09-30T17:27:41Z</time>
      </trkpt>
      <trkpt lat="44.76733" lon="3.88315">
        <ele>1130.344</ele>
        <time>2021-09-30T17:28:21Z</time>
      </trkpt>
      <trkpt lat="44.76725" lon="3.8832">
        <ele>1128.686</ele>
        <time>2021-09-30T17:29:01Z</time>
      </trkpt>
      <trkpt lat="44.76721" lon="3.88319">
        <ele>1127.816</ele>
        <time>2021-09-30T17:29:41Z</time>
      </trkpt>
      <trkpt lat="44.76716" lon="3.88317">
        <ele>1127.076</ele>
        <time>2021-09-30T17:30:21Z</time>
      </trkpt>
      <trkpt lat="44.76712" lon="3.88318">
        <ele>1126.59</ele>
        <time>2021-09-30T17:31:01Z</time>
      </trkpt>
      <trkpt lat="44.76702" lon="3.8832">
        <ele>1125.119</ele>
        <time>2021-09-30T17:31:41Z</time>
      </trkpt>
      <trkpt lat="44.76701" lon="3.8832">
        <ele>1124.908</ele>
        <time>2021-09-30T17:32:21Z</time>
      </trkpt>
      <trkpt lat="44.76697" lon="3.88318">
        <ele>1124.425</ele>
        <time>2021-09-30T17:33:01Z</time>
      </trkpt>
      <trkpt lat="44.76693" lon="3.88319">
        <ele>1124.071</ele>
        <time>2021-09-30T17:33:41Z</time>
      </trkpt>
      <trkpt lat="44.76682" lon="3.88321">
        <ele>1123.796</ele>
        <time>2021-09-30T17:34:21Z</time>
      </trkpt>
      <trkpt lat="44.76672" lon="3.8832">
        <ele>1123.658</ele>
        <time>2021-09-30T17:35:01Z</time>
      </trkpt>
      <trkpt lat="44.76662" lon="3.88323">
        <ele>1123.116</ele>
        <time>2021-09-30T17:35:41Z</time>
      </trkpt>
      <trkpt lat="44.76661" lon="3.8832">
        <ele>1123.219</ele>
        <time>2021-09-30T17:36:21Z</time>
      </trkpt>
      <trkpt lat="44.76656" lon="3.88317">
        <ele>1123.171</ele>
        <time>2021-09-30T17:37:01Z</time>
      </trkpt>
      <trkpt lat="44.76646" lon="3.88314">
        <ele>1122.761</ele>
        <time>2021-09-30T17:37:41Z</time>
      </trkpt>
      <trkpt lat="44.76639" lon="3.88312">
        <ele>1122.689</ele>
        <time>2021-09-30T17:38:21Z</time>
      </trkpt>
      <trkpt lat="44.76625" lon="3.88301">
        <ele>1122.006</ele>
        <time>2021-09-30T17:39:01Z</time>
      </trkpt>
      <trkpt lat="44.76607" lon="3.8829">
        <ele>1120.626</ele>
        <time>2021-09-30T17:39:41Z</time>
      </trkpt>
      <trkpt lat="44.76593" lon="3.88282">
        <ele>1119.108</ele>
        <time>2021-09-30T17:40:21Z</time>
      </trkpt>
      <trkpt lat="44.76582" lon="3.88275">
        <ele>1117.896</ele>
        <time>2021-09-30T17:41:01Z</time>
      </trkpt>
      <trkpt lat="44.7657" lon="3.88267">
        <ele>1116.472</ele>
        <time>2021-09-30T17:41:41Z</time>
      </trkpt>
      <trkpt lat="44.76562" lon="3.8826">
        <ele>1115.237</ele>
        <time>2021-09-30T17:42:21Z</time>
      </trkpt>
      <trkpt lat="44.76558" lon="3.88255">
        <ele>1114.589</ele>
        <time>2021-09-30T17:43:01Z</time>
      </trkpt>
      <trkpt lat="44.76549" lon="3.88251">
        <ele>1113.147</ele>
        <time>2021-09-30T17:43:41Z</time>
      </trkpt>
      <trkpt lat="44.76535" lon="3.88243">
        <ele>1111.58</ele>
        <time>2021-09-30T17:44:21Z</time>
      </trkpt>
      <trkpt lat="44.76522" lon="3.88235">
        <ele>1110.232</ele>
        <time>2021-09-30T17:45:01Z</time>
      </trkpt>
      <trkpt lat="44.76511" lon="3.88229">
        <ele>1109.122</ele>
        <time>2021-09-30T17:45:41Z</time>
      </trkpt>
      <trkpt lat="44.76502" lon="3.88223">
        <ele>1108.278</ele>
        <time>2021-09-30T17:46:21Z</time>
      </trkpt>
      <trkpt lat="44.76485" lon="3.88214">
        <ele>1106.333</ele>
        <time>2021-09-30T17:47:01Z</time>
      </trkpt>
      <trkpt lat="44.76472" lon="3.88207">
        <ele>1104.626</ele>
        <time>2021-09-30T17:47:41Z</time>
      </trkpt>
      <trkpt lat="44.76455" lon="3.88199">
        <ele>1104.208</ele>
        <time>2021-09-30T17:48:21Z</time>
      </trkpt>
      <trkpt lat="44.76439" lon="3.88191">
        <ele>1104.195</ele>
        <time>2021-09-30T17:49:01Z</time>
      </trkpt>
      <trkpt lat="44.76414" lon="3.88181">
        <ele>1103.391</ele>
        <time>2021-09-30T17:49:41Z</time>
      </trkpt>
      <trkpt lat="44.76399" lon="3.88175">
        <ele>1102.796</ele>
        <time>2021-09-30T17:50:21Z</time>
      </trkpt>
      <trkpt lat="44.76386" lon="3.88169">
        <ele>1102.038</ele>
        <time>2021-09-30T17:51:01Z</time>
      </trkpt>
      <trkpt lat="44.76365" lon="3.88161">
        <ele>1099.316</ele>
        <time>2021-09-30T17:51:41Z</time>
      </trkpt>
      <trkpt lat="44.7635" lon="3.88154">
        <ele>1098.029</ele>
        <time>2021-09-30T17:52:21Z</time>
      </trkpt>
      <trkpt lat="44.76346" lon="3.88152">
        <ele>1097.631</ele>
        <time>2021-09-30T17:53:01Z</time>
      </trkpt>
      <trkpt lat="44.76334" lon="3.88144">
        <ele>1096.721</ele>
        <time>2021-09-30T17:53:41Z</time>
      </trkpt>
      <trkpt lat="44.76325" lon="3.88137">
        <ele>1096.281</ele>
        <time>2021-09-30T17:54:21Z</time>
      </trkpt>
      <trkpt lat="44.76313" lon="3.88127">
        <ele>1096.261</ele>
        <time>2021-09-30T17:55:01Z</time>
      </trkpt>
      <trkpt lat="44.763" lon="3.88114">
        <ele>1095.917</ele>
        <time>2021-09-30T17:55:41Z</time>
      </trkpt>
      <trkpt lat="44.7629" lon="3.88106">
        <ele>1095.208</ele>
        <time>2021-09-30T17:56:21Z</time>
      </trkpt>
      <trkpt lat="44.76282" lon="3.88098">
        <ele>1094.536</ele>
        <time>2021-09-30T17:57:01Z</time>
      </trkpt>
      <trkpt lat="44.76272" lon="3.88089">
        <ele>1093.962</ele>
        <time>2021-09-30T17:57:41Z</time>
      </trkpt>
      <trkpt lat="44.76262" lon="3.88081">
        <ele>1093.697</ele>
        <time>2021-09-30T17:58:21Z</time>
      </trkpt>
      <trkpt lat="44.7625" lon="3.8807">
        <ele>1093.039</ele>
        <time>2021-09-30T17:59:01Z</time>
      </trkpt>
      <trkpt lat="44.76237" lon="3.88058">
        <ele>1090.977</ele>
        <time>2021-09-30T17:59:41Z</time>
      </trkpt>
      <trkpt lat="44.7622" lon="3.88044">
        <ele>1088.56</ele>
        <time>2021-09-30T18:00:21Z</time>
      </trkpt>
      <trkpt lat="44.76216" lon="3.8804">
        <ele>1088.082</ele>
        <time>2021-09-30T18:01:01Z</time>
      </trkpt>
      <trkpt lat="44.76203" lon="3.88028">
        <ele>1086.532</ele>
        <time>2021-09-30T18:01:41Z</time>
      </trkpt>
      <trkpt lat="44.76191" lon="3.88017">
        <ele>1085.099</ele>
        <time>2021-09-30T18:02:21Z</time>
      </trkpt>
      <trkpt lat="44.76187" lon="3.88013">
        <ele>1084.707</ele>
        <time>2021-09-30T18:03:01Z</time>
      </trkpt>
      <trkpt lat="44.76176" lon="3.88">
        <ele>1084.027</ele>
        <time>2021-09-30T18:03:41Z</time>
      </trkpt>
      <trkpt lat="44.76168" lon="3.87984">
        <ele>1082.608</ele>
        <time>2021-09-30T18:04:21Z</time>
      </trkpt>
      <trkpt lat="44.76161" lon="3.87963">
        <ele>1081.297</ele>
        <time>2021-09-30T18:05:01Z</time>
      </trkpt>
      <trkpt lat="44.76159" lon="3.87959">
        <ele>1081.063</ele>
        <time>2021-09-30T18:05:41Z</time>
      </trkpt>
      <trkpt lat="44.76155" lon="3.87944">
        <ele>1080.188</ele>
        <time>2021-09-30T18:06:21Z</time>
      </trkpt>
      <trkpt lat="44.7615" lon="3.87929">
        <ele>1079.69</ele>
        <time>2021-09-30T18:07:01Z</time>
      </trkpt>
      <trkpt lat="44.76145" lon="3.87918">
        <ele>1079.228</ele>
        <time>2021-09-30T18:07:41Z</time>
      </trkpt>
      <trkpt lat="44.76142" lon="3.87911">
        <ele>1078.811</ele>
        <time>2021-09-30T18:08:21Z</time>
      </trkpt>
      <trkpt lat="44.76135" lon="3.87898">
        <ele>1077.283</ele>
        <time>2021-09-30T18:09:01Z</time>
      </trkpt>
      <trkpt lat="44.76132" lon="3.8789">
        <ele>1076.313</ele>
        <time>2021-09-30T18:09:41Z</time>
      </trkpt>
      <trkpt lat="44.76127" lon="3.87872">
        <ele>1073.541</ele>
        <time>2021-09-30T18:10:21Z</time>
      </trkpt>
      <trkpt lat="44.76121" lon="3.87852">
        <ele>1070.981</ele>
        <time>2021-09-30T18:11:01Z</time>
      </trkpt>
      <trkpt lat="44.76119" lon="3.87844">
        <ele>1070.209</ele>
        <time>2021-09-30T18:11:41Z</time>
      </trkpt>
      <trkpt lat="44.76116" lon="3.87838">
        <ele>1069.508</ele>
        <time>2021-09-30T18:12:21Z</time>
      </trkpt>
      <trkpt lat="44.76111" lon="3.87826">
        <ele>1068.542</ele>
        <time>2021-09-30T18:13:01Z</time>
      </trkpt>
      <trkpt lat="44.76104" lon="3.87814">
        <ele>1067.328</ele>
        <time>2021-09-30T18:13:41Z</time>
      </trkpt>
      <trkpt lat="44.76103" lon="3.87811">
        <ele>1067.193</ele>
        <time>2021-09-30T18:14:21Z</time>
      </trkpt>
      <trkpt lat="44.76095" lon="3.87792">
        <ele>1065.985</ele>
        <time>2021-09-30T18:15:01Z</time>
      </trkpt>
      <trkpt lat="44.76092" lon="3.87786">
        <ele>1065.643</ele>
        <time>2021-09-30T18:15:41Z</time>
      </trkpt>
      <trkpt lat="44.76087" lon="3.87775">
        <ele>1065.016</ele>
        <time>2021-09-30T18:16:21Z</time>
      </trkpt>
      <trkpt lat="44.76075" lon="3.87751">
        <ele>1064.038</ele>
        <time>2021-09-30T18:17:01Z</time>
      </trkpt>
      <trkpt lat="44.76064" lon="3.8773">
        <ele>1064.078</ele>
        <time>2021-09-30T18:17:41Z</time>
      </trkpt>
      <trkpt lat="44.76054" lon="3.87712">
        <ele>1064.054</ele>
        <time>2021-09-30T18:18:21Z</time>
      </trkpt>
      <trkpt lat="44.76049" lon="3.87704">
        <ele>1064.156</ele>
        <time>2021-09-30T18:19:01Z</time>
      </trkpt>
      <trkpt lat="44.76041" lon="3.8769">
        <ele>1063.811</ele>
        <time>2021-09-30T18:19:41Z</time>
      </trkpt>
      <trkpt lat="44.76033" lon="3.87676">
        <ele>1063.308</ele>
        <time>2021-09-30T18:20:21Z</time>
      </trkpt>
      <trkpt lat="44.76025" lon="3.8766">
        <ele>1063.173</ele>
        <time>2021-09-30T18:21:01Z</time>
      </trkpt>
      <trkpt lat="44.7602" lon="3.87647">
        <ele>1063.189</ele>
        <time>2021-09-30T18:21:41Z</time>
      </trkpt>
      <trkpt lat="44.76015" lon="3.87623">
        <ele>1063.384</ele>
        <time>2021-09-30T18:22:21Z</time>
      </trkpt>
      <trkpt lat="44.76007" lon="3.87594">
        <ele>1063.196</ele>
        <time>2021-09-30T18:23:01Z</time>
      </trkpt>
      <trkpt lat="44.75999" lon="3.87563">
        <ele>1060.874</ele>
        <time>2021-09-30T18:23:41Z</time>
      </trkpt>
      <trkpt lat="44.75994" lon="3.87542">
        <ele>1058.267</ele>
        <time>2021-09-30T18:24:21Z</time>
      </trkpt>
      <trkpt lat="44.75991" lon="3.87529">
        <ele>1056.589</ele>
        <time>2021-09-30T18:25:01Z</time>
      </trkpt>
      <trkpt lat="44.75989" lon="3.87522">
        <ele>1055.789</ele>
        <time>2021-09-30T18:25:41Z</time>
      </trkpt>
      <trkpt lat="44.75986" lon="3.87506">
        <ele>1053.895</ele>
        <time>2021-09-30T18:26:21Z</time>
      </trkpt>
      <trkpt lat="44.75977" lon="3.87488">
        <ele>1051.749</ele>
        <time>2021-09-30T18:27:01Z</time>
      </trkpt>
      <trkpt lat="44.75965" lon="3.87469">
        <ele>1050.123</ele>
        <time>2021-09-30T18:27:41Z</time>
      </trkpt>
      <trkpt lat="44.75955" lon="3.87459">
        <ele>1049.908</ele>
        <time>2021-09-30T18:28:21Z</time>
      </trkpt>
      <trkpt lat="44.75948" lon="3.87453">
        <ele>1049.737</ele>
        <time>2021-09-30T18:29:01Z</time>
      </trkpt>
      <trkpt lat="44.75934" lon="3.87443">
        <ele>1049.293</ele>
        <time>2021-09-30T18:29:41Z</time>
      </trkpt>
      <trkpt lat="44.7592" lon="3.87432">
        <ele>1048.298</ele>
        <time>2021-09-30T18:30:21Z</time>
      </trkpt>
      <trkpt lat="44.75917" lon="3.8743">
        <ele>1047.94</ele>
        <time>2021-09-30T18:31:01Z</time>
      </trkpt>
      <trkpt lat="44.75907" lon="3.87422">
        <ele>1046.168</ele>
        <time>2021-09-30T18:31:41Z</time>
      </trkpt>
      <trkpt lat="44.75895" lon="3.87411">
        <ele>1043.721</ele>
        <time>2021-09-30T18:32:21Z</time>
      </trkpt>
      <trkpt lat="44.75887" lon="3.87403">
        <ele>1042.643</ele>
        <time>2021-09-30T18:33:01Z</time>
      </trkpt>
      <trkpt lat="44.75877" lon="3.87394">
        <ele>1041.743</ele>
        <time>2021-09-30T18:33:41Z</time>
      </trkpt>
      <trkpt lat="44.75869" lon="3.87387">
        <ele>1040.826</ele>
        <time>2021-09-30T18:34:21Z</time>
      </trkpt>
      <trkpt lat="44.75857" lon="3.87375">
        <ele>1039.247</ele>
        <time>2021-09-30T18:35:01Z</time>
      </trkpt>
      <trkpt lat="44.75844" lon="3.87365">
        <ele>1037.211</ele>
        <time>2021-09-30T18:35:41Z</time>
      </trkpt>
      <trkpt lat="44.75831" lon="3.87355">
        <ele>1035.308</ele>
        <time>2021-09-30T18:36:21Z</time>
      </trkpt>
      <trkpt lat="44.75828" lon="3.87353">
        <ele>1035.16</ele>
        <time>2021-09-30T18:37:01Z</time>
      </trkpt>
      <trkpt lat="44.75818" lon="3.87345">
        <ele>1034.396</ele>
        <time>2021-09-30T18:37:41Z</time>
      </trkpt>
      <trkpt lat="44.75807" lon="3.87337">
        <ele>1033.421</ele>
        <time>2021-09-30T18:38:21Z</time>
      </trkpt>
      <trkpt lat="44.75794" lon="3.87328">
        <ele>1033.253</ele>
        <time>2021-09-30T18:39:01Z</time>
      </trkpt>
      <trkpt lat="44.75785" lon="3.87322">
        <ele>1033.081</ele>
        <time>2021-09-30T18:39:41Z</time>
      </trkpt>
      <trkpt lat="44.75778" lon="3.87316">
        <ele>1032.884</ele>
        <time>2021-09-30T18:40:21Z</time>
      </trkpt>
      <trkpt lat="44.75768" lon="3.87309">
        <ele>1032.216</ele>
        <time>2021-09-30T18:41:01Z</time>
      </trkpt>
      <trkpt lat="44.75758" lon="3.87302">
        <ele>1031.886</ele>
        <time>2021-09-30T18:41:41Z</time>
      </trkpt>
      <trkpt lat="44.75746" lon="3.87293">
        <ele>1031.074</ele>
        <time>2021-09-30T18:42:21Z</time>
      </trkpt>
      <trkpt lat="44.75741" lon="3.8729">
        <ele>1030.556</ele>
        <time>2021-09-30T18:43:01Z</time>
      </trkpt>
      <trkpt lat="44.75736" lon="3.87285">
        <ele>1030.021</ele>
        <time>2021-09-30T18:43:41Z</time>
      </trkpt>
      <trkpt lat="44.75728" lon="3.8728">
        <ele>1029.408</ele>
        <time>2021-09-30T18:44:21Z</time>
      </trkpt>
      <trkpt lat="44.75712" lon="3.87268">
        <ele>1027.265</ele>
        <time>2021-09-30T18:45:01Z</time>
      </trkpt>
      <trkpt lat="44.75702" lon="3.87261">
        <ele>1025.741</ele>
        <time>2021-09-30T18:45:41Z</time>
      </trkpt>
      <trkpt lat="44.75699" lon="3.87258">
        <ele>1025.246</ele>
        <time>2021-09-30T18:46:21Z</time>
      </trkpt>
      <trkpt lat="44.75693" lon="3.87253">
        <ele>1024.488</ele>
        <time>2021-09-30T18:47:01Z</time>
      </trkpt>
      <trkpt lat="44.75684" lon="3.87246">
        <ele>1024.526</ele>
        <time>2021-09-30T18:47:41Z</time>
      </trkpt>
      <trkpt lat="44.75676" lon="3.87239">
        <ele>1024.429</ele>
        <time>2021-09-30T18:48:21Z</time>
      </trkpt>
      <trkpt lat="44.75668" lon="3.87232">
        <ele>1024.181</ele>
        <time>2021-09-30T18:49:01Z</time>
      </trkpt>
      <trkpt lat="44.75665" lon="3.8723">
        <ele>1023.861</ele>
        <time>2021-09-30T18:49:41Z</time>
      </trkpt>
      <trkpt lat="44.75652" lon="3.87217">
        <ele>1022.868</ele>
        <time>2021-09-30T18:50:21Z</time>
      </trkpt>
      <trkpt lat="44.7564" lon="3.87202">
        <ele>1022.342</ele>
        <time>2021-09-30T18:51:01Z</time>
      </trkpt>
      <trkpt lat="44.75635" lon="3.87196">
        <ele>1021.826</ele>
        <time>2021-09-30T18:51:41Z</time>
      </trkpt>
      <trkpt lat="44.75629" lon="3.87188">
        <ele>1021.208</ele>
        <time>2021-09-30T18:52:21Z</time>
      </trkpt>
      <trkpt lat="44.75621" lon="3.87176">
        <ele>1020.554</ele>
        <time>2021-09-30T18:53:01Z</time>
      </trkpt>
      <trkpt lat="44.75609" lon="3.8716">
        <ele>1019.84</ele>
        <time>2021-09-30T18:53:41Z</time>
      </trkpt>
      <trkpt lat="44.75602" lon="3.87151">
        <ele>1019.415</ele>
        <time>2021-09-30T18:54:21Z</time>
      </trkpt>
      <trkpt lat="44.75591" lon="3.87135">
        <ele>1018.997</ele>
        <time>2021-09-30T18:55:01Z</time>
      </trkpt>
      <trkpt lat="44.7558" lon="3.8712">
        <ele>1018.495</ele>
        <time>2021-09-30T18:55:41Z</time>
      </trkpt>
      <trkpt lat="44.75557" lon="3.87089">
        <ele>1017.428</ele>
        <time>2021-09-30T18:56:21Z</time>
      </trkpt>
      <trkpt lat="44.75555" lon="3.87086">
        <ele>1017.22</ele>
        <time>2021-09-30T18:57:01Z</time>
      </trkpt>
      <trkpt lat="44.75549" lon="3.87077">
        <ele>1016.72</ele>
        <time>2021-09-30T18:57:41Z</time>
      </trkpt>
      <trkpt lat="44.75542" lon="3.87066">
        <ele>1016.047</ele>
        <time>2021-09-30T18:58:21Z</time>
      </trkpt>
      <trkpt lat="44.75534" lon="3.87054">
        <ele>1015.229</ele>
        <time>2021-09-30T18:59:01Z</time>
      </trkpt>
      <trkpt lat="44.75529" lon="3.87045">
        <ele>1015.021</ele>
        <time>2021-09-30T18:59:41Z</time>
      </trkpt>
      <trkpt lat="44.75523" lon="3.87036">
        <ele>1014.908</ele>
        <time>2021-09-30T19:00:21Z</time>
      </trkpt>
      <trkpt lat="44.75519" lon="3.8703">
        <ele>1015.092</ele>
        <time>2021-09-30T19:01:01Z</time>
      </trkpt>
      <trkpt lat="44.75515" lon="3.87021">
        <ele>1015.168</ele>
        <time>2021-09-30T19:01:41Z</time>
      </trkpt>
      <trkpt lat="44.75512" lon="3.87003">
        <ele>1015.453</ele>
        <time>2021-09-30T19:02:21Z</time>
      </trkpt>
      <trkpt lat="44.75509" lon="3.86992">
        <ele>1015.325</ele>
        <time>2021-09-30T19:03:01Z</time>
      </trkpt>
      <trkpt lat="44.75509" lon="3.86984">
        <ele>1015.343</ele>
        <time>2021-09-30T19:03:41Z</time>
      </trkpt>
      <trkpt lat="44.75507" lon="3.86977">
        <ele>1015.356</ele>
        <time>2021-09-30T19:04:21Z</time>
      </trkpt>
      <trkpt lat="44.75504" lon="3.86969">
        <ele>1015.028</ele>
        <time>2021-09-30T19:05:01Z</time>
      </trkpt>
      <trkpt lat="44.755" lon="3.86957">
        <ele>1014.498</ele>
        <time>2021-09-30T19:05:41Z</time>
      </trkpt>
      <trkpt lat="44.75492" lon="3.86941">
        <ele>1013.639</ele>
        <time>2021-09-30T19:06:21Z</time>
      </trkpt>
      <trkpt lat="44.75481" lon="3.86922">
        <ele>1012.501</ele>
        <time>2021-09-30T19:07:01Z</time>
      </trkpt>
      <trkpt lat="44.75476" lon="3.86912">
        <ele>1012.121</ele>
        <time>2021-09-30T19:07:41Z</time>
      </trkpt>
      <trkpt lat="44.75471" lon="3.86904">
        <ele>1012.008</ele>
        <time>2021-09-30T19:08:21Z</time>
      </trkpt>
      <trkpt lat="44.75466" lon="3.86895">
        <ele>1011.811</ele>
        <time>2021-09-30T19:09:01Z</time>
      </trkpt>
      <trkpt lat="44.7546" lon="3.86885">
        <ele>1011.587</ele>
        <time>2021-09-30T19:09:41Z</time>
      </trkpt>
      <trkpt lat="44.7545" lon="3.86872">
        <ele>1011.232</ele>
        <time>2021-09-30T19:10:21Z</time>
      </trkpt>
      <trkpt lat="44.75441" lon="3.86858">
        <ele>1010.854</ele>
        <time>2021-09-30T19:11:01Z</time>
      </trkpt>
      <trkpt lat="44.75426" lon="3.86839">
        <ele>1009.672</ele>
        <time>2021-09-30T19:11:41Z</time>
      </trkpt>
      <trkpt lat="44.75416" lon="3.8682">
        <ele>1008.615</ele>
        <time>2021-09-30T19:12:21Z</time>
      </trkpt>
      <trkpt lat="44.75413" lon="3.86816">
        <ele>1008.537</ele>
        <time>2021-09-30T19:13:01Z</time>
      </trkpt>
      <trkpt lat="44.75407" lon="3.86808">
        <ele>1008.487</ele>
        <time>2021-09-30T19:13:41Z</time>
      </trkpt>
      <trkpt lat="44.75404" lon="3.86805">
        <ele>1008.416</ele>
        <time>2021-09-30T19:14:21Z</time>
      </trkpt>
      <trkpt lat="44.75403" lon="3.86803">
        <ele>1008.476</ele>
        <time>2021-09-30T19:15:01Z</time>
      </trkpt>
      <trkpt lat="44.75401" lon="3.86801">
        <ele>1008.413</ele>
        <time>2021-09-30T19:15:41Z</time>
      </trkpt>
      <trkpt lat="44.75394" lon="3.86794">
        <ele>1008.608</ele>
        <time>2021-09-30T19:16:21Z</time>
      </trkpt>
      <trkpt lat="44.75382" lon="3.86784">
        <ele>1009.319</ele>
        <time>2021-09-30T19:17:01Z</time>
      </trkpt>
      <trkpt lat="44.75374" lon="3.86776">
        <ele>1009.545</ele>
        <time>2021-09-30T19:17:41Z</time>
      </trkpt>
      <trkpt lat="44.75365" lon="3.86769">
        <ele>1009.56</ele>
        <time>2021-09-30T19:18:21Z</time>
      </trkpt>
      <trkpt lat="44.75359" lon="3.86763">
        <ele>1009.542</ele>
        <time>2021-09-30T19:19:01Z</time>
      </trkpt>
      <trkpt lat="44.7535" lon="3.86756">
        <ele>1009.52</ele>
        <time>2021-09-30T19:19:41Z</time>
      </trkpt>
      <trkpt lat="44.75344" lon="3.86752">
        <ele>1009.693</ele>
        <time>2021-09-30T19:20:21Z</time>
      </trkpt>
      <trkpt lat="44.75341" lon="3.8675">
        <ele>1009.755</ele>
        <time>2021-09-30T19:21:01Z</time>
      </trkpt>
      <trkpt lat="44.75338" lon="3.86747">
        <ele>1009.865</ele>
        <time>2021-09-30T19:21:41Z</time>
      </trkpt>
      <trkpt lat="44.75337" lon="3.86747">
        <ele>1009.985</ele>
        <time>2021-09-30T19:22:21Z</time>
      </trkpt>
      <trkpt lat="44.75336" lon="3.86746">
        <ele>1009.989</ele>
        <time>2021-09-30T19:23:01Z</time>
      </trkpt>
      <trkpt lat="44.75334" lon="3.86744">
        <ele>1010.017</ele>
        <time>2021-09-30T19:23:41Z</time>
      </trkpt>
      <trkpt lat="44.7533" lon="3.86741">
        <ele>1010.008</ele>
        <time>2021-09-30T19:24:21Z</time>
      </trkpt>
      <trkpt lat="44.75323" lon="3.86735">
        <ele>1010.226</ele>
        <time>2021-09-30T19:25:01Z</time>
      </trkpt>
      <trkpt lat="44.75316" lon="3.86728">
        <ele>1010.592</ele>
        <time>2021-09-30T19:25:41Z</time>
      </trkpt>
      <trkpt lat="44.753" lon="3.86709">
        <ele>1010.837</ele>
        <time>2021-09-30T19:26:21Z</time>
      </trkpt>
      <trkpt lat="44.75277" lon="3.86677">
        <ele>1010.089</ele>
        <time>2021-09-30T19:27:01Z</time>
      </trkpt>
      <trkpt lat="44.75271" lon="3.86668">
        <ele>1010.237</ele>
        <time>2021-09-30T19:27:41Z</time>
      </trkpt>
      <trkpt lat="44.75251" lon="3.8664">
        <ele>1011.08</ele>
        <time>2021-09-30T19:28:21Z</time>
      </trkpt>
      <trkpt lat="44.7524" lon="3.86624">
        <ele>1012.232</ele>
        <time>2021-09-30T19:29:01Z</time>
      </trkpt>
      <trkpt lat="44.75235" lon="3.86617">
        <ele>1012.972</ele>
        <time>2021-09-30T19:29:41Z</time>
      </trkpt>
      <trkpt lat="44.75229" lon="3.86609">
        <ele>1013.516</ele>
        <time>2021-09-30T19:30:21Z</time>
      </trkpt>
      <trkpt lat="44.75211" lon="3.86582">
        <ele>1014.876</ele>
        <time>2021-09-30T19:31:01Z</time>
      </trkpt>
      <trkpt lat="44.75195" lon="3.86552">
        <ele>1017.113</ele>
        <time>2021-09-30T19:31:41Z</time>
      </trkpt>
      <trkpt lat="44.75172" lon="3.86509">
        <ele>1017.108</ele>
        <time>2021-09-30T19:32:21Z</time>
      </trkpt>
      <trkpt lat="44.75151" lon="3.86469">
        <ele>1015.849</ele>
        <time>2021-09-30T19:33:01Z</time>
      </trkpt>
      <trkpt lat="44.7514" lon="3.86444">
        <ele>1015.065</ele>
        <time>2021-09-30T19:33:41Z</time>
      </trkpt>
      <trkpt lat="44.75126" lon="3.86416">
        <ele>1012.08</ele>
        <time>2021-09-30T19:34:21Z</time>
      </trkpt>
      <trkpt lat="44.75117" lon="3.86391">
        <ele>1009.642</ele>
        <time>2021-09-30T19:35:01Z</time>
      </trkpt>
      <trkpt lat="44.75113" lon="3.86378">
        <ele>1008.71</ele>
        <time>2021-09-30T19:35:41Z</time>
      </trkpt>
      <trkpt lat="44.75108" lon="3.86366">
        <ele>1008.133</ele>
        <time>2021-09-30T19:36:21Z</time>
      </trkpt>
      <trkpt lat="44.75096" lon="3.86353">
        <ele>1008.025</ele>
        <time>2021-09-30T19:37:01Z</time>
      </trkpt>
      <trkpt lat="44.75069" lon="3.86319">
        <ele>1008.285</ele>
        <time>2021-09-30T19:37:41Z</time>
      </trkpt>
      <trkpt lat="44.75062" lon="3.8631">
        <ele>1008.285</ele>
        <time>2021-09-30T19:38:21Z</time>
      </trkpt>
      <trkpt lat="44.75036" lon="3.8628">
        <ele>1008.989</ele>
        <time>2021-09-30T19:39:01Z</time>
      </trkpt>
      <trkpt lat="44.75027" lon="3.86268">
        <ele>1009.017</ele>
        <time>2021-09-30T19:39:41Z</time>
      </trkpt>
      <trkpt lat="44.75022" lon="3.86263">
        <ele>1008.908</ele>
        <time>2021-09-30T19:40:21Z</time>
      </trkpt>
      <trkpt lat="44.75019" lon="3.8626">
        <ele>1008.976</ele>
        <time>2021-09-30T19:41:01Z</time>
      </trkpt>
      <trkpt lat="44.75017" lon="3.86257">
        <ele>1008.962</ele>
        <time>2021-09-30T19:41:41Z</time>
      </trkpt>
      <trkpt lat="44.74985" lon="3.8622">
        <ele>1008.977</ele>
        <time>2021-09-30T19:42:21Z</time>
      </trkpt>
      <trkpt lat="44.74973" lon="3.86207">
        <ele>1008.119</ele>
        <time>2021-09-30T19:43:01Z</time>
      </trkpt>
      <trkpt lat="44.74962" lon="3.86201">
        <ele>1007.327</ele>
        <time>2021-09-30T19:43:41Z</time>
      </trkpt>
      <trkpt lat="44.74927" lon="3.86187">
        <ele>1005.62</ele>
        <time>2021-09-30T19:44:21Z</time>
      </trkpt>
      <trkpt lat="44.74905" lon="3.8618">
        <ele>1005.322</ele>
        <time>2021-09-30T19:45:01Z</time>
      </trkpt>
      <trkpt lat="44.74885" lon="3.86173">
        <ele>1004.772</ele>
        <time>2021-09-30T19:45:41Z</time>
      </trkpt>
      <trkpt lat="44.74874" lon="3.86169">
        <ele>1004.024</ele>
        <time>2021-09-30T19:46:21Z</time>
      </trkpt>
      <trkpt lat="44.74854" lon="3.86161">
        <ele>1002.404</ele>
        <time>2021-09-30T19:47:01Z</time>
      </trkpt>
      <trkpt lat="44.74848" lon="3.86159">
        <ele>1001.914</ele>
        <time>2021-09-30T19:47:41Z</time>
      </trkpt>
      <trkpt lat="44.7484" lon="3.86155">
        <ele>1001.208</ele>
        <time>2021-09-30T19:48:21Z</time>
      </trkpt>
      <trkpt lat="44.74828" lon="3.86149">
        <ele>1000.02</ele>
        <time>2021-09-30T19:49:01Z</time>
      </trkpt>
      <trkpt lat="44.7481" lon="3.86138">
        <ele>998.226</ele>
        <time>2021-09-30T19:49:41Z</time>
      </trkpt>
      <trkpt lat="44.74795" lon="3.86129">
        <ele>996.651</ele>
        <time>2021-09-30T19:50:21Z</time>
      </trkpt>
      <trkpt lat="44.7479" lon="3.86126">
        <ele>996.223</ele>
        <time>2021-09-30T19:51:01Z</time>
      </trkpt>
      <trkpt lat="44.74788" lon="3.86125">
        <ele>996.081</ele>
        <time>2021-09-30T19:51:41Z</time>
      </trkpt>
      <trkpt lat="44.74786" lon="3.86123">
        <ele>995.924</ele>
        <time>2021-09-30T19:52:21Z</time>
      </trkpt>
      <trkpt lat="44.74782" lon="3.86121">
        <ele>995.556</ele>
        <time>2021-09-30T19:53:01Z</time>
      </trkpt>
      <trkpt lat="44.74762" lon="3.86107">
        <ele>993.116</ele>
        <time>2021-09-30T19:53:41Z</time>
      </trkpt>
      <trkpt lat="44.74746" lon="3.86091">
        <ele>990.944</ele>
        <time>2021-09-30T19:54:21Z</time>
      </trkpt>
      <trkpt lat="44.74733" lon="3.86075">
        <ele>988.605</ele>
        <time>2021-09-30T19:55:01Z</time>
      </trkpt>
      <trkpt lat="44.74725" lon="3.86066">
        <ele>987.615</ele>
        <time>2021-09-30T19:55:41Z</time>
      </trkpt>
      <trkpt lat="44.74714" lon="3.86055">
        <ele>986.308</ele>
        <time>2021-09-30T19:56:21Z</time>
      </trkpt>
      <trkpt lat="44.74701" lon="3.86043">
        <ele>984.972</ele>
        <time>2021-09-30T19:57:01Z</time>
      </trkpt>
      <trkpt lat="44.74662" lon="3.86012">
        <ele>979.718</ele>
        <time>2021-09-30T19:57:41Z</time>
      </trkpt>
      <trkpt lat="44.74644" lon="3.85997">
        <ele>978.413</ele>
        <time>2021-09-30T19:58:21Z</time>
      </trkpt>
      <trkpt lat="44.74615" lon="3.85973">
        <ele>977.155</ele>
        <time>2021-09-30T19:59:01Z</time>
      </trkpt>
      <trkpt lat="44.74588" lon="3.85953">
        <ele>975.933</ele>
        <time>2021-09-30T19:59:41Z</time>
      </trkpt>
      <trkpt lat="44.74571" lon="3.85941">
        <ele>975.256</ele>
        <time>2021-09-30T20:00:21Z</time>
      </trkpt>
      <trkpt lat="44.7456" lon="3.85936">
        <ele>974.898</ele>
        <time>2021-09-30T20:01:01Z</time>
      </trkpt>
      <trkpt lat="44.74553" lon="3.85936">
        <ele>974.638</ele>
        <time>2021-09-30T20:01:41Z</time>
      </trkpt>
      <trkpt lat="44.74548" lon="3.85938">
        <ele>974.561</ele>
        <time>2021-09-30T20:02:21Z</time>
      </trkpt>
      <trkpt lat="44.7454" lon="3.85942">
        <ele>974.221</ele>
        <time>2021-09-30T20:03:01Z</time>
      </trkpt>
      <trkpt lat="44.74531" lon="3.85948">
        <ele>973.713</ele>
        <time>2021-09-30T20:03:41Z</time>
      </trkpt>
      <trkpt lat="44.74524" lon="3.85953">
        <ele>973.208</ele>
        <time>2021-09-30T20:04:21Z</time>
      </trkpt>
      <trkpt lat="44.74518" lon="3.85958">
        <ele>972.724</ele>
        <time>2021-09-30T20:05:01Z</time>
      </trkpt>
      <trkpt lat="44.74507" lon="3.85968">
        <ele>971.69</ele>
        <time>2021-09-30T20:05:41Z</time>
      </trkpt>
      <trkpt lat="44.74502" lon="3.85973">
        <ele>970.965</ele>
        <time>2021-09-30T20:06:21Z</time>
      </trkpt>
      <trkpt lat="44.74497" lon="3.85979">
        <ele>970.417</ele>
        <time>2021-09-30T20:07:01Z</time>
      </trkpt>
      <trkpt lat="44.74482" lon="3.85993">
        <ele>969.935</ele>
        <time>2021-09-30T20:07:41Z</time>
      </trkpt>
      <trkpt lat="44.74468" lon="3.86003">
        <ele>969.868</ele>
        <time>2021-09-30T20:08:21Z</time>
      </trkpt>
      <trkpt lat="44.74458" lon="3.86009">
        <ele>969.68</ele>
        <time>2021-09-30T20:09:01Z</time>
      </trkpt>
      <trkpt lat="44.74453" lon="3.86009">
        <ele>969.79</ele>
        <time>2021-09-30T20:09:41Z</time>
      </trkpt>
      <trkpt lat="44.74448" lon="3.86009">
        <ele>969.883</ele>
        <time>2021-09-30T20:10:21Z</time>
      </trkpt>
      <trkpt lat="44.74444" lon="3.8601">
        <ele>969.925</ele>
        <time>2021-09-30T20:11:01Z</time>
      </trkpt>
      <trkpt lat="44.74438" lon="3.8601">
        <ele>969.617</ele>
        <time>2021-09-30T20:11:41Z</time>
      </trkpt>
      <trkpt lat="44.74432" lon="3.86011">
        <ele>969.408</ele>
        <time>2021-09-30T20:12:21Z</time>
      </trkpt>
      <trkpt lat="44.74427" lon="3.86012">
        <ele>969.136</ele>
        <time>2021-09-30T20:13:01Z</time>
      </trkpt>
      <trkpt lat="44.74421" lon="3.86012">
        <ele>968.942</ele>
        <time>2021-09-30T20:13:41Z</time>
      </trkpt>
      <trkpt lat="44.74415" lon="3.86011">
        <ele>968.767</ele>
        <time>2021-09-30T20:14:21Z</time>
      </trkpt>
      <trkpt lat="44.74409" lon="3.86011">
        <ele>968.519</ele>
        <time>2021-09-30T20:15:01Z</time>
      </trkpt>
      <trkpt lat="44.74403" lon="3.86011">
        <ele>968.427</ele>
        <time>2021-09-30T20:15:41Z</time>
      </trkpt>
      <trkpt lat="44.74398" lon="3.86009">
        <ele>968.45</ele>
        <time>2021-09-30T20:16:21Z</time>
      </trkpt>
      <trkpt lat="44.74393" lon="3.86007">
        <ele>968.412</ele>
        <time>2021-09-30T20:17:01Z</time>
      </trkpt>
      <trkpt lat="44.74388" lon="3.86005">
        <ele>968.432</ele>
        <time>2021-09-30T20:17:41Z</time>
      </trkpt>
      <trkpt lat="44.74383" lon="3.86003">
        <ele>968.616</ele>
        <time>2021-09-30T20:18:21Z</time>
      </trkpt>
      <trkpt lat="44.74378" lon="3.86002">
        <ele>968.876</ele>
        <time>2021-09-30T20:19:01Z</time>
      </trkpt>
      <trkpt lat="44.74373" lon="3.86">
        <ele>969.013</ele>
        <time>2021-09-30T20:19:41Z</time>
      </trkpt>
      <trkpt lat="44.74368" lon="3.85999">
        <ele>969.208</ele>
        <time>2021-09-30T20:20:21Z</time>
      </trkpt>
      <trkpt lat="44.74362" lon="3.85997">
        <ele>969.419</ele>
        <time>2021-09-30T20:21:01Z</time>
      </trkpt>
      <trkpt lat="44.74357" lon="3.85996">
        <ele>969.975</ele>
        <time>2021-09-30T20:21:41Z</time>
      </trkpt>
      <trkpt lat="44.74352" lon="3.85994">
        <ele>970.56</ele>
        <time>2021-09-30T20:22:21Z</time>
      </trkpt>
      <trkpt lat="44.74347" lon="3.85993">
        <ele>971.122</ele>
        <time>2021-09-30T20:23:01Z</time>
      </trkpt>
      <trkpt lat="44.74341" lon="3.85991">
        <ele>971.78</ele>
        <time>2021-09-30T20:23:41Z</time>
      </trkpt>
      <trkpt lat="44.74336" lon="3.8599">
        <ele>972.323</ele>
        <time>2021-09-30T20:24:21Z</time>
      </trkpt>
      <trkpt lat="44.7433" lon="3.85988">
        <ele>972.665</ele>
        <time>2021-09-30T20:25:01Z</time>
      </trkpt>
      <trkpt lat="44.74325" lon="3.85987">
        <ele>972.665</ele>
        <time>2021-09-30T20:25:41Z</time>
      </trkpt>
      <trkpt lat="44.7432" lon="3.85986">
        <ele>972.676</ele>
        <time>2021-09-30T20:26:21Z</time>
      </trkpt>
      <trkpt lat="44.74316" lon="3.85985">
        <ele>972.59</ele>
        <time>2021-09-30T20:27:01Z</time>
      </trkpt>
      <trkpt lat="44.74312" lon="3.85984">
        <ele>972.519</ele>
        <time>2021-09-30T20:27:41Z</time>
      </trkpt>
      <trkpt lat="44.74307" lon="3.85981">
        <ele>972.808</ele>
        <time>2021-09-30T20:28:21Z</time>
      </trkpt>
      <trkpt lat="44.74302" lon="3.85978">
        <ele>972.715</ele>
        <time>2021-09-30T20:29:01Z</time>
      </trkpt>
      <trkpt lat="44.74298" lon="3.85975">
        <ele>972.511</ele>
        <time>2021-09-30T20:29:41Z</time>
      </trkpt>
      <trkpt lat="44.74292" lon="3.85973">
        <ele>971.936</ele>
        <time>2021-09-30T20:30:21Z</time>
      </trkpt>
      <trkpt lat="44.74286" lon="3.85971">
        <ele>971.468</ele>
        <time>2021-09-30T20:31:01Z</time>
      </trkpt>
      <trkpt lat="44.7428" lon="3.85969">
        <ele>970.916</ele>
        <time>2021-09-30T20:31:41Z</time>
      </trkpt>
      <trkpt lat="44.74275" lon="3.85967">
        <ele>970.629</ele>
        <time>2021-09-30T20:32:21Z</time>
      </trkpt>
      <trkpt lat="44.7427" lon="3.85965">
        <ele>970.181</ele>
        <time>2021-09-30T20:33:01Z</time>
      </trkpt>
      <trkpt lat="44.74265" lon="3.85963">
        <ele>969.791</ele>
        <time>2021-09-30T20:33:41Z</time>
      </trkpt>
      <trkpt lat="44.7426" lon="3.85961">
        <ele>969.295</ele>
        <time>2021-09-30T20:34:21Z</time>
      </trkpt>
      <trkpt lat="44.74255" lon="3.85959">
        <ele>968.749</ele>
        <time>2021-09-30T20:35:01Z</time>
      </trkpt>
      <trkpt lat="44.74249" lon="3.85956">
        <ele>968.223</ele>
        <time>2021-09-30T20:35:41Z</time>
      </trkpt>
      <trkpt lat="44.74243" lon="3.85952">
        <ele>967.508</ele>
        <time>2021-09-30T20:36:21Z</time>
      </trkpt>
      <trkpt lat="44.74238" lon="3.85949">
        <ele>966.837</ele>
        <time>2021-09-30T20:37:01Z</time>
      </trkpt>
      <trkpt lat="44.74232" lon="3.85945">
        <ele>966.083</ele>
        <time>2021-09-30T20:37:41Z</time>
      </trkpt>
      <trkpt lat="44.74228" lon="3.85941">
        <ele>965.698</ele>
        <time>2021-09-30T20:38:21Z</time>
      </trkpt>
      <trkpt lat="44.74224" lon="3.85937">
        <ele>965.11</ele>
        <time>2021-09-30T20:39:01Z</time>
      </trkpt>
      <trkpt lat="44.7422" lon="3.85933">
        <ele>964.738</ele>
        <time>2021-09-30T20:39:41Z</time>
      </trkpt>
      <trkpt lat="44.74216" lon="3.85929">
        <ele>964.191</ele>
        <time>2021-09-30T20:40:21Z</time>
      </trkpt>
      <trkpt lat="44.74213" lon="3.85924">
        <ele>963.913</ele>
        <time>2021-09-30T20:41:01Z</time>
      </trkpt>
      <trkpt lat="44.7421" lon="3.85919">
        <ele>963.673</ele>
        <time>2021-09-30T20:41:41Z</time>
      </trkpt>
      <trkpt lat="44.74206" lon="3.85914">
        <ele>963.142</ele>
        <time>2021-09-30T20:42:21Z</time>
      </trkpt>
      <trkpt lat="44.74203" lon="3.85909">
        <ele>962.522</ele>
        <time>2021-09-30T20:43:01Z</time>
      </trkpt>
      <trkpt lat="44.742" lon="3.85902">
        <ele>962.014</ele>
        <time>2021-09-30T20:43:41Z</time>
      </trkpt>
      <trkpt lat="44.74197" lon="3.85896">
        <ele>961.408</ele>
        <time>2021-09-30T20:44:21Z</time>
      </trkpt>
      <trkpt lat="44.74194" lon="3.85889">
        <ele>960.912</ele>
        <time>2021-09-30T20:45:01Z</time>
      </trkpt>
      <trkpt lat="44.74191" lon="3.85883">
        <ele>960.868</ele>
        <time>2021-09-30T20:45:41Z</time>
      </trkpt>
      <trkpt lat="44.74189" lon="3.85876">
        <ele>960.873</ele>
        <time>2021-09-30T20:46:21Z</time>
      </trkpt>
      <trkpt lat="44.74187" lon="3.85868">
        <ele>960.785</ele>
        <time>2021-09-30T20:47:01Z</time>
      </trkpt>
      <trkpt lat="44.74184" lon="3.85861">
        <ele>960.553</ele>
        <time>2021-09-30T20:47:41Z</time>
      </trkpt>
      <trkpt lat="44.74183" lon="3.85854">
        <ele>960.346</ele>
        <time>2021-09-30T20:48:21Z</time>
      </trkpt>
      <trkpt lat="44.74183" lon="3.85847">
        <ele>960.178</ele>
        <time>2021-09-30T20:49:01Z</time>
      </trkpt>
      <trkpt lat="44.74182" lon="3.8584">
        <ele>959.898</ele>
        <time>2021-09-30T20:49:41Z</time>
      </trkpt>
      <trkpt lat="44.74181" lon="3.85831">
        <ele>959.572</ele>
        <time>2021-09-30T20:50:21Z</time>
      </trkpt>
      <trkpt lat="44.74181" lon="3.85823">
        <ele>959.213</ele>
        <time>2021-09-30T20:51:01Z</time>
      </trkpt>
      <trkpt lat="44.74181" lon="3.85814">
        <ele>958.814</ele>
        <time>2021-09-30T20:51:41Z</time>
      </trkpt>
      <trkpt lat="44.7418" lon="3.85806">
        <ele>958.408</ele>
        <time>2021-09-30T20:52:21Z</time>
      </trkpt>
      <trkpt lat="44.74179" lon="3.85798">
        <ele>958.125</ele>
        <time>2021-09-30T20:53:01Z</time>
      </trkpt>
      <trkpt lat="44.74177" lon="3.85789">
        <ele>957.711</ele>
        <time>2021-09-30T20:53:41Z</time>
      </trkpt>
      <trkpt lat="44.74176" lon="3.85781">
        <ele>957.436</ele>
        <time>2021-09-30T20:54:21Z</time>
      </trkpt>
      <trkpt lat="44.74173" lon="3.85775">
        <ele>957.018</ele>
        <time>2021-09-30T20:55:01Z</time>
      </trkpt>
      <trkpt lat="44.74171" lon="3.85769">
        <ele>956.826</ele>
        <time>2021-09-30T20:55:41Z</time>
      </trkpt>
      <trkpt lat="44.74168" lon="3.85763">
        <ele>956.769</ele>
        <time>2021-09-30T20:56:21Z</time>
      </trkpt>
      <trkpt lat="44.74164" lon="3.85757">
        <ele>956.321</ele>
        <time>2021-09-30T20:57:01Z</time>
      </trkpt>
      <trkpt lat="44.7416" lon="3.85751">
        <ele>956.031</ele>
        <time>2021-09-30T20:57:41Z</time>
      </trkpt>
      <trkpt lat="44.74156" lon="3.85745">
        <ele>955.875</ele>
        <time>2021-09-30T20:58:21Z</time>
      </trkpt>
      <trkpt lat="44.74152" lon="3.85739">
        <ele>955.728</ele>
        <time>2021-09-30T20:59:01Z</time>
      </trkpt>
      <trkpt lat="44.74147" lon="3.85735">
        <ele>955.22</ele>
        <time>2021-09-30T20:59:41Z</time>
      </trkpt>
      <trkpt lat="44.74142" lon="3.85731">
        <ele>954.708</ele>
        <time>2021-09-30T21:00:21Z</time>
      </trkpt>
      <trkpt lat="44.74137" lon="3.85728">
        <ele>954.185</ele>
        <time>2021-09-30T21:01:01Z</time>
      </trkpt>
      <trkpt lat="44.74131" lon="3.85724">
        <ele>953.291</ele>
        <time>2021-09-30T21:01:41Z</time>
      </trkpt>
      <trkpt lat="44.74126" lon="3.85721">
        <ele>952.386</ele>
        <time>2021-09-30T21:02:21Z</time>
      </trkpt>
      <trkpt lat="44.74121" lon="3.85719">
        <ele>951.368</ele>
        <time>2021-09-30T21:03:01Z</time>
      </trkpt>
      <trkpt lat="44.74116" lon="3.85716">
        <ele>950.436</ele>
        <time>2021-09-30T21:03:41Z</time>
      </trkpt>
      <trkpt lat="44.74111" lon="3.85713">
        <ele>949.669</ele>
        <time>2021-09-30T21:04:21Z</time>
      </trkpt>
      <trkpt lat="44.74105" lon="3.8571">
        <ele>949.291</ele>
        <time>2021-09-30T21:05:01Z</time>
      </trkpt>
      <trkpt lat="44.741" lon="3.85707">
        <ele>949.021</ele>
        <time>2021-09-30T21:05:41Z</time>
      </trkpt>
      <trkpt lat="44.74096" lon="3.85704">
        <ele>948.759</ele>
        <time>2021-09-30T21:06:21Z</time>
      </trkpt>
      <trkpt lat="44.74091" lon="3.857">
        <ele>948.403</ele>
        <time>2021-09-30T21:07:01Z</time>
      </trkpt>
      <trkpt lat="44.74086" lon="3.85697">
        <ele>948.123</ele>
        <time>2021-09-30T21:07:41Z</time>
      </trkpt>
      <trkpt lat="44.74081" lon="3.85694">
        <ele>947.608</ele>
        <time>2021-09-30T21:08:21Z</time>
      </trkpt>
      <trkpt lat="44.74076" lon="3.8569">
        <ele>946.813</ele>
        <time>2021-09-30T21:09:01Z</time>
      </trkpt>
      <trkpt lat="44.74071" lon="3.85686">
        <ele>946.179</ele>
        <time>2021-09-30T21:09:41Z</time>
      </trkpt>
      <trkpt lat="44.74066" lon="3.85682">
        <ele>945.494</ele>
        <time>2021-09-30T21:10:21Z</time>
      </trkpt>
      <trkpt lat="44.74062" lon="3.85677">
        <ele>944.746</ele>
        <time>2021-09-30T21:11:01Z</time>
      </trkpt>
      <trkpt lat="44.74057" lon="3.85673">
        <ele>944.134</ele>
        <time>2021-09-30T21:11:41Z</time>
      </trkpt>
      <trkpt lat="44.74052" lon="3.85669">
        <ele>943.627</ele>
        <time>2021-09-30T21:12:21Z</time>
      </trkpt>
      <trkpt lat="44.74047" lon="3.85666">
        <ele>943.129</ele>
        <time>2021-09-30T21:13:01Z</time>
      </trkpt>
      <trkpt lat="44.74043" lon="3.85662">
        <ele>942.419</ele>
        <time>2021-09-30T21:13:41Z</time>
      </trkpt>
      <trkpt lat="44.74038" lon="3.85659">
        <ele>941.828</ele>
        <time>2021-09-30T21:14:21Z</time>
      </trkpt>
      <trkpt lat="44.74033" lon="3.85656">
        <ele>941.289</ele>
        <time>2021-09-30T21:15:01Z</time>
      </trkpt>
      <trkpt lat="44.74029" lon="3.85655">
        <ele>940.717</ele>
        <time>2021-09-30T21:15:41Z</time>
      </trkpt>
      <trkpt lat="44.74024" lon="3.85654">
        <ele>940.208</ele>
        <time>2021-09-30T21:16:21Z</time>
      </trkpt>
      <trkpt lat="44.74019" lon="3.85654">
        <ele>939.88</ele>
        <time>2021-09-30T21:17:01Z</time>
      </trkpt>
      <trkpt lat="44.74014" lon="3.85656">
        <ele>939.346</ele>
        <time>2021-09-30T21:17:41Z</time>
      </trkpt>
      <trkpt lat="44.74008" lon="3.85659">
        <ele>938.831</ele>
        <time>2021-09-30T21:18:21Z</time>
      </trkpt>
      <trkpt lat="44.74003" lon="3.85662">
        <ele>938.393</ele>
        <time>2021-09-30T21:19:01Z</time>
      </trkpt>
      <trkpt lat="44.73998" lon="3.85664">
        <ele>937.731</ele>
        <time>2021-09-30T21:19:41Z</time>
      </trkpt>
      <trkpt lat="44.73992" lon="3.85667">
        <ele>937.264</ele>
        <time>2021-09-30T21:20:21Z</time>
      </trkpt>
      <trkpt lat="44.73987" lon="3.8567">
        <ele>936.556</ele>
        <time>2021-09-30T21:21:01Z</time>
      </trkpt>
      <trkpt lat="44.73983" lon="3.85673">
        <ele>935.866</ele>
        <time>2021-09-30T21:21:41Z</time>
      </trkpt>
      <trkpt lat="44.73978" lon="3.85676">
        <ele>935.113</ele>
        <time>2021-09-30T21:22:21Z</time>
      </trkpt>
      <trkpt lat="44.73973" lon="3.85679">
        <ele>934.243</ele>
        <time>2021-09-30T21:23:01Z</time>
      </trkpt>
      <trkpt lat="44.73968" lon="3.85682">
        <ele>933.507</ele>
        <time>2021-09-30T21:23:41Z</time>
      </trkpt>
      <trkpt lat="44.73963" lon="3.85686">
        <ele>932.608</ele>
        <time>2021-09-30T21:24:21Z</time>
      </trkpt>
      <trkpt lat="44.73958" lon="3.8569">
        <ele>931.899</ele>
        <time>2021-09-30T21:25:01Z</time>
      </trkpt>
      <trkpt lat="44.73953" lon="3.85695">
        <ele>931.065</ele>
        <time>2021-09-30T21:25:41Z</time>
      </trkpt>
      <trkpt lat="44.73949" lon="3.85698">
        <ele>930.46</ele>
        <time>2021-09-30T21:26:21Z</time>
      </trkpt>
      <trkpt lat="44.73945" lon="3.85701">
        <ele>929.822</ele>
        <time>2021-09-30T21:27:01Z</time>
      </trkpt>
      <trkpt lat="44.73941" lon="3.85704">
        <ele>929.59</ele>
        <time>2021-09-30T21:27:41Z</time>
      </trkpt>
      <trkpt lat="44.73936" lon="3.85709">
        <ele>928.973</ele>
        <time>2021-09-30T21:28:21Z</time>
      </trkpt>
      <trkpt lat="44.73932" lon="3.85713">
        <ele>928.135</ele>
        <time>2021-09-30T21:29:01Z</time>
      </trkpt>
      <trkpt lat="44.73928" lon="3.85718">
        <ele>927.135</ele>
        <time>2021-09-30T21:29:41Z</time>
      </trkpt>
      <trkpt lat="44.73923" lon="3.85723">
        <ele>925.995</ele>
        <time>2021-09-30T21:30:21Z</time>
      </trkpt>
      <trkpt lat="44.73919" lon="3.85727">
        <ele>924.449</ele>
        <time>2021-09-30T21:31:01Z</time>
      </trkpt>
      <trkpt lat="44.73914" lon="3.85731">
        <ele>923.023</ele>
        <time>2021-09-30T21:31:41Z</time>
      </trkpt>
      <trkpt lat="44.73909" lon="3.85735">
        <ele>921.708</ele>
        <time>2021-09-30T21:32:21Z</time>
      </trkpt>
      <trkpt lat="44.73904" lon="3.85739">
        <ele>920.497</ele>
        <time>2021-09-30T21:33:01Z</time>
      </trkpt>
      <trkpt lat="44.73899" lon="3.8574">
        <ele>919.783</ele>
        <time>2021-09-30T21:33:41Z</time>
      </trkpt>
      <trkpt lat="44.73895" lon="3.85741">
        <ele>919.058</ele>
        <time>2021-09-30T21:34:21Z</time>
      </trkpt>
      <trkpt lat="44.73891" lon="3.85742">
        <ele>918.32</ele>
        <time>2021-09-30T21:35:01Z</time>
      </trkpt>
      <trkpt lat="44.73885" lon="3.85742">
        <ele>917.968</ele>
        <time>2021-09-30T21:35:41Z</time>
      </trkpt>
      <trkpt lat="44.7388" lon="3.85741">
        <ele>917.571</ele>
        <time>2021-09-30T21:36:21Z</time>
      </trkpt>
      <trkpt lat="44.73874" lon="3.85741">
        <ele>917.153</ele>
        <time>2021-09-30T21:37:01Z</time>
      </trkpt>
      <trkpt lat="44.73868" lon="3.85739">
        <ele>916.843</ele>
        <time>2021-09-30T21:37:41Z</time>
      </trkpt>
      <trkpt lat="44.73862" lon="3.85738">
        <ele>916.446</ele>
        <time>2021-09-30T21:38:21Z</time>
      </trkpt>
      <trkpt lat="44.73857" lon="3.85736">
        <ele>915.988</ele>
        <time>2021-09-30T21:39:01Z</time>
      </trkpt>
      <trkpt lat="44.73851" lon="3.85735">
        <ele>915.316</ele>
        <time>2021-09-30T21:39:41Z</time>
      </trkpt>
      <trkpt lat="44.73845" lon="3.85733">
        <ele>914.708</ele>
        <time>2021-09-30T21:40:21Z</time>
      </trkpt>
      <trkpt lat="44.73839" lon="3.85732">
        <ele>914.152</ele>
        <time>2021-09-30T21:41:01Z</time>
      </trkpt>
      <trkpt lat="44.73833" lon="3.8573">
        <ele>913.488</ele>
        <time>2021-09-30T21:41:41Z</time>
      </trkpt>
      <trkpt lat="44.73827" lon="3.85728">
        <ele>912.393</ele>
        <time>2021-09-30T21:42:21Z</time>
      </trkpt>
      <trkpt lat="44.73821" lon="3.85727">
        <ele>911.235</ele>
        <time>2021-09-30T21:43:01Z</time>
      </trkpt>
      <trkpt lat="44.73816" lon="3.85725">
        <ele>910.143</ele>
        <time>2021-09-30T21:43:41Z</time>
      </trkpt>
      <trkpt lat="44.7381" lon="3.85723">
        <ele>908.956</ele>
        <time>2021-09-30T21:44:21Z</time>
      </trkpt>
      <trkpt lat="44.73804" lon="3.85722">
        <ele>907.968</ele>
        <time>2021-09-30T21:45:01Z</time>
      </trkpt>
      <trkpt lat="44.73798" lon="3.8572">
        <ele>907.698</ele>
        <time>2021-09-30T21:45:41Z</time>
      </trkpt>
      <trkpt lat="44.73792" lon="3.85718">
        <ele>907.314</ele>
        <time>2021-09-30T21:46:21Z</time>
      </trkpt>
      <trkpt lat="44.73786" lon="3.85717">
        <ele>906.954</ele>
        <time>2021-09-30T21:47:01Z</time>
      </trkpt>
      <trkpt lat="44.7378" lon="3.85715">
        <ele>906.509</ele>
        <time>2021-09-30T21:47:41Z</time>
      </trkpt>
      <trkpt lat="44.73775" lon="3.85714">
        <ele>906.108</ele>
        <time>2021-09-30T21:48:21Z</time>
      </trkpt>
      <trkpt lat="44.73769" lon="3.85712">
        <ele>905.799</ele>
        <time>2021-09-30T21:49:01Z</time>
      </trkpt>
      <trkpt lat="44.73763" lon="3.8571">
        <ele>905.415</ele>
        <time>2021-09-30T21:49:41Z</time>
      </trkpt>
      <trkpt lat="44.73757" lon="3.85709">
        <ele>905.01</ele>
        <time>2021-09-30T21:50:21Z</time>
      </trkpt>
      <trkpt lat="44.73751" lon="3.85707">
        <ele>904.652</ele>
        <time>2021-09-30T21:51:01Z</time>
      </trkpt>
      <trkpt lat="44.73745" lon="3.85705">
        <ele>904.55</ele>
        <time>2021-09-30T21:51:41Z</time>
      </trkpt>
      <trkpt lat="44.7374" lon="3.85703">
        <ele>904.483</ele>
        <time>2021-09-30T21:52:21Z</time>
      </trkpt>
      <trkpt lat="44.73735" lon="3.85702">
        <ele>904.315</ele>
        <time>2021-09-30T21:53:01Z</time>
      </trkpt>
      <trkpt lat="44.7373" lon="3.857">
        <ele>904.245</ele>
        <time>2021-09-30T21:53:41Z</time>
      </trkpt>
      <trkpt lat="44.73726" lon="3.85701">
        <ele>904.178</ele>
        <time>2021-09-30T21:54:21Z</time>
      </trkpt>
      <trkpt lat="44.73722" lon="3.85702">
        <ele>904.033</ele>
        <time>2021-09-30T21:55:01Z</time>
      </trkpt>
      <trkpt lat="44.73719" lon="3.85709">
        <ele>903.926</ele>
        <time>2021-09-30T21:55:41Z</time>
      </trkpt>
      <trkpt lat="44.73715" lon="3.85716">
        <ele>903.808</ele>
        <time>2021-09-30T21:56:21Z</time>
      </trkpt>
      <trkpt lat="44.73712" lon="3.85724">
        <ele>903.695</ele>
        <time>2021-09-30T21:57:01Z</time>
      </trkpt>
      <trkpt lat="44.73709" lon="3.85731">
        <ele>903.761</ele>
        <time>2021-09-30T21:57:41Z</time>
      </trkpt>
      <trkpt lat="44.73706" lon="3.85736">
        <ele>903.796</ele>
        <time>2021-09-30T21:58:21Z</time>
      </trkpt>
      <trkpt lat="44.73704" lon="3.85742">
        <ele>903.858</ele>
        <time>2021-09-30T21:59:01Z</time>
      </trkpt>
      <trkpt lat="44.73702" lon="3.85747">
        <ele>903.956</ele>
        <time>2021-09-30T21:59:41Z</time>
      </trkpt>
      <trkpt lat="44.73701" lon="3.85753">
        <ele>904.379</ele>
        <time>2021-09-30T22:00:21Z</time>
      </trkpt>
      <trkpt lat="44.737" lon="3.8576">
        <ele>904.921</ele>
        <time>2021-09-30T22:01:01Z</time>
      </trkpt>
      <trkpt lat="44.73695" lon="3.85758">
        <ele>904.811</ele>
        <time>2021-09-30T22:01:41Z</time>
      </trkpt>
      <trkpt lat="44.7369" lon="3.85756">
        <ele>904.944</ele>
        <time>2021-09-30T22:02:21Z</time>
      </trkpt>
      <trkpt lat="44.73686" lon="3.85755">
        <ele>905.105</ele>
        <time>2021-09-30T22:03:01Z</time>
      </trkpt>
      <trkpt lat="44.73681" lon="3.85753">
        <ele>905.215</ele>
        <time>2021-09-30T22:03:41Z</time>
      </trkpt>
      <trkpt lat="44.73676" lon="3.85752">
        <ele>905.508</ele>
        <time>2021-09-30T22:04:21Z</time>
      </trkpt>
      <trkpt lat="44.73671" lon="3.85751">
        <ele>905.812</ele>
        <time>2021-09-30T22:05:01Z</time>
      </trkpt>
      <trkpt lat="44.73666" lon="3.8575">
        <ele>905.948</ele>
        <time>2021-09-30T22:05:41Z</time>
      </trkpt>
      <trkpt lat="44.73661" lon="3.85748">
        <ele>905.443</ele>
        <time>2021-09-30T22:06:21Z</time>
      </trkpt>
      <trkpt lat="44.73656" lon="3.85746">
        <ele>904.915</ele>
        <time>2021-09-30T22:07:01Z</time>
      </trkpt>
      <trkpt lat="44.7365" lon="3.85746">
        <ele>904.553</ele>
        <time>2021-09-30T22:07:41Z</time>
      </trkpt>
      <trkpt lat="44.73644" lon="3.85746">
        <ele>904.156</ele>
        <time>2021-09-30T22:08:21Z</time>
      </trkpt>
      <trkpt lat="44.73639" lon="3.85748">
        <ele>903.978</ele>
        <time>2021-09-30T22:09:01Z</time>
      </trkpt>
      <trkpt lat="44.73633" lon="3.85751">
        <ele>903.788</ele>
        <time>2021-09-30T22:09:41Z</time>
      </trkpt>
      <trkpt lat="44.73628" lon="3.85753">
        <ele>903.632</ele>
        <time>2021-09-30T22:10:21Z</time>
      </trkpt>
      <trkpt lat="44.73624" lon="3.85757">
        <ele>903.792</ele>
        <time>2021-09-30T22:11:01Z</time>
      </trkpt>
      <trkpt lat="44.73619" lon="3.85761">
        <ele>903.711</ele>
        <time>2021-09-30T22:11:41Z</time>
      </trkpt>
      <trkpt lat="44.73615" lon="3.85765">
        <ele>903.808</ele>
        <time>2021-09-30T22:12:21Z</time>
      </trkpt>
      <trkpt lat="44.7361" lon="3.85769">
        <ele>903.931</ele>
        <time>2021-09-30T22:13:01Z</time>
      </trkpt>
      <trkpt lat="44.73606" lon="3.85774">
        <ele>904.077</ele>
        <time>2021-09-30T22:13:41Z</time>
      </trkpt>
      <trkpt lat="44.73602" lon="3.85779">
        <ele>904.182</ele>
        <time>2021-09-30T22:14:21Z</time>
      </trkpt>
      <trkpt lat="44.73598" lon="3.85784">
        <ele>904.374</ele>
        <time>2021-09-30T22:15:01Z</time>
      </trkpt>
      <trkpt lat="44.73595" lon="3.85791">
        <ele>904.712</ele>
        <time>2021-09-30T22:15:41Z</time>
      </trkpt>
      <trkpt lat="44.73593" lon="3.85797">
        <ele>905.195</ele>
        <time>2021-09-30T22:16:21Z</time>
      </trkpt>
      <trkpt lat="44.73591" lon="3.85803">
        <ele>905.557</ele>
        <time>2021-09-30T22:17:01Z</time>
      </trkpt>
      <trkpt lat="44.73588" lon="3.85809">
        <ele>905.887</ele>
        <time>2021-09-30T22:17:41Z</time>
      </trkpt>
      <trkpt lat="44.73586" lon="3.85815">
        <ele>906.014</ele>
        <time>2021-09-30T22:18:21Z</time>
      </trkpt>
      <trkpt lat="44.73582" lon="3.8582">
        <ele>906.154</ele>
        <time>2021-09-30T22:19:01Z</time>
      </trkpt>
      <trkpt lat="44.73577" lon="3.85825">
        <ele>906.409</ele>
        <time>2021-09-30T22:19:41Z</time>
      </trkpt>
      <trkpt lat="44.73573" lon="3.8583">
        <ele>906.808</ele>
        <time>2021-09-30T22:20:21Z</time>
      </trkpt>
      <trkpt lat="44.73569" lon="3.85833">
        <ele>907.089</ele>
        <time>2021-09-30T22:21:01Z</time>
      </trkpt>
      <trkpt lat="44.73565" lon="3.85836">
        <ele>907.195</ele>
        <time>2021-09-30T22:21:41Z</time>
      </trkpt>
      <trkpt lat="44.7356" lon="3.85839">
        <ele>907.22</ele>
        <time>2021-09-30T22:22:21Z</time>
      </trkpt>
      <trkpt lat="44.73555" lon="3.85841">
        <ele>907.312</ele>
        <time>2021-09-30T22:23:01Z</time>
      </trkpt>
      <trkpt lat="44.7355" lon="3.85843">
        <ele>907.25</ele>
        <time>2021-09-30T22:23:41Z</time>
      </trkpt>
      <trkpt lat="44.73545" lon="3.85845">
        <ele>907.223</ele>
        <time>2021-09-30T22:24:21Z</time>
      </trkpt>
      <trkpt lat="44.7354" lon="3.85845">
        <ele>907.125</ele>
        <time>2021-09-30T22:25:01Z</time>
      </trkpt>
      <trkpt lat="44.73534" lon="3.85844">
        <ele>906.935</ele>
        <time>2021-09-30T22:25:41Z</time>
      </trkpt>
      <trkpt lat="44.73529" lon="3.85844">
        <ele>906.842</ele>
        <time>2021-09-30T22:26:21Z</time>
      </trkpt>
      <trkpt lat="44.73524" lon="3.85843">
        <ele>906.522</ele>
        <time>2021-09-30T22:27:01Z</time>
      </trkpt>
      <trkpt lat="44.7352" lon="3.85838">
        <ele>905.914</ele>
        <time>2021-09-30T22:27:41Z</time>
      </trkpt>
      <trkpt lat="44.73517" lon="3.85834">
        <ele>905.208</ele>
        <time>2021-09-30T22:28:21Z</time>
      </trkpt>
      <trkpt lat="44.73513" lon="3.85829">
        <ele>904.552</ele>
        <time>2021-09-30T22:29:01Z</time>
      </trkpt>
      <trkpt lat="44.73509" lon="3.85825">
        <ele>903.768</ele>
        <time>2021-09-30T22:29:41Z</time>
      </trkpt>
      <trkpt lat="44.73505" lon="3.85818">
        <ele>902.813</ele>
        <time>2021-09-30T22:30:21Z</time>
      </trkpt>
      <trkpt lat="44.73501" lon="3.85812">
        <ele>901.855</ele>
        <time>2021-09-30T22:31:01Z</time>
      </trkpt>
      <trkpt lat="44.73497" lon="3.85806">
        <ele>900.953</ele>
        <time>2021-09-30T22:31:41Z</time>
      </trkpt>
      <trkpt lat="44.73494" lon="3.85799">
        <ele>900.456</ele>
        <time>2021-09-30T22:32:21Z</time>
      </trkpt>
      <trkpt lat="44.73491" lon="3.85792">
        <ele>899.978</ele>
        <time>2021-09-30T22:33:01Z</time>
      </trkpt>
      <trkpt lat="44.73489" lon="3.85786">
        <ele>899.478</ele>
        <time>2021-09-30T22:33:41Z</time>
      </trkpt>
      <trkpt lat="44.73486" lon="3.85779">
        <ele>899.012</ele>
        <time>2021-09-30T22:34:21Z</time>
      </trkpt>
      <trkpt lat="44.73483" lon="3.85772">
        <ele>899.132</ele>
        <time>2021-09-30T22:35:01Z</time>
      </trkpt>
      <trkpt lat="44.7348" lon="3.85766">
        <ele>899.305</ele>
        <time>2021-09-30T22:35:41Z</time>
      </trkpt>
      <trkpt lat="44.73477" lon="3.8576">
        <ele>899.508</ele>
        <time>2021-09-30T22:36:21Z</time>
      </trkpt>
      <trkpt lat="44.73474" lon="3.85755">
        <ele>899.829</ele>
        <time>2021-09-30T22:37:01Z</time>
      </trkpt>
      <trkpt lat="44.73472" lon="3.85748">
        <ele>900.135</ele>
        <time>2021-09-30T22:37:41Z</time>
      </trkpt>
      <trkpt lat="44.73469" lon="3.85742">
        <ele>900.34</ele>
        <time>2021-09-30T22:38:21Z</time>
      </trkpt>
      <trkpt lat="44.73467" lon="3.85736">
        <ele>900.542</ele>
        <time>2021-09-30T22:39:01Z</time>
      </trkpt>
      <trkpt lat="44.73462" lon="3.85732">
        <ele>900.61</ele>
        <time>2021-09-30T22:39:41Z</time>
      </trkpt>
      <trkpt lat="44.73458" lon="3.85728">
        <ele>900.883</ele>
        <time>2021-09-30T22:40:21Z</time>
      </trkpt>
      <trkpt lat="44.73454" lon="3.85724">
        <ele>900.925</ele>
        <time>2021-09-30T22:41:01Z</time>
      </trkpt>
      <trkpt lat="44.73449" lon="3.85719">
        <ele>901.375</ele>
        <time>2021-09-30T22:41:41Z</time>
      </trkpt>
      <trkpt lat="44.73443" lon="3.85715">
        <ele>901.891</ele>
        <time>2021-09-30T22:42:21Z</time>
      </trkpt>
      <trkpt lat="44.73438" lon="3.8571">
        <ele>902.581</ele>
        <time>2021-09-30T22:43:01Z</time>
      </trkpt>
      <trkpt lat="44.73433" lon="3.85711">
        <ele>902.619</ele>
        <time>2021-09-30T22:43:41Z</time>
      </trkpt>
      <trkpt lat="44.73427" lon="3.85713">
        <ele>902.708</ele>
        <time>2021-09-30T22:44:21Z</time>
      </trkpt>
      <trkpt lat="44.73421" lon="3.85714">
        <ele>902.827</ele>
        <time>2021-09-30T22:45:01Z</time>
      </trkpt>
      <trkpt lat="44.73416" lon="3.85714">
        <ele>902.983</ele>
        <time>2021-09-30T22:45:41Z</time>
      </trkpt>
      <trkpt lat="44.73411" lon="3.85715">
        <ele>903.248</ele>
        <time>2021-09-30T22:46:21Z</time>
      </trkpt>
      <trkpt lat="44.73405" lon="3.85716">
        <ele>903.52</ele>
        <time>2021-09-30T22:47:01Z</time>
      </trkpt>
      <trkpt lat="44.734" lon="3.85716">
        <ele>903.838</ele>
        <time>2021-09-30T22:47:41Z</time>
      </trkpt>
      <trkpt lat="44.73395" lon="3.85718">
        <ele>904.031</ele>
        <time>2021-09-30T22:48:21Z</time>
      </trkpt>
      <trkpt lat="44.73391" lon="3.8572">
        <ele>904.183</ele>
        <time>2021-09-30T22:49:01Z</time>
      </trkpt>
      <trkpt lat="44.73386" lon="3.85721">
        <ele>904.413</ele>
        <time>2021-09-30T22:49:41Z</time>
      </trkpt>
      <trkpt lat="44.73382" lon="3.85723">
        <ele>904.731</ele>
        <time>2021-09-30T22:50:21Z</time>
      </trkpt>
      <trkpt lat="44.73377" lon="3.85726">
        <ele>905.161</ele>
        <time>2021-09-30T22:51:01Z</time>
      </trkpt>
      <trkpt lat="44.73373" lon="3.85729">
        <ele>905.507</ele>
        <time>2021-09-30T22:51:41Z</time>
      </trkpt>
      <trkpt lat="44.73369" lon="3.85732">
        <ele>905.908</ele>
        <time>2021-09-30T22:52:21Z</time>
      </trkpt>
      <trkpt lat="44.73364" lon="3.85735">
        <ele>906.251</ele>
        <time>2021-09-30T22:53:01Z</time>
      </trkpt>
      <trkpt lat="44.7336" lon="3.85739">
        <ele>906.537</ele>
        <time>2021-09-30T22:53:41Z</time>
      </trkpt>
      <trkpt lat="44.73356" lon="3.85744">
        <ele>906.662</ele>
        <time>2021-09-30T22:54:21Z</time>
      </trkpt>
      <trkpt lat="44.73351" lon="3.85749">
        <ele>906.794</ele>
        <time>2021-09-30T22:55:01Z</time>
      </trkpt>
      <trkpt lat="44.73347" lon="3.85754">
        <ele>906.962</ele>
        <time>2021-09-30T22:55:41Z</time>
      </trkpt>
      <trkpt lat="44.73344" lon="3.8576">
        <ele>907.095</ele>
        <time>2021-09-30T22:56:21Z</time>
      </trkpt>
      <trkpt lat="44.7334" lon="3.85766">
        <ele>907.147</ele>
        <time>2021-09-30T22:57:01Z</time>
      </trkpt>
      <trkpt lat="44.73337" lon="3.85771">
        <ele>907.167</ele>
        <time>2021-09-30T22:57:41Z</time>
      </trkpt>
      <trkpt lat="44.73334" lon="3.85777">
        <ele>907.057</ele>
        <time>2021-09-30T22:58:21Z</time>
      </trkpt>
      <trkpt lat="44.7333" lon="3.85783">
        <ele>907.2</ele>
        <time>2021-09-30T22:59:01Z</time>
      </trkpt>
      <trkpt lat="44.73327" lon="3.85789">
        <ele>907.32</ele>
        <time>2021-09-30T22:59:41Z</time>
      </trkpt>
      <trkpt lat="44.73323" lon="3.85793">
        <ele>907.308</ele>
        <time>2021-09-30T23:00:21Z</time>
      </trkpt>
      <trkpt lat="44.73319" lon="3.85798">
        <ele>907.343</ele>
        <time>2021-09-30T23:01:01Z</time>
      </trkpt>
      <trkpt lat="44.73315" lon="3.85802">
        <ele>907.299</ele>
        <time>2021-09-30T23:01:41Z</time>
      </trkpt>
      <trkpt lat="44.7331" lon="3.85806">
        <ele>907.034</ele>
        <time>2021-09-30T23:02:21Z</time>
      </trkpt>
      <trkpt lat="44.73306" lon="3.85811">
        <ele>906.896</ele>
        <time>2021-09-30T23:03:01Z</time>
      </trkpt>
      <trkpt lat="44.73302" lon="3.85814">
        <ele>906.854</ele>
        <time>2021-09-30T23:03:41Z</time>
      </trkpt>
      <trkpt lat="44.73298" lon="3.85818">
        <ele>906.727</ele>
        <time>2021-09-30T23:04:21Z</time>
      </trkpt>
      <trkpt lat="44.73293" lon="3.85822">
        <ele>906.649</ele>
        <time>2021-09-30T23:05:01Z</time>
      </trkpt>
      <trkpt lat="44.73289" lon="3.85826">
        <ele>906.459</ele>
        <time>2021-09-30T23:05:41Z</time>
      </trkpt>
      <trkpt lat="44.73285" lon="3.85829">
        <ele>906.296</ele>
        <time>2021-09-30T23:06:21Z</time>
      </trkpt>
      <trkpt lat="44.7328" lon="3.85832">
        <ele>906.131</ele>
        <time>2021-09-30T23:07:01Z</time>
      </trkpt>
      <trkpt lat="44.73275" lon="3.85835">
        <ele>905.924</ele>
        <time>2021-09-30T23:07:41Z</time>
      </trkpt>
      <trkpt lat="44.73269" lon="3.85837">
        <ele>905.608</ele>
        <time>2021-09-30T23:08:21Z</time>
      </trkpt>
      <trkpt lat="44.73264" lon="3.8584">
        <ele>905.397</ele>
        <time>2021-09-30T23:09:01Z</time>
      </trkpt>
      <trkpt lat="44.73259" lon="3.85841">
        <ele>905.083</ele>
        <time>2021-09-30T23:09:41Z</time>
      </trkpt>
      <trkpt lat="44.73254" lon="3.85843">
        <ele>904.878</ele>
        <time>2021-09-30T23:10:21Z</time>
      </trkpt>
      <trkpt lat="44.73249" lon="3.85844">
        <ele>904.52</ele>
        <time>2021-09-30T23:11:01Z</time>
      </trkpt>
      <trkpt lat="44.73244" lon="3.85845">
        <ele>904.448</ele>
        <time>2021-09-30T23:11:41Z</time>
      </trkpt>
      <trkpt lat="44.73239" lon="3.85845">
        <ele>904.621</ele>
        <time>2021-09-30T23:12:21Z</time>
      </trkpt>
      <trkpt lat="44.73234" lon="3.85845">
        <ele>904.753</ele>
        <time>2021-09-30T23:13:01Z</time>
      </trkpt>
      <trkpt lat="44.73229" lon="3.85844">
        <ele>904.963</ele>
        <time>2021-09-30T23:13:41Z</time>
      </trkpt>
      <trkpt lat="44.73224" lon="3.85844">
        <ele>905.017</ele>
        <time>2021-09-30T23:14:21Z</time>
      </trkpt>
      <trkpt lat="44.73219" lon="3.85843">
        <ele>905.487</ele>
        <time>2021-09-30T23:15:01Z</time>
      </trkpt>
      <trkpt lat="44.73214" lon="3.85842">
        <ele>905.915</ele>
        <time>2021-09-30T23:15:41Z</time>
      </trkpt>
      <trkpt lat="44.73209" lon="3.85841">
        <ele>906.308</ele>
        <time>2021-09-30T23:16:21Z</time>
      </trkpt>
      <trkpt lat="44.73204" lon="3.8584">
        <ele>906.829</ele>
        <time>2021-09-30T23:17:01Z</time>
      </trkpt>
      <trkpt lat="44.73199" lon="3.8584">
        <ele>907.195</ele>
        <time>2021-09-30T23:17:41Z</time>
      </trkpt>
      <trkpt lat="44.73195" lon="3.85839">
        <ele>907.42</ele>
        <time>2021-09-30T23:18:21Z</time>
      </trkpt>
      <trkpt lat="44.73191" lon="3.85838">
        <ele>907.672</ele>
        <time>2021-09-30T23:19:01Z</time>
      </trkpt>
      <trkpt lat="44.73186" lon="3.85838">
        <ele>907.84</ele>
        <time>2021-09-30T23:19:41Z</time>
      </trkpt>
      <trkpt lat="44.73181" lon="3.85836">
        <ele>908.233</ele>
        <time>2021-09-30T23:20:21Z</time>
      </trkpt>
      <trkpt lat="44.73177" lon="3.85834">
        <ele>908.555</ele>
        <time>2021-09-30T23:21:01Z</time>
      </trkpt>
      <trkpt lat="44.73172" lon="3.85833">
        <ele>908.965</ele>
        <time>2021-09-30T23:21:41Z</time>
      </trkpt>
      <trkpt lat="44.73167" lon="3.85831">
        <ele>909.292</ele>
        <time>2021-09-30T23:22:21Z</time>
      </trkpt>
      <trkpt lat="44.73162" lon="3.85829">
        <ele>909.173</ele>
        <time>2021-09-30T23:23:01Z</time>
      </trkpt>
      <trkpt lat="44.73158" lon="3.85827">
        <ele>909.12</ele>
        <time>2021-09-30T23:23:41Z</time>
      </trkpt>
      <trkpt lat="44.73154" lon="3.85824">
        <ele>909.108</ele>
        <time>2021-09-30T23:24:21Z</time>
      </trkpt>
      <trkpt lat="44.73149" lon="3.85821">
        <ele>909.017</ele>
        <time>2021-09-30T23:25:01Z</time>
      </trkpt>
      <trkpt lat="44.73145" lon="3.85819">
        <ele>909.093</ele>
        <time>2021-09-30T23:25:41Z</time>
      </trkpt>
      <trkpt lat="44.73141" lon="3.85816">
        <ele>909.068</ele>
        <time>2021-09-30T23:26:21Z</time>
      </trkpt>
      <trkpt lat="44.73137" lon="3.85813">
        <ele>908.94</ele>
        <time>2021-09-30T23:27:01Z</time>
      </trkpt>
      <trkpt lat="44.73133" lon="3.85809">
        <ele>908.868</ele>
        <time>2021-09-30T23:27:41Z</time>
      </trkpt>
      <trkpt lat="44.73129" lon="3.85805">
        <ele>908.581</ele>
        <time>2021-09-30T23:28:21Z</time>
      </trkpt>
      <trkpt lat="44.73125" lon="3.85802">
        <ele>908.383</ele>
        <time>2021-09-30T23:29:01Z</time>
      </trkpt>
      <trkpt lat="44.73121" lon="3.85798">
        <ele>908.013</ele>
        <time>2021-09-30T23:29:41Z</time>
      </trkpt>
      <trkpt lat="44.73117" lon="3.85795">
        <ele>907.793</ele>
        <time>2021-09-30T23:30:21Z</time>
      </trkpt>
      <trkpt lat="44.73113" lon="3.8579">
        <ele>907.465</ele>
        <time>2021-09-30T23:31:01Z</time>
      </trkpt>
      <trkpt lat="44.73109" lon="3.85785">
        <ele>907.321</ele>
        <time>2021-09-30T23:31:41Z</time>
      </trkpt>
      <trkpt lat="44.73105" lon="3.8578">
        <ele>907.408</ele>
        <time>2021-09-30T23:32:21Z</time>
      </trkpt>
      <trkpt lat="44.73101" lon="3.85776">
        <ele>907.527</ele>
        <time>2021-09-30T23:33:01Z</time>
      </trkpt>
      <trkpt lat="44.73097" lon="3.85771">
        <ele>907.663</ele>
        <time>2021-09-30T23:33:41Z</time>
      </trkpt>
      <trkpt lat="44.73093" lon="3.85766">
        <ele>907.778</ele>
        <time>2021-09-30T23:34:21Z</time>
      </trkpt>
      <trkpt lat="44.73089" lon="3.85761">
        <ele>907.89</ele>
        <time>2021-09-30T23:35:01Z</time>
      </trkpt>
      <trkpt lat="44.73085" lon="3.85756">
        <ele>907.748</ele>
        <time>2021-09-30T23:35:41Z</time>
      </trkpt>
      <trkpt lat="44.73081" lon="3.85751">
        <ele>907.841</ele>
        <time>2021-09-30T23:36:21Z</time>
      </trkpt>
      <trkpt lat="44.73077" lon="3.85746">
        <ele>907.923</ele>
        <time>2021-09-30T23:37:01Z</time>
      </trkpt>
      <trkpt lat="44.73073" lon="3.85741">
        <ele>908.063</ele>
        <time>2021-09-30T23:37:41Z</time>
      </trkpt>
      <trkpt lat="44.73069" lon="3.85736">
        <ele>908.069</ele>
        <time>2021-09-30T23:38:21Z</time>
      </trkpt>
      <trkpt lat="44.73065" lon="3.85731">
        <ele>908.004</ele>
        <time>2021-09-30T23:39:01Z</time>
      </trkpt>
      <trkpt lat="44.73062" lon="3.85726">
        <ele>908.124</ele>
        <time>2021-09-30T23:39:41Z</time>
      </trkpt>
      <trkpt lat="44.73058" lon="3.85721">
        <ele>908.108</ele>
        <time>2021-09-30T23:40:21Z</time>
      </trkpt>
      <trkpt lat="44.73054" lon="3.85716">
        <ele>908.264</ele>
        <time>2021-09-30T23:41:01Z</time>
      </trkpt>
      <trkpt lat="44.73049" lon="3.85712">
        <ele>908.25</ele>
        <time>2021-09-30T23:41:41Z</time>
      </trkpt>
      <trkpt lat="44.73045" lon="3.85708">
        <ele>908.345</ele>
        <time>2021-09-30T23:42:21Z</time>
      </trkpt>
      <trkpt lat="44.7304" lon="3.85704">
        <ele>908.587</ele>
        <time>2021-09-30T23:43:01Z</time>
      </trkpt>
      <trkpt lat="44.73036" lon="3.857">
        <ele>908.655</ele>
        <time>2021-09-30T23:43:41Z</time>
      </trkpt>
      <trkpt lat="44.73032" lon="3.85697">
        <ele>908.888</ele>
        <time>2021-09-30T23:44:21Z</time>
      </trkpt>
      <trkpt lat="44.73028" lon="3.85694">
        <ele>909.04</ele>
        <time>2021-09-30T23:45:01Z</time>
      </trkpt>
      <trkpt lat="44.73024" lon="3.85691">
        <ele>909.29</ele>
        <time>2021-09-30T23:45:41Z</time>
      </trkpt>
      <trkpt lat="44.7302" lon="3.85688">
        <ele>909.386</ele>
        <time>2021-09-30T23:46:21Z</time>
      </trkpt>
      <trkpt lat="44.73016" lon="3.85685">
        <ele>909.46</ele>
        <time>2021-09-30T23:47:01Z</time>
      </trkpt>
      <trkpt lat="44.73012" lon="3.85684">
        <ele>909.326</ele>
        <time>2021-09-30T23:47:41Z</time>
      </trkpt>
      <trkpt lat="44.73007" lon="3.85682">
        <ele>909.208</ele>
        <time>2021-09-30T23:48:21Z</time>
      </trkpt>
      <trkpt lat="44.73003" lon="3.85681">
        <ele>909.116</ele>
        <time>2021-09-30T23:49:01Z</time>
      </trkpt>
      <trkpt lat="44.72999" lon="3.85679">
        <ele>909.062</ele>
        <time>2021-09-30T23:49:41Z</time>
      </trkpt>
      <trkpt lat="44.72994" lon="3.85678">
        <ele>908.977</ele>
        <time>2021-09-30T23:50:21Z</time>
      </trkpt>
      <trkpt lat="44.7299" lon="3.85677">
        <ele>908.769</ele>
        <time>2021-09-30T23:51:01Z</time>
      </trkpt>
      <trkpt lat="44.72985" lon="3.85677">
        <ele>908.687</ele>
        <time>2021-09-30T23:51:41Z</time>
      </trkpt>
      <trkpt lat="44.72981" lon="3.85676">
        <ele>908.47</ele>
        <time>2021-09-30T23:52:21Z</time>
      </trkpt>
      <trkpt lat="44.72976" lon="3.85676">
        <ele>908.222</ele>
        <time>2021-09-30T23:53:01Z</time>
      </trkpt>
      <trkpt lat="44.72972" lon="3.85675">
        <ele>908.052</ele>
        <time>2021-09-30T23:53:41Z</time>
      </trkpt>
      <trkpt lat="44.72967" lon="3.85674">
        <ele>908.151</ele>
        <time>2021-09-30T23:54:21Z</time>
      </trkpt>
      <trkpt lat="44.72962" lon="3.85673">
        <ele>908.101</ele>
        <time>2021-09-30T23:55:01Z</time>
      </trkpt>
      <trkpt lat="44.72956" lon="3.85671">
        <ele>908.011</ele>
        <time>2021-09-30T23:55:41Z</time>
      </trkpt>
      <trkpt lat="44.72951" lon="3.8567">
        <ele>908.008</ele>
        <time>2021-09-30T23:56:21Z</time>
      </trkpt>
      <trkpt lat="44.72946" lon="3.85669">
        <ele>907.933</ele>
        <time>2021-09-30T23:57:01Z</time>
      </trkpt>
      <trkpt lat="44.72946" lon="3.85666">
        <ele>908.159</ele>
        <time>2021-09-30T23:57:41Z</time>
      </trkpt>
      <trkpt lat="44.72945" lon="3.85663">
        <ele>908.484</ele>
        <time>2021-09-30T23:58:21Z</time>
      </trkpt>
      <trkpt lat="44.72945" lon="3.8566">
        <ele>908.716</ele>
        <time>2021-09-30T23:59:01Z</time>
      </trkpt>
      <trkpt lat="44.72943" lon="3.85659">
        <ele>908.874</ele>
        <time>2021-09-30T23:59:41Z</time>
      </trkpt>
      <trkpt lat="44.72941" lon="3.85658">
        <ele>909.077</ele>
        <time>2021-10-01T00:00:21Z</time>
      </trkpt>
      <trkpt lat="44.7294" lon="3.85656">
        <ele>909.239</ele>
        <time>2021-10-01T00:01:01Z</time>
      </trkpt>
      <trkpt lat="44.72938" lon="3.85655">
        <ele>909.329</ele>
        <time>2021-10-01T00:01:41Z</time>
      </trkpt>
      <trkpt lat="44.72936" lon="3.85653">
        <ele>909.553</ele>
        <time>2021-10-01T00:02:21Z</time>
      </trkpt>
      <trkpt lat="44.72934" lon="3.85652">
        <ele>909.604</ele>
        <time>2021-10-01T00:03:01Z</time>
      </trkpt>
      <trkpt lat="44.72933" lon="3.8565">
        <ele>909.814</ele>
        <time>2021-10-01T00:03:41Z</time>
      </trkpt>
      <trkpt lat="44.72931" lon="3.85649">
        <ele>909.908</ele>
        <time>2021-10-01T00:04:21Z</time>
      </trkpt>
      <trkpt lat="44.72929" lon="3.85647">
        <ele>910.153</ele>
        <time>2021-10-01T00:05:01Z</time>
      </trkpt>
      <trkpt lat="44.72927" lon="3.85646">
        <ele>910.259</ele>
        <time>2021-10-01T00:05:41Z</time>
      </trkpt>
      <trkpt lat="44.72926" lon="3.85644">
        <ele>910.414</ele>
        <time>2021-10-01T00:06:21Z</time>
      </trkpt>
      <trkpt lat="44.72924" lon="3.85643">
        <ele>910.616</ele>
        <time>2021-10-01T00:07:01Z</time>
      </trkpt>
      <trkpt lat="44.72923" lon="3.85642">
        <ele>910.764</ele>
        <time>2021-10-01T00:07:41Z</time>
      </trkpt>
      <trkpt lat="44.72921" lon="3.8564">
        <ele>910.967</ele>
        <time>2021-10-01T00:08:21Z</time>
      </trkpt>
      <trkpt lat="44.72919" lon="3.85639">
        <ele>911.069</ele>
        <time>2021-10-01T00:09:01Z</time>
      </trkpt>
      <trkpt lat="44.72918" lon="3.85637">
        <ele>911.289</ele>
        <time>2021-10-01T00:09:41Z</time>
      </trkpt>
      <trkpt lat="44.72916" lon="3.85636">
        <ele>911.349</ele>
        <time>2021-10-01T00:10:21Z</time>
      </trkpt>
      <trkpt lat="44.72914" lon="3.85634">
        <ele>911.402</ele>
        <time>2021-10-01T00:11:01Z</time>
      </trkpt>
      <trkpt lat="44.72913" lon="3.85633">
        <ele>911.522</ele>
        <time>2021-10-01T00:11:41Z</time>
      </trkpt>
      <trkpt lat="44.72911" lon="3.85631">
        <ele>911.708</ele>
        <time>2021-10-01T00:12:21Z</time>
      </trkpt>
      <trkpt lat="44.72909" lon="3.8563">
        <ele>911.822</ele>
        <time>2021-10-01T00:13:01Z</time>
      </trkpt>
      <trkpt lat="44.72908" lon="3.85629">
        <ele>911.928</ele>
        <time>2021-10-01T00:13:41Z</time>
      </trkpt>
      <trkpt lat="44.72906" lon="3.85627">
        <ele>912.063</ele>
        <time>2021-10-01T00:14:21Z</time>
      </trkpt>
      <trkpt lat="44.72904" lon="3.85626">
        <ele>912.245</ele>
        <time>2021-10-01T00:15:01Z</time>
      </trkpt>
      <trkpt lat="44.72902" lon="3.85625">
        <ele>912.343</ele>
        <time>2021-10-01T00:15:41Z</time>
      </trkpt>
      <trkpt lat="44.72901" lon="3.85623">
        <ele>912.426</ele>
        <time>2021-10-01T00:16:21Z</time>
      </trkpt>
      <trkpt lat="44.72899" lon="3.85622">
        <ele>912.698</ele>
        <time>2021-10-01T00:17:01Z</time>
      </trkpt>
      <trkpt lat="44.72897" lon="3.85621">
        <ele>912.788</ele>
        <time>2021-10-01T00:17:41Z</time>
      </trkpt>
      <trkpt lat="44.72895" lon="3.85619">
        <ele>912.977</ele>
        <time>2021-10-01T00:18:21Z</time>
      </trkpt>
      <trkpt lat="44.72894" lon="3.85618">
        <ele>913.161</ele>
        <time>2021-10-01T00:19:01Z</time>
      </trkpt>
      <trkpt lat="44.72892" lon="3.85617">
        <ele>913.227</ele>
        <time>2021-10-01T00:19:41Z</time>
      </trkpt>
      <trkpt lat="44.7289" lon="3.85615">
        <ele>913.408</ele>
        <time>2021-10-01T00:20:21Z</time>
      </trkpt>
      <trkpt lat="44.72888" lon="3.85614">
        <ele>913.635</ele>
        <time>2021-10-01T00:21:01Z</time>
      </trkpt>
      <trkpt lat="44.72887" lon="3.85613">
        <ele>913.621</ele>
        <time>2021-10-01T00:21:41Z</time>
      </trkpt>
      <trkpt lat="44.72885" lon="3.85611">
        <ele>913.726</ele>
        <time>2021-10-01T00:22:21Z</time>
      </trkpt>
      <trkpt lat="44.72883" lon="3.8561">
        <ele>913.788</ele>
        <time>2021-10-01T00:23:01Z</time>
      </trkpt>
      <trkpt lat="44.72881" lon="3.85609">
        <ele>913.736</ele>
        <time>2021-10-01T00:23:41Z</time>
      </trkpt>
      <trkpt lat="44.7288" lon="3.85607">
        <ele>913.899</ele>
        <time>2021-10-01T00:24:21Z</time>
      </trkpt>
      <trkpt lat="44.72878" lon="3.85606">
        <ele>913.831</ele>
        <time>2021-10-01T00:25:01Z</time>
      </trkpt>
      <trkpt lat="44.72876" lon="3.85605">
        <ele>913.861</ele>
        <time>2021-10-01T00:25:41Z</time>
      </trkpt>
      <trkpt lat="44.72875" lon="3.85603">
        <ele>913.835</ele>
        <time>2021-10-01T00:26:21Z</time>
      </trkpt>
      <trkpt lat="44.72874" lon="3.85601">
        <ele>914.186</ele>
        <time>2021-10-01T00:27:01Z</time>
      </trkpt>
      <trkpt lat="44.72874" lon="3.85598">
        <ele>914.314</ele>
        <time>2021-10-01T00:27:41Z</time>
      </trkpt>
      <trkpt lat="44.72874" lon="3.85596">
        <ele>914.608</ele>
        <time>2021-10-01T00:28:21Z</time>
      </trkpt>
      <trkpt lat="44.72874" lon="3.85593">
        <ele>914.941</ele>
        <time>2021-10-01T00:29:01Z</time>
      </trkpt>
      <trkpt lat="44.72874" lon="3.8559">
        <ele>915.147</ele>
        <time>2021-10-01T00:29:41Z</time>
      </trkpt>
      <trkpt lat="44.72874" lon="3.85588">
        <ele>915.462</ele>
        <time>2021-10-01T00:30:21Z</time>
      </trkpt>
      <trkpt lat="44.72874" lon="3.85585">
        <ele>915.754</ele>
        <time>2021-10-01T00:31:01Z</time>
      </trkpt>
      <trkpt lat="44.72873" lon="3.85583">
        <ele>915.982</ele>
        <time>2021-10-01T00:31:41Z</time>
      </trkpt>
      <trkpt lat="44.7287" lon="3.85583">
        <ele>915.765</ele>
        <time>2021-10-01T00:32:21Z</time>
      </trkpt>
      <trkpt lat="44.72866" lon="3.85583">
        <ele>915.467</ele>
        <time>2021-10-01T00:33:01Z</time>
      </trkpt>
      <trkpt lat="44.72863" lon="3.85583">
        <ele>915.227</ele>
        <time>2021-10-01T00:33:41Z</time>
      </trkpt>
      <trkpt lat="44.72859" lon="3.85583">
        <ele>915.072</ele>
        <time>2021-10-01T00:34:21Z</time>
      </trkpt>
      <trkpt lat="44.72856" lon="3.85582">
        <ele>914.913</ele>
        <time>2021-10-01T00:35:01Z</time>
      </trkpt>
      <trkpt lat="44.72852" lon="3.85582">
        <ele>914.714</ele>
        <time>2021-10-01T00:35:41Z</time>
      </trkpt>
      <trkpt lat="44.72848" lon="3.85582">
        <ele>914.608</ele>
        <time>2021-10-01T00:36:21Z</time>
      </trkpt>
      <trkpt lat="44.72844" lon="3.85582">
        <ele>914.595</ele>
        <time>2021-10-01T00:37:01Z</time>
      </trkpt>
      <trkpt lat="44.7284" lon="3.85581">
        <ele>914.391</ele>
        <time>2021-10-01T00:37:41Z</time>
      </trkpt>
      <trkpt lat="44.72836" lon="3.8558">
        <ele>914.246</ele>
        <time>2021-10-01T00:38:21Z</time>
      </trkpt>
      <trkpt lat="44.72832" lon="3.85579">
        <ele>914.198</ele>
        <time>2021-10-01T00:39:01Z</time>
      </trkpt>
      <trkpt lat="44.72828" lon="3.85578">
        <ele>914.266</ele>
        <time>2021-10-01T00:39:41Z</time>
      </trkpt>
      <trkpt lat="44.72824" lon="3.85577">
        <ele>914.159</ele>
        <time>2021-10-01T00:40:21Z</time>
      </trkpt>
      <trkpt lat="44.7282" lon="3.85576">
        <ele>914.121</ele>
        <time>2021-10-01T00:41:01Z</time>
      </trkpt>
      <trkpt lat="44.72816" lon="3.85575">
        <ele>914.171</ele>
        <time>2021-10-01T00:41:41Z</time>
      </trkpt>
      <trkpt lat="44.72811" lon="3.85574">
        <ele>914.129</ele>
        <time>2021-10-01T00:42:21Z</time>
      </trkpt>
      <trkpt lat="44.72807" lon="3.85572">
        <ele>914</ele>
        <time>2021-10-01T00:43:01Z</time>
      </trkpt>
      <trkpt lat="44.72802" lon="3.85571">
        <ele>914.12</ele>
        <time>2021-10-01T00:43:41Z</time>
      </trkpt>
      <trkpt lat="44.72798" lon="3.85569">
        <ele>914.108</ele>
        <time>2021-10-01T00:44:21Z</time>
      </trkpt>
      <trkpt lat="44.72793" lon="3.85568">
        <ele>914.24</ele>
        <time>2021-10-01T00:45:01Z</time>
      </trkpt>
      <trkpt lat="44.72789" lon="3.85567">
        <ele>914.456</ele>
        <time>2021-10-01T00:45:41Z</time>
      </trkpt>
      <trkpt lat="44.72784" lon="3.85565">
        <ele>914.521</ele>
        <time>2021-10-01T00:46:21Z</time>
      </trkpt>
      <trkpt lat="44.7278" lon="3.85564">
        <ele>914.643</ele>
        <time>2021-10-01T00:47:01Z</time>
      </trkpt>
      <trkpt lat="44.72776" lon="3.85563">
        <ele>914.851</ele>
        <time>2021-10-01T00:47:41Z</time>
      </trkpt>
      <trkpt lat="44.72772" lon="3.85562">
        <ele>914.824</ele>
        <time>2021-10-01T00:48:21Z</time>
      </trkpt>
      <trkpt lat="44.72768" lon="3.8556">
        <ele>914.986</ele>
        <time>2021-10-01T00:49:01Z</time>
      </trkpt>
      <trkpt lat="44.72764" lon="3.85559">
        <ele>914.976</ele>
        <time>2021-10-01T00:49:41Z</time>
      </trkpt>
      <trkpt lat="44.7276" lon="3.85558">
        <ele>915.093</ele>
        <time>2021-10-01T00:50:21Z</time>
      </trkpt>
      <trkpt lat="44.72756" lon="3.85556">
        <ele>915.065</ele>
        <time>2021-10-01T00:51:01Z</time>
      </trkpt>
      <trkpt lat="44.72752" lon="3.85555">
        <ele>915.021</ele>
        <time>2021-10-01T00:51:41Z</time>
      </trkpt>
      <trkpt lat="44.72748" lon="3.85554">
        <ele>915.008</ele>
        <time>2021-10-01T00:52:21Z</time>
      </trkpt>
      <trkpt lat="44.72744" lon="3.85552">
        <ele>914.967</ele>
        <time>2021-10-01T00:53:01Z</time>
      </trkpt>
      <trkpt lat="44.7274" lon="3.85551">
        <ele>914.883</ele>
        <time>2021-10-01T00:53:41Z</time>
      </trkpt>
      <trkpt lat="44.72737" lon="3.8555">
        <ele>914.768</ele>
        <time>2021-10-01T00:54:21Z</time>
      </trkpt>
      <trkpt lat="44.72737" lon="3.85544">
        <ele>914.96</ele>
        <time>2021-10-01T00:55:01Z</time>
      </trkpt>
      <trkpt lat="44.72737" lon="3.85539">
        <ele>915.148</ele>
        <time>2021-10-01T00:55:41Z</time>
      </trkpt>
      <trkpt lat="44.72737" lon="3.85534">
        <ele>915.341</ele>
        <time>2021-10-01T00:56:21Z</time>
      </trkpt>
      <trkpt lat="44.72737" lon="3.85529">
        <ele>915.553</ele>
        <time>2021-10-01T00:57:01Z</time>
      </trkpt>
      <trkpt lat="44.72737" lon="3.85523">
        <ele>916.173</ele>
        <time>2021-10-01T00:57:41Z</time>
      </trkpt>
      <trkpt lat="44.72737" lon="3.85516">
        <ele>916.894</ele>
        <time>2021-10-01T00:58:21Z</time>
      </trkpt>
      <trkpt lat="44.72737" lon="3.8551">
        <ele>917.457</ele>
        <time>2021-10-01T00:59:01Z</time>
      </trkpt>
      <trkpt lat="44.72737" lon="3.85504">
        <ele>918.122</ele>
        <time>2021-10-01T00:59:41Z</time>
      </trkpt>
      <trkpt lat="44.72733" lon="3.85501">
        <ele>918.308</ele>
        <time>2021-10-01T01:00:21Z</time>
      </trkpt>
      <trkpt lat="44.7273" lon="3.85498">
        <ele>918.667</ele>
        <time>2021-10-01T01:01:01Z</time>
      </trkpt>
      <trkpt lat="44.72726" lon="3.85494">
        <ele>919.023</ele>
        <time>2021-10-01T01:01:41Z</time>
      </trkpt>
      <trkpt lat="44.72723" lon="3.85491">
        <ele>919.368</ele>
        <time>2021-10-01T01:02:21Z</time>
      </trkpt>
      <trkpt lat="44.72719" lon="3.85488">
        <ele>919.53</ele>
        <time>2021-10-01T01:03:01Z</time>
      </trkpt>
      <trkpt lat="44.72715" lon="3.85486">
        <ele>919.748</ele>
        <time>2021-10-01T01:03:41Z</time>
      </trkpt>
      <trkpt lat="44.72712" lon="3.85483">
        <ele>919.891</ele>
        <time>2021-10-01T01:04:21Z</time>
      </trkpt>
      <trkpt lat="44.72708" lon="3.8548">
        <ele>919.853</ele>
        <time>2021-10-01T01:05:01Z</time>
      </trkpt>
      <trkpt lat="44.72704" lon="3.85477">
        <ele>919.793</ele>
        <time>2021-10-01T01:05:41Z</time>
      </trkpt>
      <trkpt lat="44.72701" lon="3.85474">
        <ele>919.669</ele>
        <time>2021-10-01T01:06:21Z</time>
      </trkpt>
      <trkpt lat="44.72697" lon="3.85471">
        <ele>919.404</ele>
        <time>2021-10-01T01:07:01Z</time>
      </trkpt>
      <trkpt lat="44.72694" lon="3.85469">
        <ele>919.724</ele>
        <time>2021-10-01T01:07:41Z</time>
      </trkpt>
      <trkpt lat="44.7269" lon="3.85466">
        <ele>920.308</ele>
        <time>2021-10-01T01:08:21Z</time>
      </trkpt>
      <trkpt lat="44.72688" lon="3.85466">
        <ele>920.474</ele>
        <time>2021-10-01T01:09:01Z</time>
      </trkpt>
      <trkpt lat="44.72686" lon="3.85466">
        <ele>920.42</ele>
        <time>2021-10-01T01:09:41Z</time>
      </trkpt>
      <trkpt lat="44.72685" lon="3.85466">
        <ele>920.515</ele>
        <time>2021-10-01T01:10:21Z</time>
      </trkpt>
      <trkpt lat="44.72683" lon="3.85466">
        <ele>920.647</ele>
        <time>2021-10-01T01:11:01Z</time>
      </trkpt>
      <trkpt lat="44.72681" lon="3.85466">
        <ele>920.645</ele>
        <time>2021-10-01T01:11:41Z</time>
      </trkpt>
      <trkpt lat="44.7268" lon="3.85467">
        <ele>920.728</ele>
        <time>2021-10-01T01:12:21Z</time>
      </trkpt>
      <trkpt lat="44.72678" lon="3.85467">
        <ele>920.78</ele>
        <time>2021-10-01T01:13:01Z</time>
      </trkpt>
      <trkpt lat="44.72676" lon="3.85467">
        <ele>920.86</ele>
        <time>2021-10-01T01:13:41Z</time>
      </trkpt>
      <trkpt lat="44.72674" lon="3.85467">
        <ele>920.933</ele>
        <time>2021-10-01T01:14:21Z</time>
      </trkpt>
      <trkpt lat="44.72673" lon="3.85467">
        <ele>920.923</ele>
        <time>2021-10-01T01:15:01Z</time>
      </trkpt>
      <trkpt lat="44.72671" lon="3.85467">
        <ele>921.015</ele>
        <time>2021-10-01T01:15:41Z</time>
      </trkpt>
      <trkpt lat="44.72669" lon="3.85467">
        <ele>921.108</ele>
        <time>2021-10-01T01:16:21Z</time>
      </trkpt>
      <trkpt lat="44.72667" lon="3.85467">
        <ele>921.161</ele>
        <time>2021-10-01T01:17:01Z</time>
      </trkpt>
      <trkpt lat="44.72666" lon="3.85467">
        <ele>921.177</ele>
        <time>2021-10-01T01:17:41Z</time>
      </trkpt>
      <trkpt lat="44.72664" lon="3.85469">
        <ele>921.052</ele>
        <time>2021-10-01T01:18:21Z</time>
      </trkpt>
      <trkpt lat="44.72663" lon="3.8547">
        <ele>920.824</ele>
        <time>2021-10-01T01:19:01Z</time>
      </trkpt>
      <trkpt lat="44.72661" lon="3.85472">
        <ele>920.672</ele>
        <time>2021-10-01T01:19:41Z</time>
      </trkpt>
      <trkpt lat="44.7266" lon="3.85473">
        <ele>920.425</ele>
        <time>2021-10-01T01:20:21Z</time>
      </trkpt>
      <trkpt lat="44.72659" lon="3.85475">
        <ele>920.287</ele>
        <time>2021-10-01T01:21:01Z</time>
      </trkpt>
      <trkpt lat="44.72657" lon="3.85476">
        <ele>920.097</ele>
        <time>2021-10-01T01:21:41Z</time>
      </trkpt>
      <trkpt lat="44.72656" lon="3.85478">
        <ele>919.834</ele>
        <time>2021-10-01T01:22:21Z</time>
      </trkpt>
      <trkpt lat="44.72654" lon="3.85479">
        <ele>919.655</ele>
        <time>2021-10-01T01:23:01Z</time>
      </trkpt>
      <trkpt lat="44.72653" lon="3.85481">
        <ele>919.41</ele>
        <time>2021-10-01T01:23:41Z</time>
      </trkpt>
      <trkpt lat="44.72652" lon="3.85482">
        <ele>919.208</ele>
        <time>2021-10-01T01:24:21Z</time>
      </trkpt>
      <trkpt lat="44.7265" lon="3.85484">
        <ele>919.081</ele>
        <time>2021-10-01T01:25:01Z</time>
      </trkpt>
      <trkpt lat="44.72649" lon="3.85485">
        <ele>918.827</ele>
        <time>2021-10-01T01:25:41Z</time>
      </trkpt>
      <trkpt lat="44.72647" lon="3.85487">
        <ele>918.512</ele>
        <time>2021-10-01T01:26:21Z</time>
      </trkpt>
      <trkpt lat="44.72646" lon="3.85488">
        <ele>918.394</ele>
        <time>2021-10-01T01:27:01Z</time>
      </trkpt>
      <trkpt lat="44.72644" lon="3.8549">
        <ele>918.162</ele>
        <time>2021-10-01T01:27:41Z</time>
      </trkpt>
      <trkpt lat="44.72643" lon="3.85491">
        <ele>917.945</ele>
        <time>2021-10-01T01:28:21Z</time>
      </trkpt>
      <trkpt lat="44.72641" lon="3.85492">
        <ele>917.747</ele>
        <time>2021-10-01T01:29:01Z</time>
      </trkpt>
      <trkpt lat="44.7264" lon="3.85494">
        <ele>917.587</ele>
        <time>2021-10-01T01:29:41Z</time>
      </trkpt>
      <trkpt lat="44.72638" lon="3.85495">
        <ele>917.371</ele>
        <time>2021-10-01T01:30:21Z</time>
      </trkpt>
      <trkpt lat="44.72637" lon="3.85496">
        <ele>917.141</ele>
        <time>2021-10-01T01:31:01Z</time>
      </trkpt>
      <trkpt lat="44.72635" lon="3.85498">
        <ele>916.915</ele>
        <time>2021-10-01T01:31:41Z</time>
      </trkpt>
      <trkpt lat="44.72634" lon="3.85499">
        <ele>916.708</ele>
        <time>2021-10-01T01:32:21Z</time>
      </trkpt>
      <trkpt lat="44.72632" lon="3.855">
        <ele>916.545</ele>
        <time>2021-10-01T01:33:01Z</time>
      </trkpt>
      <trkpt lat="44.72631" lon="3.85502">
        <ele>916.361</ele>
        <time>2021-10-01T01:33:41Z</time>
      </trkpt>
      <trkpt lat="44.72629" lon="3.85503">
        <ele>916.196</ele>
        <time>2021-10-01T01:34:21Z</time>
      </trkpt>
      <trkpt lat="44.72628" lon="3.85504">
        <ele>915.968</ele>
        <time>2021-10-01T01:35:01Z</time>
      </trkpt>
      <trkpt lat="44.72626" lon="3.85506">
        <ele>915.826</ele>
        <time>2021-10-01T01:35:41Z</time>
      </trkpt>
      <trkpt lat="44.72625" lon="3.85507">
        <ele>915.639</ele>
        <time>2021-10-01T01:36:21Z</time>
      </trkpt>
      <trkpt lat="44.72623" lon="3.85508">
        <ele>915.411</ele>
        <time>2021-10-01T01:37:01Z</time>
      </trkpt>
      <trkpt lat="44.72622" lon="3.8551">
        <ele>915.331</ele>
        <time>2021-10-01T01:37:41Z</time>
      </trkpt>
      <trkpt lat="44.7262" lon="3.85511">
        <ele>915.196</ele>
        <time>2021-10-01T01:38:21Z</time>
      </trkpt>
      <trkpt lat="44.72619" lon="3.85513">
        <ele>915.031</ele>
        <time>2021-10-01T01:39:01Z</time>
      </trkpt>
      <trkpt lat="44.72617" lon="3.85514">
        <ele>914.824</ele>
        <time>2021-10-01T01:39:41Z</time>
      </trkpt>
      <trkpt lat="44.72615" lon="3.85515">
        <ele>914.708</ele>
        <time>2021-10-01T01:40:21Z</time>
      </trkpt>
      <trkpt lat="44.72614" lon="3.85517">
        <ele>914.587</ele>
        <time>2021-10-01T01:41:01Z</time>
      </trkpt>
      <trkpt lat="44.72612" lon="3.85518">
        <ele>914.463</ele>
        <time>2021-10-01T01:41:41Z</time>
      </trkpt>
      <trkpt lat="44.72613" lon="3.85519">
        <ele>914.418</ele>
        <time>2021-10-01T01:42:21Z</time>
      </trkpt>
      <trkpt lat="44.72613" lon="3.8552">
        <ele>914.49</ele>
        <time>2021-10-01T01:43:01Z</time>
      </trkpt>
      <trkpt lat="44.72613" lon="3.85521">
        <ele>914.418</ele>
        <time>2021-10-01T01:43:41Z</time>
      </trkpt>
      <trkpt lat="44.72614" lon="3.85522">
        <ele>914.311</ele>
        <time>2021-10-01T01:44:21Z</time>
      </trkpt>
      <trkpt lat="44.72614" lon="3.85522">
        <ele>914.373</ele>
        <time>2021-10-01T01:45:01Z</time>
      </trkpt>
      <trkpt lat="44.72614" lon="3.85523">
        <ele>914.323</ele>
        <time>2021-10-01T01:45:41Z</time>
      </trkpt>
      <trkpt lat="44.72614" lon="3.85524">
        <ele>914.377</ele>
        <time>2021-10-01T01:46:21Z</time>
      </trkpt>
      <trkpt lat="44.72615" lon="3.85525">
        <ele>914.261</ele>
        <time>2021-10-01T01:47:01Z</time>
      </trkpt>
      <trkpt lat="44.72615" lon="3.85526">
        <ele>914.227</ele>
        <time>2021-10-01T01:47:41Z</time>
      </trkpt>
      <trkpt lat="44.72615" lon="3.85527">
        <ele>914.208</ele>
        <time>2021-10-01T01:48:21Z</time>
      </trkpt>
      <trkpt lat="44.72615" lon="3.85528">
        <ele>914.145</ele>
        <time>2021-10-01T01:49:01Z</time>
      </trkpt>
      <trkpt lat="44.72616" lon="3.85529">
        <ele>914.171</ele>
        <time>2021-10-01T01:49:41Z</time>
      </trkpt>
      <trkpt lat="44.72616" lon="3.8553">
        <ele>914.126</ele>
        <time>2021-10-01T01:50:21Z</time>
      </trkpt>
      <trkpt lat="44.72616" lon="3.85531">
        <ele>914.138</ele>
        <time>2021-10-01T01:51:01Z</time>
      </trkpt>
      <trkpt lat="44.72616" lon="3.85532">
        <ele>914.036</ele>
        <time>2021-10-01T01:51:41Z</time>
      </trkpt>
      <trkpt lat="44.72616" lon="3.85533">
        <ele>914.089</ele>
        <time>2021-10-01T01:52:21Z</time>
      </trkpt>
      <trkpt lat="44.72617" lon="3.85533">
        <ele>914.041</ele>
        <time>2021-10-01T01:53:01Z</time>
      </trkpt>
      <trkpt lat="44.72617" lon="3.85534">
        <ele>913.991</ele>
        <time>2021-10-01T01:53:41Z</time>
      </trkpt>
      <trkpt lat="44.72617" lon="3.85535">
        <ele>913.926</ele>
        <time>2021-10-01T01:54:21Z</time>
      </trkpt>
      <trkpt lat="44.72617" lon="3.85536">
        <ele>913.947</ele>
        <time>2021-10-01T01:55:01Z</time>
      </trkpt>
      <trkpt lat="44.72618" lon="3.85537">
        <ele>913.811</ele>
        <time>2021-10-01T01:55:41Z</time>
      </trkpt>
      <trkpt lat="44.72618" lon="3.85538">
        <ele>913.808</ele>
        <time>2021-10-01T01:56:21Z</time>
      </trkpt>
      <trkpt lat="44.72618" lon="3.85539">
        <ele>913.75</ele>
        <time>2021-10-01T01:57:01Z</time>
      </trkpt>
      <trkpt lat="44.72618" lon="3.8554">
        <ele>913.776</ele>
        <time>2021-10-01T01:57:41Z</time>
      </trkpt>
      <trkpt lat="44.72619" lon="3.85541">
        <ele>913.741</ele>
        <time>2021-10-01T01:58:21Z</time>
      </trkpt>
      <trkpt lat="44.72619" lon="3.85542">
        <ele>913.653</ele>
        <time>2021-10-01T01:59:01Z</time>
      </trkpt>
      <trkpt lat="44.72619" lon="3.85543">
        <ele>913.621</ele>
        <time>2021-10-01T01:59:41Z</time>
      </trkpt>
      <trkpt lat="44.72619" lon="3.85544">
        <ele>913.684</ele>
        <time>2021-10-01T02:00:21Z</time>
      </trkpt>
      <trkpt lat="44.72619" lon="3.85545">
        <ele>913.586</ele>
        <time>2021-10-01T02:01:01Z</time>
      </trkpt>
      <trkpt lat="44.7262" lon="3.85546">
        <ele>913.536</ele>
        <time>2021-10-01T02:01:41Z</time>
      </trkpt>
      <trkpt lat="44.7262" lon="3.85547">
        <ele>913.448</ele>
        <time>2021-10-01T02:02:21Z</time>
      </trkpt>
      <trkpt lat="44.7262" lon="3.85547">
        <ele>913.461</ele>
        <time>2021-10-01T02:03:01Z</time>
      </trkpt>
      <trkpt lat="44.7262" lon="3.85548">
        <ele>913.317</ele>
        <time>2021-10-01T02:03:41Z</time>
      </trkpt>
      <trkpt lat="44.72621" lon="3.85549">
        <ele>913.308</ele>
        <time>2021-10-01T02:04:21Z</time>
      </trkpt>
      <trkpt lat="44.72621" lon="3.8555">
        <ele>913.352</ele>
        <time>2021-10-01T02:05:01Z</time>
      </trkpt>
      <trkpt lat="44.72621" lon="3.85551">
        <ele>913.238</ele>
        <time>2021-10-01T02:05:41Z</time>
      </trkpt>
      <trkpt lat="44.72622" lon="3.85552">
        <ele>913.213</ele>
        <time>2021-10-01T02:06:21Z</time>
      </trkpt>
      <trkpt lat="44.72622" lon="3.85553">
        <ele>913.195</ele>
        <time>2021-10-01T02:07:01Z</time>
      </trkpt>
      <trkpt lat="44.72622" lon="3.85553">
        <ele>913.163</ele>
        <time>2021-10-01T02:07:41Z</time>
      </trkpt>
      <trkpt lat="44.72623" lon="3.85554">
        <ele>913.116</ele>
        <time>2021-10-01T02:08:21Z</time>
      </trkpt>
      <trkpt lat="44.72623" lon="3.85555">
        <ele>913.058</ele>
        <time>2021-10-01T02:09:01Z</time>
      </trkpt>
      <trkpt lat="44.72624" lon="3.85556">
        <ele>913.058</ele>
        <time>2021-10-01T02:09:41Z</time>
      </trkpt>
      <trkpt lat="44.72624" lon="3.85557">
        <ele>913.078</ele>
        <time>2021-10-01T02:10:21Z</time>
      </trkpt>
      <trkpt lat="44.72624" lon="3.85558">
        <ele>912.933</ele>
        <time>2021-10-01T02:11:01Z</time>
      </trkpt>
      <trkpt lat="44.72625" lon="3.85559">
        <ele>912.926</ele>
        <time>2021-10-01T02:11:41Z</time>
      </trkpt>
      <trkpt lat="44.72625" lon="3.85559">
        <ele>912.908</ele>
        <time>2021-10-01T02:12:21Z</time>
      </trkpt>
      <trkpt lat="44.72625" lon="3.8556">
        <ele>912.825</ele>
        <time>2021-10-01T02:13:01Z</time>
      </trkpt>
      <trkpt lat="44.72626" lon="3.85561">
        <ele>912.811</ele>
        <time>2021-10-01T02:13:41Z</time>
      </trkpt>
      <trkpt lat="44.72626" lon="3.85562">
        <ele>912.826</ele>
        <time>2021-10-01T02:14:21Z</time>
      </trkpt>
      <trkpt lat="44.72626" lon="3.85563">
        <ele>912.728</ele>
        <time>2021-10-01T02:15:01Z</time>
      </trkpt>
      <trkpt lat="44.72627" lon="3.85564">
        <ele>912.776</ele>
        <time>2021-10-01T02:15:41Z</time>
      </trkpt>
      <trkpt lat="44.72625" lon="3.85566">
        <ele>912.689</ele>
        <time>2021-10-01T02:16:21Z</time>
      </trkpt>
      <trkpt lat="44.72623" lon="3.85568">
        <ele>912.571</ele>
        <time>2021-10-01T02:17:01Z</time>
      </trkpt>
      <trkpt lat="44.72621" lon="3.8557">
        <ele>912.571</ele>
        <time>2021-10-01T02:17:41Z</time>
      </trkpt>
      <trkpt lat="44.72619" lon="3.85573">
        <ele>912.454</ele>
        <time>2021-10-01T02:18:21Z</time>
      </trkpt>
      <trkpt lat="44.72618" lon="3.85575">
        <ele>912.356</ele>
        <time>2021-10-01T02:19:01Z</time>
      </trkpt>
      <trkpt lat="44.72616" lon="3.85577">
        <ele>912.211</ele>
        <time>2021-10-01T02:19:41Z</time>
      </trkpt>
      <trkpt lat="44.72614" lon="3.85579">
        <ele>912.208</ele>
        <time>2021-10-01T02:20:21Z</time>
      </trkpt>
      <trkpt lat="44.72612" lon="3.85581">
        <ele>912.123</ele>
        <time>2021-10-01T02:21:01Z</time>
      </trkpt>
      <trkpt lat="44.72611" lon="3.85584">
        <ele>912.039</ele>
        <time>2021-10-01T02:21:41Z</time>
      </trkpt>
      <trkpt lat="44.72609" lon="3.85586">
        <ele>911.854</ele>
        <time>2021-10-01T02:22:21Z</time>
      </trkpt>
      <trkpt lat="44.72607" lon="3.85588">
        <ele>911.796</ele>
        <time>2021-10-01T02:23:01Z</time>
      </trkpt>
      <trkpt lat="44.72605" lon="3.8559">
        <ele>911.614</ele>
        <time>2021-10-01T02:23:41Z</time>
      </trkpt>
      <trkpt lat="44.72603" lon="3.85592">
        <ele>911.587</ele>
        <time>2021-10-01T02:24:21Z</time>
      </trkpt>
      <trkpt lat="44.72602" lon="3.85595">
        <ele>911.499</ele>
        <time>2021-10-01T02:25:01Z</time>
      </trkpt>
      <trkpt lat="44.726" lon="3.85597">
        <ele>911.369</ele>
        <time>2021-10-01T02:25:41Z</time>
      </trkpt>
      <trkpt lat="44.72598" lon="3.85599">
        <ele>911.285</ele>
        <time>2021-10-01T02:26:21Z</time>
      </trkpt>
      <trkpt lat="44.72596" lon="3.85601">
        <ele>911.289</ele>
        <time>2021-10-01T02:27:01Z</time>
      </trkpt>
      <trkpt lat="44.72595" lon="3.85603">
        <ele>911.117</ele>
        <time>2021-10-01T02:27:41Z</time>
      </trkpt>
      <trkpt lat="44.72593" lon="3.85606">
        <ele>911.108</ele>
        <time>2021-10-01T02:28:21Z</time>
      </trkpt>
      <trkpt lat="44.72591" lon="3.85608">
        <ele>911.026</ele>
        <time>2021-10-01T02:29:01Z</time>
      </trkpt>
      <trkpt lat="44.72589" lon="3.8561">
        <ele>911.092</ele>
        <time>2021-10-01T02:29:41Z</time>
      </trkpt>
      <trkpt lat="44.72587" lon="3.85612">
        <ele>911.057</ele>
        <time>2021-10-01T02:30:21Z</time>
      </trkpt>
      <trkpt lat="44.72586" lon="3.85614">
        <ele>910.989</ele>
        <time>2021-10-01T02:31:01Z</time>
      </trkpt>
      <trkpt lat="44.72584" lon="3.85617">
        <ele>910.837</ele>
        <time>2021-10-01T02:31:41Z</time>
      </trkpt>
      <trkpt lat="44.72582" lon="3.85619">
        <ele>910.75</ele>
        <time>2021-10-01T02:32:21Z</time>
      </trkpt>
      <trkpt lat="44.7258" lon="3.85621">
        <ele>910.632</ele>
        <time>2021-10-01T02:33:01Z</time>
      </trkpt>
      <trkpt lat="44.72579" lon="3.85623">
        <ele>910.552</ele>
        <time>2021-10-01T02:33:41Z</time>
      </trkpt>
      <trkpt lat="44.72577" lon="3.85626">
        <ele>910.441</ele>
        <time>2021-10-01T02:34:21Z</time>
      </trkpt>
      <trkpt lat="44.72575" lon="3.85628">
        <ele>910.381</ele>
        <time>2021-10-01T02:35:01Z</time>
      </trkpt>
      <trkpt lat="44.72573" lon="3.8563">
        <ele>910.209</ele>
        <time>2021-10-01T02:35:41Z</time>
      </trkpt>
      <trkpt lat="44.72571" lon="3.85631">
        <ele>910.208</ele>
        <time>2021-10-01T02:36:21Z</time>
      </trkpt>
      <trkpt lat="44.72569" lon="3.85632">
        <ele>910.122</ele>
        <time>2021-10-01T02:37:01Z</time>
      </trkpt>
      <trkpt lat="44.72567" lon="3.85633">
        <ele>910.118</ele>
        <time>2021-10-01T02:37:41Z</time>
      </trkpt>
      <trkpt lat="44.72565" lon="3.85634">
        <ele>910.143</ele>
        <time>2021-10-01T02:38:21Z</time>
      </trkpt>
      <trkpt lat="44.72563" lon="3.85636">
        <ele>910.085</ele>
        <time>2021-10-01T02:39:01Z</time>
      </trkpt>
      <trkpt lat="44.7256" lon="3.85637">
        <ele>910.093</ele>
        <time>2021-10-01T02:39:41Z</time>
      </trkpt>
      <trkpt lat="44.72558" lon="3.85638">
        <ele>910.016</ele>
        <time>2021-10-01T02:40:21Z</time>
      </trkpt>
      <trkpt lat="44.72556" lon="3.85639">
        <ele>910.038</ele>
        <time>2021-10-01T02:41:01Z</time>
      </trkpt>
      <trkpt lat="44.72554" lon="3.8564">
        <ele>910.068</ele>
        <time>2021-10-01T02:41:41Z</time>
      </trkpt>
      <trkpt lat="44.72552" lon="3.85641">
        <ele>910.058</ele>
        <time>2021-10-01T02:42:21Z</time>
      </trkpt>
      <trkpt lat="44.7255" lon="3.85642">
        <ele>910.052</ele>
        <time>2021-10-01T02:43:01Z</time>
      </trkpt>
      <trkpt lat="44.72548" lon="3.85643">
        <ele>910.017</ele>
        <time>2021-10-01T02:43:41Z</time>
      </trkpt>
      <trkpt lat="44.72546" lon="3.85644">
        <ele>910.008</ele>
        <time>2021-10-01T02:44:21Z</time>
      </trkpt>
      <trkpt lat="44.72543" lon="3.85646">
        <ele>910.043</ele>
        <time>2021-10-01T02:45:01Z</time>
      </trkpt>
      <trkpt lat="44.72541" lon="3.85647">
        <ele>910.089</ele>
        <time>2021-10-01T02:45:41Z</time>
      </trkpt>
      <trkpt lat="44.72539" lon="3.85648">
        <ele>910.034</ele>
        <time>2021-10-01T02:46:21Z</time>
      </trkpt>
      <trkpt lat="44.72537" lon="3.85649">
        <ele>910.046</ele>
        <time>2021-10-01T02:47:01Z</time>
      </trkpt>
      <trkpt lat="44.72535" lon="3.8565">
        <ele>910.014</ele>
        <time>2021-10-01T02:47:41Z</time>
      </trkpt>
      <trkpt lat="44.72533" lon="3.85651">
        <ele>910.027</ele>
        <time>2021-10-01T02:48:21Z</time>
      </trkpt>
      <trkpt lat="44.72531" lon="3.85652">
        <ele>910.069</ele>
        <time>2021-10-01T02:49:01Z</time>
      </trkpt>
      <trkpt lat="44.72529" lon="3.85651">
        <ele>910.059</ele>
        <time>2021-10-01T02:49:41Z</time>
      </trkpt>
      <trkpt lat="44.72527" lon="3.8565">
        <ele>910.154</ele>
        <time>2021-10-01T02:50:21Z</time>
      </trkpt>
      <trkpt lat="44.72525" lon="3.85648">
        <ele>910.356</ele>
        <time>2021-10-01T02:51:01Z</time>
      </trkpt>
      <trkpt lat="44.72523" lon="3.85647">
        <ele>910.511</ele>
        <time>2021-10-01T02:51:41Z</time>
      </trkpt>
      <trkpt lat="44.72521" lon="3.85646">
        <ele>910.708</ele>
        <time>2021-10-01T02:52:21Z</time>
      </trkpt>
      <trkpt lat="44.72519" lon="3.85644">
        <ele>910.913</ele>
        <time>2021-10-01T02:53:01Z</time>
      </trkpt>
      <trkpt lat="44.72517" lon="3.85643">
        <ele>911.239</ele>
        <time>2021-10-01T02:53:41Z</time>
      </trkpt>
      <trkpt lat="44.72515" lon="3.85643">
        <ele>911.414</ele>
        <time>2021-10-01T02:54:21Z</time>
      </trkpt>
      <trkpt lat="44.72513" lon="3.85644">
        <ele>911.696</ele>
        <time>2021-10-01T02:55:01Z</time>
      </trkpt>
      <trkpt lat="44.72511" lon="3.85644">
        <ele>911.814</ele>
        <time>2021-10-01T02:55:41Z</time>
      </trkpt>
      <trkpt lat="44.72509" lon="3.85644">
        <ele>912.037</ele>
        <time>2021-10-01T02:56:21Z</time>
      </trkpt>
      <trkpt lat="44.72507" lon="3.85644">
        <ele>912.279</ele>
        <time>2021-10-01T02:57:01Z</time>
      </trkpt>
      <trkpt lat="44.72505" lon="3.85645">
        <ele>912.479</ele>
        <time>2021-10-01T02:57:41Z</time>
      </trkpt>
      <trkpt lat="44.72503" lon="3.85645">
        <ele>912.713</ele>
        <time>2021-10-01T02:58:21Z</time>
      </trkpt>
      <trkpt lat="44.72501" lon="3.85645">
        <ele>912.943</ele>
        <time>2021-10-01T02:59:01Z</time>
      </trkpt>
      <trkpt lat="44.72499" lon="3.85646">
        <ele>913.207</ele>
        <time>2021-10-01T02:59:41Z</time>
      </trkpt>
      <trkpt lat="44.72497" lon="3.85646">
        <ele>913.508</ele>
        <time>2021-10-01T03:00:21Z</time>
      </trkpt>
      <trkpt lat="44.72495" lon="3.85646">
        <ele>913.949</ele>
        <time>2021-10-01T03:01:01Z</time>
      </trkpt>
      <trkpt lat="44.72493" lon="3.85646">
        <ele>914.235</ele>
        <time>2021-10-01T03:01:41Z</time>
      </trkpt>
      <trkpt lat="44.72491" lon="3.85646">
        <ele>914.62</ele>
        <time>2021-10-01T03:02:21Z</time>
      </trkpt>
      <trkpt lat="44.72489" lon="3.85647">
        <ele>914.932</ele>
        <time>2021-10-01T03:03:01Z</time>
      </trkpt>
      <trkpt lat="44.72487" lon="3.85647">
        <ele>915.32</ele>
        <time>2021-10-01T03:03:41Z</time>
      </trkpt>
      <trkpt lat="44.72485" lon="3.85645">
        <ele>915.663</ele>
        <time>2021-10-01T03:04:21Z</time>
      </trkpt>
      <trkpt lat="44.72483" lon="3.85644">
        <ele>915.835</ele>
        <time>2021-10-01T03:05:01Z</time>
      </trkpt>
      <trkpt lat="44.72481" lon="3.85642">
        <ele>915.995</ele>
        <time>2021-10-01T03:05:41Z</time>
      </trkpt>
      <trkpt lat="44.72479" lon="3.85641">
        <ele>916.111</ele>
        <time>2021-10-01T03:06:21Z</time>
      </trkpt>
      <trkpt lat="44.72478" lon="3.85639">
        <ele>916.321</ele>
        <time>2021-10-01T03:07:01Z</time>
      </trkpt>
      <trkpt lat="44.72476" lon="3.85638">
        <ele>916.403</ele>
        <time>2021-10-01T03:07:41Z</time>
      </trkpt>
      <trkpt lat="44.72474" lon="3.85636">
        <ele>916.508</ele>
        <time>2021-10-01T03:08:21Z</time>
      </trkpt>
      <trkpt lat="44.72472" lon="3.85635">
        <ele>916.659</ele>
        <time>2021-10-01T03:09:01Z</time>
      </trkpt>
      <trkpt lat="44.7247" lon="3.85633">
        <ele>916.855</ele>
        <time>2021-10-01T03:09:41Z</time>
      </trkpt>
      <trkpt lat="44.72468" lon="3.85631">
        <ele>917.07</ele>
        <time>2021-10-01T03:10:21Z</time>
      </trkpt>
      <trkpt lat="44.72466" lon="3.8563">
        <ele>917.272</ele>
        <time>2021-10-01T03:11:01Z</time>
      </trkpt>
      <trkpt lat="44.72465" lon="3.85628">
        <ele>917.44</ele>
        <time>2021-10-01T03:11:41Z</time>
      </trkpt>
      <trkpt lat="44.72463" lon="3.85627">
        <ele>917.543</ele>
        <time>2021-10-01T03:12:21Z</time>
      </trkpt>
      <trkpt lat="44.72461" lon="3.85625">
        <ele>917.625</ele>
        <time>2021-10-01T03:13:01Z</time>
      </trkpt>
      <trkpt lat="44.72459" lon="3.85624">
        <ele>917.785</ele>
        <time>2021-10-01T03:13:41Z</time>
      </trkpt>
      <trkpt lat="44.72457" lon="3.85622">
        <ele>917.729</ele>
        <time>2021-10-01T03:14:21Z</time>
      </trkpt>
      <trkpt lat="44.72455" lon="3.85621">
        <ele>917.7</ele>
        <time>2021-10-01T03:15:01Z</time>
      </trkpt>
      <trkpt lat="44.72454" lon="3.85619">
        <ele>917.72</ele>
        <time>2021-10-01T03:15:41Z</time>
      </trkpt>
      <trkpt lat="44.72452" lon="3.85618">
        <ele>917.608</ele>
        <time>2021-10-01T03:16:21Z</time>
      </trkpt>
      <trkpt lat="44.7245" lon="3.85616">
        <ele>917.53</ele>
        <time>2021-10-01T03:17:01Z</time>
      </trkpt>
      <trkpt lat="44.72448" lon="3.85615">
        <ele>917.476</ele>
        <time>2021-10-01T03:17:41Z</time>
      </trkpt>
      <trkpt lat="44.72446" lon="3.85613">
        <ele>917.361</ele>
        <time>2021-10-01T03:18:21Z</time>
      </trkpt>
      <trkpt lat="44.72444" lon="3.85612">
        <ele>917.173</ele>
        <time>2021-10-01T03:19:01Z</time>
      </trkpt>
      <trkpt lat="44.72442" lon="3.8561">
        <ele>917.181</ele>
        <time>2021-10-01T03:19:41Z</time>
      </trkpt>
      <trkpt lat="44.72441" lon="3.85608">
        <ele>917.164</ele>
        <time>2021-10-01T03:20:21Z</time>
      </trkpt>
      <trkpt lat="44.72439" lon="3.85607">
        <ele>917.066</ele>
        <time>2021-10-01T03:21:01Z</time>
      </trkpt>
      <trkpt lat="44.72437" lon="3.85605">
        <ele>917.086</ele>
        <time>2021-10-01T03:21:41Z</time>
      </trkpt>
      <trkpt lat="44.72435" lon="3.85604">
        <ele>917.075</ele>
        <time>2021-10-01T03:22:21Z</time>
      </trkpt>
      <trkpt lat="44.72422" lon="3.85606">
        <ele>919.128</ele>
        <time>2021-10-01T03:23:01Z</time>
      </trkpt>
      <trkpt lat="44.7241" lon="3.85608">
        <ele>920.62</ele>
        <time>2021-10-01T03:23:41Z</time>
      </trkpt>
      <trkpt lat="44.72397" lon="3.85611">
        <ele>921.608</ele>
        <time>2021-10-01T03:24:21Z</time>
      </trkpt>
      <trkpt lat="44.72385" lon="3.85613">
        <ele>922.185</ele>
        <time>2021-10-01T03:25:01Z</time>
      </trkpt>
      <trkpt lat="44.7237" lon="3.85615">
        <ele>922.131</ele>
        <time>2021-10-01T03:25:41Z</time>
      </trkpt>
      <trkpt lat="44.72356" lon="3.85618">
        <ele>922.626</ele>
        <time>2021-10-01T03:26:21Z</time>
      </trkpt>
      <trkpt lat="44.72341" lon="3.8562">
        <ele>923.638</ele>
        <time>2021-10-01T03:27:01Z</time>
      </trkpt>
      <trkpt lat="44.72327" lon="3.85622">
        <ele>924.726</ele>
        <time>2021-10-01T03:27:41Z</time>
      </trkpt>
      <trkpt lat="44.72312" lon="3.85626">
        <ele>926.169</ele>
        <time>2021-10-01T03:28:21Z</time>
      </trkpt>
      <trkpt lat="44.72297" lon="3.85629">
        <ele>926.981</ele>
        <time>2021-10-01T03:29:01Z</time>
      </trkpt>
      <trkpt lat="44.72288" lon="3.85613">
        <ele>925.291</ele>
        <time>2021-10-01T03:29:41Z</time>
      </trkpt>
      <trkpt lat="44.72279" lon="3.85603">
        <ele>924.748</ele>
        <time>2021-10-01T03:30:21Z</time>
      </trkpt>
      <trkpt lat="44.72271" lon="3.85593">
        <ele>925.061</ele>
        <time>2021-10-01T03:31:01Z</time>
      </trkpt>
      <trkpt lat="44.72262" lon="3.85583">
        <ele>925.717</ele>
        <time>2021-10-01T03:31:41Z</time>
      </trkpt>
      <trkpt lat="44.72251" lon="3.85572">
        <ele>926.908</ele>
        <time>2021-10-01T03:32:21Z</time>
      </trkpt>
      <trkpt lat="44.7224" lon="3.85561">
        <ele>928.372</ele>
        <time>2021-10-01T03:33:01Z</time>
      </trkpt>
      <trkpt lat="44.72231" lon="3.85556">
        <ele>929.878</ele>
        <time>2021-10-01T03:33:41Z</time>
      </trkpt>
      <trkpt lat="44.72221" lon="3.85551">
        <ele>931.123</ele>
        <time>2021-10-01T03:34:21Z</time>
      </trkpt>
      <trkpt lat="44.72206" lon="3.85552">
        <ele>932.125</ele>
        <time>2021-10-01T03:35:01Z</time>
      </trkpt>
      <trkpt lat="44.72192" lon="3.85553">
        <ele>933.233</ele>
        <time>2021-10-01T03:35:41Z</time>
      </trkpt>
      <trkpt lat="44.72178" lon="3.85555">
        <ele>934.756</ele>
        <time>2021-10-01T03:36:21Z</time>
      </trkpt>
      <trkpt lat="44.72164" lon="3.85556">
        <ele>936.298</ele>
        <time>2021-10-01T03:37:01Z</time>
      </trkpt>
      <trkpt lat="44.72152" lon="3.8556">
        <ele>937.288</ele>
        <time>2021-10-01T03:37:41Z</time>
      </trkpt>
      <trkpt lat="44.7214" lon="3.85563">
        <ele>938.487</ele>
        <time>2021-10-01T03:38:21Z</time>
      </trkpt>
      <trkpt lat="44.72128" lon="3.85567">
        <ele>939.642</ele>
        <time>2021-10-01T03:39:01Z</time>
      </trkpt>
      <trkpt lat="44.72113" lon="3.85573">
        <ele>941.126</ele>
        <time>2021-10-01T03:39:41Z</time>
      </trkpt>
      <trkpt lat="44.72097" lon="3.85579">
        <ele>941.708</ele>
        <time>2021-10-01T03:40:21Z</time>
      </trkpt>
      <trkpt lat="44.72081" lon="3.85585">
        <ele>942.196</ele>
        <time>2021-10-01T03:41:01Z</time>
      </trkpt>
      <trkpt lat="44.72072" lon="3.85585">
        <ele>942.132</ele>
        <time>2021-10-01T03:41:41Z</time>
      </trkpt>
      <trkpt lat="44.72062" lon="3.85584">
        <ele>942.187</ele>
        <time>2021-10-01T03:42:21Z</time>
      </trkpt>
      <trkpt lat="44.72051" lon="3.85584">
        <ele>941.939</ele>
        <time>2021-10-01T03:43:01Z</time>
      </trkpt>
      <trkpt lat="44.72039" lon="3.85584">
        <ele>941.557</ele>
        <time>2021-10-01T03:43:41Z</time>
      </trkpt>
      <trkpt lat="44.72028" lon="3.85584">
        <ele>941.05</ele>
        <time>2021-10-01T03:44:21Z</time>
      </trkpt>
      <trkpt lat="44.72011" lon="3.85582">
        <ele>941.632</ele>
        <time>2021-10-01T03:45:01Z</time>
      </trkpt>
      <trkpt lat="44.71995" lon="3.8558">
        <ele>942.342</ele>
        <time>2021-10-01T03:45:41Z</time>
      </trkpt>
      <trkpt lat="44.71983" lon="3.85582">
        <ele>943.274</ele>
        <time>2021-10-01T03:46:21Z</time>
      </trkpt>
      <trkpt lat="44.71972" lon="3.85584">
        <ele>944.056</ele>
        <time>2021-10-01T03:47:01Z</time>
      </trkpt>
      <trkpt lat="44.7196" lon="3.85588">
        <ele>944.921</ele>
        <time>2021-10-01T03:47:41Z</time>
      </trkpt>
      <trkpt lat="44.71947" lon="3.85592">
        <ele>945.808</ele>
        <time>2021-10-01T03:48:21Z</time>
      </trkpt>
      <trkpt lat="44.71939" lon="3.85596">
        <ele>946.135</ele>
        <time>2021-10-01T03:49:01Z</time>
      </trkpt>
      <trkpt lat="44.71931" lon="3.856">
        <ele>946.311</ele>
        <time>2021-10-01T03:49:41Z</time>
      </trkpt>
      <trkpt lat="44.71917" lon="3.85604">
        <ele>946.766</ele>
        <time>2021-10-01T03:50:21Z</time>
      </trkpt>
      <trkpt lat="44.71908" lon="3.85607">
        <ele>947.538</ele>
        <time>2021-10-01T03:51:01Z</time>
      </trkpt>
      <trkpt lat="44.71899" lon="3.8561">
        <ele>948.266</ele>
        <time>2021-10-01T03:51:41Z</time>
      </trkpt>
      <trkpt lat="44.71889" lon="3.85611">
        <ele>949.049</ele>
        <time>2021-10-01T03:52:21Z</time>
      </trkpt>
      <trkpt lat="44.71879" lon="3.85613">
        <ele>949.451</ele>
        <time>2021-10-01T03:53:01Z</time>
      </trkpt>
      <trkpt lat="44.71868" lon="3.85612">
        <ele>949.841</ele>
        <time>2021-10-01T03:53:41Z</time>
      </trkpt>
      <trkpt lat="44.71856" lon="3.85611">
        <ele>950.239</ele>
        <time>2021-10-01T03:54:21Z</time>
      </trkpt>
      <trkpt lat="44.71846" lon="3.8561">
        <ele>950.501</ele>
        <time>2021-10-01T03:55:01Z</time>
      </trkpt>
      <trkpt lat="44.71836" lon="3.85609">
        <ele>950.921</ele>
        <time>2021-10-01T03:55:41Z</time>
      </trkpt>
      <trkpt lat="44.71822" lon="3.85608">
        <ele>951.808</ele>
        <time>2021-10-01T03:56:21Z</time>
      </trkpt>
      <trkpt lat="44.71809" lon="3.85607">
        <ele>952.881</ele>
        <time>2021-10-01T03:57:01Z</time>
      </trkpt>
      <trkpt lat="44.71795" lon="3.85606">
        <ele>954.127</ele>
        <time>2021-10-01T03:57:41Z</time>
      </trkpt>
      <trkpt lat="44.71782" lon="3.85604">
        <ele>955.462</ele>
        <time>2021-10-01T03:58:21Z</time>
      </trkpt>
      <trkpt lat="44.71767" lon="3.85603">
        <ele>956.114</ele>
        <time>2021-10-01T03:59:01Z</time>
      </trkpt>
      <trkpt lat="44.71752" lon="3.85602">
        <ele>956.642</ele>
        <time>2021-10-01T03:59:41Z</time>
      </trkpt>
      <trkpt lat="44.71737" lon="3.85601">
        <ele>956.665</ele>
        <time>2021-10-01T04:00:21Z</time>
      </trkpt>
      <trkpt lat="44.71724" lon="3.85601">
        <ele>956.687</ele>
        <time>2021-10-01T04:01:01Z</time>
      </trkpt>
      <trkpt lat="44.7171" lon="3.85601">
        <ele>957.297</ele>
        <time>2021-10-01T04:01:41Z</time>
      </trkpt>
      <trkpt lat="44.71701" lon="3.85601">
        <ele>957.757</ele>
        <time>2021-10-01T04:02:21Z</time>
      </trkpt>
      <trkpt lat="44.71692" lon="3.85602">
        <ele>958.2</ele>
        <time>2021-10-01T04:03:01Z</time>
      </trkpt>
      <trkpt lat="44.71681" lon="3.85601">
        <ele>959.32</ele>
        <time>2021-10-01T04:03:41Z</time>
      </trkpt>
      <trkpt lat="44.71669" lon="3.856">
        <ele>960.408</ele>
        <time>2021-10-01T04:04:21Z</time>
      </trkpt>
      <trkpt lat="44.71656" lon="3.85599">
        <ele>961.323</ele>
        <time>2021-10-01T04:05:01Z</time>
      </trkpt>
      <trkpt lat="44.71643" lon="3.85598">
        <ele>962.389</ele>
        <time>2021-10-01T04:05:41Z</time>
      </trkpt>
      <trkpt lat="44.71641" lon="3.85599">
        <ele>962.424</ele>
        <time>2021-10-01T04:06:21Z</time>
      </trkpt>
      <trkpt lat="44.71634" lon="3.85603">
        <ele>962.766</ele>
        <time>2021-10-01T04:07:01Z</time>
      </trkpt>
      <trkpt lat="44.71627" lon="3.85607">
        <ele>962.994</ele>
        <time>2021-10-01T04:07:41Z</time>
      </trkpt>
      <trkpt lat="44.71619" lon="3.8561">
        <ele>962.947</ele>
        <time>2021-10-01T04:08:21Z</time>
      </trkpt>
      <trkpt lat="44.71611" lon="3.85612">
        <ele>963.099</ele>
        <time>2021-10-01T04:09:01Z</time>
      </trkpt>
      <trkpt lat="44.71603" lon="3.85614">
        <ele>962.889</ele>
        <time>2021-10-01T04:09:41Z</time>
      </trkpt>
      <trkpt lat="44.71595" lon="3.85616">
        <ele>962.529</ele>
        <time>2021-10-01T04:10:21Z</time>
      </trkpt>
      <trkpt lat="44.71587" lon="3.85619">
        <ele>962.2</ele>
        <time>2021-10-01T04:11:01Z</time>
      </trkpt>
      <trkpt lat="44.71579" lon="3.85621">
        <ele>962.12</ele>
        <time>2021-10-01T04:11:41Z</time>
      </trkpt>
      <trkpt lat="44.71571" lon="3.85623">
        <ele>962.308</ele>
        <time>2021-10-01T04:12:21Z</time>
      </trkpt>
      <trkpt lat="44.71563" lon="3.85625">
        <ele>962.42</ele>
        <time>2021-10-01T04:13:01Z</time>
      </trkpt>
      <trkpt lat="44.71555" lon="3.85628">
        <ele>962.436</ele>
        <time>2021-10-01T04:13:41Z</time>
      </trkpt>
      <trkpt lat="44.71547" lon="3.8563">
        <ele>962.631</ele>
        <time>2021-10-01T04:14:21Z</time>
      </trkpt>
      <trkpt lat="44.71539" lon="3.85631">
        <ele>962.913</ele>
        <time>2021-10-01T04:15:01Z</time>
      </trkpt>
      <trkpt lat="44.7153" lon="3.85633">
        <ele>963.141</ele>
        <time>2021-10-01T04:15:41Z</time>
      </trkpt>
      <trkpt lat="44.71522" lon="3.85634">
        <ele>962.844</ele>
        <time>2021-10-01T04:16:21Z</time>
      </trkpt>
      <trkpt lat="44.71513" lon="3.85635">
        <ele>962.126</ele>
        <time>2021-10-01T04:17:01Z</time>
      </trkpt>
      <trkpt lat="44.71505" lon="3.85636">
        <ele>961.546</ele>
        <time>2021-10-01T04:17:41Z</time>
      </trkpt>
      <trkpt lat="44.71496" lon="3.85637">
        <ele>960.929</ele>
        <time>2021-10-01T04:18:21Z</time>
      </trkpt>
      <trkpt lat="44.71488" lon="3.85638">
        <ele>960.6</ele>
        <time>2021-10-01T04:19:01Z</time>
      </trkpt>
      <trkpt lat="44.71479" lon="3.85639">
        <ele>960.22</ele>
        <time>2021-10-01T04:19:41Z</time>
      </trkpt>
      <trkpt lat="44.7147" lon="3.8564">
        <ele>960.108</ele>
        <time>2021-10-01T04:20:21Z</time>
      </trkpt>
      <trkpt lat="44.71461" lon="3.85641">
        <ele>960.36</ele>
        <time>2021-10-01T04:21:01Z</time>
      </trkpt>
      <trkpt lat="44.71455" lon="3.85642">
        <ele>960.446</ele>
        <time>2021-10-01T04:21:41Z</time>
      </trkpt>
      <trkpt lat="44.71448" lon="3.85644">
        <ele>960.581</ele>
        <time>2021-10-01T04:22:21Z</time>
      </trkpt>
      <trkpt lat="44.71442" lon="3.85645">
        <ele>960.583</ele>
        <time>2021-10-01T04:23:01Z</time>
      </trkpt>
      <trkpt lat="44.71434" lon="3.85648">
        <ele>960.311</ele>
        <time>2021-10-01T04:23:41Z</time>
      </trkpt>
      <trkpt lat="44.71426" lon="3.85651">
        <ele>960.154</ele>
        <time>2021-10-01T04:24:21Z</time>
      </trkpt>
      <trkpt lat="44.71419" lon="3.85654">
        <ele>959.976</ele>
        <time>2021-10-01T04:25:01Z</time>
      </trkpt>
      <trkpt lat="44.71411" lon="3.85655">
        <ele>960.066</ele>
        <time>2021-10-01T04:25:41Z</time>
      </trkpt>
      <trkpt lat="44.71404" lon="3.85656">
        <ele>960.148</ele>
        <time>2021-10-01T04:26:21Z</time>
      </trkpt>
      <trkpt lat="44.71396" lon="3.85657">
        <ele>960.261</ele>
        <time>2021-10-01T04:27:01Z</time>
      </trkpt>
      <trkpt lat="44.71388" lon="3.85658">
        <ele>960.317</ele>
        <time>2021-10-01T04:27:41Z</time>
      </trkpt>
      <trkpt lat="44.71381" lon="3.8566">
        <ele>960.808</ele>
        <time>2021-10-01T04:28:21Z</time>
      </trkpt>
      <trkpt lat="44.71372" lon="3.8566">
        <ele>961.352</ele>
        <time>2021-10-01T04:29:01Z</time>
      </trkpt>
      <trkpt lat="44.71364" lon="3.85661">
        <ele>961.838</ele>
        <time>2021-10-01T04:29:41Z</time>
      </trkpt>
      <trkpt lat="44.71355" lon="3.85661">
        <ele>962.253</ele>
        <time>2021-10-01T04:30:21Z</time>
      </trkpt>
      <trkpt lat="44.71347" lon="3.85662">
        <ele>962.565</ele>
        <time>2021-10-01T04:31:01Z</time>
      </trkpt>
      <trkpt lat="44.71338" lon="3.85663">
        <ele>962.853</ele>
        <time>2021-10-01T04:31:41Z</time>
      </trkpt>
      <trkpt lat="44.71331" lon="3.85663">
        <ele>963.246</ele>
        <time>2021-10-01T04:32:21Z</time>
      </trkpt>
      <trkpt lat="44.71323" lon="3.85663">
        <ele>963.788</ele>
        <time>2021-10-01T04:33:01Z</time>
      </trkpt>
      <trkpt lat="44.71316" lon="3.85664">
        <ele>964.378</ele>
        <time>2021-10-01T04:33:41Z</time>
      </trkpt>
      <trkpt lat="44.71309" lon="3.85664">
        <ele>964.844</ele>
        <time>2021-10-01T04:34:21Z</time>
      </trkpt>
      <trkpt lat="44.71301" lon="3.85665">
        <ele>965.205</ele>
        <time>2021-10-01T04:35:01Z</time>
      </trkpt>
      <trkpt lat="44.71293" lon="3.85665">
        <ele>965.515</ele>
        <time>2021-10-01T04:35:41Z</time>
      </trkpt>
      <trkpt lat="44.71285" lon="3.85665">
        <ele>965.808</ele>
        <time>2021-10-01T04:36:21Z</time>
      </trkpt>
      <trkpt lat="44.71277" lon="3.85666">
        <ele>966.182</ele>
        <time>2021-10-01T04:37:01Z</time>
      </trkpt>
      <trkpt lat="44.71269" lon="3.85666">
        <ele>966.498</ele>
        <time>2021-10-01T04:37:41Z</time>
      </trkpt>
      <trkpt lat="44.71261" lon="3.85666">
        <ele>966.733</ele>
        <time>2021-10-01T04:38:21Z</time>
      </trkpt>
      <trkpt lat="44.71253" lon="3.85667">
        <ele>966.985</ele>
        <time>2021-10-01T04:39:01Z</time>
      </trkpt>
      <trkpt lat="44.71245" lon="3.85667">
        <ele>967.493</ele>
        <time>2021-10-01T04:39:41Z</time>
      </trkpt>
      <trkpt lat="44.71237" lon="3.85667">
        <ele>967.926</ele>
        <time>2021-10-01T04:40:21Z</time>
      </trkpt>
      <trkpt lat="44.71229" lon="3.85667">
        <ele>968.518</ele>
        <time>2021-10-01T04:41:01Z</time>
      </trkpt>
      <trkpt lat="44.71221" lon="3.85667">
        <ele>969.138</ele>
        <time>2021-10-01T04:41:41Z</time>
      </trkpt>
      <trkpt lat="44.71214" lon="3.85667">
        <ele>969.998</ele>
        <time>2021-10-01T04:42:21Z</time>
      </trkpt>
      <trkpt lat="44.71206" lon="3.85667">
        <ele>970.815</ele>
        <time>2021-10-01T04:43:01Z</time>
      </trkpt>
      <trkpt lat="44.71198" lon="3.85665">
        <ele>971.626</ele>
        <time>2021-10-01T04:43:41Z</time>
      </trkpt>
      <trkpt lat="44.71191" lon="3.85663">
        <ele>971.908</ele>
        <time>2021-10-01T04:44:21Z</time>
      </trkpt>
      <trkpt lat="44.71183" lon="3.85661">
        <ele>971.797</ele>
        <time>2021-10-01T04:45:01Z</time>
      </trkpt>
      <trkpt lat="44.71175" lon="3.85659">
        <ele>971.583</ele>
        <time>2021-10-01T04:45:41Z</time>
      </trkpt>
      <trkpt lat="44.71169" lon="3.85657">
        <ele>971.478</ele>
        <time>2021-10-01T04:46:21Z</time>
      </trkpt>
      <trkpt lat="44.71162" lon="3.85655">
        <ele>971.46</ele>
        <time>2021-10-01T04:47:01Z</time>
      </trkpt>
      <trkpt lat="44.71156" lon="3.85653">
        <ele>971.348</ele>
        <time>2021-10-01T04:47:41Z</time>
      </trkpt>
      <trkpt lat="44.71149" lon="3.85651">
        <ele>971.271</ele>
        <time>2021-10-01T04:48:21Z</time>
      </trkpt>
      <trkpt lat="44.71141" lon="3.8565">
        <ele>971.073</ele>
        <time>2021-10-01T04:49:01Z</time>
      </trkpt>
      <trkpt lat="44.71132" lon="3.8565">
        <ele>970.953</ele>
        <time>2021-10-01T04:49:41Z</time>
      </trkpt>
      <trkpt lat="44.71124" lon="3.85649">
        <ele>970.863</ele>
        <time>2021-10-01T04:50:21Z</time>
      </trkpt>
      <trkpt lat="44.71117" lon="3.85649">
        <ele>970.744</ele>
        <time>2021-10-01T04:51:01Z</time>
      </trkpt>
      <trkpt lat="44.71109" lon="3.85648">
        <ele>970.718</ele>
        <time>2021-10-01T04:51:41Z</time>
      </trkpt>
      <trkpt lat="44.71102" lon="3.85647">
        <ele>970.708</ele>
        <time>2021-10-01T04:52:21Z</time>
      </trkpt>
      <trkpt lat="44.71094" lon="3.85647">
        <ele>970.764</ele>
        <time>2021-10-01T04:53:01Z</time>
      </trkpt>
      <trkpt lat="44.71087" lon="3.85646">
        <ele>970.84</ele>
        <time>2021-10-01T04:53:41Z</time>
      </trkpt>
      <trkpt lat="44.7108" lon="3.85645">
        <ele>970.985</ele>
        <time>2021-10-01T04:54:21Z</time>
      </trkpt>
      <trkpt lat="44.71071" lon="3.85645">
        <ele>971.227</ele>
        <time>2021-10-01T04:55:01Z</time>
      </trkpt>
      <trkpt lat="44.71062" lon="3.85644">
        <ele>971.475</ele>
        <time>2021-10-01T04:55:41Z</time>
      </trkpt>
      <trkpt lat="44.71053" lon="3.85643">
        <ele>971.528</ele>
        <time>2021-10-01T04:56:21Z</time>
      </trkpt>
      <trkpt lat="44.71045" lon="3.85643">
        <ele>971.03</ele>
        <time>2021-10-01T04:57:01Z</time>
      </trkpt>
      <trkpt lat="44.71036" lon="3.85642">
        <ele>970.53</ele>
        <time>2021-10-01T04:57:41Z</time>
      </trkpt>
      <trkpt lat="44.71027" lon="3.85642">
        <ele>970.041</ele>
        <time>2021-10-01T04:58:21Z</time>
      </trkpt>
      <trkpt lat="44.7102" lon="3.85642">
        <ele>970.081</ele>
        <time>2021-10-01T04:59:01Z</time>
      </trkpt>
      <trkpt lat="44.71012" lon="3.85642">
        <ele>969.909</ele>
        <time>2021-10-01T04:59:41Z</time>
      </trkpt>
      <trkpt lat="44.71005" lon="3.85642">
        <ele>969.908</ele>
        <time>2021-10-01T05:00:21Z</time>
      </trkpt>
      <trkpt lat="44.70997" lon="3.85643">
        <ele>969.742</ele>
        <time>2021-10-01T05:01:01Z</time>
      </trkpt>
      <trkpt lat="44.7099" lon="3.85645">
        <ele>969.298</ele>
        <time>2021-10-01T05:01:41Z</time>
      </trkpt>
      <trkpt lat="44.70982" lon="3.85646">
        <ele>968.833</ele>
        <time>2021-10-01T05:02:21Z</time>
      </trkpt>
      <trkpt lat="44.70974" lon="3.85648">
        <ele>968.445</ele>
        <time>2021-10-01T05:03:01Z</time>
      </trkpt>
      <trkpt lat="44.70967" lon="3.8565">
        <ele>968.573</ele>
        <time>2021-10-01T05:03:41Z</time>
      </trkpt>
      <trkpt lat="44.70959" lon="3.85652">
        <ele>968.786</ele>
        <time>2021-10-01T05:04:21Z</time>
      </trkpt>
      <trkpt lat="44.70952" lon="3.85654">
        <ele>968.958</ele>
        <time>2021-10-01T05:05:01Z</time>
      </trkpt>
      <trkpt lat="44.70944" lon="3.85655">
        <ele>969.028</ele>
        <time>2021-10-01T05:05:41Z</time>
      </trkpt>
      <trkpt lat="44.70937" lon="3.85657">
        <ele>969.651</ele>
        <time>2021-10-01T05:06:21Z</time>
      </trkpt>
      <trkpt lat="44.70929" lon="3.85658">
        <ele>970.101</ele>
        <time>2021-10-01T05:07:01Z</time>
      </trkpt>
      <trkpt lat="44.70922" lon="3.8566">
        <ele>970.611</ele>
        <time>2021-10-01T05:07:41Z</time>
      </trkpt>
      <trkpt lat="44.70914" lon="3.85662">
        <ele>971.208</ele>
        <time>2021-10-01T05:08:21Z</time>
      </trkpt>
      <trkpt lat="44.70907" lon="3.85663">
        <ele>971.843</ele>
        <time>2021-10-01T05:09:01Z</time>
      </trkpt>
      <trkpt lat="44.70899" lon="3.85664">
        <ele>972.369</ele>
        <time>2021-10-01T05:09:41Z</time>
      </trkpt>
      <trkpt lat="44.70892" lon="3.85666">
        <ele>972.894</ele>
        <time>2021-10-01T05:10:21Z</time>
      </trkpt>
      <trkpt lat="44.70884" lon="3.85667">
        <ele>973.386</ele>
        <time>2021-10-01T05:11:01Z</time>
      </trkpt>
      <trkpt lat="44.70877" lon="3.85668">
        <ele>973.964</ele>
        <time>2021-10-01T05:11:41Z</time>
      </trkpt>
      <trkpt lat="44.70869" lon="3.8567">
        <ele>974.447</ele>
        <time>2021-10-01T05:12:21Z</time>
      </trkpt>
      <trkpt lat="44.70862" lon="3.85671">
        <ele>975.049</ele>
        <time>2021-10-01T05:13:01Z</time>
      </trkpt>
      <trkpt lat="44.70854" lon="3.85673">
        <ele>975.379</ele>
        <time>2021-10-01T05:13:41Z</time>
      </trkpt>
      <trkpt lat="44.70845" lon="3.85675">
        <ele>975.682</ele>
        <time>2021-10-01T05:14:21Z</time>
      </trkpt>
      <trkpt lat="44.70837" lon="3.85677">
        <ele>975.943</ele>
        <time>2021-10-01T05:15:01Z</time>
      </trkpt>
      <trkpt lat="44.70829" lon="3.85679">
        <ele>976.217</ele>
        <time>2021-10-01T05:15:41Z</time>
      </trkpt>
      <trkpt lat="44.70821" lon="3.85681">
        <ele>976.708</ele>
        <time>2021-10-01T05:16:21Z</time>
      </trkpt>
      <trkpt lat="44.70813" lon="3.85683">
        <ele>977.286</ele>
        <time>2021-10-01T05:17:01Z</time>
      </trkpt>
      <trkpt lat="44.70805" lon="3.85684">
        <ele>977.762</ele>
        <time>2021-10-01T05:17:41Z</time>
      </trkpt>
      <trkpt lat="44.70797" lon="3.85686">
        <ele>978.127</ele>
        <time>2021-10-01T05:18:21Z</time>
      </trkpt>
      <trkpt lat="44.70788" lon="3.85688">
        <ele>978.589</ele>
        <time>2021-10-01T05:19:01Z</time>
      </trkpt>
      <trkpt lat="44.70779" lon="3.85689">
        <ele>978.967</ele>
        <time>2021-10-01T05:19:41Z</time>
      </trkpt>
      <trkpt lat="44.70772" lon="3.8569">
        <ele>979.27</ele>
        <time>2021-10-01T05:20:21Z</time>
      </trkpt>
      <trkpt lat="44.70765" lon="3.85692">
        <ele>979.542</ele>
        <time>2021-10-01T05:21:01Z</time>
      </trkpt>
      <trkpt lat="44.70758" lon="3.85693">
        <ele>979.712</ele>
        <time>2021-10-01T05:21:41Z</time>
      </trkpt>
      <trkpt lat="44.70751" lon="3.85694">
        <ele>980.098</ele>
        <time>2021-10-01T05:22:21Z</time>
      </trkpt>
      <trkpt lat="44.70744" lon="3.85695">
        <ele>980.215</ele>
        <time>2021-10-01T05:23:01Z</time>
      </trkpt>
      <trkpt lat="44.70737" lon="3.85696">
        <ele>980.426</ele>
        <time>2021-10-01T05:23:41Z</time>
      </trkpt>
      <trkpt lat="44.7073" lon="3.85697">
        <ele>980.608</ele>
        <time>2021-10-01T05:24:21Z</time>
      </trkpt>
      <trkpt lat="44.70724" lon="3.85698">
        <ele>980.897</ele>
        <time>2021-10-01T05:25:01Z</time>
      </trkpt>
      <trkpt lat="44.70716" lon="3.85696">
        <ele>980.823</ele>
        <time>2021-10-01T05:25:41Z</time>
      </trkpt>
      <trkpt lat="44.70709" lon="3.85694">
        <ele>980.518</ele>
        <time>2021-10-01T05:26:21Z</time>
      </trkpt>
      <trkpt lat="44.70701" lon="3.85691">
        <ele>980.11</ele>
        <time>2021-10-01T05:27:01Z</time>
      </trkpt>
      <trkpt lat="44.70692" lon="3.85689">
        <ele>979.688</ele>
        <time>2021-10-01T05:27:41Z</time>
      </trkpt>
      <trkpt lat="44.70684" lon="3.85687">
        <ele>978.961</ele>
        <time>2021-10-01T05:28:21Z</time>
      </trkpt>
      <trkpt lat="44.70676" lon="3.85687">
        <ele>978.483</ele>
        <time>2021-10-01T05:29:01Z</time>
      </trkpt>
      <trkpt lat="44.70668" lon="3.85687">
        <ele>977.913</ele>
        <time>2021-10-01T05:29:41Z</time>
      </trkpt>
      <trkpt lat="44.70661" lon="3.85688">
        <ele>977.436</ele>
        <time>2021-10-01T05:30:21Z</time>
      </trkpt>
      <trkpt lat="44.70656" lon="3.85683">
        <ele>977.017</ele>
        <time>2021-10-01T05:31:01Z</time>
      </trkpt>
      <trkpt lat="44.70651" lon="3.85678">
        <ele>976.618</ele>
        <time>2021-10-01T05:31:41Z</time>
      </trkpt>
      <trkpt lat="44.70644" lon="3.85672">
        <ele>976.208</ele>
        <time>2021-10-01T05:32:21Z</time>
      </trkpt>
      <trkpt lat="44.70637" lon="3.85666">
        <ele>975.861</ele>
        <time>2021-10-01T05:33:01Z</time>
      </trkpt>
      <trkpt lat="44.70629" lon="3.8566">
        <ele>975.387</ele>
        <time>2021-10-01T05:33:41Z</time>
      </trkpt>
      <trkpt lat="44.70622" lon="3.85654">
        <ele>974.842</ele>
        <time>2021-10-01T05:34:21Z</time>
      </trkpt>
      <trkpt lat="44.70615" lon="3.85649">
        <ele>974.364</ele>
        <time>2021-10-01T05:35:01Z</time>
      </trkpt>
      <trkpt lat="44.70607" lon="3.85647">
        <ele>974.022</ele>
        <time>2021-10-01T05:35:41Z</time>
      </trkpt>
      <trkpt lat="44.70599" lon="3.85646">
        <ele>973.935</ele>
        <time>2021-10-01T05:36:21Z</time>
      </trkpt>
      <trkpt lat="44.70591" lon="3.85645">
        <ele>973.847</ele>
        <time>2021-10-01T05:37:01Z</time>
      </trkpt>
      <trkpt lat="44.70584" lon="3.85648">
        <ele>973.767</ele>
        <time>2021-10-01T05:37:41Z</time>
      </trkpt>
      <trkpt lat="44.70577" lon="3.8565">
        <ele>973.539</ele>
        <time>2021-10-01T05:38:21Z</time>
      </trkpt>
      <trkpt lat="44.7057" lon="3.85653">
        <ele>973.201</ele>
        <time>2021-10-01T05:39:01Z</time>
      </trkpt>
      <trkpt lat="44.70563" lon="3.85656">
        <ele>972.921</ele>
        <time>2021-10-01T05:39:41Z</time>
      </trkpt>
      <trkpt lat="44.70554" lon="3.85657">
        <ele>972.708</ele>
        <time>2021-10-01T05:40:21Z</time>
      </trkpt>
      <trkpt lat="44.70545" lon="3.85659">
        <ele>972.571</ele>
        <time>2021-10-01T05:41:01Z</time>
      </trkpt>
      <trkpt lat="44.70536" lon="3.8566">
        <ele>972.327</ele>
        <time>2021-10-01T05:41:41Z</time>
      </trkpt>
      <trkpt lat="44.70528" lon="3.85662">
        <ele>972.262</ele>
        <time>2021-10-01T05:42:21Z</time>
      </trkpt>
      <trkpt lat="44.70521" lon="3.85664">
        <ele>972.184</ele>
        <time>2021-10-01T05:43:01Z</time>
      </trkpt>
      <trkpt lat="44.70513" lon="3.85666">
        <ele>972.082</ele>
        <time>2021-10-01T05:43:41Z</time>
      </trkpt>
      <trkpt lat="44.70506" lon="3.85668">
        <ele>972.125</ele>
        <time>2021-10-01T05:44:21Z</time>
      </trkpt>
      <trkpt lat="44.70499" lon="3.8567">
        <ele>972.247</ele>
        <time>2021-10-01T05:45:01Z</time>
      </trkpt>
      <trkpt lat="44.70491" lon="3.85673">
        <ele>972.527</ele>
        <time>2021-10-01T05:45:41Z</time>
      </trkpt>
      <trkpt lat="44.70482" lon="3.85675">
        <ele>972.753</ele>
        <time>2021-10-01T05:46:21Z</time>
      </trkpt>
      <trkpt lat="44.70474" lon="3.85677">
        <ele>973.004</ele>
        <time>2021-10-01T05:47:01Z</time>
      </trkpt>
      <trkpt lat="44.70467" lon="3.85678">
        <ele>973.614</ele>
        <time>2021-10-01T05:47:41Z</time>
      </trkpt>
      <trkpt lat="44.7046" lon="3.85679">
        <ele>974.308</ele>
        <time>2021-10-01T05:48:21Z</time>
      </trkpt>
      <trkpt lat="44.70453" lon="3.85679">
        <ele>975.123</ele>
        <time>2021-10-01T05:49:01Z</time>
      </trkpt>
      <trkpt lat="44.70447" lon="3.85679">
        <ele>975.799</ele>
        <time>2021-10-01T05:49:41Z</time>
      </trkpt>
      <trkpt lat="44.70441" lon="3.85678">
        <ele>976.594</ele>
        <time>2021-10-01T05:50:21Z</time>
      </trkpt>
      <trkpt lat="44.70435" lon="3.85678">
        <ele>977.486</ele>
        <time>2021-10-01T05:51:01Z</time>
      </trkpt>
      <trkpt lat="44.70427" lon="3.85677">
        <ele>978.634</ele>
        <time>2021-10-01T05:51:41Z</time>
      </trkpt>
      <trkpt lat="44.70418" lon="3.85677">
        <ele>979.887</ele>
        <time>2021-10-01T05:52:21Z</time>
      </trkpt>
      <trkpt lat="44.7041" lon="3.85677">
        <ele>980.719</ele>
        <time>2021-10-01T05:53:01Z</time>
      </trkpt>
      <trkpt lat="44.70401" lon="3.85677">
        <ele>981.639</ele>
        <time>2021-10-01T05:53:41Z</time>
      </trkpt>
      <trkpt lat="44.70393" lon="3.85677">
        <ele>982.667</ele>
        <time>2021-10-01T05:54:21Z</time>
      </trkpt>
      <trkpt lat="44.70385" lon="3.85678">
        <ele>983.281</ele>
        <time>2021-10-01T05:55:01Z</time>
      </trkpt>
      <trkpt lat="44.70377" lon="3.85679">
        <ele>983.719</ele>
        <time>2021-10-01T05:55:41Z</time>
      </trkpt>
      <trkpt lat="44.70369" lon="3.8568">
        <ele>984.108</ele>
        <time>2021-10-01T05:56:21Z</time>
      </trkpt>
      <trkpt lat="44.70363" lon="3.85681">
        <ele>984.484</ele>
        <time>2021-10-01T05:57:01Z</time>
      </trkpt>
      <trkpt lat="44.70356" lon="3.85683">
        <ele>984.62</ele>
        <time>2021-10-01T05:57:41Z</time>
      </trkpt>
      <trkpt lat="44.70349" lon="3.85685">
        <ele>984.995</ele>
        <time>2021-10-01T05:58:21Z</time>
      </trkpt>
      <trkpt lat="44.70342" lon="3.85687">
        <ele>985.397</ele>
        <time>2021-10-01T05:59:01Z</time>
      </trkpt>
      <trkpt lat="44.70335" lon="3.85689">
        <ele>985.765</ele>
        <time>2021-10-01T05:59:41Z</time>
      </trkpt>
      <trkpt lat="44.70329" lon="3.85692">
        <ele>986.158</ele>
        <time>2021-10-01T06:00:21Z</time>
      </trkpt>
      <trkpt lat="44.70322" lon="3.85694">
        <ele>986.47</ele>
        <time>2021-10-01T06:01:01Z</time>
      </trkpt>
      <trkpt lat="44.70315" lon="3.85696">
        <ele>986.74</ele>
        <time>2021-10-01T06:01:41Z</time>
      </trkpt>
      <trkpt lat="44.70309" lon="3.85698">
        <ele>987.024</ele>
        <time>2021-10-01T06:02:21Z</time>
      </trkpt>
      <trkpt lat="44.70303" lon="3.85699">
        <ele>987.204</ele>
        <time>2021-10-01T06:03:01Z</time>
      </trkpt>
      <trkpt lat="44.70296" lon="3.85702">
        <ele>987.314</ele>
        <time>2021-10-01T06:03:41Z</time>
      </trkpt>
      <trkpt lat="44.70289" lon="3.85705">
        <ele>987.408</ele>
        <time>2021-10-01T06:04:21Z</time>
      </trkpt>
      <trkpt lat="44.70282" lon="3.85708">
        <ele>987.58</ele>
        <time>2021-10-01T06:05:01Z</time>
      </trkpt>
      <trkpt lat="44.70275" lon="3.85711">
        <ele>987.896</ele>
        <time>2021-10-01T06:05:41Z</time>
      </trkpt>
      <trkpt lat="44.70268" lon="3.85714">
        <ele>988.361</ele>
        <time>2021-10-01T06:06:21Z</time>
      </trkpt>
      <trkpt lat="44.7026" lon="3.85717">
        <ele>988.963</ele>
        <time>2021-10-01T06:07:01Z</time>
      </trkpt>
      <trkpt lat="44.70252" lon="3.8572">
        <ele>989.771</ele>
        <time>2021-10-01T06:07:41Z</time>
      </trkpt>
      <trkpt lat="44.70244" lon="3.85723">
        <ele>990.524</ele>
        <time>2021-10-01T06:08:21Z</time>
      </trkpt>
      <trkpt lat="44.70235" lon="3.85726">
        <ele>991.476</ele>
        <time>2021-10-01T06:09:01Z</time>
      </trkpt>
      <trkpt lat="44.70227" lon="3.85729">
        <ele>992.246</ele>
        <time>2021-10-01T06:09:41Z</time>
      </trkpt>
      <trkpt lat="44.70219" lon="3.85732">
        <ele>992.839</ele>
        <time>2021-10-01T06:10:21Z</time>
      </trkpt>
      <trkpt lat="44.7021" lon="3.85735">
        <ele>993.301</ele>
        <time>2021-10-01T06:11:01Z</time>
      </trkpt>
      <trkpt lat="44.70202" lon="3.85738">
        <ele>993.821</ele>
        <time>2021-10-01T06:11:41Z</time>
      </trkpt>
      <trkpt lat="44.70195" lon="3.8574">
        <ele>994.308</ele>
        <time>2021-10-01T06:12:21Z</time>
      </trkpt>
      <trkpt lat="44.70187" lon="3.85743">
        <ele>994.611</ele>
        <time>2021-10-01T06:13:01Z</time>
      </trkpt>
      <trkpt lat="44.70179" lon="3.85746">
        <ele>994.847</ele>
        <time>2021-10-01T06:13:41Z</time>
      </trkpt>
      <trkpt lat="44.70172" lon="3.85749">
        <ele>994.922</ele>
        <time>2021-10-01T06:14:21Z</time>
      </trkpt>
      <trkpt lat="44.70165" lon="3.85751">
        <ele>995.334</ele>
        <time>2021-10-01T06:15:01Z</time>
      </trkpt>
      <trkpt lat="44.70158" lon="3.85754">
        <ele>996.192</ele>
        <time>2021-10-01T06:15:41Z</time>
      </trkpt>
      <trkpt lat="44.70151" lon="3.85757">
        <ele>996.895</ele>
        <time>2021-10-01T06:16:21Z</time>
      </trkpt>
      <trkpt lat="44.70144" lon="3.85759">
        <ele>997.547</ele>
        <time>2021-10-01T06:17:01Z</time>
      </trkpt>
      <trkpt lat="44.70136" lon="3.85762">
        <ele>998.237</ele>
        <time>2021-10-01T06:17:41Z</time>
      </trkpt>
      <trkpt lat="44.70129" lon="3.85765">
        <ele>998.755</ele>
        <time>2021-10-01T06:18:21Z</time>
      </trkpt>
      <trkpt lat="44.70121" lon="3.85767">
        <ele>999.307</ele>
        <time>2021-10-01T06:19:01Z</time>
      </trkpt>
      <trkpt lat="44.70113" lon="3.8577">
        <ele>999.917</ele>
        <time>2021-10-01T06:19:41Z</time>
      </trkpt>
      <trkpt lat="44.70105" lon="3.85772">
        <ele>1000.208</ele>
        <time>2021-10-01T06:20:21Z</time>
      </trkpt>
      <trkpt lat="44.70097" lon="3.85774">
        <ele>1000.493</ele>
        <time>2021-10-01T06:21:01Z</time>
      </trkpt>
      <trkpt lat="44.70089" lon="3.85776">
        <ele>1000.829</ele>
        <time>2021-10-01T06:21:41Z</time>
      </trkpt>
      <trkpt lat="44.7008" lon="3.85778">
        <ele>1001.064</ele>
        <time>2021-10-01T06:22:21Z</time>
      </trkpt>
      <trkpt lat="44.70072" lon="3.8578">
        <ele>1001.056</ele>
        <time>2021-10-01T06:23:01Z</time>
      </trkpt>
      <trkpt lat="44.70064" lon="3.85782">
        <ele>1001.154</ele>
        <time>2021-10-01T06:23:41Z</time>
      </trkpt>
      <trkpt lat="44.70056" lon="3.85784">
        <ele>1001.247</ele>
        <time>2021-10-01T06:24:21Z</time>
      </trkpt>
      <trkpt lat="44.70047" lon="3.85785">
        <ele>1001.739</ele>
        <time>2021-10-01T06:25:01Z</time>
      </trkpt>
      <trkpt lat="44.70038" lon="3.85787">
        <ele>1002.129</ele>
        <time>2021-10-01T06:25:41Z</time>
      </trkpt>
      <trkpt lat="44.7003" lon="3.85788">
        <ele>1002.772</ele>
        <time>2021-10-01T06:26:21Z</time>
      </trkpt>
      <trkpt lat="44.70022" lon="3.8579">
        <ele>1003.113</ele>
        <time>2021-10-01T06:27:01Z</time>
      </trkpt>
      <trkpt lat="44.70015" lon="3.85792">
        <ele>1003.514</ele>
        <time>2021-10-01T06:27:41Z</time>
      </trkpt>
      <trkpt lat="44.70007" lon="3.85794">
        <ele>1003.908</ele>
        <time>2021-10-01T06:28:21Z</time>
      </trkpt>
      <trkpt lat="44.7" lon="3.85797">
        <ele>1004.385</ele>
        <time>2021-10-01T06:29:01Z</time>
      </trkpt>
      <trkpt lat="44.69992" lon="3.85799">
        <ele>1004.341</ele>
        <time>2021-10-01T06:29:41Z</time>
      </trkpt>
      <trkpt lat="44.69985" lon="3.85801">
        <ele>1004.276</ele>
        <time>2021-10-01T06:30:21Z</time>
      </trkpt>
      <trkpt lat="44.69977" lon="3.85803">
        <ele>1004.178</ele>
        <time>2021-10-01T06:31:01Z</time>
      </trkpt>
      <trkpt lat="44.69969" lon="3.85805">
        <ele>1004.026</ele>
        <time>2021-10-01T06:31:41Z</time>
      </trkpt>
      <trkpt lat="44.69961" lon="3.85806">
        <ele>1004.039</ele>
        <time>2021-10-01T06:32:21Z</time>
      </trkpt>
      <trkpt lat="44.69952" lon="3.85808">
        <ele>1004.121</ele>
        <time>2021-10-01T06:33:01Z</time>
      </trkpt>
      <trkpt lat="44.69944" lon="3.8581">
        <ele>1004.251</ele>
        <time>2021-10-01T06:33:41Z</time>
      </trkpt>
      <trkpt lat="44.69936" lon="3.85813">
        <ele>1004.842</ele>
        <time>2021-10-01T06:34:21Z</time>
      </trkpt>
      <trkpt lat="44.69929" lon="3.85816">
        <ele>1005.322</ele>
        <time>2021-10-01T06:35:01Z</time>
      </trkpt>
      <trkpt lat="44.69921" lon="3.85818">
        <ele>1005.714</ele>
        <time>2021-10-01T06:35:41Z</time>
      </trkpt>
      <trkpt lat="44.69911" lon="3.85807">
        <ele>1006.208</ele>
        <time>2021-10-01T06:36:21Z</time>
      </trkpt>
      <trkpt lat="44.69901" lon="3.85796">
        <ele>1006.732</ele>
        <time>2021-10-01T06:37:01Z</time>
      </trkpt>
      <trkpt lat="44.69889" lon="3.85782">
        <ele>1007.868</ele>
        <time>2021-10-01T06:37:41Z</time>
      </trkpt>
      <trkpt lat="44.69878" lon="3.85767">
        <ele>1008.843</ele>
        <time>2021-10-01T06:38:21Z</time>
      </trkpt>
      <trkpt lat="44.69867" lon="3.85748">
        <ele>1009.645</ele>
        <time>2021-10-01T06:39:01Z</time>
      </trkpt>
      <trkpt lat="44.69856" lon="3.85729">
        <ele>1010.163</ele>
        <time>2021-10-01T06:39:41Z</time>
      </trkpt>
      <trkpt lat="44.69846" lon="3.85714">
        <ele>1010.426</ele>
        <time>2021-10-01T06:40:21Z</time>
      </trkpt>
      <trkpt lat="44.69836" lon="3.85699">
        <ele>1010.978</ele>
        <time>2021-10-01T06:41:01Z</time>
      </trkpt>
      <trkpt lat="44.69825" lon="3.85684">
        <ele>1011.468</ele>
        <time>2021-10-01T06:41:41Z</time>
      </trkpt>
      <trkpt lat="44.69815" lon="3.85669">
        <ele>1012.387</ele>
        <time>2021-10-01T06:42:21Z</time>
      </trkpt>
      <trkpt lat="44.69804" lon="3.85655">
        <ele>1013.642</ele>
        <time>2021-10-01T06:43:01Z</time>
      </trkpt>
      <trkpt lat="44.69794" lon="3.85642">
        <ele>1015.126</ele>
        <time>2021-10-01T06:43:41Z</time>
      </trkpt>
      <trkpt lat="44.69784" lon="3.85629">
        <ele>1017.008</ele>
        <time>2021-10-01T06:44:21Z</time>
      </trkpt>
      <trkpt lat="44.69773" lon="3.85614">
        <ele>1019.196</ele>
        <time>2021-10-01T06:45:01Z</time>
      </trkpt>
      <trkpt lat="44.69763" lon="3.85599">
        <ele>1020.582</ele>
        <time>2021-10-01T06:45:41Z</time>
      </trkpt>
      <trkpt lat="44.69756" lon="3.85587">
        <ele>1021.437</ele>
        <time>2021-10-01T06:46:21Z</time>
      </trkpt>
      <trkpt lat="44.69749" lon="3.85575">
        <ele>1022.629</ele>
        <time>2021-10-01T06:47:01Z</time>
      </trkpt>
      <trkpt lat="44.69741" lon="3.8555">
        <ele>1024.027</ele>
        <time>2021-10-01T06:47:41Z</time>
      </trkpt>
      <trkpt lat="44.69735" lon="3.85531">
        <ele>1024.86</ele>
        <time>2021-10-01T06:48:21Z</time>
      </trkpt>
      <trkpt lat="44.69729" lon="3.85512">
        <ele>1026.042</ele>
        <time>2021-10-01T06:49:01Z</time>
      </trkpt>
      <trkpt lat="44.69725" lon="3.85498">
        <ele>1027.012</ele>
        <time>2021-10-01T06:49:41Z</time>
      </trkpt>
      <trkpt lat="44.6972" lon="3.85484">
        <ele>1027.529</ele>
        <time>2021-10-01T06:50:21Z</time>
      </trkpt>
      <trkpt lat="44.69713" lon="3.85467">
        <ele>1028.1</ele>
        <time>2021-10-01T06:51:01Z</time>
      </trkpt>
      <trkpt lat="44.69705" lon="3.8545">
        <ele>1028.52</ele>
        <time>2021-10-01T06:51:41Z</time>
      </trkpt>
      <trkpt lat="44.69697" lon="3.85435">
        <ele>1029.308</ele>
        <time>2021-10-01T06:52:21Z</time>
      </trkpt>
      <trkpt lat="44.69689" lon="3.8542">
        <ele>1029.91</ele>
        <time>2021-10-01T06:53:01Z</time>
      </trkpt>
      <trkpt lat="44.6968" lon="3.85404">
        <ele>1030.266</ele>
        <time>2021-10-01T06:53:41Z</time>
      </trkpt>
      <trkpt lat="44.6967" lon="3.85389">
        <ele>1030.971</ele>
        <time>2021-10-01T06:54:21Z</time>
      </trkpt>
      <trkpt lat="44.69661" lon="3.85373">
        <ele>1031.163</ele>
        <time>2021-10-01T06:55:01Z</time>
      </trkpt>
      <trkpt lat="44.6965" lon="3.85359">
        <ele>1031.871</ele>
        <time>2021-10-01T06:55:41Z</time>
      </trkpt>
      <trkpt lat="44.69639" lon="3.85345">
        <ele>1033.234</ele>
        <time>2021-10-01T06:56:21Z</time>
      </trkpt>
      <trkpt lat="44.69628" lon="3.85331">
        <ele>1035.016</ele>
        <time>2021-10-01T06:57:01Z</time>
      </trkpt>
      <trkpt lat="44.69637" lon="3.85315">
        <ele>1036.096</ele>
        <time>2021-10-01T06:57:41Z</time>
      </trkpt>
      <trkpt lat="44.69646" lon="3.85298">
        <ele>1036.868</ele>
        <time>2021-10-01T06:58:21Z</time>
      </trkpt>
      <trkpt lat="44.69655" lon="3.85282">
        <ele>1037.242</ele>
        <time>2021-10-01T06:59:01Z</time>
      </trkpt>
      <trkpt lat="44.69661" lon="3.85267">
        <ele>1037.226</ele>
        <time>2021-10-01T06:59:41Z</time>
      </trkpt>
      <trkpt lat="44.69668" lon="3.85252">
        <ele>1036.908</ele>
        <time>2021-10-01T07:00:21Z</time>
      </trkpt>
      <trkpt lat="44.69674" lon="3.85239">
        <ele>1035.754</ele>
        <time>2021-10-01T07:01:01Z</time>
      </trkpt>
      <trkpt lat="44.6968" lon="3.85225">
        <ele>1034.35</ele>
        <time>2021-10-01T07:01:41Z</time>
      </trkpt>
      <trkpt lat="44.69689" lon="3.85214">
        <ele>1032.855</ele>
        <time>2021-10-01T07:02:21Z</time>
      </trkpt>
      <trkpt lat="44.69698" lon="3.85203">
        <ele>1031.677</ele>
        <time>2021-10-01T07:03:01Z</time>
      </trkpt>
      <trkpt lat="44.69709" lon="3.85193">
        <ele>1030.985</ele>
        <time>2021-10-01T07:03:41Z</time>
      </trkpt>
      <trkpt lat="44.69721" lon="3.85182">
        <ele>1030.618</ele>
        <time>2021-10-01T07:04:21Z</time>
      </trkpt>
      <trkpt lat="44.6973" lon="3.85174">
        <ele>1029.92</ele>
        <time>2021-10-01T07:05:01Z</time>
      </trkpt>
      <trkpt lat="44.69739" lon="3.85165">
        <ele>1029.61</ele>
        <time>2021-10-01T07:05:41Z</time>
      </trkpt>
      <trkpt lat="44.69751" lon="3.85157">
        <ele>1029.991</ele>
        <time>2021-10-01T07:06:21Z</time>
      </trkpt>
      <trkpt lat="44.69763" lon="3.8515">
        <ele>1029.481</ele>
        <time>2021-10-01T07:07:01Z</time>
      </trkpt>
      <trkpt lat="44.69775" lon="3.85143">
        <ele>1028.919</ele>
        <time>2021-10-01T07:07:41Z</time>
      </trkpt>
      <trkpt lat="44.69786" lon="3.85137">
        <ele>1028.308</ele>
        <time>2021-10-01T07:08:21Z</time>
      </trkpt>
      <trkpt lat="44.69799" lon="3.85118">
        <ele>1028.227</ele>
        <time>2021-10-01T07:09:01Z</time>
      </trkpt>
      <trkpt lat="44.69805" lon="3.85094">
        <ele>1028.013</ele>
        <time>2021-10-01T07:09:41Z</time>
      </trkpt>
      <trkpt lat="44.69807" lon="3.8507">
        <ele>1028.048</ele>
        <time>2021-10-01T07:10:21Z</time>
      </trkpt>
      <trkpt lat="44.69812" lon="3.85044">
        <ele>1027.99</ele>
        <time>2021-10-01T07:11:01Z</time>
      </trkpt>
      <trkpt lat="44.69814" lon="3.85024">
        <ele>1027.638</ele>
        <time>2021-10-01T07:11:41Z</time>
      </trkpt>
      <trkpt lat="44.69819" lon="3.85011">
        <ele>1026.961</ele>
        <time>2021-10-01T07:12:21Z</time>
      </trkpt>
      <trkpt lat="44.69824" lon="3.84997">
        <ele>1026.253</ele>
        <time>2021-10-01T07:13:01Z</time>
      </trkpt>
      <trkpt lat="44.69831" lon="3.84974">
        <ele>1025.283</ele>
        <time>2021-10-01T07:13:41Z</time>
      </trkpt>
      <trkpt lat="44.69838" lon="3.8495">
        <ele>1024.935</ele>
        <time>2021-10-01T07:14:21Z</time>
      </trkpt>
      <trkpt lat="44.69843" lon="3.8493">
        <ele>1024.586</ele>
        <time>2021-10-01T07:15:01Z</time>
      </trkpt>
      <trkpt lat="44.69848" lon="3.84909">
        <ele>1024.014</ele>
        <time>2021-10-01T07:15:41Z</time>
      </trkpt>
      <trkpt lat="44.69853" lon="3.84889">
        <ele>1023.608</ele>
        <time>2021-10-01T07:16:21Z</time>
      </trkpt>
      <trkpt lat="44.69856" lon="3.84867">
        <ele>1023.521</ele>
        <time>2021-10-01T07:17:01Z</time>
      </trkpt>
      <trkpt lat="44.6986" lon="3.84846">
        <ele>1023.227</ele>
        <time>2021-10-01T07:17:41Z</time>
      </trkpt>
      <trkpt lat="44.69863" lon="3.84824">
        <ele>1022.972</ele>
        <time>2021-10-01T07:18:21Z</time>
      </trkpt>
      <trkpt lat="44.69867" lon="3.84803">
        <ele>1022.864</ele>
        <time>2021-10-01T07:19:01Z</time>
      </trkpt>
      <trkpt lat="44.69871" lon="3.84783">
        <ele>1022.632</ele>
        <time>2021-10-01T07:19:41Z</time>
      </trkpt>
      <trkpt lat="44.69876" lon="3.84764">
        <ele>1022.095</ele>
        <time>2021-10-01T07:20:21Z</time>
      </trkpt>
      <trkpt lat="44.69876" lon="3.84762">
        <ele>1021.927</ele>
        <time>2021-10-01T07:21:01Z</time>
      </trkpt>
      <trkpt lat="44.69878" lon="3.8472">
        <ele>1020.277</ele>
        <time>2021-10-01T07:21:41Z</time>
      </trkpt>
      <trkpt lat="44.69875" lon="3.84653">
        <ele>1017.366</ele>
        <time>2021-10-01T07:22:21Z</time>
      </trkpt>
      <trkpt lat="44.69866" lon="3.84611">
        <ele>1016.529</ele>
        <time>2021-10-01T07:23:01Z</time>
      </trkpt>
      <trkpt lat="44.69864" lon="3.84594">
        <ele>1014.921</ele>
        <time>2021-10-01T07:23:41Z</time>
      </trkpt>
      <trkpt lat="44.69861" lon="3.84576">
        <ele>1013.708</ele>
        <time>2021-10-01T07:24:21Z</time>
      </trkpt>
      <trkpt lat="44.69868" lon="3.84557">
        <ele>1012.194</ele>
        <time>2021-10-01T07:25:01Z</time>
      </trkpt>
      <trkpt lat="44.69875" lon="3.84539">
        <ele>1010.96</ele>
        <time>2021-10-01T07:25:41Z</time>
      </trkpt>
      <trkpt lat="44.69885" lon="3.84517">
        <ele>1009.385</ele>
        <time>2021-10-01T07:26:21Z</time>
      </trkpt>
      <trkpt lat="44.69894" lon="3.84486">
        <ele>1008.447</ele>
        <time>2021-10-01T07:27:01Z</time>
      </trkpt>
      <trkpt lat="44.69903" lon="3.84432">
        <ele>1012.575</ele>
        <time>2021-10-01T07:27:41Z</time>
      </trkpt>
      <trkpt lat="44.69919" lon="3.84393">
        <ele>1014.158</ele>
        <time>2021-10-01T07:28:21Z</time>
      </trkpt>
      <trkpt lat="44.69929" lon="3.84369">
        <ele>1014.34</ele>
        <time>2021-10-01T07:29:01Z</time>
      </trkpt>
      <trkpt lat="44.69935" lon="3.84348">
        <ele>1014.86</ele>
        <time>2021-10-01T07:29:41Z</time>
      </trkpt>
      <trkpt lat="44.69942" lon="3.84325">
        <ele>1015.613</ele>
        <time>2021-10-01T07:30:21Z</time>
      </trkpt>
      <trkpt lat="44.69945" lon="3.84299">
        <ele>1016.443</ele>
        <time>2021-10-01T07:31:01Z</time>
      </trkpt>
      <trkpt lat="44.69939" lon="3.84272">
        <ele>1018.207</ele>
        <time>2021-10-01T07:31:41Z</time>
      </trkpt>
      <trkpt lat="44.69935" lon="3.84233">
        <ele>1018.508</ele>
        <time>2021-10-01T07:32:21Z</time>
      </trkpt>
      <trkpt lat="44.69936" lon="3.84206">
        <ele>1017.679</ele>
        <time>2021-10-01T07:33:01Z</time>
      </trkpt>
      <trkpt lat="44.69941" lon="3.84188">
        <ele>1016.255</ele>
        <time>2021-10-01T07:33:41Z</time>
      </trkpt>
      <trkpt lat="44.69946" lon="3.84173">
        <ele>1015.11</ele>
        <time>2021-10-01T07:34:21Z</time>
      </trkpt>
      <trkpt lat="44.69952" lon="3.84166">
        <ele>1014.532</ele>
        <time>2021-10-01T07:35:01Z</time>
      </trkpt>
      <trkpt lat="44.69964" lon="3.84151">
        <ele>1014.01</ele>
        <time>2021-10-01T07:35:41Z</time>
      </trkpt>
      <trkpt lat="44.69958" lon="3.84131">
        <ele>1014.633</ele>
        <time>2021-10-01T07:36:21Z</time>
      </trkpt>
      <trkpt lat="44.69937" lon="3.84094">
        <ele>1014.765</ele>
        <time>2021-10-01T07:37:01Z</time>
      </trkpt>
      <trkpt lat="44.69924" lon="3.84073">
        <ele>1013.235</ele>
        <time>2021-10-01T07:37:41Z</time>
      </trkpt>
      <trkpt lat="44.69907" lon="3.84065">
        <ele>1011.211</ele>
        <time>2021-10-01T07:38:21Z</time>
      </trkpt>
      <trkpt lat="44.69887" lon="3.84063">
        <ele>1008.621</ele>
        <time>2021-10-01T07:39:01Z</time>
      </trkpt>
      <trkpt lat="44.69865" lon="3.84061">
        <ele>1006.103</ele>
        <time>2021-10-01T07:39:41Z</time>
      </trkpt>
      <trkpt lat="44.69853" lon="3.84054">
        <ele>1005.408</ele>
        <time>2021-10-01T07:40:21Z</time>
      </trkpt>
      <trkpt lat="44.69852" lon="3.84054">
        <ele>1005.419</ele>
        <time>2021-10-01T07:41:01Z</time>
      </trkpt>
      <trkpt lat="44.69834" lon="3.84032">
        <ele>1003.765</ele>
        <time>2021-10-01T07:41:41Z</time>
      </trkpt>
      <trkpt lat="44.69811" lon="3.83999">
        <ele>1003.96</ele>
        <time>2021-10-01T07:42:21Z</time>
      </trkpt>
      <trkpt lat="44.69787" lon="3.83963">
        <ele>999.632</ele>
        <time>2021-10-01T07:43:01Z</time>
      </trkpt>
      <trkpt lat="44.69757" lon="3.8392">
        <ele>993.23</ele>
        <time>2021-10-01T07:43:41Z</time>
      </trkpt>
      <trkpt lat="44.69734" lon="3.83879">
        <ele>987.653</ele>
        <time>2021-10-01T07:44:21Z</time>
      </trkpt>
      <trkpt lat="44.69726" lon="3.83832">
        <ele>981.785</ele>
        <time>2021-10-01T07:45:01Z</time>
      </trkpt>
      <trkpt lat="44.69715" lon="3.83798">
        <ele>975.225</ele>
        <time>2021-10-01T07:45:41Z</time>
      </trkpt>
      <trkpt lat="44.69715" lon="3.83786">
        <ele>972.453</ele>
        <time>2021-10-01T07:46:21Z</time>
      </trkpt>
      <trkpt lat="44.69708" lon="3.83778">
        <ele>971.004</ele>
        <time>2021-10-01T07:47:01Z</time>
      </trkpt>
      <trkpt lat="44.69678" lon="3.83761">
        <ele>968.214</ele>
        <time>2021-10-01T07:47:41Z</time>
      </trkpt>
      <trkpt lat="44.69665" lon="3.83755">
        <ele>966.808</ele>
        <time>2021-10-01T07:48:21Z</time>
      </trkpt>
      <trkpt lat="44.69654" lon="3.83741">
        <ele>966.013</ele>
        <time>2021-10-01T07:49:01Z</time>
      </trkpt>
      <trkpt lat="44.69647" lon="3.83723">
        <ele>966.459</ele>
        <time>2021-10-01T07:49:41Z</time>
      </trkpt>
      <trkpt lat="44.69654" lon="3.83704">
        <ele>966.864</ele>
        <time>2021-10-01T07:50:21Z</time>
      </trkpt>
      <trkpt lat="44.69667" lon="3.83686">
        <ele>964.656</ele>
        <time>2021-10-01T07:51:01Z</time>
      </trkpt>
      <trkpt lat="44.69678" lon="3.8367">
        <ele>961.534</ele>
        <time>2021-10-01T07:51:41Z</time>
      </trkpt>
      <trkpt lat="44.69684" lon="3.83662">
        <ele>959.127</ele>
        <time>2021-10-01T07:52:21Z</time>
      </trkpt>
      <trkpt lat="44.69685" lon="3.83651">
        <ele>957.929</ele>
        <time>2021-10-01T07:53:01Z</time>
      </trkpt>
      <trkpt lat="44.69659" lon="3.83634">
        <ele>961.419</ele>
        <time>2021-10-01T07:53:41Z</time>
      </trkpt>
      <trkpt lat="44.6964" lon="3.83612">
        <ele>961.948</ele>
        <time>2021-10-01T07:54:21Z</time>
      </trkpt>
      <trkpt lat="44.69632" lon="3.83602">
        <ele>961.961</ele>
        <time>2021-10-01T07:55:01Z</time>
      </trkpt>
      <trkpt lat="44.69626" lon="3.83591">
        <ele>961.417</ele>
        <time>2021-10-01T07:55:41Z</time>
      </trkpt>
      <trkpt lat="44.69613" lon="3.83556">
        <ele>959.808</ele>
        <time>2021-10-01T07:56:21Z</time>
      </trkpt>
      <trkpt lat="44.69602" lon="3.83521">
        <ele>959.182</ele>
        <time>2021-10-01T07:57:01Z</time>
      </trkpt>
      <trkpt lat="44.69596" lon="3.83499">
        <ele>959.828</ele>
        <time>2021-10-01T07:57:41Z</time>
      </trkpt>
      <trkpt lat="44.69588" lon="3.83474">
        <ele>960.973</ele>
        <time>2021-10-01T07:58:21Z</time>
      </trkpt>
      <trkpt lat="44.69584" lon="3.83444">
        <ele>960.915</ele>
        <time>2021-10-01T07:59:01Z</time>
      </trkpt>
      <trkpt lat="44.69594" lon="3.83441">
        <ele>959.073</ele>
        <time>2021-10-01T07:59:41Z</time>
      </trkpt>
      <trkpt lat="44.69613" lon="3.83437">
        <ele>955.726</ele>
        <time>2021-10-01T08:00:21Z</time>
      </trkpt>
      <trkpt lat="44.69659" lon="3.83427">
        <ele>959.268</ele>
        <time>2021-10-01T08:01:01Z</time>
      </trkpt>
      <trkpt lat="44.69688" lon="3.8343">
        <ele>963.928</ele>
        <time>2021-10-01T08:01:41Z</time>
      </trkpt>
      <trkpt lat="44.69722" lon="3.83434">
        <ele>969.555</ele>
        <time>2021-10-01T08:02:21Z</time>
      </trkpt>
      <trkpt lat="44.69746" lon="3.83451">
        <ele>969.907</ele>
        <time>2021-10-01T08:03:01Z</time>
      </trkpt>
      <trkpt lat="44.69765" lon="3.83465">
        <ele>971.117</ele>
        <time>2021-10-01T08:03:41Z</time>
      </trkpt>
      <trkpt lat="44.69778" lon="3.83463">
        <ele>973.408</ele>
        <time>2021-10-01T08:04:21Z</time>
      </trkpt>
      <trkpt lat="44.69773" lon="3.83439">
        <ele>976.443</ele>
        <time>2021-10-01T08:05:01Z</time>
      </trkpt>
      <trkpt lat="44.69762" lon="3.83395">
        <ele>984.959</ele>
        <time>2021-10-01T08:05:41Z</time>
      </trkpt>
      <trkpt lat="44.69751" lon="3.83351">
        <ele>992.044</ele>
        <time>2021-10-01T08:06:21Z</time>
      </trkpt>
      <trkpt lat="44.69732" lon="3.83282">
        <ele>1000.616</ele>
        <time>2021-10-01T08:07:01Z</time>
      </trkpt>
      <trkpt lat="44.69719" lon="3.83241">
        <ele>1003.744</ele>
        <time>2021-10-01T08:07:41Z</time>
      </trkpt>
      <trkpt lat="44.69706" lon="3.83216">
        <ele>1004.847</ele>
        <time>2021-10-01T08:08:21Z</time>
      </trkpt>
      <trkpt lat="44.69683" lon="3.83178">
        <ele>1007.479</ele>
        <time>2021-10-01T08:09:01Z</time>
      </trkpt>
      <trkpt lat="44.6966" lon="3.8314">
        <ele>1013.399</ele>
        <time>2021-10-01T08:09:41Z</time>
      </trkpt>
      <trkpt lat="44.69644" lon="3.83105">
        <ele>1018.344</ele>
        <time>2021-10-01T08:10:21Z</time>
      </trkpt>
      <trkpt lat="44.69631" lon="3.83075">
        <ele>1021.905</ele>
        <time>2021-10-01T08:11:01Z</time>
      </trkpt>
      <trkpt lat="44.69621" lon="3.83047">
        <ele>1024.815</ele>
        <time>2021-10-01T08:11:41Z</time>
      </trkpt>
      <trkpt lat="44.6961" lon="3.83017">
        <ele>1024.908</ele>
        <time>2021-10-01T08:12:21Z</time>
      </trkpt>
      <trkpt lat="44.69612" lon="3.82966">
        <ele>1030.952</ele>
        <time>2021-10-01T08:13:01Z</time>
      </trkpt>
      <trkpt lat="44.69612" lon="3.82938">
        <ele>1033.448</ele>
        <time>2021-10-01T08:13:41Z</time>
      </trkpt>
      <trkpt lat="44.69607" lon="3.82916">
        <ele>1033.263</ele>
        <time>2021-10-01T08:14:21Z</time>
      </trkpt>
      <trkpt lat="44.696" lon="3.82878">
        <ele>1034.625</ele>
        <time>2021-10-01T08:15:01Z</time>
      </trkpt>
      <trkpt lat="44.69592" lon="3.8282">
        <ele>1039.653</ele>
        <time>2021-10-01T08:15:41Z</time>
      </trkpt>
      <trkpt lat="44.69589" lon="3.8278">
        <ele>1041.946</ele>
        <time>2021-10-01T08:16:21Z</time>
      </trkpt>
      <trkpt lat="44.69584" lon="3.82735">
        <ele>1043.068</ele>
        <time>2021-10-01T08:17:01Z</time>
      </trkpt>
      <trkpt lat="44.69586" lon="3.82685">
        <ele>1044.438</ele>
        <time>2021-10-01T08:17:41Z</time>
      </trkpt>
      <trkpt lat="44.69591" lon="3.82643">
        <ele>1046.259</ele>
        <time>2021-10-01T08:18:21Z</time>
      </trkpt>
      <trkpt lat="44.69587" lon="3.82605">
        <ele>1048.603</ele>
        <time>2021-10-01T08:19:01Z</time>
      </trkpt>
      <trkpt lat="44.69582" lon="3.82573">
        <ele>1050.323</ele>
        <time>2021-10-01T08:19:41Z</time>
      </trkpt>
      <trkpt lat="44.69567" lon="3.82568">
        <ele>1049.708</ele>
        <time>2021-10-01T08:20:21Z</time>
      </trkpt>
      <trkpt lat="44.69536" lon="3.82555">
        <ele>1049.463</ele>
        <time>2021-10-01T08:21:01Z</time>
      </trkpt>
      <trkpt lat="44.69494" lon="3.82533">
        <ele>1050.419</ele>
        <time>2021-10-01T08:21:41Z</time>
      </trkpt>
      <trkpt lat="44.69456" lon="3.82508">
        <ele>1050.214</ele>
        <time>2021-10-01T08:22:21Z</time>
      </trkpt>
      <trkpt lat="44.69422" lon="3.82483">
        <ele>1049.946</ele>
        <time>2021-10-01T08:23:01Z</time>
      </trkpt>
      <trkpt lat="44.69387" lon="3.82456">
        <ele>1048.854</ele>
        <time>2021-10-01T08:23:41Z</time>
      </trkpt>
      <trkpt lat="44.69367" lon="3.82433">
        <ele>1047.937</ele>
        <time>2021-10-01T08:24:21Z</time>
      </trkpt>
      <trkpt lat="44.69346" lon="3.82401">
        <ele>1046.929</ele>
        <time>2021-10-01T08:25:01Z</time>
      </trkpt>
      <trkpt lat="44.69328" lon="3.82372">
        <ele>1046.189</ele>
        <time>2021-10-01T08:25:41Z</time>
      </trkpt>
      <trkpt lat="44.69305" lon="3.82329">
        <ele>1044.984</ele>
        <time>2021-10-01T08:26:21Z</time>
      </trkpt>
      <trkpt lat="44.69278" lon="3.82278">
        <ele>1044.007</ele>
        <time>2021-10-01T08:27:01Z</time>
      </trkpt>
      <trkpt lat="44.69265" lon="3.82264">
        <ele>1044.217</ele>
        <time>2021-10-01T08:27:41Z</time>
      </trkpt>
      <trkpt lat="44.69251" lon="3.82256">
        <ele>1045.008</ele>
        <time>2021-10-01T08:28:21Z</time>
      </trkpt>
      <trkpt lat="44.69229" lon="3.82258">
        <ele>1046.836</ele>
        <time>2021-10-01T08:29:01Z</time>
      </trkpt>
      <trkpt lat="44.69203" lon="3.82255">
        <ele>1049.772</ele>
        <time>2021-10-01T08:29:41Z</time>
      </trkpt>
      <trkpt lat="44.69161" lon="3.8225">
        <ele>1053.047</ele>
        <time>2021-10-01T08:30:21Z</time>
      </trkpt>
      <trkpt lat="44.69103" lon="3.82237">
        <ele>1051.839</ele>
        <time>2021-10-01T08:31:01Z</time>
      </trkpt>
      <trkpt lat="44.69083" lon="3.82244">
        <ele>1050.227</ele>
        <time>2021-10-01T08:31:41Z</time>
      </trkpt>
      <trkpt lat="44.69061" lon="3.82266">
        <ele>1050.25</ele>
        <time>2021-10-01T08:32:21Z</time>
      </trkpt>
      <trkpt lat="44.69041" lon="3.82296">
        <ele>1049.742</ele>
        <time>2021-10-01T08:33:01Z</time>
      </trkpt>
      <trkpt lat="44.68992" lon="3.82372">
        <ele>1052.542</ele>
        <time>2021-10-01T08:33:41Z</time>
      </trkpt>
      <trkpt lat="44.68966" lon="3.82412">
        <ele>1057.148</ele>
        <time>2021-10-01T08:34:21Z</time>
      </trkpt>
      <trkpt lat="44.68934" lon="3.82459">
        <ele>1065.361</ele>
        <time>2021-10-01T08:35:01Z</time>
      </trkpt>
      <trkpt lat="44.689" lon="3.82509">
        <ele>1070.517</ele>
        <time>2021-10-01T08:35:41Z</time>
      </trkpt>
      <trkpt lat="44.68845" lon="3.82552">
        <ele>1068.308</ele>
        <time>2021-10-01T08:36:21Z</time>
      </trkpt>
      <trkpt lat="44.68806" lon="3.82576">
        <ele>1064.862</ele>
        <time>2021-10-01T08:37:01Z</time>
      </trkpt>
      <trkpt lat="44.68772" lon="3.82592">
        <ele>1063.528</ele>
        <time>2021-10-01T08:37:41Z</time>
      </trkpt>
      <trkpt lat="44.68732" lon="3.82611">
        <ele>1062.363</ele>
        <time>2021-10-01T08:38:21Z</time>
      </trkpt>
      <trkpt lat="44.68688" lon="3.82634">
        <ele>1057.655</ele>
        <time>2021-10-01T08:39:01Z</time>
      </trkpt>
      <trkpt lat="44.68667" lon="3.82636">
        <ele>1057.393</ele>
        <time>2021-10-01T08:39:41Z</time>
      </trkpt>
      <trkpt lat="44.68652" lon="3.8264">
        <ele>1056.986</ele>
        <time>2021-10-01T08:40:21Z</time>
      </trkpt>
      <trkpt lat="44.68615" lon="3.82638">
        <ele>1057.118</ele>
        <time>2021-10-01T08:41:01Z</time>
      </trkpt>
      <trkpt lat="44.68577" lon="3.82633">
        <ele>1058.468</ele>
        <time>2021-10-01T08:41:41Z</time>
      </trkpt>
      <trkpt lat="44.6854" lon="3.82626">
        <ele>1058.038</ele>
        <time>2021-10-01T08:42:21Z</time>
      </trkpt>
      <trkpt lat="44.68523" lon="3.82573">
        <ele>1061.47</ele>
        <time>2021-10-01T08:43:01Z</time>
      </trkpt>
      <trkpt lat="44.68521" lon="3.82545">
        <ele>1063.917</ele>
        <time>2021-10-01T08:43:41Z</time>
      </trkpt>
      <trkpt lat="44.68504" lon="3.82523">
        <ele>1067.008</ele>
        <time>2021-10-01T08:44:21Z</time>
      </trkpt>
      <trkpt lat="44.68466" lon="3.82501">
        <ele>1067.261</ele>
        <time>2021-10-01T08:45:01Z</time>
      </trkpt>
      <trkpt lat="44.68446" lon="3.82484">
        <ele>1068.667</ele>
        <time>2021-10-01T08:45:41Z</time>
      </trkpt>
      <trkpt lat="44.68429" lon="3.82455">
        <ele>1075.482</ele>
        <time>2021-10-01T08:46:21Z</time>
      </trkpt>
      <trkpt lat="44.684" lon="3.82414">
        <ele>1082.624</ele>
        <time>2021-10-01T08:47:01Z</time>
      </trkpt>
      <trkpt lat="44.68378" lon="3.82373">
        <ele>1084.892</ele>
        <time>2021-10-01T08:47:41Z</time>
      </trkpt>
      <trkpt lat="44.68363" lon="3.82344">
        <ele>1086.775</ele>
        <time>2021-10-01T08:48:21Z</time>
      </trkpt>
      <trkpt lat="44.68355" lon="3.82311">
        <ele>1091.397</ele>
        <time>2021-10-01T08:49:01Z</time>
      </trkpt>
      <trkpt lat="44.68351" lon="3.82271">
        <ele>1097.387</ele>
        <time>2021-10-01T08:49:41Z</time>
      </trkpt>
      <trkpt lat="44.6835" lon="3.82255">
        <ele>1099.248</ele>
        <time>2021-10-01T08:50:21Z</time>
      </trkpt>
      <trkpt lat="44.68345" lon="3.82249">
        <ele>1099.461</ele>
        <time>2021-10-01T08:51:01Z</time>
      </trkpt>
      <trkpt lat="44.683" lon="3.82212">
        <ele>1107.317</ele>
        <time>2021-10-01T08:51:41Z</time>
      </trkpt>
      <trkpt lat="44.6824" lon="3.82182">
        <ele>1114.908</ele>
        <time>2021-10-01T08:52:21Z</time>
      </trkpt>
      <trkpt lat="44.68219" lon="3.82162">
        <ele>1116.892</ele>
        <time>2021-10-01T08:53:01Z</time>
      </trkpt>
      <trkpt lat="44.68204" lon="3.82141">
        <ele>1119.858</ele>
        <time>2021-10-01T08:53:41Z</time>
      </trkpt>
      <trkpt lat="44.68199" lon="3.82106">
        <ele>1123.553</ele>
        <time>2021-10-01T08:54:21Z</time>
      </trkpt>
      <trkpt lat="44.68196" lon="3.82047">
        <ele>1127.645</ele>
        <time>2021-10-01T08:55:01Z</time>
      </trkpt>
      <trkpt lat="44.68196" lon="3.81986">
        <ele>1130.063</ele>
        <time>2021-10-01T08:55:41Z</time>
      </trkpt>
      <trkpt lat="44.68195" lon="3.81927">
        <ele>1130.156</ele>
        <time>2021-10-01T08:56:21Z</time>
      </trkpt>
      <trkpt lat="44.68205" lon="3.81887">
        <ele>1133.158</ele>
        <time>2021-10-01T08:57:01Z</time>
      </trkpt>
      <trkpt lat="44.6821" lon="3.81862">
        <ele>1136.918</ele>
        <time>2021-10-01T08:57:41Z</time>
      </trkpt>
      <trkpt lat="44.68194" lon="3.81863">
        <ele>1136.664</ele>
        <time>2021-10-01T08:58:21Z</time>
      </trkpt>
      <trkpt lat="44.68153" lon="3.81868">
        <ele>1135.406</ele>
        <time>2021-10-01T08:59:01Z</time>
      </trkpt>
      <trkpt lat="44.68132" lon="3.81863">
        <ele>1135.816</ele>
        <time>2021-10-01T08:59:41Z</time>
      </trkpt>
      <trkpt lat="44.68121" lon="3.8185">
        <ele>1137.508</ele>
        <time>2021-10-01T09:00:21Z</time>
      </trkpt>
      <trkpt lat="44.6811" lon="3.81824">
        <ele>1140.644</ele>
        <time>2021-10-01T09:01:01Z</time>
      </trkpt>
      <trkpt lat="44.68097" lon="3.8179">
        <ele>1141.03</ele>
        <time>2021-10-01T09:01:41Z</time>
      </trkpt>
      <trkpt lat="44.68077" lon="3.81733">
        <ele>1142.865</ele>
        <time>2021-10-01T09:02:21Z</time>
      </trkpt>
      <trkpt lat="44.68063" lon="3.81698">
        <ele>1143.627</ele>
        <time>2021-10-01T09:03:01Z</time>
      </trkpt>
      <trkpt lat="44.68054" lon="3.8167">
        <ele>1142.985</ele>
        <time>2021-10-01T09:03:41Z</time>
      </trkpt>
      <trkpt lat="44.68047" lon="3.81637">
        <ele>1143.448</ele>
        <time>2021-10-01T09:04:21Z</time>
      </trkpt>
      <trkpt lat="44.68033" lon="3.81612">
        <ele>1142.49</ele>
        <time>2021-10-01T09:05:01Z</time>
      </trkpt>
      <trkpt lat="44.68014" lon="3.81592">
        <ele>1142.01</ele>
        <time>2021-10-01T09:05:41Z</time>
      </trkpt>
      <trkpt lat="44.68009" lon="3.81586">
        <ele>1142.055</ele>
        <time>2021-10-01T09:06:21Z</time>
      </trkpt>
      <trkpt lat="44.68017" lon="3.81557">
        <ele>1141.607</ele>
        <time>2021-10-01T09:07:01Z</time>
      </trkpt>
      <trkpt lat="44.68019" lon="3.81533">
        <ele>1140.917</ele>
        <time>2021-10-01T09:07:41Z</time>
      </trkpt>
      <trkpt lat="44.68019" lon="3.81506">
        <ele>1138.408</ele>
        <time>2021-10-01T09:08:21Z</time>
      </trkpt>
      <trkpt lat="44.68016" lon="3.81483">
        <ele>1135.913</ele>
        <time>2021-10-01T09:09:01Z</time>
      </trkpt>
      <trkpt lat="44.68015" lon="3.8146">
        <ele>1134.639</ele>
        <time>2021-10-01T09:09:41Z</time>
      </trkpt>
      <trkpt lat="44.68015" lon="3.81433">
        <ele>1134.024</ele>
        <time>2021-10-01T09:10:21Z</time>
      </trkpt>
      <trkpt lat="44.68016" lon="3.81417">
        <ele>1133.666</ele>
        <time>2021-10-01T09:11:01Z</time>
      </trkpt>
      <trkpt lat="44.68015" lon="3.814">
        <ele>1134.674</ele>
        <time>2021-10-01T09:11:41Z</time>
      </trkpt>
      <trkpt lat="44.68015" lon="3.81369">
        <ele>1135.917</ele>
        <time>2021-10-01T09:12:21Z</time>
      </trkpt>
      <trkpt lat="44.68014" lon="3.81348">
        <ele>1136.619</ele>
        <time>2021-10-01T09:13:01Z</time>
      </trkpt>
      <trkpt lat="44.68005" lon="3.81321">
        <ele>1138.279</ele>
        <time>2021-10-01T09:13:41Z</time>
      </trkpt>
      <trkpt lat="44.6799" lon="3.81268">
        <ele>1140.157</ele>
        <time>2021-10-01T09:14:21Z</time>
      </trkpt>
      <trkpt lat="44.67985" lon="3.81243">
        <ele>1141.4</ele>
        <time>2021-10-01T09:15:01Z</time>
      </trkpt>
      <trkpt lat="44.67983" lon="3.81219">
        <ele>1142.22</ele>
        <time>2021-10-01T09:15:41Z</time>
      </trkpt>
      <trkpt lat="44.67977" lon="3.81193">
        <ele>1142.608</ele>
        <time>2021-10-01T09:16:21Z</time>
      </trkpt>
      <trkpt lat="44.6797" lon="3.81168">
        <ele>1141.363</ele>
        <time>2021-10-01T09:17:01Z</time>
      </trkpt>
      <trkpt lat="44.67964" lon="3.81143">
        <ele>1139.949</ele>
        <time>2021-10-01T09:17:41Z</time>
      </trkpt>
      <trkpt lat="44.67956" lon="3.81123">
        <ele>1139.674</ele>
        <time>2021-10-01T09:18:21Z</time>
      </trkpt>
      <trkpt lat="44.6794" lon="3.81089">
        <ele>1139.476</ele>
        <time>2021-10-01T09:19:01Z</time>
      </trkpt>
      <trkpt lat="44.67934" lon="3.81064">
        <ele>1139.444</ele>
        <time>2021-10-01T09:19:41Z</time>
      </trkpt>
      <trkpt lat="44.67926" lon="3.81043">
        <ele>1139.357</ele>
        <time>2021-10-01T09:20:21Z</time>
      </trkpt>
      <trkpt lat="44.67923" lon="3.81029">
        <ele>1139.059</ele>
        <time>2021-10-01T09:21:01Z</time>
      </trkpt>
      <trkpt lat="44.67925" lon="3.81011">
        <ele>1138.639</ele>
        <time>2021-10-01T09:21:41Z</time>
      </trkpt>
      <trkpt lat="44.67933" lon="3.80998">
        <ele>1138.619</ele>
        <time>2021-10-01T09:22:21Z</time>
      </trkpt>
      <trkpt lat="44.67944" lon="3.80989">
        <ele>1139.009</ele>
        <time>2021-10-01T09:23:01Z</time>
      </trkpt>
      <trkpt lat="44.67956" lon="3.80968">
        <ele>1139.519</ele>
        <time>2021-10-01T09:23:41Z</time>
      </trkpt>
      <trkpt lat="44.67964" lon="3.80951">
        <ele>1140.308</ele>
        <time>2021-10-01T09:24:21Z</time>
      </trkpt>
      <trkpt lat="44.67977" lon="3.80927">
        <ele>1141.159</ele>
        <time>2021-10-01T09:25:01Z</time>
      </trkpt>
      <trkpt lat="44.67962" lon="3.80911">
        <ele>1140.215</ele>
        <time>2021-10-01T09:25:41Z</time>
      </trkpt>
      <trkpt lat="44.67931" lon="3.80878">
        <ele>1139.78</ele>
        <time>2021-10-01T09:26:21Z</time>
      </trkpt>
      <trkpt lat="44.67914" lon="3.80861">
        <ele>1140.162</ele>
        <time>2021-10-01T09:27:01Z</time>
      </trkpt>
      <trkpt lat="44.67892" lon="3.80844">
        <ele>1141.56</ele>
        <time>2021-10-01T09:27:41Z</time>
      </trkpt>
      <trkpt lat="44.67873" lon="3.80828">
        <ele>1142.213</ele>
        <time>2021-10-01T09:28:21Z</time>
      </trkpt>
      <trkpt lat="44.6786" lon="3.80812">
        <ele>1142.825</ele>
        <time>2021-10-01T09:29:01Z</time>
      </trkpt>
      <trkpt lat="44.67848" lon="3.80793">
        <ele>1144.615</ele>
        <time>2021-10-01T09:29:41Z</time>
      </trkpt>
      <trkpt lat="44.67836" lon="3.80769">
        <ele>1147.873</ele>
        <time>2021-10-01T09:30:21Z</time>
      </trkpt>
      <trkpt lat="44.67824" lon="3.80734">
        <ele>1151.185</ele>
        <time>2021-10-01T09:31:01Z</time>
      </trkpt>
      <trkpt lat="44.67817" lon="3.80702">
        <ele>1152.713</ele>
        <time>2021-10-01T09:31:41Z</time>
      </trkpt>
      <trkpt lat="44.67813" lon="3.80673">
        <ele>1153.808</ele>
        <time>2021-10-01T09:32:21Z</time>
      </trkpt>
      <trkpt lat="44.6781" lon="3.80643">
        <ele>1154.785</ele>
        <time>2021-10-01T09:33:01Z</time>
      </trkpt>
      <trkpt lat="44.67808" lon="3.80617">
        <ele>1155.881</ele>
        <time>2021-10-01T09:33:41Z</time>
      </trkpt>
      <trkpt lat="44.67801" lon="3.80595">
        <ele>1156.456</ele>
        <time>2021-10-01T09:34:21Z</time>
      </trkpt>
      <trkpt lat="44.67788" lon="3.8056">
        <ele>1156.448</ele>
        <time>2021-10-01T09:35:01Z</time>
      </trkpt>
      <trkpt lat="44.67774" lon="3.80526">
        <ele>1154.876</ele>
        <time>2021-10-01T09:35:41Z</time>
      </trkpt>
      <trkpt lat="44.67763" lon="3.80503">
        <ele>1154.889</ele>
        <time>2021-10-01T09:36:21Z</time>
      </trkpt>
      <trkpt lat="44.6775" lon="3.8048">
        <ele>1154.711</ele>
        <time>2021-10-01T09:37:01Z</time>
      </trkpt>
      <trkpt lat="44.67733" lon="3.80462">
        <ele>1155.781</ele>
        <time>2021-10-01T09:37:41Z</time>
      </trkpt>
      <trkpt lat="44.67713" lon="3.80451">
        <ele>1156.896</ele>
        <time>2021-10-01T09:38:21Z</time>
      </trkpt>
      <trkpt lat="44.67697" lon="3.80442">
        <ele>1158.131</ele>
        <time>2021-10-01T09:39:01Z</time>
      </trkpt>
      <trkpt lat="44.67669" lon="3.80425">
        <ele>1160.124</ele>
        <time>2021-10-01T09:39:41Z</time>
      </trkpt>
      <trkpt lat="44.67668" lon="3.80405">
        <ele>1161.808</ele>
        <time>2021-10-01T09:40:21Z</time>
      </trkpt>
      <trkpt lat="44.67661" lon="3.80388">
        <ele>1163.217</ele>
        <time>2021-10-01T09:41:01Z</time>
      </trkpt>
      <trkpt lat="44.67645" lon="3.80374">
        <ele>1163.913</ele>
        <time>2021-10-01T09:41:41Z</time>
      </trkpt>
      <trkpt lat="44.67634" lon="3.80358">
        <ele>1164.188</ele>
        <time>2021-10-01T09:42:21Z</time>
      </trkpt>
      <trkpt lat="44.67623" lon="3.80341">
        <ele>1164.74</ele>
        <time>2021-10-01T09:43:01Z</time>
      </trkpt>
      <trkpt lat="44.67602" lon="3.80304">
        <ele>1166.728</ele>
        <time>2021-10-01T09:43:41Z</time>
      </trkpt>
      <trkpt lat="44.67591" lon="3.80276">
        <ele>1168.571</ele>
        <time>2021-10-01T09:44:21Z</time>
      </trkpt>
      <trkpt lat="44.67584" lon="3.80258">
        <ele>1169.023</ele>
        <time>2021-10-01T09:45:01Z</time>
      </trkpt>
      <trkpt lat="44.67575" lon="3.80231">
        <ele>1170.383</ele>
        <time>2021-10-01T09:45:41Z</time>
      </trkpt>
      <trkpt lat="44.6756" lon="3.80202">
        <ele>1172.542</ele>
        <time>2021-10-01T09:46:21Z</time>
      </trkpt>
      <trkpt lat="44.67537" lon="3.80168">
        <ele>1175.622</ele>
        <time>2021-10-01T09:47:01Z</time>
      </trkpt>
      <trkpt lat="44.67524" lon="3.80152">
        <ele>1175.714</ele>
        <time>2021-10-01T09:47:41Z</time>
      </trkpt>
      <trkpt lat="44.67495" lon="3.80119">
        <ele>1175.808</ele>
        <time>2021-10-01T09:48:21Z</time>
      </trkpt>
      <trkpt lat="44.67486" lon="3.80107">
        <ele>1176.562</ele>
        <time>2021-10-01T09:49:01Z</time>
      </trkpt>
      <trkpt lat="44.67476" lon="3.80089">
        <ele>1177.668</ele>
        <time>2021-10-01T09:49:41Z</time>
      </trkpt>
      <trkpt lat="44.67471" lon="3.80068">
        <ele>1178.793</ele>
        <time>2021-10-01T09:50:21Z</time>
      </trkpt>
      <trkpt lat="44.67466" lon="3.80042">
        <ele>1179.035</ele>
        <time>2021-10-01T09:51:01Z</time>
      </trkpt>
      <trkpt lat="44.6743" lon="3.79986">
        <ele>1176.173</ele>
        <time>2021-10-01T09:51:41Z</time>
      </trkpt>
      <trkpt lat="44.67414" lon="3.79958">
        <ele>1174.956</ele>
        <time>2021-10-01T09:52:21Z</time>
      </trkpt>
      <trkpt lat="44.67376" lon="3.79936">
        <ele>1177.058</ele>
        <time>2021-10-01T09:53:01Z</time>
      </trkpt>
      <trkpt lat="44.67311" lon="3.79914">
        <ele>1173.668</ele>
        <time>2021-10-01T09:53:41Z</time>
      </trkpt>
      <trkpt lat="44.67272" lon="3.79894">
        <ele>1172.588</ele>
        <time>2021-10-01T09:54:21Z</time>
      </trkpt>
      <trkpt lat="44.67245" lon="3.79881">
        <ele>1171.424</ele>
        <time>2021-10-01T09:55:01Z</time>
      </trkpt>
      <trkpt lat="44.67205" lon="3.79857">
        <ele>1171.126</ele>
        <time>2021-10-01T09:55:41Z</time>
      </trkpt>
      <trkpt lat="44.67184" lon="3.7985">
        <ele>1171.808</ele>
        <time>2021-10-01T09:56:21Z</time>
      </trkpt>
      <trkpt lat="44.67157" lon="3.7983">
        <ele>1171.066</ele>
        <time>2021-10-01T09:57:01Z</time>
      </trkpt>
      <trkpt lat="44.67124" lon="3.79802">
        <ele>1171.422</ele>
        <time>2021-10-01T09:57:41Z</time>
      </trkpt>
      <trkpt lat="44.67084" lon="3.79772">
        <ele>1170.887</ele>
        <time>2021-10-01T09:58:21Z</time>
      </trkpt>
      <trkpt lat="44.67022" lon="3.79711">
        <ele>1169.189</ele>
        <time>2021-10-01T09:59:01Z</time>
      </trkpt>
      <trkpt lat="44.6699" lon="3.7968">
        <ele>1169.077</ele>
        <time>2021-10-01T09:59:41Z</time>
      </trkpt>
      <trkpt lat="44.66951" lon="3.79631">
        <ele>1169.89</ele>
        <time>2021-10-01T10:00:21Z</time>
      </trkpt>
      <trkpt lat="44.66927" lon="3.79602">
        <ele>1171.332</ele>
        <time>2021-10-01T10:01:01Z</time>
      </trkpt>
      <trkpt lat="44.66895" lon="3.79543">
        <ele>1173.262</ele>
        <time>2021-10-01T10:01:41Z</time>
      </trkpt>
      <trkpt lat="44.66839" lon="3.79451">
        <ele>1176.254</ele>
        <time>2021-10-01T10:02:21Z</time>
      </trkpt>
      <trkpt lat="44.66819" lon="3.79416">
        <ele>1181.156</ele>
        <time>2021-10-01T10:03:01Z</time>
      </trkpt>
      <trkpt lat="44.66805" lon="3.79397">
        <ele>1184.911</ele>
        <time>2021-10-01T10:03:41Z</time>
      </trkpt>
      <trkpt lat="44.66776" lon="3.79371">
        <ele>1189.408</ele>
        <time>2021-10-01T10:04:21Z</time>
      </trkpt>
      <trkpt lat="44.66726" lon="3.7933">
        <ele>1196.953</ele>
        <time>2021-10-01T10:05:01Z</time>
      </trkpt>
      <trkpt lat="44.66713" lon="3.79323">
        <ele>1198.079</ele>
        <time>2021-10-01T10:05:41Z</time>
      </trkpt>
      <trkpt lat="44.66692" lon="3.79301">
        <ele>1200.474</ele>
        <time>2021-10-01T10:06:21Z</time>
      </trkpt>
      <trkpt lat="44.66669" lon="3.79274">
        <ele>1205.026</ele>
        <time>2021-10-01T10:07:01Z</time>
      </trkpt>
      <trkpt lat="44.66645" lon="3.79232">
        <ele>1209.674</ele>
        <time>2021-10-01T10:07:41Z</time>
      </trkpt>
      <trkpt lat="44.66624" lon="3.7921">
        <ele>1210.937</ele>
        <time>2021-10-01T10:08:21Z</time>
      </trkpt>
      <trkpt lat="44.6661" lon="3.79194">
        <ele>1211.939</ele>
        <time>2021-10-01T10:09:01Z</time>
      </trkpt>
      <trkpt lat="44.66596" lon="3.79163">
        <ele>1211.159</ele>
        <time>2021-10-01T10:09:41Z</time>
      </trkpt>
      <trkpt lat="44.66585" lon="3.79129">
        <ele>1211.932</ele>
        <time>2021-10-01T10:10:21Z</time>
      </trkpt>
      <trkpt lat="44.66567" lon="3.79095">
        <ele>1212.492</ele>
        <time>2021-10-01T10:11:01Z</time>
      </trkpt>
      <trkpt lat="44.66529" lon="3.79052">
        <ele>1211.611</ele>
        <time>2021-10-01T10:11:41Z</time>
      </trkpt>
      <trkpt lat="44.66514" lon="3.79021">
        <ele>1212.608</ele>
        <time>2021-10-01T10:12:21Z</time>
      </trkpt>
      <trkpt lat="44.66499" lon="3.78995">
        <ele>1213.141</ele>
        <time>2021-10-01T10:13:01Z</time>
      </trkpt>
      <trkpt lat="44.66486" lon="3.78972">
        <ele>1212.597</ele>
        <time>2021-10-01T10:13:41Z</time>
      </trkpt>
      <trkpt lat="44.66479" lon="3.78953">
        <ele>1212.612</ele>
        <time>2021-10-01T10:14:21Z</time>
      </trkpt>
      <trkpt lat="44.66467" lon="3.78937">
        <ele>1212.884</ele>
        <time>2021-10-01T10:15:01Z</time>
      </trkpt>
      <trkpt lat="44.66454" lon="3.78916">
        <ele>1215.722</ele>
        <time>2021-10-01T10:15:41Z</time>
      </trkpt>
      <trkpt lat="44.6644" lon="3.78903">
        <ele>1217.045</ele>
        <time>2021-10-01T10:16:21Z</time>
      </trkpt>
      <trkpt lat="44.66429" lon="3.7889">
        <ele>1217.947</ele>
        <time>2021-10-01T10:17:01Z</time>
      </trkpt>
      <trkpt lat="44.66418" lon="3.78874">
        <ele>1218.597</ele>
        <time>2021-10-01T10:17:41Z</time>
      </trkpt>
      <trkpt lat="44.66399" lon="3.78857">
        <ele>1218.413</ele>
        <time>2021-10-01T10:18:21Z</time>
      </trkpt>
      <trkpt lat="44.66381" lon="3.78845">
        <ele>1217.743</ele>
        <time>2021-10-01T10:19:01Z</time>
      </trkpt>
      <trkpt lat="44.66345" lon="3.78819">
        <ele>1217.007</ele>
        <time>2021-10-01T10:19:41Z</time>
      </trkpt>
      <trkpt lat="44.66333" lon="3.78789">
        <ele>1217.608</ele>
        <time>2021-10-01T10:20:21Z</time>
      </trkpt>
      <trkpt lat="44.66307" lon="3.78723">
        <ele>1218.049</ele>
        <time>2021-10-01T10:21:01Z</time>
      </trkpt>
      <trkpt lat="44.66289" lon="3.78677">
        <ele>1217.175</ele>
        <time>2021-10-01T10:21:41Z</time>
      </trkpt>
      <trkpt lat="44.66264" lon="3.78631">
        <ele>1217.07</ele>
        <time>2021-10-01T10:22:21Z</time>
      </trkpt>
      <trkpt lat="44.66246" lon="3.78598">
        <ele>1216.372</ele>
        <time>2021-10-01T10:23:01Z</time>
      </trkpt>
      <trkpt lat="44.66228" lon="3.78565">
        <ele>1215.11</ele>
        <time>2021-10-01T10:23:41Z</time>
      </trkpt>
      <trkpt lat="44.66214" lon="3.78536">
        <ele>1214.323</ele>
        <time>2021-10-01T10:24:21Z</time>
      </trkpt>
      <trkpt lat="44.662" lon="3.78512">
        <ele>1214.895</ele>
        <time>2021-10-01T10:25:01Z</time>
      </trkpt>
      <trkpt lat="44.66175" lon="3.78469">
        <ele>1215.115</ele>
        <time>2021-10-01T10:25:41Z</time>
      </trkpt>
      <trkpt lat="44.66151" lon="3.78443">
        <ele>1216.615</ele>
        <time>2021-10-01T10:26:21Z</time>
      </trkpt>
      <trkpt lat="44.66135" lon="3.78427">
        <ele>1218.465</ele>
        <time>2021-10-01T10:27:01Z</time>
      </trkpt>
      <trkpt lat="44.66117" lon="3.78414">
        <ele>1219.911</ele>
        <time>2021-10-01T10:27:41Z</time>
      </trkpt>
      <trkpt lat="44.66095" lon="3.78394">
        <ele>1220.708</ele>
        <time>2021-10-01T10:28:21Z</time>
      </trkpt>
      <trkpt lat="44.66081" lon="3.78362">
        <ele>1220.939</ele>
        <time>2021-10-01T10:29:01Z</time>
      </trkpt>
      <trkpt lat="44.66073" lon="3.78342">
        <ele>1220.695</ele>
        <time>2021-10-01T10:29:41Z</time>
      </trkpt>
      <trkpt lat="44.66068" lon="3.78324">
        <ele>1220.44</ele>
        <time>2021-10-01T10:30:21Z</time>
      </trkpt>
      <trkpt lat="44.66069" lon="3.78299">
        <ele>1220.462</ele>
        <time>2021-10-01T10:31:01Z</time>
      </trkpt>
      <trkpt lat="44.6607" lon="3.78267">
        <ele>1220.64</ele>
        <time>2021-10-01T10:31:41Z</time>
      </trkpt>
      <trkpt lat="44.66062" lon="3.78239">
        <ele>1219.363</ele>
        <time>2021-10-01T10:32:21Z</time>
      </trkpt>
      <trkpt lat="44.66029" lon="3.78151">
        <ele>1217.625</ele>
        <time>2021-10-01T10:33:01Z</time>
      </trkpt>
      <trkpt lat="44.66016" lon="3.78119">
        <ele>1219.485</ele>
        <time>2021-10-01T10:33:41Z</time>
      </trkpt>
      <trkpt lat="44.65994" lon="3.78074">
        <ele>1221.685</ele>
        <time>2021-10-01T10:34:21Z</time>
      </trkpt>
      <trkpt lat="44.65982" lon="3.78059">
        <ele>1222.289</ele>
        <time>2021-10-01T10:35:01Z</time>
      </trkpt>
      <trkpt lat="44.65972" lon="3.78032">
        <ele>1222.017</ele>
        <time>2021-10-01T10:35:41Z</time>
      </trkpt>
      <trkpt lat="44.65966" lon="3.78004">
        <ele>1220.908</ele>
        <time>2021-10-01T10:36:21Z</time>
      </trkpt>
      <trkpt lat="44.65963" lon="3.77982">
        <ele>1220.276</ele>
        <time>2021-10-01T10:37:01Z</time>
      </trkpt>
      <trkpt lat="44.6596" lon="3.77957">
        <ele>1219.732</ele>
        <time>2021-10-01T10:37:41Z</time>
      </trkpt>
      <trkpt lat="44.65949" lon="3.77925">
        <ele>1219.697</ele>
        <time>2021-10-01T10:38:21Z</time>
      </trkpt>
      <trkpt lat="44.65932" lon="3.77934">
        <ele>1221.389</ele>
        <time>2021-10-01T10:39:01Z</time>
      </trkpt>
      <trkpt lat="44.65915" lon="3.77943">
        <ele>1223.267</ele>
        <time>2021-10-01T10:39:41Z</time>
      </trkpt>
      <trkpt lat="44.65898" lon="3.77951">
        <ele>1225.01</ele>
        <time>2021-10-01T10:40:21Z</time>
      </trkpt>
      <trkpt lat="44.65883" lon="3.77961">
        <ele>1226.162</ele>
        <time>2021-10-01T10:41:01Z</time>
      </trkpt>
      <trkpt lat="44.65867" lon="3.7797">
        <ele>1226.722</ele>
        <time>2021-10-01T10:41:41Z</time>
      </trkpt>
      <trkpt lat="44.65851" lon="3.77982">
        <ele>1226.842</ele>
        <time>2021-10-01T10:42:21Z</time>
      </trkpt>
      <trkpt lat="44.65834" lon="3.77993">
        <ele>1226.822</ele>
        <time>2021-10-01T10:43:01Z</time>
      </trkpt>
      <trkpt lat="44.65823" lon="3.78014">
        <ele>1228.014</ele>
        <time>2021-10-01T10:43:41Z</time>
      </trkpt>
      <trkpt lat="44.65809" lon="3.78032">
        <ele>1228.008</ele>
        <time>2021-10-01T10:44:21Z</time>
      </trkpt>
      <trkpt lat="44.65794" lon="3.78049">
        <ele>1227.712</ele>
        <time>2021-10-01T10:45:01Z</time>
      </trkpt>
      <trkpt lat="44.65782" lon="3.78065">
        <ele>1227.228</ele>
        <time>2021-10-01T10:45:41Z</time>
      </trkpt>
      <trkpt lat="44.65772" lon="3.78078">
        <ele>1226.683</ele>
        <time>2021-10-01T10:46:21Z</time>
      </trkpt>
      <trkpt lat="44.65762" lon="3.7809">
        <ele>1226.115</ele>
        <time>2021-10-01T10:47:01Z</time>
      </trkpt>
      <trkpt lat="44.65755" lon="3.781">
        <ele>1226.023</ele>
        <time>2021-10-01T10:47:41Z</time>
      </trkpt>
      <trkpt lat="44.6574" lon="3.78113">
        <ele>1227.346</ele>
        <time>2021-10-01T10:48:21Z</time>
      </trkpt>
      <trkpt lat="44.65729" lon="3.78128">
        <ele>1228.468</ele>
        <time>2021-10-01T10:49:01Z</time>
      </trkpt>
      <trkpt lat="44.65723" lon="3.78136">
        <ele>1229.048</ele>
        <time>2021-10-01T10:49:41Z</time>
      </trkpt>
      <trkpt lat="44.65712" lon="3.78157">
        <ele>1229.944</ele>
        <time>2021-10-01T10:50:21Z</time>
      </trkpt>
      <trkpt lat="44.65706" lon="3.7817">
        <ele>1229.905</ele>
        <time>2021-10-01T10:51:01Z</time>
      </trkpt>
      <trkpt lat="44.657" lon="3.78182">
        <ele>1229.315</ele>
        <time>2021-10-01T10:51:41Z</time>
      </trkpt>
      <trkpt lat="44.65693" lon="3.78194">
        <ele>1229.208</ele>
        <time>2021-10-01T10:52:21Z</time>
      </trkpt>
      <trkpt lat="44.65686" lon="3.78207">
        <ele>1228.932</ele>
        <time>2021-10-01T10:53:01Z</time>
      </trkpt>
      <trkpt lat="44.65677" lon="3.78224">
        <ele>1229.148</ele>
        <time>2021-10-01T10:53:41Z</time>
      </trkpt>
      <trkpt lat="44.65669" lon="3.78242">
        <ele>1230.683</ele>
        <time>2021-10-01T10:54:21Z</time>
      </trkpt>
      <trkpt lat="44.65657" lon="3.78259">
        <ele>1231.565</ele>
        <time>2021-10-01T10:55:01Z</time>
      </trkpt>
      <trkpt lat="44.65646" lon="3.78276">
        <ele>1232.243</ele>
        <time>2021-10-01T10:55:41Z</time>
      </trkpt>
      <trkpt lat="44.6564" lon="3.78293">
        <ele>1232.456</ele>
        <time>2021-10-01T10:56:21Z</time>
      </trkpt>
      <trkpt lat="44.65633" lon="3.7831">
        <ele>1232.158</ele>
        <time>2021-10-01T10:57:01Z</time>
      </trkpt>
      <trkpt lat="44.65622" lon="3.78333">
        <ele>1232.268</ele>
        <time>2021-10-01T10:57:41Z</time>
      </trkpt>
      <trkpt lat="44.65618" lon="3.7835">
        <ele>1232.541</ele>
        <time>2021-10-01T10:58:21Z</time>
      </trkpt>
      <trkpt lat="44.65614" lon="3.78367">
        <ele>1233.081</ele>
        <time>2021-10-01T10:59:01Z</time>
      </trkpt>
      <trkpt lat="44.65607" lon="3.78385">
        <ele>1234.309</ele>
        <time>2021-10-01T10:59:41Z</time>
      </trkpt>
      <trkpt lat="44.65606" lon="3.784">
        <ele>1234.608</ele>
        <time>2021-10-01T11:00:21Z</time>
      </trkpt>
      <trkpt lat="44.65604" lon="3.78414">
        <ele>1234.882</ele>
        <time>2021-10-01T11:01:01Z</time>
      </trkpt>
      <trkpt lat="44.656" lon="3.78434">
        <ele>1235.218</ele>
        <time>2021-10-01T11:01:41Z</time>
      </trkpt>
      <trkpt lat="44.656" lon="3.78458">
        <ele>1235.233</ele>
        <time>2021-10-01T11:02:21Z</time>
      </trkpt>
      <trkpt lat="44.65599" lon="3.78477">
        <ele>1235.585</ele>
        <time>2021-10-01T11:03:01Z</time>
      </trkpt>
      <trkpt lat="44.65598" lon="3.78496">
        <ele>1236.363</ele>
        <time>2021-10-01T11:03:41Z</time>
      </trkpt>
      <trkpt lat="44.65595" lon="3.78512">
        <ele>1236.536</ele>
        <time>2021-10-01T11:04:21Z</time>
      </trkpt>
      <trkpt lat="44.65593" lon="3.78528">
        <ele>1236.368</ele>
        <time>2021-10-01T11:05:01Z</time>
      </trkpt>
      <trkpt lat="44.65591" lon="3.78543">
        <ele>1236.118</ele>
        <time>2021-10-01T11:05:41Z</time>
      </trkpt>
      <trkpt lat="44.65589" lon="3.78558">
        <ele>1235.892</ele>
        <time>2021-10-01T11:06:21Z</time>
      </trkpt>
      <trkpt lat="44.65586" lon="3.78581">
        <ele>1235.873</ele>
        <time>2021-10-01T11:07:01Z</time>
      </trkpt>
      <trkpt lat="44.65584" lon="3.78603">
        <ele>1235.22</ele>
        <time>2021-10-01T11:07:41Z</time>
      </trkpt>
      <trkpt lat="44.65583" lon="3.78623">
        <ele>1235.008</ele>
        <time>2021-10-01T11:08:21Z</time>
      </trkpt>
      <trkpt lat="44.65583" lon="3.78644">
        <ele>1234.997</ele>
        <time>2021-10-01T11:09:01Z</time>
      </trkpt>
      <trkpt lat="44.65581" lon="3.78662">
        <ele>1234.473</ele>
        <time>2021-10-01T11:09:41Z</time>
      </trkpt>
      <trkpt lat="44.65579" lon="3.7868">
        <ele>1233.428</ele>
        <time>2021-10-01T11:10:21Z</time>
      </trkpt>
      <trkpt lat="44.65577" lon="3.78697">
        <ele>1232.56</ele>
        <time>2021-10-01T11:11:01Z</time>
      </trkpt>
      <trkpt lat="44.65574" lon="3.78714">
        <ele>1230.948</ele>
        <time>2021-10-01T11:11:41Z</time>
      </trkpt>
      <trkpt lat="44.65571" lon="3.78731">
        <ele>1229.971</ele>
        <time>2021-10-01T11:12:21Z</time>
      </trkpt>
      <trkpt lat="44.65568" lon="3.78748">
        <ele>1229.263</ele>
        <time>2021-10-01T11:13:01Z</time>
      </trkpt>
      <trkpt lat="44.65566" lon="3.78766">
        <ele>1227.823</ele>
        <time>2021-10-01T11:13:41Z</time>
      </trkpt>
      <trkpt lat="44.65563" lon="3.78783">
        <ele>1226.345</ele>
        <time>2021-10-01T11:14:21Z</time>
      </trkpt>
      <trkpt lat="44.6556" lon="3.78808">
        <ele>1223.947</ele>
        <time>2021-10-01T11:15:01Z</time>
      </trkpt>
      <trkpt lat="44.65554" lon="3.78836">
        <ele>1222.011</ele>
        <time>2021-10-01T11:15:41Z</time>
      </trkpt>
      <trkpt lat="44.65549" lon="3.78864">
        <ele>1219.708</ele>
        <time>2021-10-01T11:16:21Z</time>
      </trkpt>
      <trkpt lat="44.65544" lon="3.7888">
        <ele>1219.372</ele>
        <time>2021-10-01T11:17:01Z</time>
      </trkpt>
      <trkpt lat="44.6554" lon="3.78895">
        <ele>1219.168</ele>
        <time>2021-10-01T11:17:41Z</time>
      </trkpt>
      <trkpt lat="44.6554" lon="3.78925">
        <ele>1218.283</ele>
        <time>2021-10-01T11:18:21Z</time>
      </trkpt>
      <trkpt lat="44.65535" lon="3.78949">
        <ele>1218.965</ele>
        <time>2021-10-01T11:19:01Z</time>
      </trkpt>
      <trkpt lat="44.65533" lon="3.78966">
        <ele>1219.823</ele>
        <time>2021-10-01T11:19:41Z</time>
      </trkpt>
      <trkpt lat="44.65531" lon="3.78984">
        <ele>1220.826</ele>
        <time>2021-10-01T11:20:21Z</time>
      </trkpt>
      <trkpt lat="44.65527" lon="3.79013">
        <ele>1222.288</ele>
        <time>2021-10-01T11:21:01Z</time>
      </trkpt>
      <trkpt lat="44.65526" lon="3.79031">
        <ele>1222.288</ele>
        <time>2021-10-01T11:21:41Z</time>
      </trkpt>
      <trkpt lat="44.65523" lon="3.79047">
        <ele>1221.852</ele>
        <time>2021-10-01T11:22:21Z</time>
      </trkpt>
      <trkpt lat="44.6552" lon="3.79063">
        <ele>1221.753</ele>
        <time>2021-10-01T11:23:01Z</time>
      </trkpt>
      <trkpt lat="44.65519" lon="3.79079">
        <ele>1221.008</ele>
        <time>2021-10-01T11:23:41Z</time>
      </trkpt>
      <trkpt lat="44.65519" lon="3.79095">
        <ele>1220.808</ele>
        <time>2021-10-01T11:24:21Z</time>
      </trkpt>
      <trkpt lat="44.65515" lon="3.79121">
        <ele>1220.793</ele>
        <time>2021-10-01T11:25:01Z</time>
      </trkpt>
      <trkpt lat="44.65513" lon="3.79144">
        <ele>1220.019</ele>
        <time>2021-10-01T11:25:41Z</time>
      </trkpt>
      <trkpt lat="44.6551" lon="3.79167">
        <ele>1219.534</ele>
        <time>2021-10-01T11:26:21Z</time>
      </trkpt>
      <trkpt lat="44.6551" lon="3.79186">
        <ele>1218.486</ele>
        <time>2021-10-01T11:27:01Z</time>
      </trkpt>
      <trkpt lat="44.65509" lon="3.79205">
        <ele>1217.594</ele>
        <time>2021-10-01T11:27:41Z</time>
      </trkpt>
      <trkpt lat="44.65514" lon="3.79227">
        <ele>1215.747</ele>
        <time>2021-10-01T11:28:21Z</time>
      </trkpt>
      <trkpt lat="44.65517" lon="3.79243">
        <ele>1214.659</ele>
        <time>2021-10-01T11:29:01Z</time>
      </trkpt>
      <trkpt lat="44.65519" lon="3.79258">
        <ele>1213.639</ele>
        <time>2021-10-01T11:29:41Z</time>
      </trkpt>
      <trkpt lat="44.65519" lon="3.79276">
        <ele>1212.739</ele>
        <time>2021-10-01T11:30:21Z</time>
      </trkpt>
      <trkpt lat="44.65519" lon="3.79293">
        <ele>1212.201</ele>
        <time>2021-10-01T11:31:01Z</time>
      </trkpt>
      <trkpt lat="44.65514" lon="3.79322">
        <ele>1211.921</ele>
        <time>2021-10-01T11:31:41Z</time>
      </trkpt>
      <trkpt lat="44.65514" lon="3.79344">
        <ele>1211.008</ele>
        <time>2021-10-01T11:32:21Z</time>
      </trkpt>
      <trkpt lat="44.65506" lon="3.79366">
        <ele>1210.251</ele>
        <time>2021-10-01T11:33:01Z</time>
      </trkpt>
      <trkpt lat="44.65502" lon="3.79388">
        <ele>1209.057</ele>
        <time>2021-10-01T11:33:41Z</time>
      </trkpt>
      <trkpt lat="44.655" lon="3.7941">
        <ele>1207.592</ele>
        <time>2021-10-01T11:34:21Z</time>
      </trkpt>
      <trkpt lat="44.65495" lon="3.79436">
        <ele>1205.464</ele>
        <time>2021-10-01T11:35:01Z</time>
      </trkpt>
      <trkpt lat="44.65491" lon="3.79463">
        <ele>1202.452</ele>
        <time>2021-10-01T11:35:41Z</time>
      </trkpt>
      <trkpt lat="44.65488" lon="3.79487">
        <ele>1200.965</ele>
        <time>2021-10-01T11:36:21Z</time>
      </trkpt>
      <trkpt lat="44.65488" lon="3.79512">
        <ele>1200.077</ele>
        <time>2021-10-01T11:37:01Z</time>
      </trkpt>
      <trkpt lat="44.65487" lon="3.79534">
        <ele>1200.447</ele>
        <time>2021-10-01T11:37:41Z</time>
      </trkpt>
      <trkpt lat="44.65491" lon="3.79559">
        <ele>1199.225</ele>
        <time>2021-10-01T11:38:21Z</time>
      </trkpt>
      <trkpt lat="44.65498" lon="3.79572">
        <ele>1197.626</ele>
        <time>2021-10-01T11:39:01Z</time>
      </trkpt>
      <trkpt lat="44.65504" lon="3.79585">
        <ele>1196.208</ele>
        <time>2021-10-01T11:39:41Z</time>
      </trkpt>
      <trkpt lat="44.65514" lon="3.796">
        <ele>1193.808</ele>
        <time>2021-10-01T11:40:21Z</time>
      </trkpt>
      <trkpt lat="44.65525" lon="3.79615">
        <ele>1192.35</ele>
        <time>2021-10-01T11:41:01Z</time>
      </trkpt>
      <trkpt lat="44.65537" lon="3.79636">
        <ele>1191.336</ele>
        <time>2021-10-01T11:41:41Z</time>
      </trkpt>
      <trkpt lat="44.6555" lon="3.79658">
        <ele>1189.791</ele>
        <time>2021-10-01T11:42:21Z</time>
      </trkpt>
      <trkpt lat="44.65558" lon="3.79675">
        <ele>1188.543</ele>
        <time>2021-10-01T11:43:01Z</time>
      </trkpt>
      <trkpt lat="44.65566" lon="3.79693">
        <ele>1187.321</ele>
        <time>2021-10-01T11:43:41Z</time>
      </trkpt>
      <trkpt lat="44.65574" lon="3.7971">
        <ele>1187.184</ele>
        <time>2021-10-01T11:44:21Z</time>
      </trkpt>
      <trkpt lat="44.65584" lon="3.7973">
        <ele>1187.076</ele>
        <time>2021-10-01T11:45:01Z</time>
      </trkpt>
      <trkpt lat="44.65594" lon="3.7975">
        <ele>1186.686</ele>
        <time>2021-10-01T11:45:41Z</time>
      </trkpt>
      <trkpt lat="44.65605" lon="3.7977">
        <ele>1185.576</ele>
        <time>2021-10-01T11:46:21Z</time>
      </trkpt>
      <trkpt lat="44.65615" lon="3.7979">
        <ele>1184.69</ele>
        <time>2021-10-01T11:47:01Z</time>
      </trkpt>
      <trkpt lat="44.65621" lon="3.79805">
        <ele>1184.419</ele>
        <time>2021-10-01T11:47:41Z</time>
      </trkpt>
      <trkpt lat="44.65627" lon="3.79821">
        <ele>1184.608</ele>
        <time>2021-10-01T11:48:21Z</time>
      </trkpt>
      <trkpt lat="44.65639" lon="3.79844">
        <ele>1185.075</ele>
        <time>2021-10-01T11:49:01Z</time>
      </trkpt>
      <trkpt lat="44.65624" lon="3.79841">
        <ele>1184.341</ele>
        <time>2021-10-01T11:49:41Z</time>
      </trkpt>
      <trkpt lat="44.65609" lon="3.79839">
        <ele>1183.856</ele>
        <time>2021-10-01T11:50:21Z</time>
      </trkpt>
      <trkpt lat="44.65594" lon="3.79837">
        <ele>1183.888</ele>
        <time>2021-10-01T11:51:01Z</time>
      </trkpt>
      <trkpt lat="44.65575" lon="3.79832">
        <ele>1183.846</ele>
        <time>2021-10-01T11:51:41Z</time>
      </trkpt>
      <trkpt lat="44.65557" lon="3.79828">
        <ele>1183.459</ele>
        <time>2021-10-01T11:52:21Z</time>
      </trkpt>
      <trkpt lat="44.65538" lon="3.79824">
        <ele>1182.761</ele>
        <time>2021-10-01T11:53:01Z</time>
      </trkpt>
      <trkpt lat="44.65519" lon="3.79819">
        <ele>1182.531</ele>
        <time>2021-10-01T11:53:41Z</time>
      </trkpt>
      <trkpt lat="44.65504" lon="3.79819">
        <ele>1182.656</ele>
        <time>2021-10-01T11:54:21Z</time>
      </trkpt>
      <trkpt lat="44.6549" lon="3.79818">
        <ele>1183.359</ele>
        <time>2021-10-01T11:55:01Z</time>
      </trkpt>
      <trkpt lat="44.65469" lon="3.79821">
        <ele>1184.014</ele>
        <time>2021-10-01T11:55:41Z</time>
      </trkpt>
      <trkpt lat="44.65454" lon="3.79823">
        <ele>1184.508</ele>
        <time>2021-10-01T11:56:21Z</time>
      </trkpt>
      <trkpt lat="44.6544" lon="3.79825">
        <ele>1184.383</ele>
        <time>2021-10-01T11:57:01Z</time>
      </trkpt>
      <trkpt lat="44.6543" lon="3.79832">
        <ele>1182.279</ele>
        <time>2021-10-01T11:57:41Z</time>
      </trkpt>
      <trkpt lat="44.65421" lon="3.7984">
        <ele>1180.244</ele>
        <time>2021-10-01T11:58:21Z</time>
      </trkpt>
      <trkpt lat="44.65408" lon="3.7985">
        <ele>1178.446</ele>
        <time>2021-10-01T11:59:01Z</time>
      </trkpt>
      <trkpt lat="44.65395" lon="3.79861">
        <ele>1177.114</ele>
        <time>2021-10-01T11:59:41Z</time>
      </trkpt>
      <trkpt lat="44.65379" lon="3.79879">
        <ele>1174.467</ele>
        <time>2021-10-01T12:00:21Z</time>
      </trkpt>
      <trkpt lat="44.65368" lon="3.79889">
        <ele>1173.059</ele>
        <time>2021-10-01T12:01:01Z</time>
      </trkpt>
      <trkpt lat="44.65358" lon="3.79899">
        <ele>1171.729</ele>
        <time>2021-10-01T12:01:41Z</time>
      </trkpt>
      <trkpt lat="44.65347" lon="3.79904">
        <ele>1171.083</ele>
        <time>2021-10-01T12:02:21Z</time>
      </trkpt>
      <trkpt lat="44.65336" lon="3.7991">
        <ele>1170.625</ele>
        <time>2021-10-01T12:03:01Z</time>
      </trkpt>
      <trkpt lat="44.6532" lon="3.79916">
        <ele>1170.117</ele>
        <time>2021-10-01T12:03:41Z</time>
      </trkpt>
      <trkpt lat="44.65311" lon="3.79933">
        <ele>1168.208</ele>
        <time>2021-10-01T12:04:21Z</time>
      </trkpt>
      <trkpt lat="44.653" lon="3.79956">
        <ele>1165.786</ele>
        <time>2021-10-01T12:05:01Z</time>
      </trkpt>
      <trkpt lat="44.65297" lon="3.79981">
        <ele>1162.752</ele>
        <time>2021-10-01T12:05:41Z</time>
      </trkpt>
      <trkpt lat="44.65285" lon="3.80001">
        <ele>1161.887</ele>
        <time>2021-10-01T12:06:21Z</time>
      </trkpt>
      <trkpt lat="44.65273" lon="3.80016">
        <ele>1160.379</ele>
        <time>2021-10-01T12:07:01Z</time>
      </trkpt>
      <trkpt lat="44.65266" lon="3.80027">
        <ele>1159.267</ele>
        <time>2021-10-01T12:07:41Z</time>
      </trkpt>
      <trkpt lat="44.65259" lon="3.80039">
        <ele>1157.87</ele>
        <time>2021-10-01T12:08:21Z</time>
      </trkpt>
      <trkpt lat="44.6525" lon="3.80047">
        <ele>1157.382</ele>
        <time>2021-10-01T12:09:01Z</time>
      </trkpt>
      <trkpt lat="44.65241" lon="3.80064">
        <ele>1155.422</ele>
        <time>2021-10-01T12:09:41Z</time>
      </trkpt>
      <trkpt lat="44.65236" lon="3.80075">
        <ele>1154.347</ele>
        <time>2021-10-01T12:10:21Z</time>
      </trkpt>
      <trkpt lat="44.65233" lon="3.80097">
        <ele>1151.029</ele>
        <time>2021-10-01T12:11:01Z</time>
      </trkpt>
      <trkpt lat="44.65234" lon="3.80114">
        <ele>1148.021</ele>
        <time>2021-10-01T12:11:41Z</time>
      </trkpt>
      <trkpt lat="44.65235" lon="3.80132">
        <ele>1146.508</ele>
        <time>2021-10-01T12:12:21Z</time>
      </trkpt>
      <trkpt lat="44.65234" lon="3.80152">
        <ele>1146.592</ele>
        <time>2021-10-01T12:13:01Z</time>
      </trkpt>
      <trkpt lat="44.65233" lon="3.80173">
        <ele>1147.058</ele>
        <time>2021-10-01T12:13:41Z</time>
      </trkpt>
      <trkpt lat="44.65228" lon="3.80188">
        <ele>1147.963</ele>
        <time>2021-10-01T12:14:21Z</time>
      </trkpt>
      <trkpt lat="44.65224" lon="3.80203">
        <ele>1147.885</ele>
        <time>2021-10-01T12:15:01Z</time>
      </trkpt>
      <trkpt lat="44.65216" lon="3.80215">
        <ele>1147.743</ele>
        <time>2021-10-01T12:15:41Z</time>
      </trkpt>
      <trkpt lat="44.65209" lon="3.80226">
        <ele>1147.416</ele>
        <time>2021-10-01T12:16:21Z</time>
      </trkpt>
      <trkpt lat="44.65198" lon="3.80234">
        <ele>1147.768</ele>
        <time>2021-10-01T12:17:01Z</time>
      </trkpt>
      <trkpt lat="44.65188" lon="3.80243">
        <ele>1147.388</ele>
        <time>2021-10-01T12:17:41Z</time>
      </trkpt>
      <trkpt lat="44.65168" lon="3.80252">
        <ele>1146.571</ele>
        <time>2021-10-01T12:18:21Z</time>
      </trkpt>
      <trkpt lat="44.65148" lon="3.80261">
        <ele>1144.541</ele>
        <time>2021-10-01T12:19:01Z</time>
      </trkpt>
      <trkpt lat="44.65135" lon="3.80268">
        <ele>1143.315</ele>
        <time>2021-10-01T12:19:41Z</time>
      </trkpt>
      <trkpt lat="44.65121" lon="3.80275">
        <ele>1141.808</ele>
        <time>2021-10-01T12:20:21Z</time>
      </trkpt>
      <trkpt lat="44.6511" lon="3.80281">
        <ele>1140.045</ele>
        <time>2021-10-01T12:21:01Z</time>
      </trkpt>
      <trkpt lat="44.65099" lon="3.80287">
        <ele>1138.731</ele>
        <time>2021-10-01T12:21:41Z</time>
      </trkpt>
      <trkpt lat="44.65086" lon="3.80293">
        <ele>1137.556</ele>
        <time>2021-10-01T12:22:21Z</time>
      </trkpt>
      <trkpt lat="44.65074" lon="3.80298">
        <ele>1135.688</ele>
        <time>2021-10-01T12:23:01Z</time>
      </trkpt>
      <trkpt lat="44.65059" lon="3.80302">
        <ele>1134.136</ele>
        <time>2021-10-01T12:23:41Z</time>
      </trkpt>
      <trkpt lat="44.65045" lon="3.80306">
        <ele>1133.299</ele>
        <time>2021-10-01T12:24:21Z</time>
      </trkpt>
      <trkpt lat="44.65031" lon="3.8031">
        <ele>1132.611</ele>
        <time>2021-10-01T12:25:01Z</time>
      </trkpt>
      <trkpt lat="44.65017" lon="3.80316">
        <ele>1131.991</ele>
        <time>2021-10-01T12:25:41Z</time>
      </trkpt>
      <trkpt lat="44.65003" lon="3.80323">
        <ele>1131.561</ele>
        <time>2021-10-01T12:26:21Z</time>
      </trkpt>
      <trkpt lat="44.64988" lon="3.80323">
        <ele>1132.421</ele>
        <time>2021-10-01T12:27:01Z</time>
      </trkpt>
      <trkpt lat="44.64971" lon="3.80324">
        <ele>1133.313</ele>
        <time>2021-10-01T12:27:41Z</time>
      </trkpt>
      <trkpt lat="44.64954" lon="3.80324">
        <ele>1131.808</ele>
        <time>2021-10-01T12:28:21Z</time>
      </trkpt>
      <trkpt lat="44.64939" lon="3.80325">
        <ele>1130.344</ele>
        <time>2021-10-01T12:29:01Z</time>
      </trkpt>
      <trkpt lat="44.64925" lon="3.80326">
        <ele>1128.96</ele>
        <time>2021-10-01T12:29:41Z</time>
      </trkpt>
      <trkpt lat="44.64913" lon="3.80327">
        <ele>1127.475</ele>
        <time>2021-10-01T12:30:21Z</time>
      </trkpt>
      <trkpt lat="44.64902" lon="3.80328">
        <ele>1125.797</ele>
        <time>2021-10-01T12:31:01Z</time>
      </trkpt>
      <trkpt lat="44.64888" lon="3.80329">
        <ele>1123.735</ele>
        <time>2021-10-01T12:31:41Z</time>
      </trkpt>
      <trkpt lat="44.64873" lon="3.80329">
        <ele>1121.418</ele>
        <time>2021-10-01T12:32:21Z</time>
      </trkpt>
    </trkseg>
  </trk>
</gpx>